# Wetter Temperatur Luftdruck Luftfeuchtigkeit Sichtweite Windgeschwindigkeit Windrichtung Zeit
1 Clouds 3 1015 93 10000 5.66 230 04:29 17.01.2021
2 Clouds 4 1014 93 10000 2.57 240 02:50 17.01.2021
3 Clouds 5 1013 87 10000 4.63 250 00:54 17.01.2021
4 Clouds 5 1012 81 10000 5.66 260 00:20 17.01.2021
5 Clouds 5 1013 81 10000 5.14 260 23:52 16.01.2021
6 Rain 5 1012 81 10000 5.66 250 23:20 16.01.2021
7 Clouds 6 1011 75 10000 9.77 260 22:49 16.01.2021
8 Clouds 6 1011 81 10000 8.75 260 21:59 16.01.2021
9 Clouds 6 1011 81 10000 8.75 260 21:40 16.01.2021
10 Clouds 6 1011 81 10000 7.72 250 21:20 16.01.2021
11 Clouds 6 1011 87 10000 4.12 240 20:45 16.01.2021
12 Clouds 6 1011 81 10000 5.66 250 20:22 16.01.2021
13 Rain 6 1011 81 10000 7.72 260 19:48 16.01.2021
14 Clouds 6 1011 81 10000 4.63 250 19:29 16.01.2021
15 Rain 6 1011 81 10000 6.69 250 18:44 16.01.2021
16 Clouds 6 1011 76 10000 6.17 250 18:26 16.01.2021
17 Clouds 6 1010 81 10000 5.14 260 17:49 16.01.2021
18 Clouds 7 1010 81 10000 6.69 260 17:30 16.01.2021
19 Clouds 7 1009 81 10000 8.75 260 16:47 16.01.2021
20 Rain 8 1009 81 10000 9.26 250 16:29 16.01.2021
21 Clouds 7 1008 87 7000 7.72 260 15:54 16.01.2021
22 Rain 8 1008 81 6000 10.8 270 15:26 16.01.2021
23 Clouds 8 1007 87 10000 8.75 260 14:25 16.01.2021
24 Clouds 8 1007 93 10000 6.17 260 13:49 16.01.2021
25 Clouds 8 1007 93 10000 6.17 240 13:25 16.01.2021
26 Clouds 9 1006 87 10000 7.72 250 12:46 16.01.2021
27 Clouds 8 1006 93 8000 6.69 240 12:21 16.01.2021
28 Rain 8 1006 93 10000 8.23 230 11:49 16.01.2021
29 Rain 8 1005 93 9000 8.23 220 11:25 16.01.2021
30 Clouds 7 1005 93 2900 8.75 230 10:47 16.01.2021
31 Clouds 7 1005 93 10000 8.23 220 10:24 16.01.2021
32 Clouds 7 1005 93 8000 7.72 220 09:39 16.01.2021
33 Clouds 7 1005 87 10000 8.75 230 09:19 16.01.2021
34 Clouds 6 1005 93 10000 3.6 220 07:50 16.01.2021
35 Rain 4 1006 100 2400 2.57 160 06:44 16.01.2021
36 Rain 3 1009 93 4700 3.6 80 04:40 16.01.2021
37 Rain 3 1013 93 5000 5.66 130 02:56 16.01.2021
38 Rain 3 1016 93 10000 3.6 90 00:51 16.01.2021
39 Rain 3 1017 93 7000 4.63 90 00:29 16.01.2021
40 Rain 3 1018 87 6000 4.63 100 23:58 15.01.2021
41 Rain 3 1019 87 7000 4.63 100 23:22 15.01.2021
42 Rain 3 1020 87 10000 4.63 110 22:25 15.01.2021
43 Rain 3 1021 87 10000 5.14 100 21:46 15.01.2021
44 Rain 3 1021 87 10000 4.12 100 21:21 15.01.2021
45 Clouds 3 1022 87 10000 4.63 90 20:41 15.01.2021
46 Clouds 3 1022 87 10000 3.6 90 20:22 15.01.2021
47 Clouds 3 1023 87 10000 3.09 100 19:41 15.01.2021
48 Clouds 3 1023 87 10000 3.6 100 19:22 15.01.2021
49 Clouds 3 1023 87 10000 4.12 110 18:44 15.01.2021
50 Clouds 3 1024 87 10000 3.09 90 18:19 15.01.2021
51 Clouds 3 1025 87 10000 2.57 120 17:52 15.01.2021
52 Clouds 3 1025 93 10000 2.06 130 17:26 15.01.2021
53 Clouds 3 1025 93 10000 2.57 130 16:54 15.01.2021
54 Clouds 3 1025 93 10000 3.09 120 16:25 15.01.2021
55 Clouds 3 1026 87 10000 3.09 120 15:42 15.01.2021
56 Clouds 3 1026 87 10000 2.06 100 15:22 15.01.2021
57 Clouds 3 1027 87 10000 2.57 110 14:51 15.01.2021
58 Clouds 3 1027 93 10000 3.09 110 14:27 15.01.2021
59 Clouds 3 1028 93 10000 2.06 100 13:44 15.01.2021
60 Clouds 2 1028 100 10000 2.57 90 13:24 15.01.2021
61 Mist 2 1028 100 4000 2.06 70 12:59 15.01.2021
62 Mist 1 1029 100 3700 1.54 70 12:36 15.01.2021
63 Mist 1 1029 100 3700 1.54 70 12:18 15.01.2021
64 Mist 1 1029 100 4200 1.54 60 11:41 15.01.2021
65 Mist 1 1029 100 3800 0.51 0 10:58 15.01.2021
66 Mist 1 1029 100 3800 0.51 0 10:39 15.01.2021
67 Mist 1 1028 100 5000 1.03 0 10:19 15.01.2021
68 Mist 1 1028 100 4500 2.57 90 09:45 15.01.2021
69 Mist 0 1028 100 3700 0.51 0 09:27 15.01.2021
70 Mist 0 1028 100 3500 0.51 0 08:27 15.01.2021
71 Mist 1 1028 100 4300 1.03 70 07:41 15.01.2021
72 Mist 0 1028 100 4000 0.51 10 07:20 15.01.2021
73 Mist 0 1028 100 3000 0.51 240 05:36 15.01.2021
74 Fog 0 1027 100 150 0.51 170 02:19 15.01.2021
75 Mist 1 1027 100 1000 1.03 280 23:55 14.01.2021
76 Mist 1 1026 100 2100 0.51 170 23:29 14.01.2021
77 Mist 1 1026 100 2500 0.51 80 22:50 14.01.2021
78 Mist 1 1026 100 2900 1.03 250 22:26 14.01.2021
79 Mist 1 1026 100 3800 1.03 190 21:50 14.01.2021
80 Mist 1 1025 100 3300 1.03 0 21:21 14.01.2021
81 Mist 1 1025 100 3800 0.51 0 20:53 14.01.2021
82 Mist 1 1025 100 3800 0.51 0 20:33 14.01.2021
83 Mist 1 1025 100 5000 0.51 0 19:49 14.01.2021
84 Clouds 1 1024 100 7000 0.51 250 19:30 14.01.2021
85 Clouds 1 1024 100 8000 2.06 230 18:56 14.01.2021
86 Clouds 1 1024 100 8000 2.06 230 18:32 14.01.2021
87 Clouds 1 1023 100 10000 0.51 350 17:54 14.01.2021
88 Clouds 1 1023 100 7000 1.54 260 17:28 14.01.2021
89 Rain 1 1023 100 8000 0.51 0 16:50 14.01.2021
90 Rain 1 1022 100 8000 1.54 260 16:26 14.01.2021
91 Rain 1 1022 100 7000 2.06 230 15:49 14.01.2021
92 Rain 1 1021 100 10000 1.03 0 15:27 14.01.2021
93 Rain 1 1021 100 10000 1.03 280 14:41 14.01.2021
94 Rain 0 1021 100 8000 2.06 240 14:21 14.01.2021
95 Snow 0 1021 100 6000 1.54 240 13:54 14.01.2021
96 Rain 0 1020 100 7000 1.54 240 13:23 14.01.2021
97 Rain 0 1020 100 7000 0.51 230 12:56 14.01.2021
98 Rain 1 1020 93 9000 1.03 0 12:21 14.01.2021
99 Rain 1 1019 100 9000 1.54 290 11:53 14.01.2021
100 Snow 0 1019 100 5000 1.03 290 11:25 14.01.2021
101 Snow 0 1018 100 5000 1.54 260 10:57 14.01.2021
102 Snow 0 1018 100 5000 1.54 260 10:38 14.01.2021
103 Snow 0 1018 100 3600 1.54 260 10:18 14.01.2021
104 Snow 0 1017 100 6000 2.11 23 09:41 14.01.2021
105 Snow 0 1017 100 6000 1.03 300 09:19 14.01.2021
106 Snow 0 1016 100 1900 1.03 280 08:28 14.01.2021
107 Snow 0 1016 100 1500 1.03 270 07:51 14.01.2021
108 Snow 1 1016 93 3000 0.51 0 07:28 14.01.2021
109 Rain 1 1015 93 7000 2.57 20 06:24 14.01.2021
110 Rain 2 1014 100 3600 5.66 60 02:51 14.01.2021
111 Rain 2 1015 93 2600 4.12 60 23:56 13.01.2021
112 Rain 2 1015 93 2800 4.63 70 23:24 13.01.2021
113 Rain 2 1015 93 3100 4.12 70 22:40 13.01.2021
114 Snow 2 1015 93 3500 4.12 70 22:18 13.01.2021
115 Snow 2 1015 93 4000 3.6 70 21:42 13.01.2021
116 Snow 2 1015 93 3900 3.6 70 21:19 13.01.2021
117 Rain 2 1015 93 5000 2.57 70 20:43 13.01.2021
118 Rain 2 1015 93 4700 3.09 80 20:20 13.01.2021
119 Rain 2 1015 93 5000 4.12 70 19:43 13.01.2021
120 Rain 2 1016 93 4600 4.12 60 19:22 13.01.2021
121 Rain 1 1016 100 5000 3.6 60 18:42 13.01.2021
122 Rain 1 1016 100 4200 3.09 50 18:18 13.01.2021
123 Rain 2 1016 93 6000 3.09 60 17:40 13.01.2021
124 Rain 2 1016 93 4900 4.12 60 17:18 13.01.2021
125 Rain 2 1016 93 6000 2.06 70 16:23 13.01.2021
126 Rain 2 1016 93 10000 2.57 60 15:59 13.01.2021
127 Rain 2 1016 93 10000 2.57 60 15:59 13.01.2021
128 Rain 2 1016 93 10000 2.57 60 15:39 13.01.2021
129 Rain 2 1016 93 10000 2.06 50 14:52 13.01.2021
130 Rain 1 1017 100 4700 2.06 70 14:21 13.01.2021
131 Rain 1 1017 100 3700 1.54 50 13:37 13.01.2021
132 Rain 1 1017 100 3900 2.57 60 13:18 13.01.2021
133 Rain 1 1017 100 3900 2.57 60 13:18 13.01.2021
134 Rain 1 1017 100 4600 1.03 0 12:43 13.01.2021
135 Rain 0 1017 100 4200 1.64 57 12:22 13.01.2021
136 Rain 0 1017 100 5000 1.54 270 11:47 13.01.2021
137 Rain 0 1017 100 4100 0.51 0 11:26 13.01.2021
138 Rain 0 1017 100 5000 0.51 0 10:46 13.01.2021
139 Rain 0 1017 100 5000 0.51 70 10:25 13.01.2021
140 Rain 0 1017 100 6000 0.51 70 09:40 13.01.2021
141 Snow 0 1017 93 10000 0.51 0 08:57 13.01.2021
142 Snow 0 1017 93 10000 0.51 0 08:33 13.01.2021
143 Clouds 0 1017 100 8000 1.54 60 07:56 13.01.2021
144 Rain 0 1017 93 7000 0.51 0 07:27 13.01.2021
145 Clouds -1 1018 100 6000 1.03 190 04:22 13.01.2021
146 Clouds -1 1018 93 6000 0.51 40 03:54 13.01.2021
147 Clouds -1 1018 93 6000 0.51 40 03:33 13.01.2021
148 Mist 0 1018 100 4100 2.06 60 02:53 13.01.2021
149 Mist -2 1019 100 2300 0.51 0 00:38 13.01.2021
150 Clouds -2 1019 100 9000 0.51 0 23:33 12.01.2021
151 Mist -2 1019 100 2500 0.51 0 22:47 12.01.2021
152 Mist -2 1019 100 4600 0.51 240 22:25 12.01.2021
153 Fog -2 1019 100 700 1.03 230 21:54 12.01.2021
154 Clouds -2 1018 100 9000 0.51 0 21:35 12.01.2021
155 Fog -2 1019 100 700 1.03 230 21:35 12.01.2021
156 Clouds -2 1018 100 9000 0.51 220 20:57 12.01.2021
157 Clouds -2 1018 100 9000 0.51 220 20:38 12.01.2021
158 Clouds -2 1018 93 10000 0.51 250 20:20 12.01.2021
159 Clouds -2 1018 100 10000 1.03 0 19:39 12.01.2021
160 Clouds -1 1018 100 10000 1.54 0 18:53 12.01.2021
161 Clouds -1 1018 93 10000 2.06 240 18:25 12.01.2021
162 Clouds 0 1018 86 10000 2.57 230 17:56 12.01.2021
163 Clouds 1 1018 86 10000 2.57 230 17:32 12.01.2021
164 Clear 1 1018 80 10000 2.06 270 17:32 12.01.2021
165 Clear 2 1018 80 10000 1.03 0 16:44 12.01.2021
166 Clear 3 1017 81 10000 1.54 0 16:25 12.01.2021
167 Clear 3 1017 81 10000 2.06 260 15:45 12.01.2021
168 Clear 3 1017 87 10000 2.57 260 15:24 12.01.2021
169 Clear 3 1017 87 10000 2.57 300 14:49 12.01.2021
170 Clear 3 1017 81 10000 3.09 300 14:26 12.01.2021
171 Clear 2 1017 93 10000 2.06 270 13:54 12.01.2021
172 Clear 2 1017 93 10000 2.06 270 13:33 12.01.2021
173 Clear 1 1017 93 10000 2.06 270 12:33 12.01.2021
174 Clouds -2 1016 100 10000 2.06 210 11:42 12.01.2021
175 Clouds -4 1015 93 10000 1.54 240 10:59 12.01.2021
176 Clouds -4 1015 93 10000 3.09 240 10:40 12.01.2021
177 Clouds -4 1015 93 10000 3.09 240 10:19 12.01.2021
178 Clouds -5 1014 93 10000 2.06 230 09:43 12.01.2021
179 Clear -4 1014 100 10000 1.54 0 09:20 12.01.2021
180 Clear -4 1013 93 10000 1.54 230 08:26 12.01.2021
181 Clear -3 1012 100 10000 2.06 250 07:37 12.01.2021
182 Fog -2 1012 93 450 1.54 240 06:59 12.01.2021
183 Fog -2 1011 100 650 1.54 250 05:35 12.01.2021
184 Fog -1 1009 100 400 0.51 0 03:33 12.01.2021
185 Clouds 1 1009 100 10000 1.03 0 02:21 12.01.2021
186 Clouds 3 1008 93 10000 2.06 90 01:31 12.01.2021
187 Drizzle 3 1007 93 3500 3.6 90 00:19 12.01.2021
188 Drizzle 3 1006 93 4000 6.17 80 23:37 11.01.2021
189 Clouds 4 1006 93 10000 5.66 80 23:18 11.01.2021
190 Clouds 4 1006 93 10000 5.66 80 23:18 11.01.2021
191 Clouds 4 1005 93 10000 4.63 70 22:45 11.01.2021
192 Rain 5 1004 93 10000 6.69 50 22:27 11.01.2021
193 Rain 7 1003 93 10000 4.12 250 21:43 11.01.2021
194 Rain 8 1003 87 10000 6.69 250 21:25 11.01.2021
195 Rain 8 1003 93 10000 7.2 250 20:49 11.01.2021
196 Clouds 8 1003 93 10000 7.2 250 20:30 11.01.2021
197 Clouds 8 1003 93 10000 7.2 250 19:58 11.01.2021
198 Clouds 8 1003 93 10000 7.2 250 19:35 11.01.2021
199 Clouds 9 1003 81 10000 8.23 250 18:46 11.01.2021
200 Clouds 9 1003 81 10000 9.26 260 18:28 11.01.2021
201 Clouds 9 1003 87 10000 7.72 250 17:57 11.01.2021
202 Clouds 9 1003 87 10000 7.72 250 17:38 11.01.2021
203 Rain 9 1003 87 10000 8.75 250 17:20 11.01.2021
204 Clouds 9 1003 87 10000 7.72 250 16:41 11.01.2021
205 Clouds 9 1003 87 10000 8.23 250 16:22 11.01.2021
206 Clouds 10 1003 81 10000 8.23 250 15:49 11.01.2021
207 Rain 10 1003 87 10000 8.23 250 15:29 11.01.2021
208 Clouds 10 1003 87 10000 8.23 240 14:40 11.01.2021
209 Clouds 10 1003 87 10000 8.23 250 14:19 11.01.2021
210 Clouds 10 1004 93 6000 8.23 250 13:43 11.01.2021
211 Clouds 10 1004 93 9000 9.26 240 13:19 11.01.2021
212 Clouds 10 1004 93 7000 9.26 240 12:36 11.01.2021
213 Clouds 9 1004 93 6000 11.32 240 11:58 11.01.2021
214 Clouds 9 1004 93 6000 11.32 240 11:36 11.01.2021
215 Clouds 8 1005 93 10000 7.72 220 10:53 11.01.2021
216 Clouds 8 1006 93 4000 9.26 220 10:27 11.01.2021
217 Rain 8 1006 93 5000 9.26 210 09:45 11.01.2021
218 Clouds 8 1006 93 3800 11.32 210 09:23 11.01.2021
219 Rain 8 1007 93 7000 8.75 230 08:46 11.01.2021
220 Haze 8 1007 93 5000 9.77 230 08:19 11.01.2021
221 Clouds 8 1008 87 10000 12.86 250 07:30 11.01.2021
222 Clouds 8 1008 81 10000 12.86 260 06:59 11.01.2021
223 Clouds 8 1009 87 10000 11.83 250 06:26 11.01.2021
224 Rain 7 1012 93 10000 8.75 240 01:46 11.01.2021
225 Rain 7 1013 93 10000 9.77 240 00:38 11.01.2021
226 Clouds 7 1014 93 10000 10.8 240 23:43 10.01.2021
227 Haze 7 1014 93 4600 8.23 250 22:49 10.01.2021
228 Clouds 7 1014 93 9000 7.72 250 22:27 10.01.2021
229 Clouds 7 1015 93 7000 6.17 250 21:46 10.01.2021
230 Drizzle 7 1015 93 4900 6.69 240 21:22 10.01.2021
231 Clouds 7 1015 93 9000 6.69 240 20:57 10.01.2021
232 Clouds 7 1015 93 10000 5.66 240 20:33 10.01.2021
233 Clouds 7 1016 93 10000 6.69 230 20:00 10.01.2021
234 Clouds 7 1016 93 10000 6.69 230 19:38 10.01.2021
235 Clouds 7 1016 93 10000 7.2 230 19:20 10.01.2021
236 Clouds 7 1016 93 10000 6.17 230 18:42 10.01.2021
237 Clouds 7 1017 93 10000 5.66 240 18:19 10.01.2021
238 Clouds 7 1017 93 10000 7.2 240 17:22 10.01.2021
239 Clouds 7 1017 87 10000 6.17 250 16:43 10.01.2021
240 Clouds 7 1017 93 10000 5.14 250 16:25 10.01.2021
241 Clouds 7 1018 100 4500 7.2 230 15:26 10.01.2021
242 Clouds 7 1018 100 4600 7.72 230 14:52 10.01.2021
243 Clouds 7 1018 93 6000 6.69 230 14:34 10.01.2021
244 Clouds 7 1019 100 7000 6.17 230 13:55 10.01.2021
245 Clouds 7 1019 100 7000 6.17 230 13:37 10.01.2021
246 Clouds 7 1019 100 7000 6.17 230 13:37 10.01.2021
247 Clouds 7 1019 100 9000 4.12 220 13:19 10.01.2021
248 Clouds 6 1020 100 7000 0.51 0 12:50 10.01.2021
249 Clouds 6 1020 100 7000 0.51 0 12:32 10.01.2021
250 Mist 5 1020 100 5000 0.51 0 11:44 10.01.2021
251 Clouds 5 1021 93 6000 1.54 300 11:19 10.01.2021
252 Clouds 4 1021 100 10000 2.06 270 10:42 10.01.2021
253 Clouds 3 1021 100 10000 1.54 270 10:21 10.01.2021
254 Clouds 4 1021 93 10000 2.06 250 09:28 10.01.2021
255 Clouds 4 1021 93 10000 3.09 260 08:22 10.01.2021
256 Clouds 4 1021 93 10000 3.09 250 07:33 10.01.2021
257 Clouds 4 1021 93 10000 1.54 260 06:20 10.01.2021
258 Clouds 5 1021 93 10000 3.09 280 05:38 10.01.2021
259 Clouds 4 1021 100 10000 4.63 240 03:55 10.01.2021
260 Clouds 6 1021 93 10000 6.17 230 01:29 10.01.2021
261 Clouds 4 1021 100 10000 3.6 220 23:55 09.01.2021
262 Clouds 4 1021 100 10000 3.6 220 23:36 09.01.2021
263 Clouds 5 1021 100 10000 5.14 220 22:49 09.01.2021
264 Clouds 5 1021 100 10000 5.14 220 22:19 09.01.2021
265 Clouds 5 1021 93 10000 3.6 210 21:57 09.01.2021
266 Clouds 5 1021 93 10000 3.6 210 21:39 09.01.2021
267 Clouds 5 1021 93 10000 5.14 220 21:19 09.01.2021
268 Clouds 5 1021 93 10000 5.66 230 20:44 09.01.2021
269 Clouds 5 1021 93 10000 5.66 230 20:44 09.01.2021
270 Clouds 5 1021 93 10000 5.66 230 19:45 09.01.2021
271 Clouds 5 1021 93 10000 6.69 230 19:23 09.01.2021
272 Clouds 4 1021 93 10000 5.14 220 18:56 09.01.2021
273 Clouds 4 1021 93 10000 5.14 220 18:34 09.01.2021
274 Clouds 4 1021 93 10000 5.14 200 17:50 09.01.2021
275 Clouds 3 1021 100 9000 4.63 220 17:31 09.01.2021
276 Clouds 3 1021 93 10000 5.14 210 16:36 09.01.2021
277 Drizzle 2 1022 100 3800 1.03 0 15:53 09.01.2021
278 Drizzle 2 1022 100 3800 1.03 0 15:33 09.01.2021
279 Mist 2 1022 93 4400 3.09 230 14:42 09.01.2021
280 Snow 1 1022 100 6000 0.51 0 14:21 09.01.2021
281 Snow 1 1023 100 10000 1.54 0 13:50 09.01.2021
282 Snow 1 1023 93 10000 2.06 40 13:31 09.01.2021
283 Snow 0 1023 100 10000 2.57 40 12:55 09.01.2021
284 Clouds -1 1024 93 10000 1.54 50 12:26 09.01.2021
285 Clouds -2 1024 93 10000 1.54 50 11:56 09.01.2021
286 Clouds -3 1024 93 10000 1.54 50 11:33 09.01.2021
287 Clouds -3 1024 93 10000 1.54 50 11:33 09.01.2021
288 Clouds -6 1024 92 10000 0.51 0 10:55 09.01.2021
289 Clouds -9 1024 92 10000 0.51 0 10:36 09.01.2021
290 Clouds -7 1024 92 6000 1.03 60 09:54 09.01.2021
291 Clouds -7 1024 92 10000 1.03 50 09:29 09.01.2021
292 Clouds -7 1024 92 10000 1.03 150 08:47 09.01.2021
293 Clouds -9 1025 92 10000 0.51 120 06:58 09.01.2021
294 Clouds -8 1025 92 10000 0.51 120 06:40 09.01.2021
295 Clouds -9 1025 100 10000 1.03 90 04:50 09.01.2021
296 Haze -9 1025 92 3200 1.03 0 03:22 09.01.2021
297 Fog -9 1025 92 450 0.51 100 02:31 09.01.2021
298 Fog -9 1025 92 200 0.51 120 01:46 09.01.2021
299 Haze -9 1026 92 5000 1.54 130 00:36 09.01.2021
300 Clouds -7 1026 100 10000 1.03 120 23:57 08.01.2021
301 Clouds -7 1026 93 10000 1.03 230 22:58 08.01.2021
302 Clouds -7 1025 93 10000 2.06 180 22:18 08.01.2021
303 Clouds -7 1025 100 10000 1.03 190 21:37 08.01.2021
304 Clear -6 1025 93 10000 1.03 210 20:46 08.01.2021
305 Clear -5 1025 93 10000 1.54 220 20:25 08.01.2021
306 Clear -5 1025 86 10000 1.54 210 19:45 08.01.2021
307 Clear -4 1025 86 10000 1.03 210 19:22 08.01.2021
308 Clear -4 1024 93 10000 1.54 280 18:35 08.01.2021
309 Clear -3 1024 86 10000 2.57 250 17:57 08.01.2021
310 Clear -1 1024 74 10000 2.06 250 17:35 08.01.2021
311 Clear -2 1024 80 10000 2.06 220 16:56 08.01.2021
312 Clear 0 1024 64 10000 1.54 300 16:26 08.01.2021
313 Clear 0 1024 64 10000 1.54 300 16:26 08.01.2021
314 Clear 1 1023 60 10000 1.54 350 15:40 08.01.2021
315 Clear 0 1023 75 10000 1.54 270 14:45 08.01.2021
316 Clear 0 1024 80 10000 2.57 220 14:26 08.01.2021
317 Clouds 0 1024 80 10000 0.51 0 13:23 08.01.2021
318 Clouds -1 1024 80 10000 1.03 260 12:57 08.01.2021
319 Clouds -2 1024 80 10000 1.03 260 12:39 08.01.2021
320 Clouds -3 1024 86 10000 1.54 0 12:19 08.01.2021
321 Clouds -4 1024 86 10000 1.03 0 11:41 08.01.2021
322 Clouds -5 1024 86 10000 2.06 240 11:20 08.01.2021
323 Clouds -6 1024 93 10000 1.54 190 10:46 08.01.2021
324 Clouds -5 1023 93 10000 3.09 290 10:23 08.01.2021
325 Clouds -5 1023 86 10000 0.51 0 09:41 08.01.2021
326 Clouds -5 1023 93 10000 1.03 0 09:20 08.01.2021
327 Clouds -5 1022 86 10000 0.51 0 07:44 08.01.2021
328 Clear -3 1022 80 10000 2.57 360 07:25 08.01.2021
329 Clouds -2 1021 93 7000 1.54 350 04:18 08.01.2021
330 Rain -1 1019 100 6000 1.54 160 23:44 07.01.2021
331 Mist -2 1019 100 3500 1.03 0 23:25 07.01.2021
332 Mist -2 1019 100 3000 2.06 200 22:36 07.01.2021
333 Fog -1 1018 100 500 1.03 180 21:52 07.01.2021
334 Fog -1 1018 100 500 1.03 180 21:33 07.01.2021
335 Fog -1 1018 100 100 1.03 30 20:56 07.01.2021
336 Fog -1 1018 100 100 1.03 30 20:38 07.01.2021
337 Fog -1 1018 100 100 0.51 0 19:50 07.01.2021
338 Fog -1 1018 100 150 1.03 120 19:30 07.01.2021
339 Fog -1 1018 100 150 0.51 140 18:50 07.01.2021
340 Fog 0 1018 100 150 0.51 0 18:21 07.01.2021
341 Fog 0 1017 100 150 1.03 40 17:36 07.01.2021
342 Fog 0 1017 100 100 1.03 0 17:18 07.01.2021
343 Fog 0 1017 100 100 0.51 40 16:42 07.01.2021
344 Fog 1 1017 100 100 0.51 30 16:18 07.01.2021
345 Fog 2 1017 100 400 0.51 220 15:31 07.01.2021
346 Fog 2 1017 100 400 1.03 0 14:39 07.01.2021
347 Fog 1 1017 100 300 1.54 220 14:20 07.01.2021
348 Fog 1 1017 100 250 1.03 220 13:31 07.01.2021
349 Mist 1 1018 92 3200 1 250 12:56 07.01.2021
350 Mist 0 1018 93 3200 1 250 12:24 07.01.2021
351 Drizzle 0 1018 93 3100 1 230 11:43 07.01.2021
352 Drizzle 0 1018 94 3100 1 230 11:25 07.01.2021
353 Mist 0 1017 94 2700 1.5 230 10:38 07.01.2021
354 Mist 0 1017 95 3500 1 240 10:19 07.01.2021
355 Mist 0 1017 95 4700 0.5 280 09:41 07.01.2021
356 Mist 0 1017 95 4700 1.5 0 08:51 07.01.2021
357 Drizzle 0 1017 95 3800 1.5 50 08:23 07.01.2021
358 Snow 0 1017 95 3800 2.6 40 07:43 07.01.2021
359 Snow 0 1017 95 3200 2.1 40 06:50 07.01.2021
360 Rain -2 1019 100 4000 1 80 02:19 07.01.2021
361 Snow -2 1020 92 3500 0.5 50 00:22 07.01.2021
362 Snow -2 1021 92 600 1.5 0 23:31 06.01.2021
363 Fog -4 1021 100 150 0.5 0 22:29 06.01.2021
364 Fog -4 1022 100 150 1.5 90 21:41 06.01.2021
365 Fog -3 1022 100 150 1.5 90 21:22 06.01.2021
366 Fog -3 1022 100 200 1.5 90 20:47 06.01.2021
367 Fog -3 1022 100 500 2.1 110 20:22 06.01.2021
368 Fog -3 1022 100 500 2.1 110 20:22 06.01.2021
369 Fog -3 1022 100 500 1.5 110 19:47 06.01.2021
370 Fog -3 1022 100 500 1.5 110 19:27 06.01.2021
371 Clouds -2 1022 92 700 2.6 120 18:46 06.01.2021
372 Mist -2 1022 92 5000 1 120 18:28 06.01.2021
373 Clear -1 1023 96 10000 0.5 0 17:46 06.01.2021
374 Clear -1 1023 96 10000 0.5 0 17:27 06.01.2021
375 Clear 0 1023 86 10000 1 20 16:57 06.01.2021
376 Clear 0 1023 86 10000 1 30 16:21 06.01.2021
377 Clear 0 1023 86 10000 1 70 15:59 06.01.2021
378 Clear 0 1023 86 10000 0.5 0 15:35 06.01.2021
379 Clear 0 1024 86 10000 0.5 0 14:58 06.01.2021
380 Clear -1 1024 92 10000 0.5 150 14:30 06.01.2021
381 Clear -1 1025 92 10000 1 0 13:51 06.01.2021
382 Clear -1 1025 92 10000 1 0 13:25 06.01.2021
383 Clouds -2 1025 100 10000 1 0 12:54 06.01.2021
384 Clear -2 1026 100 8000 0.5 60 12:30 06.01.2021
385 Fog -4 1026 100 300 0.66 237 11:44 06.01.2021
386 Fog -4 1026 100 300 0.58 255 11:21 06.01.2021
387 Drizzle -6 1026 92 350 1 210 10:31 06.01.2021
388 Fog -6 1027 92 1500 1 0 09:52 06.01.2021
389 Fog -6 1027 92 1500 1 0 09:22 06.01.2021
390 Fog -4 1027 100 5000 1.5 80 08:42 06.01.2021
391 Fog -4 1027 100 5000 0.5 60 08:18 06.01.2021
392 Fog -4 1027 100 5000 1.5 120 07:41 06.01.2021
393 Fog -4 1027 100 150 0.5 60 05:53 06.01.2021
394 Clear -3 1028 100 10000 1.5 110 04:43 06.01.2021
395 Clouds -2 1029 92 10000 2.1 220 02:47 06.01.2021
396 Clouds -2 1029 92 10000 2.1 220 02:26 06.01.2021
397 Clear -2 1029 92 10000 1.5 260 01:35 06.01.2021
398 Clouds -2 1030 92 10000 1.5 230 23:39 05.01.2021
399 Clouds -1 1030 92 10000 1 0 22:51 05.01.2021
400 Clouds 0 1030 86 10000 1.5 250 22:32 05.01.2021
401 Clouds 0 1030 86 10000 1 0 21:58 05.01.2021
402 Clouds 1 1030 86 10000 1.5 250 21:18 05.01.2021
403 Clouds 2 1030 74 10000 2.1 350 20:29 05.01.2021
404 Clouds 2 1030 80 10000 3.1 10 19:45 05.01.2021
405 Clouds 2 1030 80 10000 3.1 10 19:24 05.01.2021
406 Clouds 2 1030 80 10000 3.6 40 18:47 05.01.2021
407 Clouds 2 1030 80 10000 3.6 40 18:28 05.01.2021
408 Clouds 3 1030 74 10000 3.6 20 17:53 05.01.2021
409 Clouds 3 1030 74 10000 4.1 30 17:31 05.01.2021
410 Clouds 3 1030 95 10000 3.6 30 16:54 05.01.2021
411 Clouds 3 1030 95 10000 3.6 30 16:54 05.01.2021
412 Clouds 4 1030 91 10000 3.1 20 16:23 05.01.2021
413 Clouds 3 1030 74 10000 2.6 40 15:58 05.01.2021
414 Clouds 3 1030 91 10000 2.6 30 15:34 05.01.2021
415 Clouds 4 1031 88 10000 2.1 30 14:47 05.01.2021
416 Clouds 4 1031 87 10000 3.6 20 13:55 05.01.2021
417 Clouds 4 1031 87 10000 3.6 20 13:36 05.01.2021
418 Clouds 3 1031 69 10000 2.6 360 12:52 05.01.2021
419 Clouds 2 1031 80 10000 1 0 12:29 05.01.2021
420 Clouds 1 1031 86 10000 1 0 11:53 05.01.2021
421 Clouds 1 1031 80 10000 1.5 0 11:29 05.01.2021
422 Clouds 1 1031 80 10000 1.5 0 11:28 05.01.2021
423 Clouds 0 1031 95 10000 1.5 0 10:44 05.01.2021
424 Snow 1 1031 74 10000 1 0 10:18 05.01.2021
425 Snow 1 1031 74 10000 2.1 320 09:41 05.01.2021
426 Clouds 2 1030 80 10000 3.1 350 08:45 05.01.2021
427 Clouds 2 1030 74 10000 2.6 10 08:19 05.01.2021
428 Clouds 0 1030 96 10000 1.5 0 05:32 05.01.2021
429 Clouds 1 1031 74 10000 3.1 20 02:58 05.01.2021
430 Clouds 1 1031 74 10000 1.5 0 00:23 05.01.2021
431 Clouds 2 1031 74 10000 2.6 30 23:41 04.01.2021
432 Clear 1 1031 74 10000 2.1 30 23:21 04.01.2021
433 Clear 1 1031 74 10000 2.6 40 22:45 04.01.2021
434 Clouds 1 1031 80 10000 1 0 21:58 04.01.2021
435 Clouds 2 1031 80 10000 2.1 130 21:39 04.01.2021
436 Clear 1 1031 74 10000 2.6 50 20:58 04.01.2021
437 Clear 1 1031 69 10000 3.6 60 20:34 04.01.2021
438 Clear 2 1031 80 10000 1 0 19:59 04.01.2021
439 Clear 2 1031 80 10000 1 0 19:40 04.01.2021
440 Clear 2 1031 74 10000 3.1 20 19:19 04.01.2021
441 Clear 2 1031 74 10000 3.1 20 18:40 04.01.2021
442 Clear 3 1031 74 10000 2.6 60 17:48 04.01.2021
443 Clear 2 1031 74 10000 2.6 60 17:28 04.01.2021
444 Clear 3 1031 95 10000 2.6 50 16:57 04.01.2021
445 Clear 3 1031 95 10000 4.1 40 16:38 04.01.2021
446 Clear 3 1031 89 10000 3.6 70 16:20 04.01.2021
447 Clear 3 1031 89 10000 3.6 70 15:41 04.01.2021
448 Clouds 3 1031 85 10000 3.1 60 14:54 04.01.2021
449 Clouds 2 1032 84 10000 4.1 50 13:56 04.01.2021
450 Clouds 2 1032 84 10000 4.1 50 13:35 04.01.2021
451 Clouds 1 1032 86 10000 1 0 12:51 04.01.2021
452 Clouds 1 1032 90 10000 1 0 12:25 04.01.2021
453 Clouds 0 1032 92 10000 2.1 240 11:39 04.01.2021
454 Clouds -1 1032 100 8000 1.5 0 10:56 04.01.2021
455 Clouds -1 1032 100 8000 1.5 0 10:38 04.01.2021
456 Clouds -1 1032 92 7000 0.5 0 10:19 04.01.2021
457 Clouds 0 1032 92 10000 0.5 0 09:24 04.01.2021
458 Clouds 0 1031 92 10000 2.1 60 08:50 04.01.2021
459 Clouds 0 1031 94 10000 2.1 60 08:21 04.01.2021
460 Clouds 0 1031 92 10000 1 0 07:45 04.01.2021
461 Rain 0 1031 100 10000 0.5 0 05:35 04.01.2021
462 Rain -1 1031 100 10000 1 0 04:44 04.01.2021
463 Snow -1 1030 100 6000 0.5 0 01:30 04.01.2021
464 Clouds 0 1030 100 10000 1 0 23:55 03.01.2021
465 Mist -1 1030 92 3500 2.6 230 23:26 03.01.2021
466 Clouds -1 1030 92 6000 1.5 310 22:57 03.01.2021
467 Rain 0 1030 100 3400 1 0 22:38 03.01.2021
468 Clouds 0 1029 100 7000 2.6 200 22:18 03.01.2021
469 Drizzle 0 1029 100 9000 2.1 240 21:34 03.01.2021
470 Clouds 0 1029 92 10000 0.5 0 20:53 03.01.2021
471 Clouds 1 1029 93 10000 2.06 35 20:34 03.01.2021
472 Clouds 1 1029 93 10000 2.1 100 19:58 03.01.2021
473 Clouds 1 1028 100 10000 2.1 140 19:37 03.01.2021
474 Rain 1 1028 93 10000 3.6 40 19:18 03.01.2021
475 Snow 1 1028 93 8000 3.1 50 18:41 03.01.2021
476 Clouds 1 1028 93 10000 1.5 0 18:20 03.01.2021
477 Rain 2 1027 86 10000 3.1 80 17:48 03.01.2021
478 Clouds 2 1027 86 10000 3.1 80 17:23 03.01.2021
479 Clouds 1 1027 97 10000 1 0 16:44 03.01.2021
480 Snow 1 1027 92 10000 1 110 16:20 03.01.2021
481 Snow 1 1026 86 10000 0.5 200 15:46 03.01.2021
482 Rain 1 1026 86 10000 0.5 200 15:27 03.01.2021
483 Clouds 1 1026 86 10000 1 0 14:55 03.01.2021
484 Clouds 1 1026 86 10000 0.5 0 14:29 03.01.2021
485 Snow 0 1026 92 10000 2.1 210 13:41 03.01.2021
486 Clouds -1 1026 92 10000 2.1 210 13:23 03.01.2021
487 Clouds -2 1026 92 10000 1.5 0 12:32 03.01.2021
488 Clouds -4 1026 92 10000 2.1 170 11:42 03.01.2021
489 Clouds -4 1025 92 10000 3.1 280 11:24 03.01.2021
490 Clouds -6 1025 92 10000 1 0 10:34 03.01.2021
491 Clouds -6 1025 92 10000 1 0 09:59 03.01.2021
492 Clouds -6 1025 92 10000 1.5 260 09:34 03.01.2021
493 Clouds -7 1025 92 10000 0.5 0 08:59 03.01.2021
494 Clouds -8 1025 92 10000 1 0 07:38 03.01.2021
495 Clear -6 1025 100 10000 1 120 05:58 03.01.2021
496 Clear -5 1024 92 10000 2.6 210 02:27 03.01.2021
497 Clear -2 1024 86 10000 1.5 0 01:44 03.01.2021
498 Clear -1 1024 86 10000 1.5 0 01:44 03.01.2021
499 Clear -2 1024 86 10000 2.1 270 00:18 03.01.2021
500 Clear 0 1024 74 10000 2.1 270 23:27 02.01.2021
501 Clear 0 1024 74 10000 2.1 270 23:27 02.01.2021
502 Clear 0 1023 74 10000 2.6 280 22:51 02.01.2021
503 Clear -2 1023 86 10000 2.6 250 22:32 02.01.2021
504 Clear -3 1023 86 10000 1.5 0 21:49 02.01.2021
505 Clear -1 1023 86 10000 1.5 0 21:30 02.01.2021
506 Clear -2 1022 79 10000 0.5 0 20:49 02.01.2021
507 Clear -2 1022 79 10000 0.5 0 20:28 02.01.2021
508 Clear 0 1022 95 10000 2.1 30 19:50 02.01.2021
509 Clear 0 1022 95 10000 1 0 19:20 02.01.2021
510 Clear 0 1022 74 10000 1.5 0 18:53 02.01.2021
511 Clear 1 1022 74 10000 1.5 0 18:33 02.01.2021
512 Clear 2 1021 64 10000 1.5 0 17:56 02.01.2021
513 Clear 1 1021 64 10000 1.5 0 17:37 02.01.2021
514 Clear 2 1020 69 10000 3.6 260 16:48 02.01.2021
515 Clear 2 1020 69 10000 3.6 260 16:22 02.01.2021
516 Clear 2 1020 74 10000 2.6 240 15:50 02.01.2021
517 Clear 4 1020 64 10000 1.5 0 15:28 02.01.2021
518 Clear 2 1020 88 10000 1.5 0 14:47 02.01.2021
519 Clear 1 1020 86 10000 1 220 14:26 02.01.2021
520 Clear 0 1020 86 10000 1 0 13:44 02.01.2021
521 Clouds -1 1020 92 10000 1 0 12:59 02.01.2021
522 Clouds -2 1020 92 10000 0.5 0 12:40 02.01.2021
523 Clouds -2 1019 92 10000 0.5 0 12:19 02.01.2021
524 Clouds -3 1019 92 10000 0.5 0 11:38 02.01.2021
525 Clouds -3 1019 92 10000 1 0 11:20 02.01.2021
526 Clouds -3 1019 92 10000 1.5 0 10:40 02.01.2021
527 Clouds -3 1018 92 10000 2.1 70 10:21 02.01.2021
528 Clouds -2 1018 92 10000 1.5 0 09:39 02.01.2021
529 Clouds -2 1018 86 10000 2.1 0 09:19 02.01.2021
530 Clouds -2 1017 92 10000 2.1 230 08:46 02.01.2021
531 Clouds -2 1017 92 10000 1 0 08:19 02.01.2021
532 Clouds -2 1017 92 10000 1.5 0 07:24 02.01.2021
533 Clouds 0 1017 95 10000 1 0 06:57 02.01.2021
534 Clouds -2 1017 92 10000 3.1 220 05:55 02.01.2021
535 Clouds -2 1017 92 10000 2.6 240 01:58 02.01.2021
536 Clouds -2 1017 92 10000 2.1 250 00:38 02.01.2021
537 Clouds -2 1017 86 10000 2.6 250 23:58 01.01.2021
538 Clear -2 1017 92 10000 2.1 240 23:24 01.01.2021
539 Clear -3 1018 86 10000 3.1 210 22:52 01.01.2021
540 Clear -3 1018 92 10000 1.5 260 22:27 01.01.2021
541 Clear -3 1018 86 10000 2.6 230 22:00 01.01.2021
542 Clear -2 1017 92 10000 3.6 250 21:41 01.01.2021
543 Clear -1 1017 92 10000 2.1 260 21:19 01.01.2021
544 Clear -1 1017 96 10000 2.1 240 20:48 01.01.2021
545 Clear 0 1017 92 10000 2.6 250 20:18 01.01.2021
546 Clear -1 1017 92 10000 2.1 230 19:42 01.01.2021
547 Clear -1 1017 92 10000 2.6 250 19:22 01.01.2021
548 Clear -1 1017 92 10000 2.1 250 18:45 01.01.2021
549 Clear -1 1017 92 10000 2.1 250 18:23 01.01.2021
550 Clear 1 1016 80 10000 1.5 290 17:47 01.01.2021
551 Clear 1 1016 80 10000 1.5 290 17:23 01.01.2021
552 Clear 4 1016 69 10000 3.1 300 16:50 01.01.2021
553 Clear 4 1016 69 10000 3.1 300 16:25 01.01.2021
554 Clear 5 1016 88 10000 2.6 270 15:41 01.01.2021
555 Clear 5 1016 75 10000 2.6 280 14:48 01.01.2021
556 Clear 5 1016 75 10000 2.6 280 14:27 01.01.2021
557 Clear 3 1016 86 10000 2.6 240 13:40 01.01.2021
558 Clear 2 1016 83 10000 1.5 0 12:57 01.01.2021
559 Clouds 2 1016 80 10000 2.1 260 12:36 01.01.2021
560 Clouds 0 1016 87 10000 2.1 210 11:43 01.01.2021
561 Clear 0 1016 93 10000 2.1 210 11:22 01.01.2021
562 Clear -1 1016 92 10000 2.1 230 10:56 01.01.2021
563 Clear -1 1015 92 10000 2.1 330 10:30 01.01.2021
564 Clear -1 1015 92 10000 1.5 0 09:39 01.01.2021
565 Clear -2 1015 92 10000 3.1 220 08:49 01.01.2021
566 Clouds -2 1014 92 10000 1.5 0 08:25 01.01.2021
567 Clear 1 1014 69 10000 3.1 340 04:51 01.01.2021
568 Clear 1 1013 86 10000 1.5 0 01:58 01.01.2021
569 Clouds 2 1012 95 10000 2.6 10 00:35 01.01.2021
570 Clouds 4 1012 93 10000 2.1 10 23:43 31.12.2020
571 Clouds 4 1011 75 10000 3.1 320 23:21 31.12.2020
572 Clouds 4 1011 75 10000 3.1 320 22:55 31.12.2020
573 Clouds 4 1011 75 10000 3.1 240 22:36 31.12.2020
574 Clouds 4 1011 75 10000 3.1 240 22:36 31.12.2020
575 Clouds 4 1011 75 10000 3.6 300 22:18 31.12.2020
576 Clouds 4 1011 75 10000 1.5 0 21:43 31.12.2020
577 Clouds 5 1010 75 10000 3.1 270 21:20 31.12.2020
578 Clouds 3 1010 86 10000 2.1 250 20:31 31.12.2020
579 Clouds 5 1009 75 10000 0.5 0 19:52 31.12.2020
580 Clouds 5 1009 75 10000 3.1 330 19:34 31.12.2020
581 Clouds 5 1009 75 10000 3.1 330 18:58 31.12.2020
582 Clouds 4 1008 86 10000 2.1 310 18:26 31.12.2020
583 Clouds 4 1008 86 10000 2.6 310 17:59 31.12.2020
584 Clouds 4 1008 93 10000 2.1 290 17:40 31.12.2020
585 Clouds 3 1007 93 10000 2.6 250 17:21 31.12.2020
586 Rain 3 1007 86 10000 2.1 280 16:39 31.12.2020
587 Clouds 4 1006 86 10000 1 0 16:20 31.12.2020
588 Clouds 4 1006 86 10000 2.1 340 15:43 31.12.2020
589 Rain 4 1006 86 10000 3.1 340 15:20 31.12.2020
590 Clouds 3 1006 93 10000 2.6 280 14:43 31.12.2020
591 Clouds 2 1006 93 10000 2.6 280 14:24 31.12.2020
592 Rain 2 1005 86 10000 2.1 260 13:59 31.12.2020
593 Rain 2 1005 86 10000 2.1 290 13:37 31.12.2020
594 Rain 1 1005 93 10000 1.5 0 13:19 31.12.2020
595 Rain 1 1005 93 9000 2.6 230 12:49 31.12.2020
596 Rain 1 1005 96 9000 2.6 230 12:31 31.12.2020
597 Snow 0 1005 96 4300 1.5 260 11:47 31.12.2020
598 Rain 0 1005 92 4300 1.5 260 11:29 31.12.2020
599 Rain -1 1005 92 5000 2.1 270 10:45 31.12.2020
600 Rain -1 1005 94 5000 2.1 270 10:27 31.12.2020
601 Rain -2 1004 92 10000 2.6 220 09:49 31.12.2020
602 Clouds -2 1004 100 10000 1 0 09:24 31.12.2020
603 Snow -3 1004 100 10000 2.1 230 08:49 31.12.2020
604 Snow -3 1004 100 10000 2.1 230 08:31 31.12.2020
605 Clouds -3 1003 100 10000 1 0 07:56 31.12.2020
606 Clouds -3 1003 92 10000 1.5 0 07:25 31.12.2020
607 Clouds -3 1003 100 10000 1.5 240 05:30 31.12.2020
608 Clouds -1 1002 92 10000 2.1 240 03:37 31.12.2020
609 Clouds 1 1002 86 10000 1 0 02:37 31.12.2020
610 Clouds 1 1002 86 10000 2.6 250 01:58 31.12.2020
611 Clouds 0 1002 96 10000 4.1 220 01:39 31.12.2020
612 Clouds 1 1002 96 10000 2.1 230 00:59 31.12.2020
613 Clouds 1 1002 80 10000 2.1 200 00:39 31.12.2020
614 Clouds 2 1002 80 10000 4.1 200 23:39 30.12.2020
615 Clouds 2 1001 86 10000 3.1 150 23:18 30.12.2020
616 Clouds 2 1002 80 10000 3.6 230 22:36 30.12.2020
617 Clouds 2 1001 80 10000 6.2 260 21:54 30.12.2020
618 Clouds 2 1001 80 10000 6.2 260 21:28 30.12.2020
619 Clouds 2 1001 80 10000 6.2 260 21:28 30.12.2020
620 Clouds 2 1002 80 10000 4.6 250 20:54 30.12.2020
621 Clouds 2 1002 80 10000 2.1 210 20:29 30.12.2020
622 Clouds 2 1001 80 10000 3.6 230 20:00 30.12.2020
623 Clouds 2 1001 86 10000 2.6 280 19:37 30.12.2020
624 Clouds 1 1001 80 10000 3.6 260 19:18 30.12.2020
625 Clouds 1 1001 80 10000 5.7 270 18:40 30.12.2020
626 Clouds 2 1001 80 10000 5.7 270 18:22 30.12.2020
627 Clouds 1 1001 80 10000 2.1 200 17:48 30.12.2020
628 Clouds 1 1001 80 10000 3.6 240 17:29 30.12.2020
629 Clouds 2 1001 80 10000 3.6 240 16:45 30.12.2020
630 Clouds 3 1001 74 10000 3.1 270 16:20 30.12.2020
631 Clouds 3 1001 74 10000 2.6 270 15:42 30.12.2020
632 Clear 3 1001 74 10000 2.1 290 15:24 30.12.2020
633 Clear 2 1001 74 10000 1.5 240 14:42 30.12.2020
634 Clear 2 1001 80 10000 0.5 220 14:19 30.12.2020
635 Clear 1 1002 86 10000 2.6 230 13:19 30.12.2020
636 Clear -1 1002 86 10000 2.6 230 12:27 30.12.2020
637 Clear -4 1001 92 10000 1 270 11:48 30.12.2020
638 Clear -4 1001 100 10000 1 0 11:22 30.12.2020
639 Clear -4 1001 100 10000 1 0 10:58 30.12.2020
640 Clear -4 1001 100 10000 1 0 10:58 30.12.2020
641 Clear -4 1001 92 10000 0.5 40 10:38 30.12.2020
642 Clouds -3 1001 92 10000 1 0 10:18 30.12.2020
643 Clouds -3 1001 92 10000 1 0 09:42 30.12.2020
644 Clouds -3 1000 100 10000 2.6 250 08:49 30.12.2020
645 Clouds -3 1000 92 10000 1 0 07:51 30.12.2020
646 Clouds -3 1000 92 10000 1 0 07:24 30.12.2020
647 Clouds -2 1000 92 10000 1.5 210 06:40 30.12.2020
648 Clouds -2 1000 92 10000 2.1 230 05:48 30.12.2020
649 Clouds -2 1000 92 10000 1.5 160 05:29 30.12.2020
650 Clouds 0 999 86 10000 2.6 230 03:41 30.12.2020
651 Clouds 0 999 86 10000 2.6 230 03:23 30.12.2020
652 Clouds 0 999 92 10000 2.6 230 02:32 30.12.2020
653 Clouds 0 999 96 10000 2.1 260 01:46 30.12.2020
654 Clouds 1 999 95 10000 2.1 260 01:28 30.12.2020
655 Clouds 1 999 86 10000 3.1 260 00:41 30.12.2020
656 Clouds 1 999 86 10000 3.1 260 00:22 30.12.2020
657 Clouds 1 999 86 10000 2.1 210 23:43 29.12.2020
658 Clouds 1 999 86 10000 2.1 210 23:24 29.12.2020
659 Clouds 2 999 86 10000 3.6 290 22:49 29.12.2020
660 Clouds 3 999 86 10000 3.6 290 22:31 29.12.2020
661 Clouds 2 999 93 10000 2.6 280 21:56 29.12.2020
662 Clouds 2 998 92 10000 3.6 240 21:36 29.12.2020
663 Clouds 2 998 91 10000 2.6 260 20:57 29.12.2020
664 Clouds 2 998 86 10000 3.1 240 20:39 29.12.2020
665 Clouds 2 998 93 10000 4.1 210 20:20 29.12.2020
666 Clouds 2 998 91 10000 2.6 250 19:42 29.12.2020
667 Clouds 2 998 88 10000 2.6 250 19:21 29.12.2020
668 Clouds 2 997 88 10000 3.6 260 18:49 29.12.2020
669 Clouds 2 997 90 10000 3.6 260 18:28 29.12.2020
670 Clouds 2 997 90 10000 3.1 270 17:45 29.12.2020
671 Clouds 2 997 90 10000 3.6 230 17:21 29.12.2020
672 Clear 3 996 90 10000 3.1 250 16:52 29.12.2020
673 Clear 3 996 85 10000 3.1 250 16:25 29.12.2020
674 Clear 4 995 85 10000 3.6 270 15:38 29.12.2020
675 Clear 3 995 80 10000 3.1 250 15:19 29.12.2020
676 Clear 4 995 80 10000 3.1 220 14:40 29.12.2020
677 Clear 4 995 79 10000 2.6 270 14:20 29.12.2020
678 Clear 2 995 79 10000 3.6 240 13:48 29.12.2020
679 Clear 2 995 81 10000 3.6 240 13:23 29.12.2020
680 Clear 2 994 81 10000 2.6 240 12:42 29.12.2020
681 Clear 2 994 85 10000 2.6 240 12:23 29.12.2020
682 Clear 2 994 80 10000 2.6 250 11:56 29.12.2020
683 Clear 1 994 80 10000 3.1 250 11:31 29.12.2020
684 Clear 0 993 95 10000 2.6 240 10:37 29.12.2020
685 Clear 1 993 80 10000 3.1 260 09:50 29.12.2020
686 Clear 1 992 80 10000 1.5 250 09:28 29.12.2020
687 Clear 0 992 96 10000 2.6 250 08:55 29.12.2020
688 Clear -1 991 86 10000 2.1 0 08:33 29.12.2020
689 Clouds -1 990 86 10000 3.1 210 07:27 29.12.2020
690 Clouds 0 989 96 10000 0.5 0 06:46 29.12.2020
691 Clouds 0 988 94 10000 2.1 240 05:27 29.12.2020
692 Snow -1 985 92 10000 1 0 00:55 29.12.2020
693 Snow 0 985 92 8000 0.5 0 00:22 29.12.2020
694 Snow 0 984 100 3900 2.6 220 23:36 28.12.2020
695 Fog -1 983 100 2000 1.5 240 22:28 28.12.2020
696 Mist 0 982 100 3300 1 290 21:46 28.12.2020
697 Mist 0 982 100 3300 1 290 21:28 28.12.2020
698 Mist 0 981 100 4600 1.5 60 20:44 28.12.2020
699 Mist 0 981 100 4600 1.5 60 20:44 28.12.2020
700 Mist 0 981 100 4600 1.5 60 20:24 28.12.2020
701 Mist -1 980 92 4800 2.6 50 19:50 28.12.2020
702 Mist -1 980 92 4800 2.6 50 19:26 28.12.2020
703 Mist 0 980 100 4300 2.1 40 18:59 28.12.2020
704 Mist 0 980 88 1900 2.1 60 18:30 28.12.2020
705 Clouds 0 979 88 10000 0.5 0 17:49 28.12.2020
706 Clouds 0 979 88 10000 0.5 0 17:31 28.12.2020
707 Clouds 1 979 86 10000 1.5 60 16:59 28.12.2020
708 Clouds 1 978 86 10000 0.5 240 16:29 28.12.2020
709 Clouds 1 978 86 10000 0.5 0 15:54 28.12.2020
710 Clouds 1 978 84 10000 0.5 0 15:33 28.12.2020
711 Clouds 1 978 83 10000 1 0 14:29 28.12.2020
712 Clouds 0 977 83 10000 1 20 13:39 28.12.2020
713 Clouds 0 977 85 10000 1 280 13:19 28.12.2020
714 Clouds 0 977 100 10000 1 250 12:26 28.12.2020
715 Clouds 0 977 92 10000 0.5 0 11:49 28.12.2020
716 Clouds -1 977 92 10000 0.5 0 11:30 28.12.2020
717 Clouds -1 977 100 10000 1.09 322 10:56 28.12.2020
718 Clouds -1 976 100 10000 1 210 10:29 28.12.2020
719 Clouds -1 976 100 10000 1.5 0 09:53 28.12.2020
720 Clouds -1 976 100 10000 1 0 09:25 28.12.2020
721 Clouds -1 975 92 10000 1.5 0 08:58 28.12.2020
722 Clouds 0 973 96 10000 1 0 06:52 28.12.2020
723 Rain 2 971 95 10000 2.6 40 04:56 28.12.2020
724 Rain 2 968 93 10000 5.1 50 03:26 28.12.2020
725 Rain 2 965 86 10000 3.6 70 01:52 28.12.2020
726 Clouds 2 964 93 10000 5.7 120 23:52 27.12.2020
727 Rain 2 963 93 6000 5.1 160 23:20 27.12.2020
728 Rain 2 963 93 6000 4.6 160 22:28 27.12.2020
729 Rain 3 962 80 10000 6.7 180 21:47 27.12.2020
730 Rain 3 962 80 10000 6.7 180 21:20 27.12.2020
731 Clouds 3 962 79 10000 5.7 200 19:49 27.12.2020
732 Clouds 3 962 80 10000 5.7 200 19:23 27.12.2020
733 Clouds 2 963 86 10000 6.2 210 18:49 27.12.2020
734 Rain 2 963 75 10000 7.7 210 18:20 27.12.2020
735 Clouds 2 963 75 10000 7.7 210 17:54 27.12.2020
736 Clouds 2 963 75 10000 3.6 210 17:34 27.12.2020
737 Clouds 3 963 79 10000 3.6 150 16:55 27.12.2020
738 Clouds 4 963 80 10000 3.6 230 16:21 27.12.2020
739 Clouds 3 964 86 10000 5.1 230 15:30 27.12.2020
740 Rain 4 964 80 10000 5.7 230 14:49 27.12.2020
741 Clouds 3 964 80 10000 5.7 230 14:31 27.12.2020
742 Clouds 2 965 75 10000 4.6 250 13:30 27.12.2020
743 Rain 2 965 86 10000 5.7 220 12:52 27.12.2020
744 Clouds 2 964 93 10000 6.2 210 12:22 27.12.2020
745 Clouds 2 964 93 10000 5.1 210 11:40 27.12.2020
746 Clouds 2 965 93 10000 4.1 220 10:53 27.12.2020
747 Clouds 2 964 93 10000 5.7 230 10:26 27.12.2020
748 Clouds 2 965 93 10000 6.2 210 09:58 27.12.2020
749 Clouds 2 965 86 10000 6.7 220 08:50 27.12.2020
750 Rain 2 965 93 7000 5.7 210 08:26 27.12.2020
751 Rain 1 967 82 10000 1.5 270 07:28 27.12.2020
752 Rain 2 967 82 10000 3.6 230 05:46 27.12.2020
753 Clouds 2 968 93 10000 4.1 220 04:58 27.12.2020
754 Rain 3 969 80 9000 6.2 260 03:22 27.12.2020
755 Clouds 3 970 86 9000 9.8 280 01:35 27.12.2020
756 Rain 5 971 93 10000 8.2 220 00:24 27.12.2020
757 Rain 5 973 86 10000 8.2 210 23:40 26.12.2020
758 Clouds 5 974 93 10000 8.2 230 23:19 26.12.2020
759 Rain 6 975 87 9000 10.8 240 22:36 26.12.2020
760 Rain 7 975 87 6000 12.3 230 22:18 26.12.2020
761 Rain 7 976 87 6000 14.9 220 21:48 26.12.2020
762 Rain 7 977 87 6000 13.4 220 21:22 26.12.2020
763 Rain 7 979 87 6000 14.4 210 20:42 26.12.2020
764 Rain 7 981 87 7000 13.9 210 20:19 26.12.2020
765 Rain 7 982 87 6000 13.4 220 19:27 26.12.2020
766 Rain 7 984 87 5000 13.9 220 18:53 26.12.2020
767 Rain 7 985 87 5000 12.9 220 18:29 26.12.2020
768 Rain 7 988 87 5000 12.9 220 17:42 26.12.2020
769 Rain 7 990 87 4700 12.9 220 17:21 26.12.2020
770 Rain 7 991 87 4900 12.9 220 16:37 26.12.2020
771 Rain 7 994 87 4500 13.9 210 15:38 26.12.2020
772 Clouds 7 995 87 5000 13.9 220 15:19 26.12.2020
773 Rain 7 996 87 7000 13.4 220 14:29 26.12.2020
774 Rain 7 998 87 6000 12.9 210 13:53 26.12.2020
775 Rain 7 999 87 7000 11.8 220 13:32 26.12.2020
776 Rain 7 1001 87 10000 12.9 220 12:49 26.12.2020
777 Clouds 7 1001 87 10000 12.9 220 12:30 26.12.2020
778 Rain 7 1003 87 6000 12.3 220 11:51 26.12.2020
779 Rain 7 1004 87 6000 12.3 210 11:23 26.12.2020
780 Rain 7 1005 87 6000 12.3 220 10:55 26.12.2020
781 Rain 7 1005 87 7000 11.8 220 10:28 26.12.2020
782 Rain 7 1006 87 9000 11.3 220 09:52 26.12.2020
783 Rain 7 1008 87 9000 10.3 220 09:31 26.12.2020
784 Rain 7 1009 87 7000 11.3 240 08:39 26.12.2020
785 Clouds 7 1009 87 10000 9.8 240 07:55 26.12.2020
786 Rain 7 1011 87 8000 10.8 250 06:47 26.12.2020
787 Clouds 7 1015 81 10000 7.7 250 03:46 26.12.2020
788 Clouds 7 1016 81 10000 8.2 250 01:44 26.12.2020
789 Clouds 7 1017 93 10000 8.2 240 00:27 26.12.2020
790 Clouds 8 1018 93 7000 8.2 250 23:41 25.12.2020
791 Clouds 8 1018 93 7000 8.2 250 23:23 25.12.2020
792 Rain 7 1018 93 6000 6.2 190 22:45 25.12.2020
793 Drizzle 7 1019 93 3400 8.2 210 21:58 25.12.2020
794 Drizzle 7 1019 93 3400 8.2 210 21:35 25.12.2020
795 Clouds 7 1020 93 3200 9.8 210 20:57 25.12.2020
796 Clouds 6 1020 93 4000 9.8 210 20:37 25.12.2020
797 Clouds 6 1021 93 10000 8.7 220 19:49 25.12.2020
798 Clouds 6 1021 93 10000 8.7 220 19:26 25.12.2020
799 Clouds 6 1023 87 10000 7.2 210 18:39 25.12.2020
800 Clouds 6 1023 87 10000 8.7 220 17:53 25.12.2020
801 Clouds 6 1023 87 10000 8.7 220 17:34 25.12.2020
802 Clouds 6 1024 87 10000 7.2 230 16:33 25.12.2020
803 Clouds 6 1025 87 10000 6.7 230 15:59 25.12.2020
804 Clouds 6 1026 87 10000 5.1 220 15:36 25.12.2020
805 Clouds 6 1026 93 10000 5.1 230 14:58 25.12.2020
806 Clouds 6 1027 93 10000 5.7 230 14:29 25.12.2020
807 Clouds 4 1028 93 7000 2.6 220 13:45 25.12.2020
808 Clouds 4 1028 93 7000 2.6 220 13:26 25.12.2020
809 Clouds 3 1029 86 8000 0.5 0 12:45 25.12.2020
810 Clouds 1 1029 83 10000 2.57 224 11:58 25.12.2020
811 Clouds 1 1030 83 10000 0.5 0 11:40 25.12.2020
812 Clouds 0 1030 92 10000 1 0 11:19 25.12.2020
813 Clouds -1 1030 92 10000 1 60 10:27 25.12.2020
814 Clouds -1 1031 92 10000 1 0 09:43 25.12.2020
815 Clouds -1 1032 92 10000 0.5 0 08:48 25.12.2020
816 Clouds -2 1032 92 10000 0.5 0 08:25 25.12.2020
817 Clouds -4 1032 92 10000 1.5 0 06:47 25.12.2020
818 Clouds -3 1033 92 10000 1 0 04:29 25.12.2020
819 Clouds -2 1034 86 10000 1.5 200 01:42 25.12.2020
820 Clouds -2 1034 92 10000 1.5 260 00:18 25.12.2020
821 Clouds -1 1034 86 10000 1.5 280 23:23 24.12.2020
822 Clouds -1 1034 86 10000 2.1 240 22:50 24.12.2020
823 Clouds -1 1035 86 10000 0.5 0 22:21 24.12.2020
824 Clouds -1 1034 86 10000 1.5 0 21:34 24.12.2020
825 Clouds -1 1034 80 10000 2.6 230 20:36 24.12.2020
826 Clouds 1 1033 92 10000 2.6 240 18:51 24.12.2020
827 Clear 1 1033 69 10000 2.1 300 18:18 24.12.2020
828 Clear 1 1032 64 10000 1 0 17:37 24.12.2020
829 Clear 3 1032 59 10000 2.6 330 16:45 24.12.2020
830 Clear 3 1032 55 10000 3.1 260 16:20 24.12.2020
831 Clear 4 1032 55 10000 3.6 250 15:42 24.12.2020
832 Clear 4 1031 55 10000 5.7 350 15:19 24.12.2020
833 Clear 4 1031 60 10000 3.6 220 14:42 24.12.2020
834 Clear 4 1031 60 10000 5.7 330 14:24 24.12.2020
835 Clouds 3 1031 64 10000 5.1 330 13:42 24.12.2020
836 Clouds 3 1031 64 10000 3.1 290 13:22 24.12.2020
837 Clear 3 1030 59 10000 3.6 310 12:43 24.12.2020
838 Clear 2 1030 64 10000 3.1 330 12:21 24.12.2020
839 Clear 2 1030 69 10000 3.6 320 11:41 24.12.2020
840 Clear 1 1029 64 10000 3.6 320 11:20 24.12.2020
841 Clear 1 1029 64 10000 3.6 320 11:20 24.12.2020
842 Clear 1 1029 69 10000 2.6 350 10:51 24.12.2020
843 Clear 1 1029 69 10000 2.6 350 10:32 24.12.2020
844 Clouds 2 1028 69 10000 3.1 290 09:52 24.12.2020
845 Clouds 2 1027 69 10000 3.1 350 09:24 24.12.2020
846 Clouds 2 1025 74 10000 3.1 250 08:18 24.12.2020
847 Clear 2 1024 74 10000 4.1 280 07:39 24.12.2020
848 Clouds 1 1024 80 10000 1.5 0 06:55 24.12.2020
849 Clear 1 1022 90 10000 4.1 250 04:24 24.12.2020
850 Clear 1 1022 80 10000 4.1 290 01:54 24.12.2020
851 Clear 1 1022 80 10000 4.1 290 01:30 24.12.2020
852 Clear 0 1021 86 10000 3.1 250 00:56 24.12.2020
853 Clear 0 1021 91 10000 2.6 230 00:20 24.12.2020
854 Clear 0 1021 74 10000 1.5 270 23:40 23.12.2020
855 Clear 1 1021 80 10000 1.5 0 23:22 23.12.2020
856 Clear 1 1021 80 10000 1.5 0 22:52 23.12.2020
857 Clear 1 1021 80 10000 1.5 0 22:29 23.12.2020
858 Clear 2 1020 74 10000 1.5 0 21:49 23.12.2020
859 Clear 2 1019 80 10000 3.6 50 21:24 23.12.2020
860 Clear 3 1019 86 10000 3.6 360 20:49 23.12.2020
861 Clear 3 1019 86 10000 3.6 360 20:49 23.12.2020
862 Clouds 4 1019 85 10000 3.6 360 20:31 23.12.2020
863 Clouds 3 1018 85 10000 3.1 350 19:59 23.12.2020
864 Clouds 3 1018 85 10000 3.6 340 19:38 23.12.2020
865 Clouds 3 1017 83 10000 1.5 0 19:19 23.12.2020
866 Clouds 3 1017 83 10000 1.5 0 18:46 23.12.2020
867 Clouds 3 1016 82 10000 3.1 290 18:21 23.12.2020
868 Clouds 3 1016 82 10000 3.1 290 17:37 23.12.2020
869 Clouds 3 1016 86 10000 1.5 0 17:19 23.12.2020
870 Clouds 4 1015 80 10000 2.6 330 16:42 23.12.2020
871 Clouds 4 1015 80 10000 2.6 330 16:24 23.12.2020
872 Clouds 5 1015 75 10000 2.6 290 15:50 23.12.2020
873 Clouds 5 1015 75 10000 1 0 15:27 23.12.2020
874 Clouds 5 1015 75 10000 1 0 14:58 23.12.2020
875 Clouds 5 1015 80 10000 2.6 350 14:38 23.12.2020
876 Clouds 4 1015 80 10000 3.1 30 14:20 23.12.2020
877 Clouds 4 1015 80 10000 3.1 30 14:20 23.12.2020
878 Clouds 3 1014 100 10000 1.5 0 13:43 23.12.2020
879 Clouds 3 1014 100 10000 0.5 0 13:19 23.12.2020
880 Mist 3 1014 100 4200 0.5 230 12:49 23.12.2020
881 Mist 2 1014 100 4200 0.5 230 12:24 23.12.2020
882 Mist 2 1014 100 3700 1 0 11:46 23.12.2020
883 Mist 1 1013 100 2500 1 230 11:19 23.12.2020
884 Fog 1 1013 81 750 0.5 230 10:43 23.12.2020
885 Fog 1 1013 83 750 0.5 230 10:25 23.12.2020
886 Fog 1 1013 100 200 1 280 09:35 23.12.2020
887 Fog 1 1012 100 200 1.5 220 08:48 23.12.2020
888 Fog 1 1012 100 150 1.5 260 08:20 23.12.2020
889 Fog 2 1012 100 200 0.5 230 07:27 23.12.2020
890 Fog 2 1012 93 150 1.5 310 06:41 23.12.2020
891 Fog 1 1012 100 250 1 0 05:39 23.12.2020
892 Fog 2 1012 93 200 0.5 160 04:57 23.12.2020
893 Mist 1 1012 100 5000 0.5 0 00:34 23.12.2020
894 Clouds 2 1012 100 8000 1.5 160 23:58 22.12.2020
895 Mist 2 1012 100 5000 1 0 23:33 22.12.2020
896 Clouds 2 1012 100 7000 0.5 240 22:44 22.12.2020
897 Clouds 2 1012 100 7000 0.5 240 22:25 22.12.2020
898 Clouds 2 1012 100 9000 1.5 220 21:58 22.12.2020
899 Clouds 2 1012 93 10000 0.5 0 21:38 22.12.2020
900 Clouds 2 1011 100 10000 0.5 120 21:19 22.12.2020
901 Clouds 2 1011 93 10000 1 0 20:48 22.12.2020
902 Clouds 2 1011 93 10000 1 0 20:21 22.12.2020
903 Clouds 3 1011 100 10000 1 0 19:44 22.12.2020
904 Clouds 4 1011 93 10000 1.5 240 19:21 22.12.2020
905 Clouds 4 1011 93 10000 1.5 240 18:54 22.12.2020
906 Clouds 5 1011 86 10000 3.6 200 18:30 22.12.2020
907 Clouds 5 1011 93 10000 4.1 240 17:57 22.12.2020
908 Clouds 6 1011 87 10000 2.1 240 17:26 22.12.2020
909 Clouds 6 1011 87 10000 2.1 240 16:56 22.12.2020
910 Clouds 6 1010 87 10000 1.5 250 16:37 22.12.2020
911 Clouds 6 1010 81 10000 3.1 230 16:19 22.12.2020
912 Clouds 7 1010 81 10000 3.6 220 15:42 22.12.2020
913 Clouds 7 1010 81 10000 3.6 220 15:21 22.12.2020
914 Clouds 7 1010 87 10000 3.6 220 14:45 22.12.2020
915 Clouds 7 1010 87 10000 3.6 230 14:26 22.12.2020
916 Clouds 7 1010 87 10000 3.6 230 13:48 22.12.2020
917 Clouds 6 1010 93 10000 2.1 240 13:20 22.12.2020
918 Clouds 6 1010 93 10000 2.1 240 12:57 22.12.2020
919 Clouds 6 1010 87 10000 2.6 240 12:38 22.12.2020
920 Clouds 5 1009 93 10000 3.1 200 12:19 22.12.2020
921 Clouds 4 1009 93 10000 1.5 0 11:42 22.12.2020
922 Clouds 3 1009 93 10000 2.6 240 11:22 22.12.2020
923 Clouds 3 1009 93 10000 2.6 240 10:55 22.12.2020
924 Clouds 3 1008 93 10000 2.1 260 10:27 22.12.2020
925 Clouds 4 1008 93 10000 4.1 230 09:58 22.12.2020
926 Clouds 4 1008 93 10000 3.1 240 09:30 22.12.2020
927 Clouds 3 1007 86 10000 4.1 240 08:58 22.12.2020
928 Clouds 3 1007 93 10000 2.6 250 08:39 22.12.2020
929 Clouds 3 1007 86 10000 2.6 250 08:19 22.12.2020
930 Clouds 4 1006 86 10000 4.1 260 07:27 22.12.2020
931 Rain 4 1005 86 10000 5.1 230 06:32 22.12.2020
932 Clouds 4 1005 93 10000 4.6 220 05:30 22.12.2020
933 Clouds 4 1003 86 10000 3.6 220 02:24 22.12.2020
934 Clouds 4 1001 80 10000 3.1 250 00:25 22.12.2020
935 Clouds 3 1001 93 10000 3.1 250 23:46 21.12.2020
936 Clouds 3 1001 86 10000 3.6 260 23:21 21.12.2020
937 Clouds 4 1000 86 10000 3.6 270 22:37 21.12.2020
938 Clouds 4 1000 80 10000 3.1 270 22:18 21.12.2020
939 Clouds 4 1000 75 10000 3.1 280 21:47 21.12.2020
940 Clouds 5 1000 75 10000 3.1 280 21:28 21.12.2020
941 Clouds 5 999 93 10000 1.5 0 20:45 21.12.2020
942 Clouds 5 999 93 10000 1.5 240 20:21 21.12.2020
943 Clouds 6 999 93 10000 1.5 0 19:47 21.12.2020
944 Clouds 6 999 93 10000 1.5 0 19:22 21.12.2020
945 Clouds 6 998 93 10000 2.6 280 18:57 21.12.2020
946 Clouds 6 998 93 10000 2.1 180 18:39 21.12.2020
947 Clouds 6 998 93 10000 0.5 0 18:20 21.12.2020
948 Rain 6 998 93 10000 0.5 50 17:42 21.12.2020
949 Rain 6 998 93 10000 0.5 50 17:22 21.12.2020
950 Rain 6 998 93 9000 1.5 50 16:41 21.12.2020
951 Rain 7 998 87 10000 2.1 30 16:19 21.12.2020
952 Rain 7 999 87 10000 2.1 70 15:41 21.12.2020
953 Rain 7 999 87 10000 2.1 70 14:58 21.12.2020
954 Rain 7 999 87 10000 2.1 70 14:23 21.12.2020
955 Clouds 6 1000 87 10000 2.6 60 13:54 21.12.2020
956 Clouds 6 1000 87 10000 2.6 60 13:35 21.12.2020
957 Clouds 6 1001 87 10000 2.6 50 12:59 21.12.2020
958 Clouds 6 1001 93 10000 2.6 70 12:39 21.12.2020
959 Clouds 6 1002 87 10000 1.5 70 12:19 21.12.2020
960 Clouds 6 1002 81 10000 2.1 90 11:43 21.12.2020
961 Clouds 5 1002 86 10000 2.1 110 11:22 21.12.2020
962 Clouds 5 1002 86 10000 2.1 110 10:57 21.12.2020
963 Clouds 5 1002 86 10000 2.1 80 10:38 21.12.2020
964 Clouds 5 1003 86 10000 1 0 09:55 21.12.2020
965 Clouds 5 1003 86 10000 2.1 190 09:37 21.12.2020
966 Clouds 5 1003 81 10000 4.1 180 09:18 21.12.2020
967 Clouds 6 1003 81 10000 4.6 170 08:21 21.12.2020
968 Clouds 6 1004 87 10000 7.2 200 06:48 21.12.2020
969 Clouds 6 1004 93 10000 8.7 210 04:59 21.12.2020
970 Clouds 7 1004 87 8000 8.2 210 03:46 21.12.2020
971 Clouds 7 1003 87 10000 6.2 210 00:35 21.12.2020
972 Rain 7 1003 87 10000 6.7 210 23:39 20.12.2020
973 Clouds 6 1003 87 10000 6.7 210 23:20 20.12.2020
974 Rain 6 1003 93 9000 6.2 170 22:43 20.12.2020
975 Clouds 6 1003 87 4200 7.7 180 22:22 20.12.2020
976 Clouds 6 1003 87 5000 7.7 190 21:41 20.12.2020
977 Clouds 5 1003 87 10000 7.7 200 21:22 20.12.2020
978 Rain 5 1003 87 10000 7.7 200 20:54 20.12.2020
979 Rain 6 1003 87 10000 6.2 200 20:26 20.12.2020
980 Rain 6 1003 81 10000 4.6 180 19:58 20.12.2020
981 Clouds 6 1003 75 10000 6.2 210 19:38 20.12.2020
982 Clouds 6 1003 75 10000 6.2 210 19:20 20.12.2020
983 Clouds 6 1002 75 10000 9.3 210 18:42 20.12.2020
984 Clouds 6 1002 75 10000 9.3 210 18:42 20.12.2020
985 Clouds 6 1002 75 10000 9.3 210 18:23 20.12.2020
986 Clouds 6 1002 81 10000 5.1 200 17:46 20.12.2020
987 Clouds 6 1002 81 10000 5.1 200 17:28 20.12.2020
988 Clouds 6 1002 81 10000 5.1 200 17:28 20.12.2020
989 Clouds 6 1002 81 10000 6.7 210 16:47 20.12.2020
990 Clouds 6 1002 81 10000 6.7 210 16:28 20.12.2020
991 Clouds 7 1002 81 10000 6.7 220 15:50 20.12.2020
992 Clouds 7 1001 75 10000 6.7 210 15:26 20.12.2020
993 Clouds 7 1001 81 10000 8.2 210 14:56 20.12.2020
994 Clouds 7 1001 81 10000 7.2 210 14:34 20.12.2020
995 Clouds 7 1001 81 10000 9.3 210 13:48 20.12.2020
996 Clouds 7 1001 81 10000 9.3 210 13:29 20.12.2020
997 Clouds 7 1001 81 10000 7.7 200 12:59 20.12.2020
998 Clouds 7 1001 81 10000 7.2 210 12:39 20.12.2020
999 Clouds 7 1000 87 10000 7.2 210 12:21 20.12.2020
1000 Clouds 7 1000 87 10000 7.7 210 11:44 20.12.2020
1001 Clouds 7 1000 87 10000 7.7 210 11:25 20.12.2020
1002 Clouds 7 999 87 10000 7.7 220 10:48 20.12.2020
1003 Clouds 7 999 87 10000 7.7 210 10:20 20.12.2020
1004 Clouds 7 998 87 10000 7.2 220 09:46 20.12.2020
1005 Clouds 7 998 87 10000 7.2 220 09:27 20.12.2020
1006 Clouds 7 998 87 10000 6.7 220 08:58 20.12.2020
1007 Clouds 7 998 81 10000 7.7 220 08:39 20.12.2020
1008 Clouds 8 997 81 10000 8.2 210 07:27 20.12.2020
1009 Clouds 7 996 87 10000 8.2 210 05:48 20.12.2020
1010 Clouds 8 995 81 10000 8.2 200 02:20 20.12.2020
1011 Clouds 7 994 81 10000 6.2 190 00:38 20.12.2020
1012 Clouds 7 993 81 10000 5.7 190 23:21 19.12.2020
1013 Clouds 7 993 81 10000 5.7 190 22:57 19.12.2020
1014 Clouds 7 993 87 10000 6.7 190 22:38 19.12.2020
1015 Clouds 7 993 87 10000 5.7 210 22:19 19.12.2020
1016 Rain 7 993 87 10000 6.7 210 21:42 19.12.2020
1017 Rain 7 993 87 10000 6.7 210 21:24 19.12.2020
1018 Clouds 7 991 81 10000 9.3 210 20:45 19.12.2020
1019 Clear 7 991 81 10000 5.7 200 20:21 19.12.2020
1020 Clear 7 991 81 10000 5.7 200 20:21 19.12.2020
1021 Clear 7 991 81 10000 5.7 200 19:53 19.12.2020
1022 Clouds 7 991 81 10000 6.7 180 19:34 19.12.2020
1023 Clouds 7 990 87 4900 8.2 220 18:42 19.12.2020
1024 Clouds 7 990 81 10000 9.3 200 18:24 19.12.2020
1025 Clouds 8 990 81 10000 10.3 190 17:48 19.12.2020
1026 Clouds 8 990 81 10000 10.3 190 17:25 19.12.2020
1027 Rain 8 989 81 10000 9.3 200 16:55 19.12.2020
1028 Clouds 8 989 81 10000 11.3 200 16:36 19.12.2020
1029 Clouds 8 989 81 10000 11.8 200 16:18 19.12.2020
1030 Clouds 8 989 81 10000 7.7 190 15:47 19.12.2020
1031 Clouds 9 989 76 10000 5.7 140 14:44 19.12.2020
1032 Rain 9 989 76 10000 5.7 140 14:23 19.12.2020
1033 Clouds 9 990 81 10000 3.6 110 13:42 19.12.2020
1034 Clouds 9 990 81 10000 4.1 120 13:21 19.12.2020
1035 Clouds 9 990 87 10000 2.6 120 12:46 19.12.2020
1036 Clouds 8 990 87 10000 2.6 120 12:28 19.12.2020
1037 Clouds 9 991 81 10000 3.1 130 11:58 19.12.2020
1038 Clouds 8 991 87 10000 3.6 120 11:40 19.12.2020
1039 Clouds 8 991 93 10000 2.1 80 10:47 19.12.2020
1040 Clouds 8 991 93 10000 2.1 80 10:27 19.12.2020
1041 Clouds 8 991 87 10000 1 0 09:58 19.12.2020
1042 Clouds 8 990 87 10000 1.5 0 09:38 19.12.2020
1043 Clouds 8 990 81 8000 6.2 170 08:37 19.12.2020
1044 Rain 8 990 87 10000 3.6 110 07:53 19.12.2020
1045 Rain 8 990 87 10000 3.6 80 07:18 19.12.2020
1046 Clouds 8 991 87 10000 2.1 90 06:39 19.12.2020
1047 Clouds 8 992 93 10000 2.1 130 05:19 19.12.2020
1048 Clouds 9 992 87 10000 2.1 130 03:20 19.12.2020
1049 Rain 9 992 93 7000 2.6 110 00:41 19.12.2020
1050 Rain 10 992 87 9000 4.1 170 00:18 19.12.2020
1051 Rain 10 992 87 10000 4.1 160 23:48 18.12.2020
1052 Rain 10 992 87 10000 4.1 160 23:23 18.12.2020
1053 Rain 10 992 93 10000 2.6 110 22:46 18.12.2020
1054 Rain 9 993 93 10000 3.1 70 22:24 18.12.2020
1055 Rain 10 993 93 10000 3.1 70 21:50 18.12.2020
1056 Rain 10 993 93 10000 3.1 70 21:31 18.12.2020
1057 Rain 10 993 87 10000 4.1 220 20:43 18.12.2020
1058 Rain 10 993 87 10000 4.1 220 20:22 18.12.2020
1059 Rain 10 993 93 10000 5.7 230 19:45 18.12.2020
1060 Clouds 10 993 93 10000 5.7 230 19:21 18.12.2020
1061 Clouds 11 992 93 10000 7.2 220 18:43 18.12.2020
1062 Rain 11 992 93 10000 7.2 220 18:24 18.12.2020
1063 Rain 12 992 93 4700 11.3 200 17:28 18.12.2020
1064 Rain 12 992 93 2900 8.2 180 16:57 18.12.2020
1065 Rain 12 991 82 10000 10.8 190 16:38 18.12.2020
1066 Rain 12 991 82 10000 10.8 190 16:38 18.12.2020
1067 Rain 13 991 82 10000 12.3 180 16:19 18.12.2020
1068 Clouds 12 992 87 10000 6.7 170 15:42 18.12.2020
1069 Clouds 12 992 87 3800 7.2 170 15:24 18.12.2020
1070 Clouds 12 993 87 7000 5.1 160 14:55 18.12.2020
1071 Rain 12 993 87 10000 4.6 170 14:23 18.12.2020
1072 Clouds 12 993 87 10000 4.6 170 13:51 18.12.2020
1073 Clouds 12 994 87 10000 4.1 190 13:31 18.12.2020
1074 Clouds 11 995 81 10000 5.1 150 12:50 18.12.2020
1075 Clouds 11 995 81 10000 5.1 150 12:27 18.12.2020
1076 Rain 10 996 87 10000 3.1 100 11:26 18.12.2020
1077 Clouds 9 996 87 10000 2.6 60 10:40 18.12.2020
1078 Clouds 9 997 87 10000 1 0 10:21 18.12.2020
1079 Clouds 9 997 93 10000 1 0 09:40 18.12.2020
1080 Clouds 9 997 93 10000 3.1 160 09:22 18.12.2020
1081 Clouds 9 997 93 10000 3.1 160 08:57 18.12.2020
1082 Clouds 10 998 87 10000 6.2 190 08:36 18.12.2020
1083 Clouds 10 998 87 10000 3.6 180 07:47 18.12.2020
1084 Clouds 10 998 87 10000 2.6 200 07:19 18.12.2020
1085 Clouds 11 998 87 10000 2.6 200 06:58 18.12.2020
1086 Clouds 11 998 93 10000 3.6 220 05:43 18.12.2020
1087 Clouds 11 998 93 10000 4.1 200 04:51 18.12.2020
1088 Clouds 11 999 93 10000 5.7 210 02:24 18.12.2020
1089 Rain 11 999 87 8000 6.7 200 01:40 18.12.2020
1090 Rain 11 999 87 10000 6.7 200 00:27 18.12.2020
1091 Clouds 10 999 93 10000 2.1 0 23:50 17.12.2020
1092 Clouds 11 999 87 10000 4.6 180 23:19 17.12.2020
1093 Clouds 11 999 87 3000 5.7 180 22:47 17.12.2020
1094 Clouds 11 999 87 3000 5.7 180 22:26 17.12.2020
1095 Clouds 11 1000 81 10000 6.7 180 21:43 17.12.2020
1096 Clouds 10 1000 93 10000 2.1 70 21:20 17.12.2020
1097 Clouds 9 1000 93 10000 2.1 70 20:43 17.12.2020
1098 Clouds 9 1001 93 9000 4.1 80 20:19 17.12.2020
1099 Rain 9 1001 81 5000 3.6 100 19:49 17.12.2020
1100 Rain 9 1002 87 10000 3.1 110 19:24 17.12.2020
1101 Clouds 8 1003 81 10000 2.6 100 18:44 17.12.2020
1102 Rain 8 1003 81 10000 2.6 100 18:26 17.12.2020
1103 Clouds 8 1003 81 10000 2.6 130 17:57 17.12.2020
1104 Clouds 8 1003 81 10000 3.6 160 17:34 17.12.2020
1105 Clouds 8 1004 81 10000 5.1 170 16:54 17.12.2020
1106 Clouds 8 1004 81 10000 3.6 170 16:36 17.12.2020
1107 Clouds 8 1004 81 10000 5.7 190 16:18 17.12.2020
1108 Clouds 8 1004 81 10000 6.7 210 15:40 17.12.2020
1109 Clouds 8 1004 81 10000 6.2 200 15:18 17.12.2020
1110 Clouds 8 1004 81 10000 6.2 200 14:47 17.12.2020
1111 Clouds 8 1005 81 10000 7.7 210 13:59 17.12.2020
1112 Clouds 8 1004 87 10000 7.2 210 13:41 17.12.2020
1113 Clouds 8 1004 87 10000 7.7 220 12:58 17.12.2020
1114 Rain 8 1004 87 10000 8.7 220 12:36 17.12.2020
1115 Clouds 8 1004 87 10000 9.3 220 11:58 17.12.2020
1116 Clouds 8 1004 87 10000 9.3 220 11:58 17.12.2020
1117 Clouds 8 1003 87 10000 7.7 220 11:38 17.12.2020
1118 Clouds 8 1003 87 10000 7.2 220 11:20 17.12.2020
1119 Clouds 8 1002 87 10000 7.2 210 10:33 17.12.2020
1120 Clouds 8 1001 87 10000 6.7 220 09:36 17.12.2020
1121 Rain 7 1001 93 10000 6.2 220 08:39 17.12.2020
1122 Rain 8 1000 87 10000 5.7 210 07:41 17.12.2020
1123 Clouds 7 1000 87 10000 6.7 210 07:18 17.12.2020
1124 Clouds 7 1000 81 10000 6.7 210 06:44 17.12.2020
1125 Clouds 8 1000 81 10000 6.7 210 06:26 17.12.2020
1126 Clouds 8 998 87 10000 8.2 210 01:41 17.12.2020
1127 Clouds 8 997 93 10000 6.7 220 23:58 16.12.2020
1128 Clouds 8 997 93 10000 6.7 220 23:23 16.12.2020
1129 Rain 8 997 93 10000 6.7 220 22:58 16.12.2020
1130 Clouds 8 996 93 10000 7.7 220 22:38 16.12.2020
1131 Clouds 8 996 87 10000 9.3 220 21:58 16.12.2020
1132 Clouds 8 996 93 10000 8.2 230 21:38 16.12.2020
1133 Clouds 8 995 93 10000 8.7 220 21:20 16.12.2020
1134 Rain 8 995 93 9000 7.2 220 20:44 16.12.2020
1135 Rain 8 995 87 10000 9.3 200 20:19 16.12.2020
1136 Rain 9 994 87 10000 8.2 180 19:21 16.12.2020
1137 Rain 9 994 87 10000 8.2 180 19:21 16.12.2020
1138 Rain 9 994 87 10000 8.2 180 18:57 16.12.2020
1139 Rain 9 994 87 4600 6.2 180 18:37 16.12.2020
1140 Clouds 9 993 87 10000 6.7 190 18:19 16.12.2020
1141 Clouds 9 993 87 6000 7.7 190 17:33 16.12.2020
1142 Clouds 10 993 81 8000 8.2 180 16:42 16.12.2020
1143 Rain 10 992 81 10000 11.3 180 16:22 16.12.2020
1144 Rain 10 992 81 10000 11.3 180 15:52 16.12.2020
1145 Clouds 10 992 81 10000 11.3 180 15:32 16.12.2020
1146 Clouds 10 992 81 10000 9.8 180 14:55 16.12.2020
1147 Clouds 10 992 81 10000 9.3 170 14:37 16.12.2020
1148 Clouds 10 993 81 10000 7.7 150 14:19 16.12.2020
1149 Clouds 10 993 81 10000 6.7 140 13:37 16.12.2020
1150 Clouds 10 993 76 10000 6.7 130 13:18 16.12.2020
1151 Clouds 10 994 76 10000 6.2 130 12:42 16.12.2020
1152 Clouds 9 994 81 10000 6.2 90 11:43 16.12.2020
1153 Clouds 9 995 87 10000 5.1 70 11:23 16.12.2020
1154 Clouds 8 995 87 10000 5.1 70 10:52 16.12.2020
1155 Clouds 8 995 87 10000 6.2 80 10:27 16.12.2020
1156 Clouds 8 995 87 10000 7.2 90 09:50 16.12.2020
1157 Clouds 7 995 93 10000 6.2 80 09:23 16.12.2020
1158 Rain 7 996 87 9000 4.6 80 08:22 16.12.2020
1159 Rain 7 997 87 10000 6.2 80 07:42 16.12.2020
1160 Rain 6 997 87 10000 5.7 60 07:19 16.12.2020
1161 Clouds 5 1001 93 10000 3.1 80 03:35 16.12.2020
1162 Clouds 4 1001 93 10000 2.6 80 01:31 16.12.2020
1163 Clouds 4 1001 86 10000 2.6 100 23:46 15.12.2020
1164 Clouds 5 1001 86 10000 2.6 120 22:56 15.12.2020
1165 Clouds 5 1001 86 10000 3.1 120 22:38 15.12.2020
1166 Clouds 5 1001 93 10000 3.6 150 22:18 15.12.2020
1167 Clouds 5 1000 87 10000 3.1 150 21:40 15.12.2020
1168 Clouds 6 1000 81 10000 4.6 180 21:21 15.12.2020
1169 Clouds 6 1000 81 10000 4.6 180 20:44 15.12.2020
1170 Clouds 6 999 87 10000 4.1 180 20:26 15.12.2020
1171 Clouds 7 999 87 10000 2.6 120 19:52 15.12.2020
1172 Clouds 7 999 87 10000 2.6 120 19:26 15.12.2020
1173 Clouds 7 998 87 10000 3.6 110 18:39 15.12.2020
1174 Rain 7 998 87 10000 2.1 140 18:21 15.12.2020
1175 Clouds 7 997 81 10000 6.2 140 17:45 15.12.2020
1176 Clouds 7 997 81 10000 6.2 140 17:27 15.12.2020
1177 Rain 8 997 81 10000 3.1 160 16:46 15.12.2020
1178 Rain 8 997 81 10000 3.1 160 16:27 15.12.2020
1179 Clouds 9 997 81 10000 2.6 170 15:42 15.12.2020
1180 Clouds 9 997 81 10000 2.6 170 15:24 15.12.2020
1181 Clouds 9 997 81 10000 2.1 110 14:43 15.12.2020
1182 Clouds 8 997 81 10000 3.1 120 14:20 15.12.2020
1183 Clouds 7 997 93 10000 2.1 100 13:51 15.12.2020
1184 Clouds 7 997 93 10000 2.1 100 13:26 15.12.2020
1185 Clouds 6 997 100 9000 2.6 90 12:46 15.12.2020
1186 Clear 5 996 93 10000 1.5 0 12:20 15.12.2020
1187 Clear 4 996 93 10000 1.5 0 11:52 15.12.2020
1188 Clouds 3 996 93 10000 2.1 70 11:25 15.12.2020
1189 Clear 4 996 93 10000 2.6 60 10:52 15.12.2020
1190 Clear 3 995 100 10000 3.1 60 10:21 15.12.2020
1191 Clear 3 995 93 10000 3.1 110 09:45 15.12.2020
1192 Clear 3 995 93 10000 3.1 110 09:27 15.12.2020
1193 Clear 3 994 100 10000 2.6 80 08:47 15.12.2020
1194 Clear 4 994 100 10000 2.6 80 08:24 15.12.2020
1195 Clear 4 994 93 10000 2.1 40 07:49 15.12.2020
1196 Clouds 4 993 93 10000 1 0 07:23 15.12.2020
1197 Clear 4 993 93 10000 2.1 60 06:26 15.12.2020
1198 Clouds 7 991 87 10000 4.6 180 00:54 15.12.2020
1199 Clouds 7 991 81 10000 3.6 160 00:34 15.12.2020
1200 Clouds 7 991 87 10000 2.6 160 23:23 14.12.2020
1201 Clouds 7 990 87 10000 3.1 170 22:47 14.12.2020
1202 Clouds 7 990 87 10000 3.1 170 22:26 14.12.2020
1203 Clouds 7 990 81 10000 4.1 170 21:42 14.12.2020
1204 Clouds 7 990 87 10000 6.2 190 21:20 14.12.2020
1205 Clouds 7 989 87 10000 6.2 190 20:48 14.12.2020
1206 Clouds 7 989 87 10000 6.2 190 20:28 14.12.2020
1207 Clouds 7 989 81 10000 7.2 190 19:49 14.12.2020
1208 Clouds 7 989 81 10000 7.2 190 19:28 14.12.2020
1209 Clouds 7 989 81 10000 6.2 180 18:44 14.12.2020
1210 Clouds 7 989 81 10000 6.2 180 18:24 14.12.2020
1211 Clouds 8 988 81 10000 5.1 180 17:45 14.12.2020
1212 Clouds 8 988 81 10000 5.1 180 17:22 14.12.2020
1213 Clouds 9 988 81 10000 5.7 190 16:49 14.12.2020
1214 Clouds 9 987 81 10000 6.7 210 16:27 14.12.2020
1215 Clouds 8 987 87 10000 6.7 220 15:33 14.12.2020
1216 Clouds 8 987 93 5000 7.2 230 14:52 14.12.2020
1217 Clouds 9 987 87 10000 7.2 220 14:34 14.12.2020
1218 Clouds 9 986 87 10000 8.2 210 13:58 14.12.2020
1219 Clouds 9 986 87 10000 7.2 210 13:37 14.12.2020
1220 Clouds 9 986 87 10000 8.2 210 12:58 14.12.2020
1221 Clouds 9 985 87 10000 7.2 210 12:40 14.12.2020
1222 Clouds 9 985 87 10000 7.7 200 12:20 14.12.2020
1223 Clouds 9 985 87 8000 7.2 200 11:30 14.12.2020
1224 Clouds 9 984 87 5000 8.7 200 10:29 14.12.2020
1225 Clouds 9 983 87 10000 7.7 200 09:53 14.12.2020
1226 Clouds 9 983 87 10000 6.7 210 09:25 14.12.2020
1227 Clouds 9 982 87 9000 8.7 200 08:45 14.12.2020
1228 Rain 9 982 87 9000 8.7 200 08:25 14.12.2020
1229 Rain 9 981 87 10000 9.3 210 07:22 14.12.2020
1230 Rain 9 980 93 10000 4.1 130 06:44 14.12.2020
1231 Rain 9 980 93 10000 4.1 130 06:44 14.12.2020
1232 Rain 9 981 87 10000 4.1 110 04:27 14.12.2020
1233 Rain 10 982 87 10000 4.1 150 02:25 14.12.2020
1234 Clouds 10 982 87 7000 3.6 130 00:52 14.12.2020
1235 Clouds 10 983 87 10000 3.6 110 00:30 14.12.2020
1236 Rain 10 983 87 10000 4.1 130 23:46 13.12.2020
1237 Rain 10 983 87 10000 3.1 120 23:20 13.12.2020
1238 Clouds 9 983 93 10000 2.1 120 22:43 13.12.2020
1239 Clouds 9 984 100 10000 2.6 70 22:18 13.12.2020
1240 Clouds 7 984 93 10000 2.6 70 21:42 13.12.2020
1241 Clouds 7 984 93 10000 3.1 60 21:19 13.12.2020
1242 Clouds 8 984 93 10000 2.6 60 20:33 13.12.2020
1243 Clouds 8 984 93 10000 3.1 80 19:50 13.12.2020
1244 Clouds 8 984 93 10000 3.1 80 19:27 13.12.2020
1245 Clouds 8 984 87 10000 4.1 90 18:57 13.12.2020
1246 Clouds 8 984 93 10000 5.1 80 18:39 13.12.2020
1247 Clouds 7 985 93 4900 4.6 60 18:19 13.12.2020
1248 Clouds 7 985 93 3800 5.1 70 17:45 13.12.2020
1249 Rain 6 986 100 4200 7.2 70 17:18 13.12.2020
1250 Drizzle 6 986 87 4900 6.7 70 16:53 13.12.2020
1251 Rain 6 986 87 4900 6.7 70 16:34 13.12.2020
1252 Clouds 6 988 100 4500 5.7 60 15:48 13.12.2020
1253 Clouds 6 988 100 4500 5.7 60 15:27 13.12.2020
1254 Rain 5 989 93 10000 5.7 70 14:48 13.12.2020
1255 Rain 5 989 93 10000 5.7 70 14:29 13.12.2020
1256 Rain 5 990 93 8000 5.7 80 13:57 13.12.2020
1257 Rain 5 991 93 10000 6.7 80 13:36 13.12.2020
1258 Rain 5 992 93 10000 6.2 80 12:59 13.12.2020
1259 Rain 5 993 93 10000 7.2 90 12:26 13.12.2020
1260 Rain 5 994 93 10000 5.7 70 11:59 13.12.2020
1261 Rain 5 995 86 9000 5.1 60 11:34 13.12.2020
1262 Rain 5 996 86 10000 5.7 80 10:46 13.12.2020
1263 Clouds 5 996 86 10000 5.7 80 10:24 13.12.2020
1264 Rain 5 997 86 10000 3.1 70 09:47 13.12.2020
1265 Clouds 5 997 86 10000 4.1 80 08:53 13.12.2020
1266 Rain 4 998 93 10000 4.1 90 08:31 13.12.2020
1267 Rain 4 998 93 10000 3.6 60 07:26 13.12.2020
1268 Fog 1 1002 100 900 1 0 03:26 13.12.2020
1269 Mist 2 1001 100 2900 2.6 70 02:32 13.12.2020
1270 Fog 1 1002 100 200 1 50 01:37 13.12.2020
1271 Fog 2 1002 90 10000 1 140 00:45 13.12.2020
1272 Fog 2 1003 90 10000 1.15 154 23:45 12.12.2020
1273 Fog 2 1003 90 10000 1.2 188 23:26 12.12.2020
1274 Fog 2 1003 90 10000 1 210 22:37 12.12.2020
1275 Fog 3 1002 100 750 0.5 0 21:47 12.12.2020
1276 Fog 2 1002 100 750 0.5 0 21:23 12.12.2020
1277 Clouds 3 1002 93 10000 1.5 250 20:46 12.12.2020
1278 Clouds 5 1002 100 10000 2.6 240 20:21 12.12.2020
1279 Clouds 4 1002 100 10000 2.6 240 19:54 12.12.2020
1280 Clouds 4 1002 100 10000 2.6 240 19:34 12.12.2020
1281 Clouds 5 1001 93 10000 2.1 260 18:58 12.12.2020
1282 Clouds 5 1001 86 10000 2.1 260 18:38 12.12.2020
1283 Clouds 5 1001 86 10000 2.1 260 18:38 12.12.2020
1284 Clouds 5 1001 93 10000 1.5 270 18:20 12.12.2020
1285 Clouds 6 1001 93 10000 1.5 270 17:41 12.12.2020
1286 Clouds 8 1000 87 10000 3.1 270 16:45 12.12.2020
1287 Clouds 8 1000 87 10000 3.1 270 16:45 12.12.2020
1288 Clouds 8 1000 87 10000 2.6 280 15:58 12.12.2020
1289 Clouds 8 1000 87 10000 2.6 280 15:58 12.12.2020
1290 Clouds 8 1000 87 10000 2.6 280 15:58 12.12.2020
1291 Clouds 8 999 81 10000 2.6 280 15:39 12.12.2020
1292 Clouds 9 999 87 10000 3.1 270 14:54 12.12.2020
1293 Clouds 9 999 87 10000 3.1 260 14:22 12.12.2020
1294 Clouds 8 998 93 10000 3.1 240 13:44 12.12.2020
1295 Clouds 8 998 93 10000 3.1 240 13:25 12.12.2020
1296 Rain 7 998 93 10000 1.5 230 12:37 12.12.2020
1297 Rain 6 997 100 5000 2.1 230 11:28 12.12.2020
1298 Rain 6 996 100 3800 1.5 250 10:46 12.12.2020
1299 Rain 6 995 93 1700 1.5 230 09:24 12.12.2020
1300 Rain 6 994 100 1800 1.5 240 08:41 12.12.2020
1301 Rain 6 990 100 3800 1 360 01:56 12.12.2020
1302 Rain 7 989 93 10000 2.1 70 23:31 11.12.2020
1303 Clouds 7 987 93 9000 1.5 70 20:58 11.12.2020
1304 Clouds 7 986 93 10000 2.6 70 19:44 11.12.2020
1305 Drizzle 7 985 93 4300 2.6 80 17:30 11.12.2020
1306 Rain 7 984 93 6000 2.6 60 14:38 11.12.2020
1307 Rain 7 983 93 9000 3.1 70 13:46 11.12.2020
1308 Clouds 6 983 93 6000 3.6 70 12:28 11.12.2020
1309 Clouds 6 983 93 7000 3.6 60 11:55 11.12.2020
1310 Rain 6 983 93 10000 4.6 70 11:36 11.12.2020
1311 Clouds 6 983 93 8000 4.6 70 10:40 11.12.2020
1312 Clouds 6 981 93 10000 4.6 60 07:51 11.12.2020
1313 Clouds 7 982 87 10000 3.6 70 05:36 11.12.2020
1314 Clouds 7 982 87 10000 3.6 70 04:47 11.12.2020
1315 Clouds 7 984 81 10000 5.1 110 00:54 11.12.2020
1316 Clouds 7 985 93 10000 4.1 90 23:28 10.12.2020
1317 Rain 7 987 87 10000 4.1 100 21:37 10.12.2020
1318 Rain 7 987 87 10000 6.2 110 20:51 10.12.2020
1319 Rain 7 987 87 10000 6.2 110 20:29 10.12.2020
1320 Clouds 7 989 87 10000 5.1 110 19:29 10.12.2020
1321 Clouds 7 989 87 10000 6.7 110 18:49 10.12.2020
1322 Clouds 7 991 87 10000 7.2 120 17:35 10.12.2020
1323 Clouds 7 992 87 10000 4.1 120 15:59 10.12.2020
1324 Clouds 7 993 87 10000 5.1 110 15:22 10.12.2020
1325 Clouds 7 994 87 10000 4.6 110 14:46 10.12.2020
1326 Clouds 6 995 93 10000 3.6 60 13:51 10.12.2020
1327 Clouds 5 996 93 10000 4.1 60 12:23 10.12.2020
1328 Clouds 5 997 86 10000 2.6 60 10:54 10.12.2020
1329 Clouds 4 997 93 10000 2.1 70 08:27 10.12.2020
1330 Clouds 4 997 93 10000 2.6 80 07:28 10.12.2020
1331 Clouds 4 998 93 10000 2.1 70 05:51 10.12.2020
1332 Clouds 4 998 93 10000 3.1 60 02:40 10.12.2020
1333 Rain 5 998 86 10000 3.6 80 01:32 10.12.2020
1334 Rain 5 998 93 10000 4.6 80 23:42 09.12.2020
1335 Rain 5 998 86 10000 3.6 70 20:39 09.12.2020
1336 Rain 5 999 86 10000 3.1 70 19:46 09.12.2020
1337 Clouds 5 999 86 10000 3.6 80 18:36 09.12.2020
1338 Clouds 6 999 81 10000 2.6 120 17:19 09.12.2020
1339 Clouds 6 1000 81 10000 3.6 160 16:26 09.12.2020
1340 Clouds 6 1000 81 10000 3.6 170 15:44 09.12.2020
1341 Clouds 6 1000 81 10000 3.6 170 15:44 09.12.2020
1342 Clouds 6 1001 87 10000 2.1 150 14:50 09.12.2020
1343 Clouds 6 1001 87 10000 3.1 170 14:26 09.12.2020
1344 Clouds 6 1002 93 10000 1.5 0 13:19 09.12.2020
1345 Clouds 6 1002 93 10000 1.5 0 12:58 09.12.2020
1346 Clouds 6 1002 86 10000 1 220 12:23 09.12.2020
1347 Clouds 6 1003 86 10000 1.5 230 11:33 09.12.2020
1348 Clouds 5 1003 86 10000 2.1 220 09:51 09.12.2020
1349 Clouds 6 1003 93 10000 3.6 250 08:35 09.12.2020
1350 Clouds 6 1002 87 10000 4.6 230 06:38 09.12.2020
1351 Clouds 6 1002 81 10000 3.6 240 05:27 09.12.2020
1352 Clouds 6 1002 87 10000 4.1 240 02:31 09.12.2020
1353 Clouds 6 1001 81 10000 6.2 280 00:24 09.12.2020
1354 Clouds 6 1001 87 10000 3.1 280 23:28 08.12.2020
1355 Clouds 7 1000 81 10000 4.1 280 21:54 08.12.2020
1356 Clouds 7 999 81 10000 3.1 260 20:23 08.12.2020
1357 Clouds 7 999 87 10000 2.1 230 19:25 08.12.2020
1358 Clouds 6 999 87 10000 2.1 230 18:31 08.12.2020
1359 Clouds 7 997 81 10000 5.7 290 16:28 08.12.2020
1360 Clouds 7 996 87 10000 3.1 280 14:35 08.12.2020
1361 Clouds 7 996 93 10000 2.1 250 13:40 08.12.2020
1362 Rain 6 995 93 10000 1.5 250 12:35 08.12.2020
1363 Rain 7 995 87 10000 2.1 270 11:52 08.12.2020
1364 Clouds 6 994 87 10000 2.1 260 10:50 08.12.2020
1365 Clouds 6 994 87 10000 2.1 260 10:31 08.12.2020
1366 Rain 6 993 87 10000 3.1 250 08:57 08.12.2020
1367 Clouds 5 992 93 10000 3.1 250 07:34 08.12.2020
1368 Rain 6 993 81 10000 5.1 270 03:43 08.12.2020
1369 Rain 5 994 80 10000 4.1 250 01:36 08.12.2020
1370 Rain 4 995 80 10000 5.1 280 00:43 08.12.2020
1371 Rain 2 997 85 10000 3.6 220 22:48 07.12.2020
1372 Clouds 2 997 87 10000 3.6 240 21:58 07.12.2020
1373 Clouds 2 998 87 10000 2.1 240 20:32 07.12.2020
1374 Clouds 1 998 87 10000 3.1 250 18:47 07.12.2020
1375 Clouds 2 999 86 10000 1 0 17:29 07.12.2020
1376 Clouds 2 999 93 10000 3.1 260 16:56 07.12.2020
1377 Fog 2 999 84 10000 1 250 15:57 07.12.2020
1378 Mist 2 1000 83 4100 0.5 0 15:23 07.12.2020
1379 Clouds 3 1000 100 10000 0.5 0 14:24 07.12.2020
1380 Clouds 2 1001 100 9000 1 250 13:33 07.12.2020
1381 Fog 0 1001 88 400 0.5 0 11:45 07.12.2020
1382 Mist 0 1001 89 1300 0.5 0 11:20 07.12.2020
1383 Mist 0 1001 100 2900 1 0 09:57 07.12.2020
1384 Fog -1 1001 100 800 0.5 0 08:29 07.12.2020
1385 Fog -1 1002 100 100 0.5 0 06:44 07.12.2020
1386 Fog -1 1002 100 100 1 230 04:58 07.12.2020
1387 Fog -1 1003 100 250 0.5 90 01:57 07.12.2020
1388 Fog -3 1003 92 100 0.5 200 00:29 07.12.2020
1389 Fog -2 1004 100 200 0.5 350 22:28 06.12.2020
1390 Mist 0 1004 92 3600 1 0 20:58 06.12.2020
1391 Mist 0 1004 100 3600 1 0 20:34 06.12.2020
1392 Mist 1 1004 86 5000 1 0 19:56 06.12.2020
1393 Mist 1 1005 85 4700 0.5 270 18:40 06.12.2020
1394 Mist 1 1004 85 4400 1 270 16:56 06.12.2020
1395 Mist 1 1004 100 4100 0.5 0 15:21 06.12.2020
1396 Fog -2 1005 100 450 0.5 80 13:49 06.12.2020
1397 Mist 1 1005 92 1400 0.5 0 12:52 06.12.2020
1398 Fog 0 1005 100 100 1 230 12:18 06.12.2020
1399 Fog 0 1005 92 200 1 240 11:34 06.12.2020
1400 Fog -3 1005 92 350 0.58 16 10:51 06.12.2020
1401 Fog -3 1005 92 300 0.5 90 09:59 06.12.2020
1402 Fog 1 1004 92 800 0.83 347 08:30 06.12.2020
1403 Fog 1 1004 100 450 0.5 0 06:47 06.12.2020
1404 Clouds -2 1003 100 7000 0.5 220 01:47 06.12.2020
1405 Clear 0 1003 100 10000 3.1 240 00:41 06.12.2020
1406 Clear 0 1003 100 10000 3.1 240 00:23 06.12.2020
1407 Mist 0 1003 100 3700 2.1 220 22:46 05.12.2020
1408 Clear 1 1003 87 10000 1.5 240 22:20 05.12.2020
1409 Clear 2 1003 87 10000 1.5 240 21:48 05.12.2020
1410 Clouds 1 1003 88 8000 1 250 21:25 05.12.2020
1411 Clouds 3 1002 93 10000 1.5 260 19:21 05.12.2020
1412 Clouds 3 1002 93 10000 0.5 0 18:40 05.12.2020
1413 Clouds 3 1001 93 10000 1 230 17:29 05.12.2020
1414 Clouds 4 1000 86 10000 1 0 16:30 05.12.2020
1415 Clouds 5 1000 86 10000 1 0 15:47 05.12.2020
1416 Rain 5 1000 93 10000 1 280 14:24 05.12.2020
1417 Clouds 4 998 93 10000 1.5 0 11:52 05.12.2020
1418 Clouds 4 998 93 10000 1.5 0 11:30 05.12.2020
1419 Clouds 4 997 86 10000 3.6 40 10:29 05.12.2020
1420 Rain 5 995 86 10000 3.1 20 07:48 05.12.2020
1421 Rain 6 994 81 10000 5.1 30 06:22 05.12.2020
1422 Clouds 5 991 86 10000 6.7 20 03:39 05.12.2020
1423 Clouds 6 988 87 10000 7.2 20 23:48 04.12.2020
1424 Rain 6 987 81 10000 10.3 10 21:59 04.12.2020
1425 Rain 6 985 81 10000 10.3 20 19:57 04.12.2020
1426 Rain 6 983 81 10000 8.7 20 18:47 04.12.2020
1427 Rain 6 983 81 10000 8.7 20 17:54 04.12.2020
1428 Rain 6 982 75 10000 8.2 20 17:19 04.12.2020
1429 Clouds 6 981 75 10000 8.7 20 15:34 04.12.2020
1430 Rain 5 981 93 10000 6.2 10 13:38 04.12.2020
1431 Clouds 5 980 86 8000 8.2 20 13:20 04.12.2020
1432 Rain 5 980 86 10000 7.2 10 12:41 04.12.2020
1433 Haze 3 979 93 5000 8.2 10 10:38 04.12.2020
1434 Clouds 2 978 86 10000 8.2 10 09:30 04.12.2020
1435 Snow 2 980 74 10000 3.6 280 06:40 04.12.2020
1436 Snow 1 981 74 10000 3.1 260 04:54 04.12.2020
1437 Clouds -1 982 86 10000 2.1 240 01:54 04.12.2020
1438 Clouds -2 984 100 10000 1.5 180 22:51 03.12.2020
1439 Clouds -2 984 92 10000 2.1 240 21:56 03.12.2020
1440 Fog -1 984 100 6000 1.5 220 20:47 03.12.2020
1441 Mist 0 984 92 3000 1 0 19:25 03.12.2020
1442 Clouds 0 985 100 6000 1.5 240 18:48 03.12.2020
1443 Clouds 0 985 87 7000 2.6 40 17:21 03.12.2020
1444 Clouds 1 985 87 10000 3.6 60 16:45 03.12.2020
1445 Clouds 2 985 93 10000 2.6 90 15:33 03.12.2020
1446 Clouds 2 985 93 10000 2.1 60 14:50 03.12.2020
1447 Clouds 2 985 93 10000 2.1 60 14:19 03.12.2020
1448 Clouds 1 987 78 10000 2.6 40 12:54 03.12.2020
1449 Clouds 1 987 80 10000 1.5 70 12:24 03.12.2020
1450 Clouds 1 988 84 10000 2.6 120 10:55 03.12.2020
1451 Clouds 1 989 89 10000 1.5 0 08:49 03.12.2020
1452 Snow 1 993 79 10000 3.6 220 04:21 03.12.2020
1453 Rain 2 997 93 6000 7.2 240 02:20 03.12.2020
1454 Clouds 3 998 93 10000 4.1 190 00:32 03.12.2020
1455 Rain 4 1001 86 10000 6.7 220 22:47 02.12.2020
1456 Clouds 4 1002 86 10000 4.6 220 21:55 02.12.2020
1457 Rain 3 1003 93 10000 3.1 210 20:51 02.12.2020
1458 Rain 3 1004 86 10000 7.7 220 20:33 02.12.2020
1459 Rain 4 1005 86 10000 4.1 250 19:54 02.12.2020
1460 Clouds 4 1007 86 9000 5.7 250 17:51 02.12.2020
1461 Rain 4 1007 86 9000 5.7 250 17:33 02.12.2020
1462 Clouds 5 1009 86 10000 4.6 240 16:49 02.12.2020
1463 Clouds 6 1011 81 10000 6.2 240 14:33 02.12.2020
1464 Rain 6 1014 87 10000 4.1 210 11:33 02.12.2020
1465 Clouds 6 1015 93 10000 4.1 240 10:26 02.12.2020
1466 Clouds 7 1015 81 10000 4.6 210 08:24 02.12.2020
1467 Clouds 9 1022 93 10000 3.1 250 00:50 02.12.2020
1468 Clouds 9 1023 93 10000 2.6 220 22:21 01.12.2020
1469 Clouds 8 1024 93 7000 2.6 220 19:57 01.12.2020
1470 Clouds 8 1024 93 7000 2.6 220 19:33 01.12.2020
1471 Clouds 7 1024 93 10000 1 0 17:27 01.12.2020
1472 Clouds 6 1026 87 10000 0.5 0 15:24 01.12.2020
1473 Clouds 6 1027 86 10000 1 80 13:37 01.12.2020
1474 Rain 5 1027 93 10000 0.5 0 11:43 01.12.2020
1475 Clouds 4 1028 86 10000 1 70 10:55 01.12.2020
1476 Clouds 3 1028 93 10000 1 60 10:32 01.12.2020
1477 Clouds 2 1028 93 10000 1.5 270 07:47 01.12.2020
1478 Clouds 2 1027 86 10000 0.5 0 06:26 01.12.2020
1479 Clouds 3 1026 84 10000 2.6 260 01:36 01.12.2020
1480 Clouds 3 1026 84 10000 3.1 200 00:50 01.12.2020
1481 Clouds 4 1025 86 10000 3.1 300 23:20 30.11.2020
1482 Clouds 4 1025 80 10000 3.1 300 22:42 30.11.2020
1483 Clouds 4 1025 80 10000 3.1 300 22:22 30.11.2020
1484 Clouds 5 1023 80 10000 4.6 310 20:34 30.11.2020
1485 Clouds 5 1022 75 10000 3.6 290 19:41 30.11.2020
1486 Clouds 6 1021 75 10000 2.1 290 18:21 30.11.2020
1487 Clouds 6 1020 80 10000 4.6 240 17:46 30.11.2020
1488 Clouds 7 1020 65 10000 4.1 280 16:53 30.11.2020
1489 Clouds 9 1017 66 10000 10.3 290 14:53 30.11.2020
1490 Clouds 9 1016 76 10000 8.7 290 13:55 30.11.2020
1491 Clouds 10 1016 76 10000 10.3 300 13:22 30.11.2020
1492 Clouds 11 1015 81 10000 6.2 280 12:25 30.11.2020
1493 Clouds 11 1015 87 10000 5.7 250 11:46 30.11.2020
1494 Clouds 10 1015 93 9000 7.2 240 10:25 30.11.2020
1495 Rain 9 1016 93 4400 9.3 230 08:53 30.11.2020
1496 Clouds 8 1023 93 6000 4.6 220 01:29 30.11.2020
1497 Mist 5 1023 93 4000 0.5 0 23:28 29.11.2020
1498 Haze 5 1024 93 4900 0.5 90 21:45 29.11.2020
1499 Haze 5 1024 93 4900 0.5 90 21:26 29.11.2020
1500 Haze 5 1024 93 4900 0.5 90 21:26 29.11.2020
1501 Clouds 5 1025 93 7000 0.5 0 19:19 29.11.2020
1502 Clouds 4 1025 93 6000 0.5 0 17:34 29.11.2020
1503 Clouds 2 1026 100 6000 0.5 50 14:46 29.11.2020
1504 Mist 1 1027 100 2300 0.5 0 12:45 29.11.2020
1505 Fog 1 1027 84 350 1 30 11:37 29.11.2020
1506 Fog 1 1026 84 100 0.5 0 08:54 29.11.2020
1507 Fog 1 1026 84 200 0.5 150 08:34 29.11.2020
1508 Mist 2 1026 80 3700 1 90 02:31 29.11.2020
1509 Mist 4 1025 93 4900 1 0 22:59 28.11.2020
1510 Mist 3 1025 93 4100 1.5 0 22:26 28.11.2020
1511 Clear 3 1023 86 10000 2.1 90 19:59 28.11.2020
1512 Clouds 3 1023 86 10000 2.6 80 19:28 28.11.2020
1513 Clouds 4 1023 93 10000 2.1 70 18:57 28.11.2020
1514 Clouds 4 1023 86 10000 2.1 60 18:20 28.11.2020
1515 Clear 5 1022 80 10000 3.1 60 16:57 28.11.2020
1516 Clear 6 1021 75 10000 1.5 0 14:58 28.11.2020
1517 Clear 6 1021 75 10000 2.1 80 13:47 28.11.2020
1518 Clouds 4 1021 93 10000 1.5 70 11:27 28.11.2020
1519 Clouds 4 1019 93 9000 1.5 40 09:25 28.11.2020
1520 Clouds 4 1017 93 10000 1 80 03:39 28.11.2020
1521 Clouds 4 1017 100 10000 1.5 60 01:52 28.11.2020
1522 Clouds 5 1016 100 6000 1 0 23:19 27.11.2020
1523 Clouds 5 1017 93 10000 1.5 20 22:23 27.11.2020
1524 Rain 5 1017 93 10000 0.5 70 20:39 27.11.2020
1525 Rain 6 1017 93 10000 0.5 100 19:33 27.11.2020
1526 Rain 6 1017 93 10000 1.5 70 18:57 27.11.2020
1527 Rain 6 1017 87 10000 1.5 40 16:27 27.11.2020
1528 Clouds 7 1018 81 10000 2.1 40 14:23 27.11.2020
1529 Clouds 7 1019 81 10000 1.5 50 13:18 27.11.2020
1530 Clouds 7 1019 81 10000 2.1 40 12:46 27.11.2020
1531 Clouds 5 1020 93 10000 2.1 30 10:53 27.11.2020
1532 Clouds 5 1020 93 10000 1.5 40 10:31 27.11.2020
1533 Clouds 4 1019 93 10000 2.1 40 09:27 27.11.2020
1534 Clouds 6 1025 91 10000 0.45 90 22:59 26.11.2020
1535 Clouds 6 1024 88 10000 2.14 207 22:22 26.11.2020
1536 Rain 4 1020 100 2000 0.5 0 21:39 26.11.2020
1537 Fog 4 1020 100 400 1 60 20:39 26.11.2020
1538 Mist 6 1020 93 5000 2.1 80 18:36 26.11.2020
1539 Clouds 6 1020 93 9000 0.5 0 16:38 26.11.2020
1540 Clouds 5 1021 100 7000 1 0 13:44 26.11.2020
1541 Clouds 4 1021 93 7000 0.5 0 12:52 26.11.2020
1542 Clouds 4 1021 100 7000 1 0 12:29 26.11.2020
1543 Fog 2 1021 89 900 1 0 10:39 26.11.2020
1544 Fog 1 1020 100 800 1 220 10:18 26.11.2020
1545 Fog 1 1020 100 600 0.5 0 09:34 26.11.2020
1546 Fog 1 1020 100 800 0.5 190 08:44 26.11.2020
1547 Fog 2 1019 88 1500 0.5 0 07:49 26.11.2020
1548 Clouds 4 1018 93 7000 2.6 220 02:18 26.11.2020
1549 Clouds 6 1015 93 10000 2.1 220 21:54 25.11.2020
1550 Mist 6 1014 93 2600 1 10 20:31 25.11.2020
1551 Clouds 6 1012 93 10000 1 260 18:59 25.11.2020
1552 Clouds 8 1011 87 10000 4.1 230 17:27 25.11.2020
1553 Clouds 9 1010 81 10000 5.7 220 15:43 25.11.2020
1554 Clouds 9 1010 81 10000 5.1 220 14:46 25.11.2020
1555 Clouds 9 1010 87 10000 5.7 220 13:45 25.11.2020
1556 Clouds 8 1009 93 10000 1.5 0 12:47 25.11.2020
1557 Clouds 6 1009 100 10000 2.6 60 11:22 25.11.2020
1558 Clouds 5 1007 100 10000 1.5 350 09:20 25.11.2020
1559 Clouds 5 1007 93 10000 1 0 08:50 25.11.2020
1560 Clouds 5 1006 93 10000 3.6 230 07:20 25.11.2020
1561 Clouds 6 1005 93 10000 2.6 230 03:49 25.11.2020
1562 Clouds 6 1004 93 10000 1.5 0 01:34 25.11.2020
1563 Clouds 6 1003 93 10000 2.1 240 23:59 24.11.2020
1564 Rain 7 1003 87 10000 3.6 230 23:34 24.11.2020
1565 Rain 7 1003 87 10000 3.1 240 22:38 24.11.2020
1566 Rain 7 1002 93 10000 3.6 260 21:31 24.11.2020
1567 Rain 7 1002 87 10000 4.1 270 20:51 24.11.2020
1568 Clouds 7 1001 93 10000 4.6 260 19:47 24.11.2020
1569 Rain 11 1000 81 10000 9.8 190 17:31 24.11.2020
1570 Clouds 11 1000 81 10000 11.3 190 16:56 24.11.2020
1571 Clouds 11 1000 81 8000 11.8 190 16:36 24.11.2020
1572 Rain 12 1001 81 10000 11.3 190 15:55 24.11.2020
1573 Rain 12 1002 87 10000 10.3 190 15:19 24.11.2020
1574 Rain 12 1002 87 10000 8.7 200 14:43 24.11.2020
1575 Rain 11 1003 93 4700 7.2 200 12:58 24.11.2020
1576 Rain 11 1004 87 7000 7.2 200 12:31 24.11.2020
1577 Rain 11 1004 87 8000 9.3 200 11:58 24.11.2020
1578 Rain 11 1005 87 10000 6.7 190 10:49 24.11.2020
1579 Rain 11 1005 87 10000 6.7 190 10:25 24.11.2020
1580 Rain 10 1006 93 5000 5.1 200 09:36 24.11.2020
1581 Rain 10 1006 93 7000 5.1 200 08:27 24.11.2020
1582 Rain 10 1008 93 10000 4.6 240 04:49 24.11.2020
1583 Rain 12 1008 87 8000 11.3 210 23:32 23.11.2020
1584 Rain 11 1008 93 2900 13.4 210 21:46 23.11.2020
1585 Clouds 11 1008 93 6000 11.8 210 20:58 23.11.2020
1586 Drizzle 11 1009 87 3900 10.3 210 20:28 23.11.2020
1587 Rain 10 1010 93 7000 8.7 210 19:36 23.11.2020
1588 Rain 10 1011 87 10000 9.3 210 17:27 23.11.2020
1589 Rain 10 1012 87 10000 8.7 210 16:54 23.11.2020
1590 Rain 9 1014 87 5000 9.3 200 14:49 23.11.2020
1591 Rain 8 1014 87 10000 9.8 200 13:54 23.11.2020
1592 Rain 9 1016 76 10000 9.3 200 12:39 23.11.2020
1593 Clouds 8 1017 75 10000 7.2 200 11:50 23.11.2020
1594 Clouds 7 1017 81 10000 8.7 200 11:25 23.11.2020
1595 Clouds 6 1019 87 10000 4.6 190 09:42 23.11.2020
1596 Clouds 7 1019 81 10000 7.2 200 08:49 23.11.2020
1597 Clouds 7 1020 81 10000 6.2 200 07:29 23.11.2020
1598 Clouds 6 1021 93 10000 5.1 210 00:39 23.11.2020
1599 Clouds 6 1021 87 10000 4.6 200 23:38 22.11.2020
1600 Clouds 6 1021 86 10000 3.6 230 22:18 22.11.2020
1601 Clear 6 1021 81 10000 5.1 250 20:54 22.11.2020
1602 Clear 5 1021 81 10000 4.6 260 19:58 22.11.2020
1603 Clouds 5 1021 86 10000 2.1 250 18:54 22.11.2020
1604 Clouds 6 1020 87 8000 4.6 250 17:33 22.11.2020
1605 Clouds 6 1020 87 10000 2.6 230 15:58 22.11.2020
1606 Rain 7 1021 81 10000 6.2 220 14:40 22.11.2020
1607 Clouds 7 1021 81 10000 6.7 230 12:50 22.11.2020
1608 Clouds 7 1021 81 10000 5.1 230 12:18 22.11.2020
1609 Clouds 7 1020 75 10000 5.7 250 11:21 22.11.2020
1610 Clouds 6 1020 81 10000 5.7 240 10:45 22.11.2020
1611 Clouds 6 1019 81 10000 5.1 250 09:32 22.11.2020
1612 Clouds 7 1018 75 9000 8.7 250 01:49 22.11.2020
1613 Clouds 6 1017 87 10000 5.7 230 23:40 21.11.2020
1614 Clouds 6 1016 87 10000 5.7 220 22:18 21.11.2020
1615 Clouds 7 1017 81 10000 4.6 240 21:30 21.11.2020
1616 Clouds 7 1017 81 10000 4.6 240 21:30 21.11.2020
1617 Rain 7 1017 81 10000 5.7 250 20:35 21.11.2020
1618 Clouds 7 1016 75 10000 7.2 220 19:54 21.11.2020
1619 Clouds 7 1016 81 10000 6.7 220 19:33 21.11.2020
1620 Clouds 7 1016 87 10000 6.7 220 18:27 21.11.2020
1621 Clouds 8 1015 75 10000 5.7 230 16:49 21.11.2020
1622 Clouds 8 1015 75 10000 5.7 230 16:49 21.11.2020
1623 Clouds 8 1015 75 10000 5.7 230 16:49 21.11.2020
1624 Rain 8 1015 75 10000 5.7 230 16:26 21.11.2020
1625 Rain 8 1015 81 10000 5.7 240 15:22 21.11.2020
1626 Rain 9 1015 87 5000 5.1 270 14:43 21.11.2020
1627 Rain 9 1015 76 10000 6.7 250 14:20 21.11.2020
1628 Rain 9 1015 76 10000 6.7 250 14:20 21.11.2020
1629 Clouds 9 1015 81 10000 7.2 250 12:28 21.11.2020
1630 Rain 9 1015 76 4600 7.7 250 11:58 21.11.2020
1631 Rain 9 1014 81 10000 5.7 210 10:40 21.11.2020
1632 Clouds 9 1014 81 10000 7.2 220 09:58 21.11.2020
1633 Clouds 9 1014 87 10000 6.2 230 08:51 21.11.2020
1634 Clouds 8 1013 93 10000 3.6 240 06:34 21.11.2020
1635 Rain 9 1013 87 10000 4.6 250 04:33 21.11.2020
1636 Clouds 11 1015 81 10000 6.7 240 00:38 21.11.2020
1637 Clouds 12 1015 87 10000 8.2 230 23:25 20.11.2020
1638 Clouds 12 1016 87 3600 10.8 220 21:56 20.11.2020
1639 Clouds 12 1016 87 8000 11.8 230 21:38 20.11.2020
1640 Clouds 12 1016 87 8000 11.8 230 21:38 20.11.2020
1641 Clouds 11 1016 93 3300 11.8 220 21:18 20.11.2020
1642 Clouds 12 1016 93 2900 11.3 220 19:44 20.11.2020
1643 Rain 12 1016 93 9000 7.2 210 18:32 20.11.2020
1644 Clouds 12 1017 93 3100 6.2 200 17:42 20.11.2020
1645 Clouds 12 1017 93 3900 7.2 220 17:23 20.11.2020
1646 Clouds 12 1018 87 10000 7.2 200 16:37 20.11.2020
1647 Clouds 11 1018 93 2700 7.2 210 15:51 20.11.2020
1648 Rain 11 1019 93 3700 6.2 210 14:30 20.11.2020
1649 Drizzle 10 1021 100 3200 2.1 30 13:43 20.11.2020
1650 Rain 9 1021 93 3100 1.5 70 12:59 20.11.2020
1651 Drizzle 8 1022 100 5000 2.1 50 12:28 20.11.2020
1652 Rain 8 1022 93 8000 2.6 40 11:39 20.11.2020
1653 Clouds 6 1023 93 6000 2.1 50 10:37 20.11.2020
1654 Haze 6 1024 93 5000 3.1 50 08:36 20.11.2020
1655 Clouds 5 1024 86 6000 3.6 50 07:58 20.11.2020
1656 Clouds 4 1026 86 10000 3.1 50 05:20 20.11.2020
1657 Clouds 4 1028 93 10000 2.6 60 03:42 20.11.2020
1658 Clouds 3 1031 86 10000 0.5 20 22:33 19.11.2020
1659 Clouds 3 1031 86 10000 0.5 0 21:54 19.11.2020
1660 Clouds 3 1031 86 10000 1 100 20:59 19.11.2020
1661 Clouds 3 1031 86 10000 1.4 259 20:21 19.11.2020
1662 Clouds 3 1031 76 10000 1.5 350 19:28 19.11.2020
1663 Clouds 3 1031 77 10000 1.5 250 18:55 19.11.2020
1664 Clouds 3 1031 77 10000 1.5 250 18:55 19.11.2020
1665 Clouds 5 1030 78 10000 3.1 250 17:35 19.11.2020
1666 Clear 5 1030 75 10000 3.6 250 16:39 19.11.2020
1667 Clear 6 1028 60 10000 3.1 300 15:31 19.11.2020
1668 Clear 6 1029 66 10000 4.6 270 13:58 19.11.2020
1669 Clear 6 1029 66 10000 5.1 270 13:38 19.11.2020
1670 Clouds 6 1028 70 10000 3.1 300 12:55 19.11.2020
1671 Clouds 6 1028 70 10000 3.1 280 12:34 19.11.2020
1672 Clouds 5 1026 75 10000 4.1 290 11:41 19.11.2020
1673 Clouds 5 1026 75 10000 4.1 290 11:22 19.11.2020
1674 Clouds 3 1025 93 10000 2.1 270 10:31 19.11.2020
1675 Clouds 2 1024 77 10000 2.1 230 09:48 19.11.2020
1676 Clouds 3 1023 78 10000 2.1 240 09:28 19.11.2020
1677 Clouds 4 1022 78 10000 1.5 0 08:37 19.11.2020
1678 Clouds 4 1021 80 10000 2.6 270 07:35 19.11.2020
1679 Rain 6 1006 93 10000 2.6 270 01:48 19.11.2020
1680 Clouds 7 1003 87 10000 3.6 260 00:32 19.11.2020
1681 Clouds 7 1002 93 10000 3.6 270 23:31 18.11.2020
1682 Clouds 8 1002 87 8000 3.6 290 22:59 18.11.2020
1683 Rain 8 1001 87 10000 4.1 280 22:29 18.11.2020
1684 Rain 8 1001 87 10000 4.1 280 22:29 18.11.2020
1685 Rain 8 1001 87 10000 7.7 240 21:43 18.11.2020
1686 Rain 8 1001 87 10000 7.7 240 21:43 18.11.2020
1687 Rain 8 1001 87 10000 7.7 240 21:25 18.11.2020
1688 Rain 8 1000 87 10000 7.7 230 20:35 18.11.2020
1689 Rain 7 1000 87 10000 6.7 240 19:42 18.11.2020
1690 Rain 7 1000 87 10000 8.7 230 19:21 18.11.2020
1691 Rain 8 999 75 10000 10.8 230 18:40 18.11.2020
1692 Rain 8 999 75 10000 10.3 220 17:44 18.11.2020
1693 Clouds 8 999 70 10000 9.8 240 16:27 18.11.2020
1694 Clouds 9 999 70 10000 9.8 240 15:58 18.11.2020
1695 Rain 10 999 87 3000 6.7 230 14:41 18.11.2020
1696 Rain 10 999 87 10000 6.7 250 13:47 18.11.2020
1697 Rain 10 999 87 10000 5.1 230 13:21 18.11.2020
1698 Rain 11 999 87 10000 5.7 250 12:42 18.11.2020
1699 Rain 12 998 93 3300 9.8 200 11:42 18.11.2020
1700 Rain 12 998 93 3300 9.8 200 11:42 18.11.2020
1701 Rain 13 998 93 4500 10.3 190 10:54 18.11.2020
1702 Rain 13 998 93 2500 9.8 190 10:27 18.11.2020
1703 Clouds 13 1000 87 5000 9.3 180 08:23 18.11.2020
1704 Clouds 13 1002 87 3900 10.3 190 06:37 18.11.2020
1705 Clouds 13 1006 87 10000 8.2 210 01:49 18.11.2020
1706 Clouds 14 1007 82 10000 5.1 210 00:18 18.11.2020
1707 Clouds 14 1007 82 10000 9.3 210 23:21 17.11.2020
1708 Clouds 14 1008 87 10000 8.2 210 22:29 17.11.2020
1709 Clouds 14 1008 87 10000 6.7 210 21:52 17.11.2020
1710 Clouds 14 1007 82 10000 8.7 200 21:31 17.11.2020
1711 Clouds 14 1007 82 10000 7.2 190 20:55 17.11.2020
1712 Clouds 14 1007 82 10000 9.3 190 20:27 17.11.2020
1713 Clouds 14 1007 82 10000 8.2 200 19:56 17.11.2020
1714 Rain 14 1007 87 4400 8.2 200 18:35 17.11.2020
1715 Clouds 14 1007 87 5000 8.7 200 17:44 17.11.2020
1716 Clouds 14 1007 87 3500 9.3 210 16:55 17.11.2020
1717 Clouds 13 1007 93 3500 8.2 210 16:20 17.11.2020
1718 Clouds 13 1007 93 3600 9.8 210 15:41 17.11.2020
1719 Clouds 13 1007 93 3600 9.8 210 15:22 17.11.2020
1720 Rain 14 1007 87 3600 10.3 210 14:56 17.11.2020
1721 Clouds 14 1006 87 5000 10.3 210 14:28 17.11.2020
1722 Clouds 13 1006 93 7000 9.3 210 13:36 17.11.2020
1723 Clouds 13 1006 87 3600 11.8 210 12:48 17.11.2020
1724 Clouds 13 1006 87 3600 11.8 210 12:24 17.11.2020
1725 Rain 13 1005 87 6000 11.8 210 11:42 17.11.2020
1726 Rain 13 1005 93 4200 11.3 210 10:46 17.11.2020
1727 Rain 13 1005 93 4200 11.3 210 10:23 17.11.2020
1728 Rain 13 1004 87 3600 11.8 210 09:49 17.11.2020
1729 Rain 13 1003 87 6000 11.3 210 09:20 17.11.2020
1730 Rain 13 1003 87 10000 11.8 220 08:21 17.11.2020
1731 Rain 13 1003 87 10000 10.8 220 07:35 17.11.2020
1732 Rain 13 1002 93 5000 12.9 210 04:32 17.11.2020
1733 Rain 13 1002 93 10000 11.3 220 03:29 17.11.2020
1734 Clouds 13 1002 93 10000 10.3 220 02:29 17.11.2020
1735 Clouds 12 1002 100 3700 8.2 220 00:57 17.11.2020
1736 Clouds 12 1002 93 10000 8.7 220 23:57 16.11.2020
1737 Rain 12 1002 93 9000 8.7 220 23:33 16.11.2020
1738 Rain 12 1002 93 7000 9.3 220 22:59 16.11.2020
1739 Rain 12 1001 87 9000 10.3 210 22:26 16.11.2020
1740 Rain 11 1001 93 10000 8.2 210 21:56 16.11.2020
1741 Clouds 11 1001 87 9000 7.2 210 21:38 16.11.2020
1742 Clouds 10 1002 93 6000 5.1 200 21:19 16.11.2020
1743 Rain 10 1002 93 9000 3.1 190 20:26 16.11.2020
1744 Rain 10 1002 87 10000 2.6 190 19:53 16.11.2020
1745 Rain 9 1003 93 10000 3.1 180 19:29 16.11.2020
1746 Rain 9 1003 87 10000 4.1 190 18:51 16.11.2020
1747 Clouds 9 1004 87 10000 5.1 200 18:18 16.11.2020
1748 Clouds 9 1003 87 10000 6.2 200 17:28 16.11.2020
1749 Clouds 9 1004 87 10000 6.2 210 16:57 16.11.2020
1750 Clouds 9 1004 87 10000 6.2 210 16:39 16.11.2020
1751 Clouds 9 1004 81 10000 6.2 210 16:20 16.11.2020
1752 Clouds 9 1004 81 10000 7.7 220 15:43 16.11.2020
1753 Clouds 9 1004 81 10000 7.7 220 15:43 16.11.2020
1754 Clouds 10 1004 81 10000 7.7 220 15:25 16.11.2020
1755 Clouds 9 1004 81 10000 7.2 220 14:47 16.11.2020
1756 Clouds 9 1004 81 10000 6.7 230 13:41 16.11.2020
1757 Clouds 10 1003 71 10000 6.7 250 12:45 16.11.2020
1758 Clouds 10 1003 71 10000 6.7 250 12:45 16.11.2020
1759 Clouds 10 1003 71 10000 6.7 250 12:45 16.11.2020
1760 Clouds 10 1003 71 10000 6.7 250 12:25 16.11.2020
1761 Clouds 9 1003 81 10000 6.7 250 11:38 16.11.2020
1762 Clouds 8 1002 81 10000 7.7 260 11:20 16.11.2020
1763 Rain 8 1002 81 10000 5.7 240 10:42 16.11.2020
1764 Clouds 8 1002 81 10000 5.7 240 10:24 16.11.2020
1765 Clouds 8 1001 75 10000 7.7 250 09:43 16.11.2020
1766 Clouds 8 1001 75 10000 7.7 250 09:22 16.11.2020
1767 Clouds 8 1000 81 10000 7.7 250 08:40 16.11.2020
1768 Clouds 9 998 87 10000 9.3 250 07:45 16.11.2020
1769 Clouds 9 997 93 6000 9.8 250 06:50 16.11.2020
1770 Clouds 10 996 87 10000 7.2 250 06:24 16.11.2020
1771 Rain 11 994 76 10000 8.2 260 04:43 16.11.2020
1772 Rain 11 991 87 10000 7.7 250 02:29 16.11.2020
1773 Rain 10 990 87 10000 6.2 240 01:41 16.11.2020
1774 Rain 9 988 93 10000 4.1 230 23:54 15.11.2020
1775 Clouds 8 988 87 10000 3.1 240 23:22 15.11.2020
1776 Clouds 9 987 87 10000 4.6 250 22:48 15.11.2020
1777 Clouds 9 987 93 10000 5.1 250 22:21 15.11.2020
1778 Clouds 9 985 87 10000 4.6 260 21:44 15.11.2020
1779 Clouds 9 985 87 10000 4.6 260 21:24 15.11.2020
1780 Clouds 9 984 93 10000 4.6 260 20:41 15.11.2020
1781 Clouds 9 983 93 10000 4.1 270 20:19 15.11.2020
1782 Clouds 9 983 93 10000 3.1 250 19:48 15.11.2020
1783 Clouds 8 982 93 10000 3.1 250 19:22 15.11.2020
1784 Clouds 8 982 93 10000 3.1 250 18:57 15.11.2020
1785 Drizzle 8 982 93 3400 1 0 18:39 15.11.2020
1786 Drizzle 8 982 93 3400 1 0 18:19 15.11.2020
1787 Clouds 8 981 93 3700 1.92 227 17:44 15.11.2020
1788 Drizzle 8 980 93 3500 1.5 0 17:24 15.11.2020
1789 Rain 8 980 87 10000 4.6 180 16:46 15.11.2020
1790 Rain 8 980 87 10000 4.6 180 16:21 15.11.2020
1791 Clouds 9 979 87 10000 4.1 160 15:50 15.11.2020
1792 Rain 9 979 87 10000 2.1 140 15:28 15.11.2020
1793 Clouds 10 979 93 10000 2.6 60 14:58 15.11.2020
1794 Clouds 10 979 93 10000 3.1 40 14:30 15.11.2020
1795 Clouds 10 980 100 10000 3.1 60 13:56 15.11.2020
1796 Clouds 10 980 93 10000 3.6 70 13:36 15.11.2020
1797 Rain 10 980 93 10000 4.1 80 12:50 15.11.2020
1798 Rain 10 981 93 3400 3.1 70 12:23 15.11.2020
1799 Rain 10 981 100 6000 2.1 80 11:46 15.11.2020
1800 Rain 9 982 100 10000 2.1 70 11:20 15.11.2020
1801 Rain 9 982 100 10000 2.1 70 10:53 15.11.2020
1802 Rain 10 982 93 10000 3.1 60 10:32 15.11.2020
1803 Rain 10 982 93 4400 2.6 80 09:57 15.11.2020
1804 Rain 10 982 93 10000 3.1 100 09:37 15.11.2020
1805 Rain 10 982 93 10000 3.6 110 09:18 15.11.2020
1806 Rain 9 983 93 10000 3.1 60 08:45 15.11.2020
1807 Clouds 9 984 93 2800 2.1 80 07:47 15.11.2020
1808 Clouds 9 984 93 10000 1.5 0 06:49 15.11.2020
1809 Clouds 9 986 81 10000 2.6 190 04:56 15.11.2020
1810 Rain 10 986 87 6000 11.3 210 02:27 15.11.2020
1811 Rain 11 984 87 2900 14.4 200 00:37 15.11.2020
1812 Rain 11 984 87 7000 10.8 190 00:18 15.11.2020
1813 Rain 11 983 87 8000 9.8 180 23:27 14.11.2020
1814 Rain 11 984 87 10000 6.7 160 22:45 14.11.2020
1815 Rain 11 984 87 10000 6.7 160 22:26 14.11.2020
1816 Clouds 11 985 76 10000 4.6 140 21:39 14.11.2020
1817 Rain 11 985 76 10000 4.6 140 21:21 14.11.2020
1818 Rain 11 985 76 10000 4.6 140 21:21 14.11.2020
1819 Clouds 11 986 87 10000 5.1 130 20:48 14.11.2020
1820 Rain 12 986 87 10000 5.1 130 20:25 14.11.2020
1821 Clouds 11 986 93 10000 5.1 70 19:39 14.11.2020
1822 Clouds 11 986 93 10000 5.1 70 19:20 14.11.2020
1823 Clouds 11 988 93 10000 4.6 70 18:42 14.11.2020
1824 Rain 10 989 93 10000 5.1 70 18:22 14.11.2020
1825 Rain 11 990 87 10000 4.1 70 17:46 14.11.2020
1826 Clouds 11 990 87 10000 4.1 70 17:28 14.11.2020
1827 Rain 10 991 87 10000 3.1 60 16:53 14.11.2020
1828 Clouds 10 992 87 10000 4.6 80 16:34 14.11.2020
1829 Clouds 10 993 87 10000 5.1 90 15:58 14.11.2020
1830 Clouds 10 993 87 10000 4.6 80 15:33 14.11.2020
1831 Clouds 10 994 87 10000 3.6 100 14:57 14.11.2020
1832 Clouds 10 995 87 10000 4.1 90 14:30 14.11.2020
1833 Clouds 10 996 81 10000 4.1 120 13:55 14.11.2020
1834 Clouds 10 996 87 10000 4.6 140 13:37 14.11.2020
1835 Clouds 10 997 87 10000 4.1 130 13:19 14.11.2020
1836 Clouds 10 997 87 10000 5.1 130 12:39 14.11.2020
1837 Clouds 10 998 87 10000 4.6 130 12:18 14.11.2020
1838 Clouds 9 998 93 10000 3.6 140 11:39 14.11.2020
1839 Clouds 9 999 93 10000 3.1 140 11:18 14.11.2020
1840 Clouds 9 999 93 10000 3.6 150 10:40 14.11.2020
1841 Rain 9 999 93 10000 2.6 150 10:22 14.11.2020
1842 Rain 9 1000 87 10000 3.1 130 09:45 14.11.2020
1843 Rain 9 1000 87 10000 3.1 130 09:27 14.11.2020
1844 Rain 8 1000 87 10000 3.6 140 08:42 14.11.2020
1845 Rain 8 1000 87 10000 3.6 140 08:22 14.11.2020
1846 Rain 8 1000 87 10000 5.1 170 07:42 14.11.2020
1847 Rain 8 1000 87 10000 5.1 170 07:42 14.11.2020
1848 Rain 9 1001 87 10000 5.1 170 06:58 14.11.2020
1849 Clouds 9 1001 87 10000 5.7 180 06:21 14.11.2020
1850 Rain 9 1002 87 10000 5.7 190 05:18 14.11.2020
1851 Clouds 9 1003 87 10000 6.7 190 03:21 14.11.2020
1852 Rain 8 1003 81 10000 4.6 190 00:28 14.11.2020
1853 Clouds 9 1004 81 10000 6.2 210 23:38 13.11.2020
1854 Clouds 9 1003 81 10000 5.7 210 22:59 13.11.2020
1855 Clouds 8 1003 81 10000 6.7 220 22:41 13.11.2020
1856 Clouds 8 1003 81 10000 6.7 220 22:21 13.11.2020
1857 Clouds 8 1003 76 10000 7.7 210 21:49 13.11.2020
1858 Clouds 8 1003 76 10000 7.7 210 21:27 13.11.2020
1859 Clouds 8 1003 76 10000 7.2 220 20:51 13.11.2020
1860 Clouds 8 1003 81 10000 7.2 220 20:32 13.11.2020
1861 Clouds 8 1003 81 10000 5.1 220 19:56 13.11.2020
1862 Clouds 8 1003 70 10000 6.2 210 19:37 13.11.2020
1863 Clouds 8 1003 70 10000 6.2 210 19:19 13.11.2020
1864 Clouds 8 1002 75 10000 7.7 210 18:32 13.11.2020
1865 Clouds 8 1002 75 10000 9.3 220 17:47 13.11.2020
1866 Clouds 8 1002 75 10000 9.3 220 17:23 13.11.2020
1867 Clouds 9 1002 76 10000 8.2 210 16:57 13.11.2020
1868 Clouds 9 1002 76 10000 8.2 220 16:39 13.11.2020
1869 Clouds 9 1002 76 10000 8.2 220 16:20 13.11.2020
1870 Clouds 9 1001 76 10000 9.3 220 15:39 13.11.2020
1871 Clouds 9 1001 76 10000 9.3 220 15:21 13.11.2020
1872 Clouds 9 1001 76 10000 7.7 220 14:38 13.11.2020
1873 Clouds 9 1001 76 10000 8.7 220 14:18 13.11.2020
1874 Clouds 9 1001 76 10000 8.7 220 14:18 13.11.2020
1875 Clouds 9 1000 76 10000 10.3 220 13:32 13.11.2020
1876 Clouds 9 1000 76 10000 9.3 220 12:59 13.11.2020
1877 Clouds 9 1000 81 10000 8.2 210 12:40 13.11.2020
1878 Clouds 9 1000 81 10000 8.2 210 12:22 13.11.2020
1879 Clouds 8 999 87 10000 8.7 210 11:46 13.11.2020
1880 Clouds 8 999 87 10000 8.7 210 11:46 13.11.2020
1881 Clouds 8 999 87 10000 7.7 210 11:21 13.11.2020
1882 Clouds 8 999 87 10000 7.7 210 10:50 13.11.2020
1883 Rain 8 999 87 10000 8.2 210 10:32 13.11.2020
1884 Clouds 8 998 81 10000 7.2 220 09:48 13.11.2020
1885 Rain 8 998 81 10000 7.2 220 09:29 13.11.2020
1886 Clouds 7 999 87 10000 3.6 220 08:53 13.11.2020
1887 Clouds 8 998 81 10000 2.1 260 08:27 13.11.2020
1888 Clouds 7 998 81 10000 3.1 200 07:50 13.11.2020
1889 Rain 7 997 87 10000 1 0 07:27 13.11.2020
1890 Clouds 7 997 81 10000 1.5 0 06:55 13.11.2020
1891 Rain 7 997 87 7000 4.1 240 06:36 13.11.2020
1892 Rain 8 996 81 10000 5.1 250 05:41 13.11.2020
1893 Rain 11 996 93 2800 9.3 180 03:41 13.11.2020
1894 Rain 12 998 81 3300 10.8 190 01:42 13.11.2020
1895 Clouds 12 999 76 10000 9.3 180 00:36 13.11.2020
1896 Clouds 12 999 76 10000 5.1 160 23:50 12.11.2020
1897 Clouds 12 1000 81 10000 5.1 150 23:21 12.11.2020
1898 Clouds 12 1000 81 10000 6.2 160 22:55 12.11.2020
1899 Clouds 12 1000 76 10000 6.2 160 22:37 12.11.2020
1900 Clouds 12 1001 76 10000 5.7 160 21:58 12.11.2020
1901 Clouds 11 1001 81 10000 5.7 150 21:40 12.11.2020
1902 Clouds 11 1001 81 10000 5.7 150 21:21 12.11.2020
1903 Clouds 11 1002 87 10000 4.6 130 20:41 12.11.2020
1904 Clouds 10 1002 87 10000 4.6 130 20:23 12.11.2020
1905 Clouds 11 1003 76 10000 4.6 160 19:53 12.11.2020
1906 Clouds 11 1003 76 10000 5.1 160 19:34 12.11.2020
1907 Clouds 11 1003 76 10000 4.1 170 18:58 12.11.2020
1908 Clouds 11 1003 76 10000 5.1 180 18:39 12.11.2020
1909 Clouds 11 1003 76 10000 7.7 180 18:19 12.11.2020
1910 Clouds 11 1003 71 10000 7.2 180 17:40 12.11.2020
1911 Clouds 11 1003 71 10000 7.2 180 17:22 12.11.2020
1912 Clouds 11 1004 71 10000 7.2 180 16:44 12.11.2020
1913 Clouds 11 1004 71 10000 7.2 180 16:23 12.11.2020
1914 Clouds 11 1004 71 10000 4.6 180 15:47 12.11.2020
1915 Clouds 11 1005 71 10000 4.6 180 15:28 12.11.2020
1916 Clouds 10 1005 76 10000 5.1 190 14:47 12.11.2020
1917 Clouds 10 1005 76 10000 5.1 190 14:28 12.11.2020
1918 Clouds 10 1005 81 10000 4.6 200 13:58 12.11.2020
1919 Clouds 9 1005 81 10000 7.7 210 13:40 12.11.2020
1920 Clouds 9 1005 81 10000 7.7 200 13:19 12.11.2020
1921 Clouds 9 1005 81 10000 7.2 220 12:44 12.11.2020
1922 Clouds 9 1005 81 10000 7.2 220 12:24 12.11.2020
1923 Clouds 9 1005 87 10000 7.2 220 11:53 12.11.2020
1924 Clouds 9 1005 81 10000 4.1 210 11:30 12.11.2020
1925 Clouds 9 1005 81 10000 7.2 230 10:49 12.11.2020
1926 Clouds 9 1005 81 10000 4.6 230 10:29 12.11.2020
1927 Clouds 9 1004 76 10000 5.1 260 09:50 12.11.2020
1928 Clouds 8 1004 81 10000 5.7 250 09:25 12.11.2020
1929 Clouds 8 1003 81 10000 5.1 240 08:58 12.11.2020
1930 Clouds 9 1003 81 10000 4.6 220 08:40 12.11.2020
1931 Clouds 9 1003 81 10000 6.2 240 08:20 12.11.2020
1932 Clouds 9 1003 81 10000 6.2 240 07:53 12.11.2020
1933 Clouds 9 1002 87 10000 5.7 250 07:25 12.11.2020
1934 Clouds 9 1001 87 10000 6.2 250 06:51 12.11.2020
1935 Clouds 10 997 100 4700 3.1 240 05:45 12.11.2020
1936 Clouds 11 996 87 10000 3.1 50 03:43 12.11.2020
1937 Clouds 11 996 87 10000 3.1 60 03:18 12.11.2020
1938 Clouds 11 997 87 10000 5.1 110 00:25 12.11.2020
1939 Rain 11 998 87 10000 5.1 120 23:40 11.11.2020
1940 Rain 11 998 87 10000 5.1 120 23:22 11.11.2020
1941 Rain 12 998 81 10000 6.7 130 22:43 11.11.2020
1942 Rain 12 999 81 10000 5.1 130 22:21 11.11.2020
1943 Rain 12 999 81 10000 5.1 130 21:56 11.11.2020
1944 Clouds 12 999 81 10000 5.7 130 21:38 11.11.2020
1945 Rain 12 1000 81 10000 5.1 140 21:18 11.11.2020
1946 Rain 12 1000 81 10000 6.2 150 20:42 11.11.2020
1947 Rain 12 1000 81 10000 6.2 150 20:21 11.11.2020
1948 Rain 12 1000 81 10000 7.7 150 19:51 11.11.2020
1949 Clouds 12 1001 81 10000 7.2 160 19:32 11.11.2020
1950 Rain 12 1001 81 10000 6.7 150 18:58 11.11.2020
1951 Rain 12 1001 87 5000 7.7 150 18:40 11.11.2020
1952 Rain 12 1002 81 10000 7.2 150 18:19 11.11.2020
1953 Rain 12 1002 87 9000 6.7 150 17:37 11.11.2020
1954 Rain 12 1002 81 10000 8.7 150 17:19 11.11.2020
1955 Rain 12 1003 81 10000 7.7 150 16:38 11.11.2020
1956 Rain 12 1003 87 10000 7.2 140 16:20 11.11.2020
1957 Clouds 12 1004 81 10000 7.7 150 15:41 11.11.2020
1958 Rain 12 1004 81 10000 7.7 150 15:22 11.11.2020
1959 Clouds 12 1005 76 10000 8.2 160 14:43 11.11.2020
1960 Rain 12 1005 76 10000 8.2 160 14:23 11.11.2020
1961 Clouds 12 1005 82 10000 5.7 160 13:48 11.11.2020
1962 Clouds 12 1006 82 10000 8.7 160 13:24 11.11.2020
1963 Clouds 12 1007 81 10000 8.2 170 12:21 11.11.2020
1964 Clouds 12 1007 81 10000 8.7 170 11:51 11.11.2020
1965 Clouds 12 1007 81 10000 8.2 170 11:33 11.11.2020
1966 Clouds 12 1008 81 10000 6.7 170 10:46 11.11.2020
1967 Clouds 12 1008 81 10000 6.7 170 10:28 11.11.2020
1968 Rain 12 1008 81 10000 7.7 170 09:59 11.11.2020
1969 Rain 11 1009 81 10000 7.2 170 09:39 11.11.2020
1970 Clouds 11 1009 81 10000 7.2 170 09:21 11.11.2020
1971 Clouds 11 1009 87 10000 6.2 160 08:43 11.11.2020
1972 Clouds 11 1009 87 10000 6.2 160 08:24 11.11.2020
1973 Rain 11 1010 87 10000 5.7 150 07:44 11.11.2020
1974 Rain 11 1011 87 10000 5.1 140 06:32 11.11.2020
1975 Rain 11 1012 87 10000 4.6 150 05:44 11.11.2020
1976 Clouds 11 1015 81 10000 3.6 130 01:47 11.11.2020
1977 Clouds 11 1016 81 10000 3.1 140 00:57 11.11.2020
1978 Clouds 11 1016 81 10000 5.1 160 00:24 11.11.2020
1979 Clouds 11 1016 81 10000 3.1 130 23:38 10.11.2020
1980 Clouds 11 1017 81 10000 4.6 180 23:20 10.11.2020
1981 Clouds 11 1017 87 10000 4.6 160 22:45 10.11.2020
1982 Clouds 11 1017 87 10000 4.6 160 22:26 10.11.2020
1983 Clouds 11 1017 87 10000 5.7 180 21:41 10.11.2020
1984 Clouds 11 1017 87 10000 3.6 170 21:23 10.11.2020
1985 Clouds 11 1017 87 10000 3.6 170 20:56 10.11.2020
1986 Clouds 11 1017 87 10000 4.1 190 20:38 10.11.2020
1987 Clouds 11 1017 93 10000 1.5 0 20:19 10.11.2020
1988 Drizzle 11 1017 93 4100 2.6 180 19:44 10.11.2020
1989 Drizzle 11 1017 93 4100 2.6 180 19:24 10.11.2020
1990 Clouds 11 1017 87 4100 4.1 150 18:55 10.11.2020
1991 Clouds 12 1017 81 10000 2.6 150 18:36 10.11.2020
1992 Clouds 12 1017 87 10000 2.6 130 18:18 10.11.2020
1993 Clouds 12 1017 87 10000 3.1 130 17:41 10.11.2020
1994 Clouds 12 1017 82 10000 4.1 150 17:22 10.11.2020
1995 Clouds 12 1017 82 10000 2.6 140 16:41 10.11.2020
1996 Rain 12 1018 82 10000 2.6 140 16:22 10.11.2020
1997 Clouds 13 1018 82 10000 2.6 140 15:54 10.11.2020
1998 Clouds 12 1018 93 10000 1.5 0 15:36 10.11.2020
1999 Clouds 12 1018 93 8000 1 0 15:18 10.11.2020
2000 Clouds 12 1018 87 9000 2.1 70 14:39 10.11.2020
2001 Clouds 12 1018 87 7000 2.6 70 14:18 10.11.2020
2002 Clouds 12 1019 87 10000 2.1 90 13:38 10.11.2020
2003 Clouds 11 1019 93 10000 4.1 80 13:20 10.11.2020
2004 Clouds 11 1019 93 8000 4.1 90 12:46 10.11.2020
2005 Clouds 11 1019 93 8000 4.1 90 12:25 10.11.2020
2006 Clouds 10 1019 93 10000 2.1 110 11:43 10.11.2020
2007 Clouds 9 1019 87 9000 1.5 110 11:21 10.11.2020
2008 Clouds 9 1019 87 9000 1.5 110 10:57 10.11.2020
2009 Clouds 9 1019 93 9000 1.5 90 10:38 10.11.2020
2010 Clouds 9 1020 93 7000 2.1 100 10:19 10.11.2020
2011 Clouds 9 1019 93 6000 1.5 0 09:43 10.11.2020
2012 Clouds 9 1019 93 6000 1.5 0 09:24 10.11.2020
2013 Mist 8 1019 93 5000 3.1 110 08:53 10.11.2020
2014 Mist 8 1019 100 4000 2.6 120 08:27 10.11.2020
2015 Mist 8 1019 100 4400 2.1 130 07:44 10.11.2020
2016 Mist 8 1019 100 4400 2.1 130 07:24 10.11.2020
2017 Mist 8 1019 100 1300 2.1 90 06:40 10.11.2020
2018 Mist 9 1019 93 1400 2.6 90 05:43 10.11.2020
2019 Mist 8 1019 100 1200 3.1 70 04:59 10.11.2020
2020 Mist 9 1019 100 3800 2.1 90 02:29 10.11.2020
2021 Mist 10 1019 93 4100 2.1 70 01:30 10.11.2020
2022 Clouds 10 1019 93 6000 1.5 0 23:55 09.11.2020
2023 Clouds 10 1019 93 6000 4.1 80 23:33 09.11.2020
2024 Haze 11 1019 93 4700 3.6 70 22:48 09.11.2020
2025 Haze 11 1019 93 4700 3.6 70 22:25 09.11.2020
2026 Haze 11 1019 93 5000 3.1 80 21:56 09.11.2020
2027 Haze 11 1019 93 5000 4.1 90 21:37 09.11.2020
2028 Haze 11 1019 93 5000 3.1 70 21:18 09.11.2020
2029 Haze 11 1019 93 5000 2.1 80 20:37 09.11.2020
2030 Clouds 11 1018 93 6000 2.1 70 20:19 09.11.2020
2031 Clouds 11 1018 93 6000 3.1 80 19:41 09.11.2020
2032 Clouds 11 1018 93 6000 3.1 80 19:22 09.11.2020
2033 Clouds 11 1018 93 7000 2.1 70 18:42 09.11.2020
2034 Clouds 11 1018 93 7000 2.6 70 18:20 09.11.2020
2035 Clouds 11 1018 93 7000 3.1 70 17:52 09.11.2020
2036 Clouds 11 1018 93 7000 3.1 70 17:31 09.11.2020
2037 Clouds 12 1017 87 7000 3.1 60 16:46 09.11.2020
2038 Clouds 12 1017 87 7000 3.1 60 16:28 09.11.2020
2039 Clouds 12 1017 87 7000 3.1 60 15:56 09.11.2020
2040 Rain 12 1017 87 7000 3.6 50 15:38 09.11.2020
2041 Clouds 12 1017 93 6000 0.5 320 15:20 09.11.2020
2042 Clouds 12 1017 100 6000 0.5 0 14:41 09.11.2020
2043 Clouds 12 1017 100 6000 0.5 0 14:23 09.11.2020
2044 Rain 12 1018 100 1400 1 0 13:43 09.11.2020
2045 Fog 11 1017 93 450 1.5 210 13:20 09.11.2020
2046 Fog 10 1017 100 200 2.1 210 12:47 09.11.2020
2047 Fog 10 1017 100 200 2.1 210 12:21 09.11.2020
2048 Fog 9 1018 100 250 1 240 11:43 09.11.2020
2049 Fog 9 1018 100 250 1 240 11:25 09.11.2020
2050 Fog 8 1018 93 300 1.5 260 10:59 09.11.2020
2051 Fog 8 1018 100 300 1 0 10:41 09.11.2020
2052 Fog 8 1018 100 300 1 0 10:22 09.11.2020
2053 Mist 8 1017 93 3000 1.5 0 09:40 09.11.2020
2054 Mist 8 1017 93 3000 1.5 0 09:21 09.11.2020
2055 Mist 8 1017 100 3700 1.5 60 08:29 09.11.2020
2056 Mist 9 1017 93 3600 1.5 50 07:57 09.11.2020
2057 Mist 9 1017 100 4000 1 80 07:24 09.11.2020
2058 Mist 9 1017 100 2400 1 60 06:58 09.11.2020
2059 Mist 9 1016 100 2400 0.5 0 05:38 09.11.2020
2060 Mist 9 1017 100 5000 1.5 110 02:22 09.11.2020
2061 Mist 9 1017 100 2400 1 90 01:41 09.11.2020
2062 Mist 9 1017 100 2000 0.5 130 00:56 09.11.2020
2063 Mist 9 1017 100 1600 1.5 40 23:48 08.11.2020
2064 Mist 9 1017 100 3600 0.5 70 23:28 08.11.2020
2065 Clouds 9 1017 100 7000 1 0 22:43 08.11.2020
2066 Clouds 9 1017 100 7000 1 0 22:22 08.11.2020
2067 Mist 9 1017 100 5000 2.1 60 21:48 08.11.2020
2068 Clouds 9 1017 100 7000 1.5 80 21:24 08.11.2020
2069 Clouds 9 1017 100 8000 2.1 80 20:57 08.11.2020
2070 Clouds 9 1017 100 8000 2.6 60 20:38 08.11.2020
2071 Clouds 9 1017 93 7000 2.1 60 20:20 08.11.2020
2072 Clouds 9 1017 93 6000 1.5 20 19:45 08.11.2020
2073 Clouds 9 1017 93 6000 1.5 20 19:45 08.11.2020
2074 Clouds 9 1017 93 6000 1.5 20 19:23 08.11.2020
2075 Haze 9 1017 93 5000 1.5 60 18:58 08.11.2020
2076 Haze 9 1017 93 4300 1.5 60 18:39 08.11.2020
2077 Haze 9 1017 93 4300 1.5 60 18:20 08.11.2020
2078 Rain 9 1016 93 6000 2.1 110 17:42 08.11.2020
2079 Clouds 9 1016 93 6000 2.1 110 17:21 08.11.2020
2080 Clouds 9 1016 100 6000 1.5 100 16:59 08.11.2020
2081 Rain 9 1016 93 6000 1.5 80 16:38 08.11.2020
2082 Rain 9 1016 93 6000 2.1 100 16:20 08.11.2020
2083 Rain 9 1016 93 7000 2.6 90 15:46 08.11.2020
2084 Rain 9 1016 93 7000 2.6 90 15:27 08.11.2020
2085 Rain 8 1017 93 7000 2.6 90 14:43 08.11.2020
2086 Clouds 8 1017 93 7000 2.6 90 14:24 08.11.2020
2087 Rain 8 1017 93 8000 3.6 100 13:56 08.11.2020
2088 Rain 8 1017 87 5000 3.1 100 13:26 08.11.2020
2089 Clouds 8 1017 93 7000 1.5 0 12:57 08.11.2020
2090 Clouds 8 1017 93 6000 3.1 90 12:39 08.11.2020
2091 Rain 8 1017 93 6000 3.1 90 12:19 08.11.2020
2092 Clouds 8 1018 100 5000 3.1 80 11:55 08.11.2020
2093 Rain 8 1018 100 3300 3.6 80 11:36 08.11.2020
2094 Rain 8 1017 93 3100 4.1 80 11:18 08.11.2020
2095 Clouds 8 1018 93 3600 5.1 70 10:41 08.11.2020
2096 Haze 8 1018 93 3800 4.6 80 10:18 08.11.2020
2097 Haze 8 1017 93 3700 4.6 80 09:41 08.11.2020
2098 Haze 7 1018 87 4000 3.1 80 09:19 08.11.2020
2099 Haze 7 1018 87 4100 4.6 70 08:44 08.11.2020
2100 Haze 7 1018 87 4100 4.6 70 08:22 08.11.2020
2101 Haze 7 1018 87 4100 3.1 90 07:53 08.11.2020
2102 Haze 7 1018 87 4000 4.1 80 07:31 08.11.2020
2103 Haze 7 1018 93 4600 2.6 60 06:27 08.11.2020
2104 Haze 7 1019 87 5000 3.6 90 05:54 08.11.2020
2105 Clouds 6 1019 93 10000 1.5 30 04:50 08.11.2020
2106 Clouds 5 1020 93 9000 1.5 0 01:55 08.11.2020
2107 Clouds 5 1020 93 8000 3.6 70 01:19 08.11.2020
2108 Clouds 5 1020 93 6000 4.6 70 00:30 08.11.2020
2109 Clouds 5 1021 93 6000 4.6 60 23:50 07.11.2020
2110 Haze 5 1021 93 4900 4.6 70 23:31 07.11.2020
2111 Haze 5 1021 93 5000 4.1 60 22:47 07.11.2020
2112 Haze 5 1021 93 5000 4.1 60 22:28 07.11.2020
2113 Haze 5 1021 93 5000 4.1 70 21:58 07.11.2020
2114 Clouds 5 1021 93 6000 2.6 80 21:39 07.11.2020
2115 Haze 5 1021 93 5000 3.6 50 21:19 07.11.2020
2116 Haze 5 1021 93 5000 2.6 70 20:45 07.11.2020
2117 Haze 5 1021 93 5000 2.6 70 20:26 07.11.2020
2118 Haze 5 1021 93 4800 2.6 50 19:45 07.11.2020
2119 Haze 5 1021 93 4800 2.6 50 19:27 07.11.2020
2120 Haze 4 1021 93 3400 4.6 60 18:43 07.11.2020
2121 Haze 4 1021 93 3400 4.6 60 18:43 07.11.2020
2122 Haze 4 1021 93 3400 4.6 60 18:24 07.11.2020
2123 Clouds 4 1021 86 10000 2.6 60 17:47 07.11.2020
2124 Clouds 5 1021 86 10000 2.6 60 17:28 07.11.2020
2125 Clouds 6 1020 87 8000 1.5 90 16:46 07.11.2020
2126 Clouds 6 1020 87 8000 1.5 90 16:25 07.11.2020
2127 Clouds 6 1020 87 8000 1.5 0 15:57 07.11.2020
2128 Clouds 6 1020 93 9000 2.6 20 15:39 07.11.2020
2129 Clouds 6 1020 93 9000 2.6 20 15:19 07.11.2020
2130 Clouds 6 1021 93 7000 1 0 14:41 07.11.2020
2131 Clouds 6 1021 93 7000 1 0 14:21 07.11.2020
2132 Clouds 5 1021 100 7000 2.1 50 13:43 07.11.2020
2133 Clouds 5 1021 100 7000 2.1 50 13:23 07.11.2020
2134 Clouds 5 1021 93 6000 1.5 0 12:40 07.11.2020
2135 Clouds 5 1021 93 6000 1.5 0 11:56 07.11.2020
2136 Clouds 5 1022 93 7000 1 0 11:37 07.11.2020
2137 Clouds 5 1021 93 6000 0.5 0 11:18 07.11.2020
2138 Mist 4 1021 93 4000 0.5 0 10:42 07.11.2020
2139 Mist 4 1021 93 4000 0.5 0 10:23 07.11.2020
2140 Mist 4 1021 93 3300 1.5 160 09:49 07.11.2020
2141 Mist 5 1021 93 3300 1.5 160 09:24 07.11.2020
2142 Mist 5 1021 93 4700 1.5 50 08:49 07.11.2020
2143 Mist 4 1021 100 4400 1.5 0 08:30 07.11.2020
2144 Mist 4 1021 100 4400 2.1 100 07:48 07.11.2020
2145 Mist 4 1021 93 3400 2.1 110 06:55 07.11.2020
2146 Fog 4 1021 100 500 1 180 05:55 07.11.2020
2147 Fog 5 1021 100 400 1.5 150 04:22 07.11.2020
2148 Fog 5 1022 100 400 2.1 140 02:46 07.11.2020
2149 Fog 5 1023 100 250 1.5 0 01:27 07.11.2020
2150 Drizzle 5 1023 100 150 1.5 140 00:38 07.11.2020
2151 Fog 5 1024 100 200 2.1 80 23:40 06.11.2020
2152 Fog 6 1024 100 150 2.1 50 23:18 06.11.2020
2153 Fog 6 1024 100 150 2.1 40 22:40 06.11.2020
2154 Fog 6 1024 93 900 2.6 60 22:18 06.11.2020
2155 Mist 6 1024 93 4500 1.5 100 21:43 06.11.2020
2156 Mist 6 1024 93 4500 2.1 70 21:20 06.11.2020
2157 Mist 6 1024 93 4500 2.1 70 20:47 06.11.2020
2158 Haze 6 1025 93 2900 2.1 40 20:20 06.11.2020
2159 Haze 6 1025 93 2900 2.1 40 20:20 06.11.2020
2160 Haze 6 1025 93 2900 2.1 40 20:20 06.11.2020
2161 Haze 7 1025 100 4700 1.5 60 19:46 06.11.2020
2162 Haze 7 1025 100 4700 1.5 60 19:27 06.11.2020
2163 Clouds 7 1025 93 7000 1.5 40 18:56 06.11.2020
2164 Clouds 8 1025 87 10000 0.5 0 18:38 06.11.2020
2165 Clouds 9 1026 87 10000 1 70 18:19 06.11.2020
2166 Clouds 9 1026 87 10000 2.6 60 17:42 06.11.2020
2167 Clouds 9 1026 87 10000 2.6 60 17:24 06.11.2020
2168 Clouds 10 1027 87 10000 2.1 60 16:42 06.11.2020
2169 Clouds 10 1027 87 10000 2.1 60 16:21 06.11.2020
2170 Clouds 10 1028 81 10000 2.6 90 15:44 06.11.2020
2171 Clouds 10 1028 81 10000 2.6 90 15:25 06.11.2020
2172 Clouds 9 1028 87 10000 2.6 90 14:49 06.11.2020
2173 Clouds 9 1029 87 10000 2.6 130 14:22 06.11.2020
2174 Clouds 9 1030 87 10000 2.6 120 13:42 06.11.2020
2175 Clouds 9 1030 87 10000 2.6 120 13:42 06.11.2020
2176 Clouds 10 1030 87 10000 3.1 110 13:19 06.11.2020
2177 Clouds 9 1030 87 10000 3.6 130 12:42 06.11.2020
2178 Clouds 9 1030 87 10000 3.6 130 12:22 06.11.2020
2179 Clouds 9 1031 87 10000 3.1 120 11:38 06.11.2020
2180 Clouds 9 1031 87 10000 2.1 80 10:59 06.11.2020
2181 Clouds 9 1031 87 10000 1.5 50 10:36 06.11.2020
2182 Clouds 8 1031 87 10000 1.5 0 09:58 06.11.2020
2183 Clouds 8 1031 87 10000 1.5 0 09:58 06.11.2020
2184 Clouds 9 1031 81 10000 1 0 09:39 06.11.2020
2185 Clouds 9 1031 93 10000 0.5 0 09:20 06.11.2020
2186 Clouds 9 1031 93 10000 0.5 0 08:47 06.11.2020
2187 Clouds 9 1031 93 10000 0.5 30 08:28 06.11.2020
2188 Clouds 9 1032 93 10000 0.5 0 07:44 06.11.2020
2189 Clouds 9 1032 93 10000 0.5 0 07:21 06.11.2020
2190 Clouds 9 1032 93 10000 1 0 06:41 06.11.2020
2191 Clouds 9 1032 93 9000 0.5 0 05:39 06.11.2020
2192 Clouds 9 1033 93 10000 1.13 209 02:52 06.11.2020
2193 Clouds 10 1034 87 10000 2.1 250 00:34 06.11.2020
2194 Clouds 10 1034 87 10000 2.6 240 23:51 05.11.2020
2195 Clouds 10 1034 87 10000 2.6 210 23:24 05.11.2020
2196 Clouds 10 1035 87 10000 2.6 230 22:48 05.11.2020
2197 Clouds 10 1035 87 10000 2.1 260 22:26 05.11.2020
2198 Clouds 10 1035 87 10000 2.1 260 21:57 05.11.2020
2199 Clouds 10 1035 93 10000 3.6 230 21:38 05.11.2020
2200 Clouds 10 1035 87 8000 3.6 230 21:19 05.11.2020
2201 Clouds 10 1035 93 8000 3.6 240 20:43 05.11.2020
2202 Clouds 10 1035 93 8000 3.6 240 20:24 05.11.2020
2203 Clouds 10 1035 93 8000 3.6 240 20:24 05.11.2020
2204 Clouds 11 1036 87 10000 4.1 230 19:44 05.11.2020
2205 Clouds 11 1036 87 10000 4.1 230 19:26 05.11.2020
2206 Clouds 11 1036 87 10000 4.1 230 19:26 05.11.2020
2207 Clouds 11 1036 87 10000 4.6 230 18:57 05.11.2020
2208 Clouds 11 1036 87 10000 4.1 240 18:39 05.11.2020
2209 Clouds 11 1035 87 10000 4.1 240 18:20 05.11.2020
2210 Clouds 11 1035 87 10000 4.6 240 17:43 05.11.2020
2211 Clouds 11 1035 81 10000 4.6 250 17:25 05.11.2020
2212 Clouds 12 1035 81 10000 5.1 250 16:48 05.11.2020
2213 Clouds 12 1035 81 10000 5.1 250 16:27 05.11.2020
2214 Clouds 12 1036 81 10000 5.1 260 15:51 05.11.2020
2215 Clouds 12 1036 81 10000 4.6 250 15:27 05.11.2020
2216 Clouds 12 1036 76 10000 5.7 260 14:55 05.11.2020
2217 Clouds 13 1036 82 10000 5.1 240 14:36 05.11.2020
2218 Clouds 13 1036 76 10000 6.2 260 14:18 05.11.2020
2219 Clouds 13 1036 82 10000 5.1 260 13:40 05.11.2020
2220 Clouds 12 1036 93 10000 5.7 240 12:56 05.11.2020
2221 Clouds 12 1036 87 10000 4.6 240 12:37 05.11.2020
2222 Clouds 12 1036 93 10000 5.7 240 11:59 05.11.2020
2223 Clouds 12 1036 87 10000 4.6 240 11:41 05.11.2020
2224 Clouds 12 1036 87 10000 4.6 240 11:22 05.11.2020
2225 Clouds 11 1035 93 10000 4.6 220 10:47 05.11.2020
2226 Clouds 11 1035 93 8000 5.1 220 10:26 05.11.2020
2227 Clouds 11 1035 93 8000 5.1 220 09:49 05.11.2020
2228 Clouds 11 1035 93 10000 4.6 230 09:24 05.11.2020
2229 Clouds 11 1035 93 10000 4.6 230 08:49 05.11.2020
2230 Clouds 11 1035 93 10000 3.6 210 08:30 05.11.2020
2231 Clouds 10 1034 93 10000 5.1 220 07:46 05.11.2020
2232 Clouds 10 1034 93 10000 5.1 220 07:27 05.11.2020
2233 Clouds 10 1034 93 10000 5.1 230 06:42 05.11.2020
2234 Clouds 10 1034 87 10000 3.1 220 05:55 05.11.2020
2235 Clouds 9 1035 87 10000 6.2 230 01:42 05.11.2020
2236 Clouds 9 1035 87 10000 5.1 230 00:35 05.11.2020
2237 Clouds 9 1035 87 10000 4.1 230 23:47 04.11.2020
2238 Rain 9 1035 87 10000 4.1 230 23:27 04.11.2020
2239 Clouds 9 1035 81 10000 4.6 240 22:55 04.11.2020
2240 Rain 9 1035 81 10000 5.1 240 22:36 04.11.2020
2241 Rain 9 1035 81 10000 5.1 240 22:36 04.11.2020
2242 Rain 9 1035 81 10000 5.1 240 22:18 04.11.2020
2243 Clouds 8 1035 81 10000 5.1 230 21:43 04.11.2020
2244 Clouds 8 1035 81 10000 5.1 230 21:24 04.11.2020
2245 Clouds 8 1035 81 10000 5.7 240 20:46 04.11.2020
2246 Clouds 8 1035 81 10000 5.7 240 20:28 04.11.2020
2247 Clouds 8 1034 81 10000 5.1 230 19:50 04.11.2020
2248 Clouds 7 1034 87 10000 4.6 210 19:31 04.11.2020
2249 Clouds 8 1034 87 10000 4.1 250 18:58 04.11.2020
2250 Clouds 8 1034 87 10000 4.1 230 18:39 04.11.2020
2251 Clouds 8 1034 87 10000 4.1 230 18:39 04.11.2020
2252 Clouds 8 1034 81 10000 4.6 230 18:20 04.11.2020
2253 Clouds 8 1034 81 10000 4.1 230 17:45 04.11.2020
2254 Clouds 9 1034 81 10000 4.1 230 17:24 04.11.2020
2255 Clouds 9 1033 71 10000 4.1 270 16:44 04.11.2020
2256 Clouds 10 1033 76 10000 4.6 290 16:24 04.11.2020
2257 Clouds 10 1033 76 10000 4.6 290 15:55 04.11.2020
2258 Clouds 10 1033 71 10000 4.6 280 15:36 04.11.2020
2259 Clouds 10 1033 71 10000 3.6 270 15:18 04.11.2020
2260 Clouds 10 1033 76 10000 4.6 300 14:41 04.11.2020
2261 Clouds 10 1033 76 10000 4.6 300 14:23 04.11.2020
2262 Clouds 10 1033 76 10000 3.6 300 13:48 04.11.2020
2263 Clouds 10 1033 76 10000 3.6 260 13:21 04.11.2020
2264 Clouds 10 1033 76 10000 3.1 280 12:55 04.11.2020
2265 Clouds 9 1032 81 10000 4.6 270 12:37 04.11.2020
2266 Clouds 9 1032 81 10000 2.6 220 12:18 04.11.2020
2267 Clouds 9 1031 81 10000 2.6 240 11:42 04.11.2020
2268 Clouds 9 1031 81 10000 4.6 250 11:20 04.11.2020
2269 Clouds 8 1031 87 10000 3.1 210 10:47 04.11.2020
2270 Clouds 8 1030 81 10000 3.6 270 10:22 04.11.2020
2271 Clouds 7 1030 81 10000 3.6 270 09:53 04.11.2020
2272 Clouds 6 1030 87 10000 2.1 230 09:25 04.11.2020
2273 Clouds 5 1029 93 10000 3.6 250 08:47 04.11.2020
2274 Clouds 5 1029 93 10000 3.6 250 08:22 04.11.2020
2275 Clouds 5 1028 86 10000 2.1 240 07:55 04.11.2020
2276 Clouds 6 1028 87 10000 2.1 240 07:30 04.11.2020
2277 Clouds 7 1027 87 10000 3.6 240 06:56 04.11.2020
2278 Clouds 6 1027 81 10000 4.1 250 06:37 04.11.2020
2279 Clouds 7 1025 81 10000 4.1 280 04:18 04.11.2020
2280 Clouds 7 1024 81 10000 4.1 250 02:28 04.11.2020
2281 Clouds 6 1022 81 10000 3.1 270 00:57 04.11.2020
2282 Clouds 5 1022 93 10000 3.6 230 23:48 03.11.2020
2283 Clouds 6 1021 87 10000 5.1 230 23:24 03.11.2020
2284 Clouds 5 1020 86 10000 2.6 260 22:42 03.11.2020
2285 Clear 5 1020 86 10000 3.6 270 22:21 03.11.2020
2286 Clear 5 1020 86 10000 3.6 270 21:59 03.11.2020
2287 Clear 5 1020 86 10000 2.6 260 21:40 03.11.2020
2288 Clear 5 1019 93 10000 2.6 250 21:21 03.11.2020
2289 Clear 5 1018 80 10000 2.1 240 20:45 03.11.2020
2290 Clear 5 1018 80 10000 2.1 240 20:26 03.11.2020
2291 Clear 6 1018 81 10000 2.6 260 19:44 03.11.2020
2292 Clouds 6 1018 81 10000 2.6 260 19:23 03.11.2020
2293 Clouds 6 1017 81 10000 4.1 250 18:47 03.11.2020
2294 Clouds 6 1016 81 10000 1.5 0 18:24 03.11.2020
2295 Clouds 7 1016 81 10000 2.6 280 17:59 03.11.2020
2296 Clouds 8 1015 75 10000 4.1 260 17:41 03.11.2020
2297 Clouds 8 1015 75 10000 2.6 250 17:23 03.11.2020
2298 Clouds 8 1014 75 10000 3.6 250 16:45 03.11.2020
2299 Clouds 8 1014 75 10000 3.6 250 16:24 03.11.2020
2300 Clear 8 1014 81 10000 2.1 260 15:46 03.11.2020
2301 Clouds 8 1014 81 10000 4.1 230 15:25 03.11.2020
2302 Clouds 8 1014 81 10000 4.1 230 14:52 03.11.2020
2303 Clouds 8 1014 81 10000 3.1 230 14:33 03.11.2020
2304 Clouds 7 1013 87 10000 2.6 250 13:46 03.11.2020
2305 Clouds 7 1013 87 10000 2.6 250 13:23 03.11.2020
2306 Clouds 7 1013 87 10000 3.1 240 12:59 03.11.2020
2307 Clouds 6 1012 87 10000 3.1 250 12:37 03.11.2020
2308 Clouds 6 1011 93 10000 3.1 240 12:19 03.11.2020
2309 Clouds 6 1011 87 10000 3.1 220 11:41 03.11.2020
2310 Clouds 5 1011 93 10000 3.1 210 11:20 03.11.2020
2311 Clouds 5 1011 93 10000 3.1 210 11:20 03.11.2020
2312 Clouds 5 1010 86 10000 2.1 260 10:39 03.11.2020
2313 Rain 5 1010 86 10000 2.1 240 10:21 03.11.2020
2314 Rain 5 1010 86 10000 2.1 240 09:51 03.11.2020
2315 Clouds 5 1009 86 10000 4.6 240 09:33 03.11.2020
2316 Rain 5 1009 93 10000 2.6 230 08:56 03.11.2020
2317 Rain 5 1009 93 10000 2.6 250 08:35 03.11.2020
2318 Rain 6 1008 87 10000 3.1 250 07:54 03.11.2020
2319 Rain 6 1008 87 10000 3.1 250 07:27 03.11.2020
2320 Rain 6 1007 87 10000 5.1 240 06:49 03.11.2020
2321 Rain 6 1006 87 10000 8.2 240 05:38 03.11.2020
2322 Rain 6 1004 93 5000 10.3 220 02:43 03.11.2020
2323 Rain 7 1003 87 10000 2.6 220 00:41 03.11.2020
2324 Rain 7 1003 93 10000 3.1 230 23:52 02.11.2020
2325 Rain 7 1002 93 10000 3.6 230 23:33 02.11.2020
2326 Rain 7 1002 87 10000 5.1 230 22:54 02.11.2020
2327 Rain 7 1001 87 10000 6.7 230 22:35 02.11.2020
2328 Clouds 7 1001 93 10000 3.6 220 21:59 02.11.2020
2329 Clouds 7 1000 87 10000 4.1 230 21:37 02.11.2020
2330 Clouds 7 1000 87 10000 5.1 220 21:19 02.11.2020
2331 Clouds 7 1000 87 10000 5.1 220 21:19 02.11.2020
2332 Clouds 7 1000 93 10000 4.6 230 20:39 02.11.2020
2333 Rain 7 999 87 10000 2.1 230 20:20 02.11.2020
2334 Clouds 7 998 87 10000 1.5 0 19:46 02.11.2020
2335 Clouds 7 998 87 10000 1.5 0 19:27 02.11.2020
2336 Clouds 7 998 87 10000 3.1 230 18:56 02.11.2020
2337 Clouds 7 997 87 10000 2.1 220 18:38 02.11.2020
2338 Clouds 8 996 87 10000 1.5 0 18:19 02.11.2020
2339 Clouds 8 996 87 10000 3.6 240 17:41 02.11.2020
2340 Clouds 9 995 76 10000 3.1 250 17:23 02.11.2020
2341 Rain 9 995 87 10000 4.1 240 16:49 02.11.2020
2342 Rain 9 995 87 10000 4.1 240 16:28 02.11.2020
2343 Clouds 10 994 81 10000 5.1 230 15:55 02.11.2020
2344 Clouds 10 994 81 10000 4.1 240 15:37 02.11.2020
2345 Rain 9 994 87 10000 6.2 230 15:19 02.11.2020
2346 Rain 9 993 81 10000 6.2 230 14:42 02.11.2020
2347 Rain 9 993 81 10000 5.7 240 14:19 02.11.2020
2348 Clouds 9 993 81 10000 5.7 240 13:47 02.11.2020
2349 Rain 9 992 93 10000 6.2 230 13:22 02.11.2020
2350 Rain 9 992 93 10000 6.2 230 12:50 02.11.2020
2351 Rain 9 992 87 10000 6.7 220 12:26 02.11.2020
2352 Clouds 9 991 87 10000 4.6 220 11:46 02.11.2020
2353 Rain 9 991 87 10000 4.6 220 11:20 02.11.2020
2354 Rain 8 989 87 10000 6.2 230 10:46 02.11.2020
2355 Rain 8 989 87 10000 6.2 230 10:24 02.11.2020
2356 Clouds 8 989 87 10000 7.2 210 09:55 02.11.2020
2357 Rain 8 988 87 10000 3.6 220 09:27 02.11.2020
2358 Rain 8 988 87 10000 3.1 250 08:50 02.11.2020
2359 Clouds 8 987 87 10000 4.6 220 08:29 02.11.2020
2360 Rain 8 987 93 10000 5.7 240 07:59 02.11.2020
2361 Rain 8 986 87 10000 5.7 230 07:38 02.11.2020
2362 Rain 8 985 93 10000 4.6 220 06:44 02.11.2020
2363 Rain 9 983 93 10000 6.2 220 04:59 02.11.2020
2364 Clouds 8 981 93 10000 6.2 210 01:26 02.11.2020
2365 Rain 8 981 87 10000 6.2 220 00:37 02.11.2020
2366 Rain 8 981 87 10000 5.7 220 23:56 01.11.2020
2367 Rain 8 980 81 10000 5.1 220 23:37 01.11.2020
2368 Rain 8 980 81 10000 5.1 220 23:19 01.11.2020
2369 Clouds 8 981 75 10000 6.7 230 22:41 01.11.2020
2370 Rain 8 981 81 10000 5.7 250 22:18 01.11.2020
2371 Rain 9 980 93 10000 4.1 250 21:41 01.11.2020
2372 Rain 9 980 93 10000 4.1 250 21:23 01.11.2020
2373 Rain 10 981 100 10000 3.6 270 20:46 01.11.2020
2374 Rain 10 981 93 6000 7.2 240 20:25 01.11.2020
2375 Rain 11 981 93 6000 7.2 220 19:46 01.11.2020
2376 Rain 10 981 93 6000 7.2 220 19:28 01.11.2020
2377 Rain 10 982 93 6000 9.3 210 18:58 01.11.2020
2378 Rain 11 982 81 7000 9.3 210 18:38 01.11.2020
2379 Rain 10 983 87 4900 9.8 210 18:19 01.11.2020
2380 Rain 10 983 87 4900 9.8 210 18:19 01.11.2020
2381 Drizzle 10 983 87 4700 10.3 210 17:43 01.11.2020
2382 Rain 10 983 87 4700 10.3 210 17:25 01.11.2020
2383 Rain 10 984 87 4200 8.7 210 16:45 01.11.2020
2384 Rain 10 984 87 4200 8.7 210 16:26 01.11.2020
2385 Rain 10 985 81 6000 11.8 210 15:57 01.11.2020
2386 Rain 10 985 76 10000 9.3 200 15:38 01.11.2020
2387 Rain 10 985 76 10000 9.3 200 15:38 01.11.2020
2388 Clouds 10 985 76 10000 9.3 200 15:18 01.11.2020
2389 Clouds 10 986 76 10000 9.8 190 14:45 01.11.2020
2390 Clouds 10 986 76 10000 9.8 190 14:22 01.11.2020
2391 Clouds 10 987 76 10000 10.8 190 13:56 01.11.2020
2392 Clouds 10 987 76 10000 10.8 190 13:37 01.11.2020
2393 Clouds 10 987 76 10000 10.8 190 13:19 01.11.2020
2394 Clouds 10 987 76 10000 9.3 220 12:38 01.11.2020
2395 Clouds 10 987 71 10000 10.3 220 12:18 01.11.2020
2396 Clouds 10 987 71 10000 10.3 220 11:47 01.11.2020
2397 Clouds 9 987 71 10000 9.3 230 11:18 01.11.2020
2398 Clouds 10 986 71 10000 8.2 250 10:42 01.11.2020
2399 Clouds 10 986 71 10000 8.2 250 10:42 01.11.2020
2400 Clouds 10 986 71 10000 8.2 250 10:24 01.11.2020
2401 Clouds 9 986 76 10000 6.7 250 09:49 01.11.2020
2402 Rain 9 985 87 10000 5.1 260 09:19 01.11.2020
2403 Rain 10 984 93 3300 7.2 180 08:38 01.11.2020
2404 Rain 10 984 93 3800 7.2 170 07:51 01.11.2020
2405 Rain 9 987 87 5000 5.7 150 06:48 01.11.2020
2406 Clouds 8 996 75 10000 6.7 190 02:22 01.11.2020
2407 Clouds 7 997 75 10000 7.7 190 01:31 01.11.2020
2408 Clouds 8 996 75 10000 5.1 220 23:51 31.10.2020
2409 Clouds 8 997 75 10000 8.7 230 23:23 31.10.2020
2410 Clouds 9 997 76 10000 11.3 220 22:44 31.10.2020
2411 Clouds 9 997 76 10000 11.3 220 22:23 31.10.2020
2412 Clouds 9 997 81 10000 10.8 230 21:46 31.10.2020
2413 Rain 9 996 81 7000 11.3 230 21:21 31.10.2020
2414 Rain 9 995 87 10000 10.3 220 20:41 31.10.2020
2415 Rain 9 995 87 10000 10.3 220 20:20 31.10.2020
2416 Clouds 10 993 81 10000 11.3 220 19:44 31.10.2020
2417 Rain 10 993 81 10000 11.3 220 19:24 31.10.2020
2418 Rain 9 992 87 4900 12.3 230 18:59 31.10.2020
2419 Rain 10 991 81 10000 11.8 220 18:40 31.10.2020
2420 Rain 10 989 81 5000 17 220 17:47 31.10.2020
2421 Rain 10 989 81 5000 17 220 17:26 31.10.2020
2422 Rain 11 989 76 10000 17 220 16:55 31.10.2020
2423 Clouds 11 989 76 10000 17 210 16:34 31.10.2020
2424 Rain 11 989 66 10000 16.5 210 15:55 31.10.2020
2425 Clouds 12 988 66 10000 15.4 210 15:26 31.10.2020
2426 Clouds 12 988 71 10000 16.5 220 14:55 31.10.2020
2427 Clouds 12 987 76 10000 15.4 210 14:32 31.10.2020
2428 Clouds 12 987 76 10000 13.9 210 13:53 31.10.2020
2429 Rain 12 986 82 10000 17 200 13:29 31.10.2020
2430 Rain 14 985 82 9000 11.8 170 12:56 31.10.2020
2431 Rain 14 986 87 10000 12.9 160 12:22 31.10.2020
2432 Rain 14 988 82 10000 12.3 150 11:41 31.10.2020
2433 Rain 14 988 82 10000 12.3 150 11:23 31.10.2020
2434 Rain 14 990 77 10000 10.8 150 10:42 31.10.2020
2435 Rain 14 992 87 10000 8.2 140 10:19 31.10.2020
2436 Rain 14 993 87 10000 8.2 150 09:39 31.10.2020
2437 Rain 14 993 87 10000 8.2 150 09:20 31.10.2020
2438 Rain 12 995 93 10000 5.7 90 08:26 31.10.2020
2439 Rain 10 998 87 10000 5.1 70 07:42 31.10.2020
2440 Rain 10 998 87 10000 5.1 70 07:23 31.10.2020
2441 Clouds 8 1000 87 10000 5.7 70 06:36 31.10.2020
2442 Rain 7 1008 81 10000 5.7 80 03:49 31.10.2020
2443 Clouds 6 1011 87 10000 4.1 80 02:39 31.10.2020
2444 Clouds 5 1012 93 10000 4.1 60 00:55 31.10.2020
2445 Clouds 5 1013 93 10000 3.6 60 23:56 30.10.2020
2446 Clouds 5 1014 93 10000 2.6 80 23:31 30.10.2020
2447 Clouds 5 1014 93 10000 2.1 60 22:59 30.10.2020
2448 Clouds 5 1014 93 10000 2.6 50 22:38 30.10.2020
2449 Clear 5 1014 93 10000 1 0 22:20 30.10.2020
2450 Clear 5 1014 93 10000 1 0 21:48 30.10.2020
2451 Clouds 6 1014 93 10000 1 0 21:26 30.10.2020
2452 Clear 6 1014 93 10000 1.5 160 20:45 30.10.2020
2453 Clear 6 1014 93 10000 1.5 160 20:26 30.10.2020
2454 Clouds 6 1014 86 10000 2.6 210 19:56 30.10.2020
2455 Clouds 6 1013 87 10000 1.5 0 19:22 30.10.2020
2456 Clouds 7 1013 87 10000 2.6 210 18:59 30.10.2020
2457 Clouds 7 1013 87 10000 2.6 210 18:59 30.10.2020
2458 Clouds 7 1013 75 10000 4.1 210 18:41 30.10.2020
2459 Clouds 8 1013 75 10000 4.1 210 18:22 30.10.2020
2460 Clouds 8 1013 81 10000 3.1 240 17:43 30.10.2020
2461 Clouds 9 1012 76 10000 5.7 230 17:20 30.10.2020
2462 Rain 10 1011 71 10000 5.7 230 16:50 30.10.2020
2463 Rain 10 1011 71 10000 5.7 230 16:24 30.10.2020
2464 Rain 10 1011 71 10000 5.1 240 15:41 30.10.2020
2465 Clouds 10 1011 71 10000 5.1 240 15:21 30.10.2020
2466 Clouds 10 1010 76 10000 6.7 240 14:55 30.10.2020
2467 Clouds 10 1010 71 10000 6.2 260 14:36 30.10.2020
2468 Clouds 11 1010 71 10000 7.2 240 14:18 30.10.2020
2469 Clouds 11 1009 66 10000 7.2 260 13:41 30.10.2020
2470 Clouds 11 1009 71 10000 7.7 260 13:19 30.10.2020
2471 Clouds 11 1008 71 10000 6.7 260 12:41 30.10.2020
2472 Clouds 11 1008 71 10000 6.7 260 12:21 30.10.2020
2473 Clouds 10 1007 76 10000 4.6 250 11:44 30.10.2020
2474 Clouds 10 1007 76 10000 4.6 250 11:20 30.10.2020
2475 Clouds 10 1006 76 10000 5.7 260 10:47 30.10.2020
2476 Clouds 10 1006 76 10000 5.7 260 10:23 30.10.2020
2477 Rain 10 1006 81 10000 4.1 250 09:46 30.10.2020
2478 Clouds 10 1005 81 10000 5.1 250 09:24 30.10.2020
2479 Clouds 10 1004 81 10000 4.6 240 08:46 30.10.2020
2480 Clouds 10 1004 81 10000 4.6 240 08:26 30.10.2020
2481 Clouds 10 1002 87 10000 6.7 240 07:50 30.10.2020
2482 Clouds 10 1002 87 10000 6.7 240 07:31 30.10.2020
2483 Clouds 11 1001 81 10000 5.7 240 06:40 30.10.2020
2484 Clouds 11 999 87 10000 8.2 220 05:19 30.10.2020
2485 Clouds 14 996 82 10000 12.3 210 02:27 30.10.2020
2486 Rain 15 996 82 10000 12.3 210 00:40 30.10.2020
2487 Clouds 15 996 82 10000 10.3 210 23:49 29.10.2020
2488 Clouds 15 996 82 10000 10.3 210 23:31 29.10.2020
2489 Clouds 14 996 82 10000 11.3 210 22:58 29.10.2020
2490 Clouds 14 995 93 10000 11.8 200 22:40 29.10.2020
2491 Clouds 14 995 93 10000 11.8 200 22:21 29.10.2020
2492 Rain 14 995 87 6000 10.8 200 21:37 29.10.2020
2493 Rain 14 995 93 4900 9.3 200 21:18 29.10.2020
2494 Rain 14 995 93 7000 10.8 210 20:41 29.10.2020
2495 Rain 14 995 93 3500 9.8 210 20:19 29.10.2020
2496 Rain 14 995 93 10000 10.8 210 19:42 29.10.2020
2497 Clouds 14 995 93 10000 10.8 210 19:22 29.10.2020
2498 Rain 14 995 93 10000 10.8 210 18:49 29.10.2020
2499 Rain 14 995 87 10000 10.3 210 18:29 29.10.2020
2500 Rain 13 995 100 6000 8.2 220 17:56 29.10.2020
2501 Rain 12 995 100 6000 2.1 30 17:37 29.10.2020
2502 Rain 12 996 93 5000 3.6 40 17:18 29.10.2020
2503 Rain 11 996 100 3800 3.1 40 16:43 29.10.2020
2504 Rain 11 996 100 2500 3.6 50 16:19 29.10.2020
2505 Rain 10 996 100 2500 3.6 50 15:55 29.10.2020
2506 Rain 11 996 93 2800 4.6 50 15:37 29.10.2020
2507 Rain 11 997 100 2500 4.6 60 15:18 29.10.2020
2508 Rain 10 997 93 2700 4.6 60 14:41 29.10.2020
2509 Rain 10 997 93 2700 4.6 60 14:21 29.10.2020
2510 Rain 10 998 93 3000 4.1 70 13:46 29.10.2020
2511 Rain 9 998 93 3000 4.1 70 13:27 29.10.2020
2512 Clouds 9 999 93 2900 4.6 60 12:43 29.10.2020
2513 Clouds 8 1000 87 10000 4.6 70 12:20 29.10.2020
2514 Clouds 8 1000 87 10000 4.6 70 12:20 29.10.2020
2515 Rain 8 1000 87 10000 4.6 70 11:51 29.10.2020
2516 Rain 8 1000 87 10000 4.1 70 11:27 29.10.2020
2517 Rain 8 1001 87 10000 3.1 80 10:59 29.10.2020
2518 Rain 8 1001 87 10000 3.1 110 10:37 29.10.2020
2519 Rain 7 1001 81 10000 3.6 160 10:18 29.10.2020
2520 Rain 7 1001 87 10000 2.6 160 09:46 29.10.2020
2521 Clouds 7 1001 87 10000 2.6 160 09:24 29.10.2020
2522 Clouds 7 1001 87 10000 2.6 160 08:40 29.10.2020
2523 Clouds 7 1001 87 10000 3.6 210 08:22 29.10.2020
2524 Clouds 7 1001 87 10000 3.6 210 07:49 29.10.2020
2525 Clouds 6 1001 87 10000 2.1 240 06:59 29.10.2020
2526 Clouds 7 1001 87 10000 5.1 230 06:24 29.10.2020
2527 Clouds 8 1000 87 8000 2.6 230 04:48 29.10.2020
2528 Clouds 8 998 83 10000 4.03 246 02:18 29.10.2020
2529 Clouds 8 996 84 10000 2.68 319 00:38 29.10.2020
2530 Rain 8 996 84 10000 3.13 309 00:18 29.10.2020
2531 Rain 8 995 85 10000 2.68 267 23:23 28.10.2020
2532 Rain 8 994 93 10000 5.1 220 22:59 28.10.2020
2533 Rain 8 994 93 10000 5.1 220 22:41 28.10.2020
2534 Rain 8 994 93 10000 5.1 220 22:22 28.10.2020
2535 Rain 8 993 87 8000 9.8 230 21:44 28.10.2020
2536 Rain 8 993 87 8000 9.8 230 21:25 28.10.2020
2537 Rain 7 993 81 10000 4.1 230 20:43 28.10.2020
2538 Clouds 7 993 81 10000 4.6 230 20:23 28.10.2020
2539 Clouds 7 993 81 10000 4.6 230 19:53 28.10.2020
2540 Rain 7 992 81 10000 5.7 220 19:31 28.10.2020
2541 Clouds 8 992 75 10000 5.7 220 18:52 28.10.2020
2542 Rain 8 991 81 10000 4.1 230 18:22 28.10.2020
2543 Clouds 8 991 81 10000 6.7 220 17:58 28.10.2020
2544 Clouds 9 991 76 10000 8.2 220 17:39 28.10.2020
2545 Clouds 9 991 81 10000 7.2 230 17:21 28.10.2020
2546 Clouds 9 990 76 10000 8.2 220 16:44 28.10.2020
2547 Rain 9 990 76 10000 8.2 220 16:25 28.10.2020
2548 Clouds 9 990 76 10000 9.8 210 15:41 28.10.2020
2549 Clouds 9 990 76 10000 9.8 210 15:41 28.10.2020
2550 Rain 9 990 80 10000 0.89 274 15:19 28.10.2020
2551 Clouds 9 990 81 10000 7.7 210 14:44 28.10.2020
2552 Clouds 9 990 81 10000 7.7 210 14:26 28.10.2020
2553 Clouds 9 989 83 10000 0.89 308 12:55 28.10.2020
2554 Clouds 9 989 84 10000 1.34 238 12:36 28.10.2020
2555 Rain 9 989 84 10000 1.34 272 12:18 28.10.2020
2556 Clouds 9 989 84 10000 1.34 295 11:41 28.10.2020
2557 Rain 9 988 81 10000 7.15 220 11:20 28.10.2020
2558 Rain 8 988 87 10000 5.7 210 10:53 28.10.2020
2559 Rain 8 988 87 10000 5.7 210 10:33 28.10.2020
2560 Clouds 8 988 87 10000 5.1 200 09:46 28.10.2020
2561 Clouds 8 988 87 10000 5.1 200 09:24 28.10.2020
2562 Clouds 8 988 87 10000 7.2 210 08:51 28.10.2020
2563 Clouds 8 987 87 10000 7.2 210 08:33 28.10.2020
2564 Clouds 8 987 87 10000 7.2 210 07:56 28.10.2020
2565 Clouds 8 987 87 4900 7.2 210 07:37 28.10.2020
2566 Rain 8 987 87 4900 7.2 210 07:19 28.10.2020
2567 Clouds 8 987 87 10000 6.2 210 06:39 28.10.2020
2568 Clouds 8 987 87 10000 6.7 220 05:44 28.10.2020
2569 Clouds 8 987 87 10000 7.2 210 04:51 28.10.2020
2570 Clouds 8 987 87 10000 5.7 220 04:20 28.10.2020
2571 Clouds 8 987 87 10000 7.2 210 01:56 28.10.2020
2572 Clouds 5 986 93 10000 2.6 220 00:33 28.10.2020
2573 Clouds 6 986 93 10000 3.1 210 23:51 27.10.2020
2574 Clouds 5 986 93 10000 3.1 210 23:22 27.10.2020
2575 Clouds 5 986 93 10000 2.1 230 22:45 27.10.2020
2576 Clouds 6 986 93 10000 2.1 230 22:22 27.10.2020
2577 Clouds 6 986 87 10000 3.1 240 21:57 27.10.2020
2578 Clouds 6 986 87 10000 3.6 200 21:38 27.10.2020
2579 Clouds 6 986 93 10000 3.6 210 21:20 27.10.2020
2580 Clouds 6 986 93 10000 3.6 210 20:51 27.10.2020
2581 Rain 7 986 93 10000 3.1 270 20:25 27.10.2020
2582 Clouds 7 986 93 10000 3.1 230 19:59 27.10.2020
2583 Rain 7 985 93 10000 3.1 240 19:38 27.10.2020
2584 Clouds 7 985 93 10000 3.1 240 19:20 27.10.2020
2585 Rain 8 985 87 10000 6.2 260 18:45 27.10.2020
2586 Rain 8 985 87 10000 6.2 260 18:45 27.10.2020
2587 Rain 8 985 87 10000 6.2 260 18:27 27.10.2020
2588 Rain 8 984 93 10000 6.7 250 17:59 27.10.2020
2589 Rain 8 984 87 10000 6.2 250 17:40 27.10.2020
2590 Rain 9 983 93 6000 2.1 70 17:19 27.10.2020
2591 Rain 9 983 93 10000 4.1 80 16:44 27.10.2020
2592 Rain 9 983 93 10000 4.1 80 16:23 27.10.2020
2593 Rain 9 984 93 3800 4.6 80 15:42 27.10.2020
2594 Drizzle 9 984 93 3800 4.6 80 15:24 27.10.2020
2595 Drizzle 9 985 93 2900 4.6 90 14:51 27.10.2020
2596 Rain 9 985 93 2900 4.6 90 14:32 27.10.2020
2597 Rain 9 985 93 4300 4.6 80 13:59 27.10.2020
2598 Clouds 9 986 93 10000 4.6 80 13:31 27.10.2020
2599 Drizzle 8 987 93 3000 4.6 70 12:49 27.10.2020
2600 Rain 8 987 93 3000 4.6 70 12:30 27.10.2020
2601 Clouds 8 988 93 4400 3.6 70 11:59 27.10.2020
2602 Clouds 8 989 87 6000 3.6 80 11:41 27.10.2020
2603 Rain 8 989 87 6000 3.6 80 11:21 27.10.2020
2604 Clouds 7 989 93 10000 2.1 60 10:44 27.10.2020
2605 Clouds 7 989 93 10000 2.1 60 10:21 27.10.2020
2606 Clouds 7 990 87 10000 1.5 0 09:38 27.10.2020
2607 Clouds 7 991 87 10000 1.5 0 09:20 27.10.2020
2608 Clouds 7 991 87 10000 2.1 150 08:33 27.10.2020
2609 Clouds 7 991 87 10000 2.1 150 08:33 27.10.2020
2610 Clouds 7 991 93 10000 1.5 0 07:57 27.10.2020
2611 Clouds 7 991 93 10000 2.1 130 07:38 27.10.2020
2612 Clouds 6 991 93 10000 1.5 0 07:20 27.10.2020
2613 Clouds 6 992 100 10000 0.5 50 06:21 27.10.2020
2614 Clouds 6 992 93 10000 1 0 05:46 27.10.2020
2615 Clouds 6 992 93 10000 1 0 05:27 27.10.2020
2616 Clear 7 993 87 10000 4.1 260 03:20 27.10.2020
2617 Clouds 8 993 87 10000 3.6 250 01:22 27.10.2020
2618 Clouds 8 993 93 10000 3.6 230 00:44 27.10.2020
2619 Clouds 8 993 87 10000 2.1 220 23:39 26.10.2020
2620 Clouds 8 993 87 10000 1.5 0 22:59 26.10.2020
2621 Clouds 8 992 87 10000 4.1 250 22:39 26.10.2020
2622 Clouds 9 992 81 10000 3.1 260 22:18 26.10.2020
2623 Clouds 9 992 81 10000 4.1 270 21:40 26.10.2020
2624 Clouds 9 992 81 10000 5.7 260 21:19 26.10.2020
2625 Clouds 9 992 81 10000 5.7 260 20:49 26.10.2020
2626 Clouds 9 992 81 10000 4.1 260 20:27 26.10.2020
2627 Clouds 9 991 81 10000 5.1 250 19:56 26.10.2020
2628 Clouds 9 991 76 10000 2.6 260 19:38 26.10.2020
2629 Clouds 10 991 76 10000 2.6 260 19:19 26.10.2020
2630 Clouds 10 990 81 10000 4.1 250 18:42 26.10.2020
2631 Clouds 10 990 81 10000 4.1 250 18:22 26.10.2020
2632 Clouds 10 989 81 10000 5.7 260 17:44 26.10.2020
2633 Clouds 10 989 81 10000 5.7 260 17:23 26.10.2020
2634 Clouds 11 989 81 10000 6.7 260 16:45 26.10.2020
2635 Clouds 11 989 81 10000 6.7 260 16:22 26.10.2020
2636 Clouds 11 988 81 10000 5.7 260 15:56 26.10.2020
2637 Clouds 11 988 81 10000 5.1 260 15:38 26.10.2020
2638 Clouds 11 988 81 10000 5.1 260 15:18 26.10.2020
2639 Rain 10 987 87 10000 5.7 260 14:44 26.10.2020
2640 Clouds 10 987 81 10000 6.2 260 14:18 26.10.2020
2641 Clouds 10 987 76 10000 7.2 270 13:41 26.10.2020
2642 Clouds 11 987 76 10000 7.2 270 13:22 26.10.2020
2643 Clouds 11 986 76 10000 5.1 270 12:45 26.10.2020
2644 Clouds 11 986 76 10000 5.1 270 12:27 26.10.2020
2645 Clouds 10 985 87 9000 6.7 270 11:48 26.10.2020
2646 Clouds 10 985 87 10000 5.1 250 11:27 26.10.2020
2647 Clouds 10 985 87 10000 5.1 250 10:59 26.10.2020
2648 Rain 9 985 93 7000 5.7 240 10:40 26.10.2020
2649 Rain 9 985 93 7000 5.7 240 10:20 26.10.2020
2650 Rain 9 985 93 10000 3.6 220 09:43 26.10.2020
2651 Rain 9 985 93 10000 3.6 220 09:21 26.10.2020
2652 Rain 9 984 93 10000 3.1 250 08:29 26.10.2020
2653 Rain 9 983 93 10000 4.1 220 07:53 26.10.2020
2654 Rain 9 983 93 10000 4.1 220 07:34 26.10.2020
2655 Rain 9 982 87 10000 4.6 200 06:37 26.10.2020
2656 Rain 9 983 87 9000 6.7 200 04:22 26.10.2020
2657 Rain 9 983 87 10000 5.1 180 03:33 26.10.2020
2658 Rain 9 983 87 6000 6.2 190 01:38 26.10.2020
2659 Rain 9 983 87 6000 6.2 190 00:54 26.10.2020
2660 Clouds 9 983 87 10000 6.2 190 00:31 26.10.2020
2661 Clouds 9 983 81 10000 7.7 180 23:38 25.10.2020
2662 Clouds 9 984 81 10000 6.7 180 23:19 25.10.2020
2663 Clouds 9 984 81 9000 7.2 190 22:40 25.10.2020
2664 Clouds 9 984 81 9000 7.2 190 22:40 25.10.2020
2665 Clouds 9 984 81 10000 8.2 190 22:20 25.10.2020
2666 Clouds 9 984 76 10000 7.7 180 21:40 25.10.2020
2667 Clouds 9 984 76 10000 7.7 180 21:21 25.10.2020
2668 Clouds 9 984 76 10000 7.7 180 20:46 25.10.2020
2669 Clouds 9 984 76 10000 6.7 180 20:46 25.10.2020
2670 Clouds 9 984 76 10000 6.7 180 20:27 25.10.2020
2671 Clouds 9 984 81 10000 6.7 190 19:59 25.10.2020
2672 Clouds 9 984 81 7000 6.7 200 19:41 25.10.2020
2673 Clouds 9 984 81 10000 5.1 190 19:21 25.10.2020
2674 Rain 9 984 81 10000 7.2 200 18:41 25.10.2020
2675 Rain 9 984 81 10000 7.2 200 18:23 25.10.2020
2676 Clouds 9 984 81 10000 5.1 200 17:59 25.10.2020
2677 Clouds 10 983 76 8000 7.2 210 17:38 25.10.2020
2678 Clouds 10 983 71 10000 8.7 200 17:20 25.10.2020
2679 Clouds 10 983 71 10000 8.7 200 16:51 25.10.2020
2680 Clouds 10 983 76 10000 9.8 200 16:31 25.10.2020
2681 Clouds 10 983 76 10000 10.3 200 15:52 25.10.2020
2682 Clouds 10 983 76 10000 10.3 200 15:31 25.10.2020
2683 Clouds 11 983 71 10000 10.3 200 14:58 25.10.2020
2684 Clouds 10 984 76 10000 9.8 200 14:32 25.10.2020
2685 Clouds 10 984 76 10000 10.3 200 13:59 25.10.2020
2686 Clouds 10 983 76 10000 11.3 200 13:40 25.10.2020
2687 Clouds 10 983 76 10000 8.7 210 13:19 25.10.2020
2688 Clouds 10 983 76 10000 11.3 200 13:19 25.10.2020
2689 Clouds 10 983 76 10000 8.7 210 13:19 25.10.2020
2690 Clouds 10 983 81 10000 9.3 210 12:46 25.10.2020
2691 Clouds 9 983 81 10000 9.3 210 12:25 25.10.2020
2692 Clouds 9 983 87 10000 8.7 210 11:44 25.10.2020
2693 Rain 9 983 81 10000 7.2 210 11:21 25.10.2020
2694 Clouds 8 983 87 10000 8.7 210 11:21 25.10.2020
2695 Clouds 9 983 81 10000 7.2 210 10:57 25.10.2020
2696 Clouds 8 982 81 10000 8.2 210 10:38 25.10.2020
2697 Rain 8 982 81 10000 8.2 210 10:19 25.10.2020
2698 Rain 8 982 81 10000 5.1 170 09:40 25.10.2020
2699 Clouds 7 981 81 10000 5.7 180 09:19 25.10.2020
2700 Clouds 7 981 81 10000 5.7 180 09:19 25.10.2020
2701 Clouds 7 981 81 10000 5.7 180 09:19 25.10.2020
2702 Clouds 7 981 81 10000 7.2 190 08:41 25.10.2020
2703 Clouds 7 981 81 10000 7.2 190 08:41 25.10.2020
2704 Clouds 7 981 81 10000 7.2 190 08:41 25.10.2020
2705 Clouds 7 981 87 10000 6.2 190 08:22 25.10.2020
2706 Clouds 8 981 87 10000 6.2 190 07:46 25.10.2020
2707 Clouds 8 982 81 10000 2.6 150 07:24 25.10.2020
2708 Clouds 7 982 81 10000 2.6 110 06:36 25.10.2020
2709 Clouds 8 982 81 9000 5.7 180 05:36 25.10.2020
2710 Rain 7 982 75 10000 4.1 170 04:51 25.10.2020
2711 Clouds 7 984 75 10000 6.7 170 02:45 25.10.2020
2712 Clouds 7 985 75 10000 5.1 180 01:32 25.10.2020
2713 Clouds 7 985 87 10000 3.1 140 00:48 25.10.2020
2714 Clouds 7 985 87 10000 3.6 120 00:20 25.10.2020
2715 Clouds 6 985 87 10000 2.6 80 23:53 24.10.2020
2716 Clouds 7 985 87 10000 3.1 150 23:26 24.10.2020
2717 Clouds 6 985 93 10000 3.1 120 22:55 24.10.2020
2718 Clouds 6 985 87 10000 1 0 22:37 24.10.2020
2719 Rain 7 985 87 10000 1 0 22:18 24.10.2020
2720 Clouds 8 985 81 10000 4.6 180 21:41 24.10.2020
2721 Rain 9 985 76 10000 3.6 170 21:20 24.10.2020
2722 Rain 9 985 81 10000 5.1 180 20:47 24.10.2020
2723 Rain 9 985 81 10000 5.1 180 20:22 24.10.2020
2724 Clouds 10 985 76 10000 6.7 190 19:48 24.10.2020
2725 Clouds 10 985 76 10000 6.7 190 19:28 24.10.2020
2726 Clouds 10 986 76 10000 6.2 180 18:56 24.10.2020
2727 Clouds 10 986 76 9000 5.7 180 18:38 24.10.2020
2728 Clouds 10 987 76 10000 5.7 180 18:19 24.10.2020
2729 Clouds 11 987 71 10000 5.7 200 17:37 24.10.2020
2730 Clouds 11 987 71 10000 8.2 200 17:19 24.10.2020
2731 Clouds 11 988 71 10000 7.7 200 16:42 24.10.2020
2732 Clouds 11 988 71 10000 7.7 200 16:19 24.10.2020
2733 Clouds 11 988 66 10000 11.8 210 15:39 24.10.2020
2734 Clouds 11 988 71 10000 9.3 210 15:19 24.10.2020
2735 Clouds 11 988 76 10000 7.7 210 14:46 24.10.2020
2736 Clouds 11 988 76 10000 7.7 210 14:27 24.10.2020
2737 Clouds 11 988 76 10000 8.2 220 13:45 24.10.2020
2738 Clouds 11 988 76 10000 8.2 220 13:24 24.10.2020
2739 Clouds 10 988 81 10000 5.7 220 12:44 24.10.2020
2740 Clouds 10 988 81 10000 5.7 220 12:21 24.10.2020
2741 Clouds 9 987 81 10000 3.6 230 11:51 24.10.2020
2742 Rain 9 987 87 10000 5.1 200 11:32 24.10.2020
2743 Rain 9 987 87 10000 4.6 230 10:52 24.10.2020
2744 Rain 8 987 87 10000 4.6 230 10:33 24.10.2020
2745 Rain 10 985 87 3400 10.3 190 09:50 24.10.2020
2746 Rain 11 985 87 3400 10.3 190 09:32 24.10.2020
2747 Rain 12 985 87 4200 8.7 180 08:58 24.10.2020
2748 Rain 11 986 87 6000 10.8 180 08:19 24.10.2020
2749 Rain 11 987 87 4800 9.8 180 07:54 24.10.2020
2750 Rain 11 987 87 10000 10.3 180 07:25 24.10.2020
2751 Rain 10 988 87 7000 9.8 180 06:53 24.10.2020
2752 Rain 10 989 87 3500 7.7 170 06:23 24.10.2020
2753 Rain 8 997 81 10000 3.6 130 02:56 24.10.2020
2754 Clouds 7 999 81 10000 4.6 170 01:20 24.10.2020
2755 Clouds 7 999 75 10000 5.1 180 00:40 24.10.2020
2756 Clouds 7 1000 81 10000 4.6 170 00:21 24.10.2020
2757 Clouds 7 1000 87 10000 2.1 140 23:49 23.10.2020
2758 Clouds 6 1000 87 10000 2.1 140 23:25 23.10.2020
2759 Clouds 6 1000 87 10000 3.1 150 22:57 23.10.2020
2760 Clouds 6 1000 86 10000 1.5 0 22:37 23.10.2020
2761 Clouds 6 1001 87 10000 2.1 140 22:18 23.10.2020
2762 Clouds 6 1001 87 10000 1.5 250 21:42 23.10.2020
2763 Clear 6 1001 87 10000 1.5 250 21:24 23.10.2020
2764 Clear 6 1001 86 10000 3.1 210 20:40 23.10.2020
2765 Clear 7 1001 86 10000 3.1 210 20:22 23.10.2020
2766 Clouds 7 1001 87 10000 1.5 230 19:50 23.10.2020
2767 Clouds 8 1001 81 10000 2.6 240 19:32 23.10.2020
2768 Clouds 9 1001 76 10000 3.6 270 18:55 23.10.2020
2769 Clear 10 1001 76 10000 5.1 280 18:31 23.10.2020
2770 Clear 10 1001 71 10000 4.1 240 17:50 23.10.2020
2771 Rain 9 1000 71 10000 6.2 250 17:24 23.10.2020
2772 Clear 10 1000 71 10000 6.2 250 16:56 23.10.2020
2773 Clear 10 1000 71 10000 6.2 250 16:56 23.10.2020
2774 Clear 10 1000 71 10000 6.2 250 16:56 23.10.2020
2775 Clear 10 1000 71 10000 6.2 250 16:56 23.10.2020
2776 Clear 10 1000 76 10000 5.1 230 16:36 23.10.2020
2777 Clouds 11 1000 71 10000 4.1 250 15:59 23.10.2020
2778 Clouds 11 1000 71 10000 6.7 250 15:41 23.10.2020
2779 Clouds 11 1000 71 10000 6.7 250 15:23 23.10.2020
2780 Clear 11 999 71 10000 4.6 240 14:50 23.10.2020
2781 Clouds 10 1000 76 10000 4.6 230 14:32 23.10.2020
2782 Clouds 8 999 81 10000 4.1 250 13:44 23.10.2020
2783 Clouds 8 999 81 10000 4.1 250 13:44 23.10.2020
2784 Rain 9 999 81 10000 4.1 250 13:24 23.10.2020
2785 Clouds 9 999 81 10000 3.6 260 12:51 23.10.2020
2786 Clouds 9 999 81 10000 2.6 250 12:31 23.10.2020
2787 Rain 9 999 87 10000 4.6 260 11:56 23.10.2020
2788 Rain 9 999 87 10000 4.6 260 11:56 23.10.2020
2789 Rain 9 999 93 10000 2.1 270 11:38 23.10.2020
2790 Rain 9 998 93 10000 2.1 220 11:19 23.10.2020
2791 Clouds 8 998 93 10000 1.5 0 10:39 23.10.2020
2792 Rain 8 998 93 10000 4.6 190 10:20 23.10.2020
2793 Rain 8 998 87 10000 5.1 160 09:43 23.10.2020
2794 Rain 8 998 87 10000 5.7 170 09:23 23.10.2020
2795 Rain 8 998 87 10000 5.7 170 08:51 23.10.2020
2796 Rain 8 999 87 10000 6.2 180 08:26 23.10.2020
2797 Rain 8 1000 87 10000 5.7 180 07:27 23.10.2020
2798 Rain 8 1000 81 10000 3.6 160 06:49 23.10.2020
2799 Rain 8 1000 81 10000 3.6 160 06:20 23.10.2020
2800 Rain 8 1002 70 10000 5.1 190 03:44 23.10.2020
2801 Clouds 8 1003 81 10000 4.1 190 02:27 23.10.2020
2802 Clouds 8 1004 81 10000 1.5 150 00:52 23.10.2020
2803 Clouds 8 1004 81 10000 2.6 160 00:32 23.10.2020
2804 Clouds 8 1004 81 10000 2.1 200 23:37 22.10.2020
2805 Clouds 8 1004 87 10000 2.6 190 23:19 22.10.2020
2806 Clouds 8 1004 93 10000 1.5 200 22:45 22.10.2020
2807 Clouds 7 1004 93 10000 1.5 200 22:23 22.10.2020
2808 Clouds 8 1004 87 10000 2.1 230 21:54 22.10.2020
2809 Clouds 8 1004 87 10000 2.1 250 21:32 22.10.2020
2810 Clouds 8 1004 87 10000 3.1 210 20:59 22.10.2020
2811 Clouds 8 1004 81 10000 4.1 230 20:41 22.10.2020
2812 Clouds 9 1004 81 10000 4.1 230 20:23 22.10.2020
2813 Clouds 9 1003 93 10000 3.1 240 19:43 22.10.2020
2814 Clouds 9 1003 87 10000 3.6 270 19:20 22.10.2020
2815 Clouds 10 1003 87 10000 4.6 280 18:44 22.10.2020
2816 Clouds 10 1003 87 10000 4.6 280 18:22 22.10.2020
2817 Clouds 10 1002 81 10000 3.6 260 17:48 22.10.2020
2818 Clouds 11 1002 81 10000 3.6 260 17:26 22.10.2020
2819 Clouds 11 1002 81 10000 0.5 230 16:59 22.10.2020
2820 Clouds 11 1002 81 10000 1.5 0 16:41 22.10.2020
2821 Clouds 11 1002 81 10000 1.5 0 16:23 22.10.2020
2822 Clouds 11 1002 76 10000 0.5 0 15:48 22.10.2020
2823 Clouds 11 1002 76 10000 0.5 0 15:26 22.10.2020
2824 Clouds 11 1002 81 10000 1.5 0 14:50 22.10.2020
2825 Clouds 11 1001 81 10000 2.1 300 14:27 22.10.2020
2826 Clouds 11 1001 87 10000 1.5 0 13:50 22.10.2020
2827 Clouds 11 1001 87 10000 2.6 270 13:25 22.10.2020
2828 Clouds 11 1001 87 10000 2.1 270 12:57 22.10.2020
2829 Clouds 11 1001 87 10000 2.1 260 12:27 22.10.2020
2830 Clouds 10 1000 87 10000 2.6 270 11:50 22.10.2020
2831 Clouds 10 1000 93 10000 2.1 240 11:21 22.10.2020
2832 Clouds 10 999 87 10000 2.1 280 10:52 22.10.2020
2833 Clouds 10 999 87 10000 2.6 260 10:30 22.10.2020
2834 Clouds 9 998 93 10000 2.1 250 09:59 22.10.2020
2835 Clouds 9 998 100 10000 3.1 230 09:41 22.10.2020
2836 Clouds 9 997 100 10000 2.1 220 08:57 22.10.2020
2837 Clouds 9 997 100 9000 0.5 210 08:38 22.10.2020
2838 Clouds 9 996 93 10000 1.5 0 08:18 22.10.2020
2839 Clouds 9 996 100 10000 2.1 260 07:43 22.10.2020
2840 Clouds 9 996 100 10000 2.1 270 06:59 22.10.2020
2841 Clouds 9 995 100 10000 2.6 240 06:36 22.10.2020
2842 Clouds 9 995 100 10000 2.1 240 05:42 22.10.2020
2843 Clouds 9 995 100 10000 2.1 240 05:20 22.10.2020
2844 Clouds 10 993 93 10000 2.1 50 01:57 22.10.2020
2845 Clouds 10 993 87 10000 2.6 110 00:27 22.10.2020
2846 Clouds 10 993 87 10000 2.6 110 23:57 21.10.2020
2847 Clouds 11 993 87 10000 2.1 130 23:35 21.10.2020
2848 Clouds 11 992 87 10000 1.5 0 22:54 21.10.2020
2849 Clouds 11 992 87 10000 3.1 150 22:36 21.10.2020
2850 Clouds 11 992 81 10000 4.1 170 22:18 21.10.2020
2851 Clouds 11 992 87 10000 4.1 170 21:42 21.10.2020
2852 Clouds 11 992 87 10000 4.1 170 21:19 21.10.2020
2853 Clouds 11 992 87 10000 3.6 160 20:48 21.10.2020
2854 Clouds 12 991 87 10000 2.1 170 20:19 21.10.2020
2855 Clouds 12 991 87 10000 2.1 170 19:57 21.10.2020
2856 Clouds 12 991 87 10000 3.1 180 19:37 21.10.2020
2857 Clouds 12 990 87 10000 2.1 170 19:18 21.10.2020
2858 Clouds 13 990 87 10000 4.1 190 18:46 21.10.2020
2859 Clouds 13 990 87 10000 3.6 210 18:21 21.10.2020
2860 Clouds 13 990 82 10000 3.1 180 17:43 21.10.2020
2861 Clouds 13 990 82 10000 3.1 180 17:20 21.10.2020
2862 Clouds 13 990 93 10000 2.1 190 16:41 21.10.2020
2863 Rain 13 990 93 10000 0.5 0 16:21 21.10.2020
2864 Drizzle 13 990 93 5000 2.1 150 15:57 21.10.2020
2865 Drizzle 13 990 93 5000 2.1 150 15:38 21.10.2020
2866 Drizzle 13 990 93 4700 3.1 160 15:19 21.10.2020
2867 Clouds 13 990 93 4000 3.1 140 14:43 21.10.2020
2868 Drizzle 13 990 93 3700 3.1 150 14:25 21.10.2020
2869 Haze 13 990 87 4400 3.6 170 13:42 21.10.2020
2870 Clouds 13 990 87 10000 3.6 180 13:24 21.10.2020
2871 Clouds 13 990 87 10000 4.6 150 12:47 21.10.2020
2872 Clouds 13 990 87 10000 3.6 160 12:24 21.10.2020
2873 Clouds 12 990 93 10000 3.6 140 11:59 21.10.2020
2874 Clouds 12 990 93 10000 3.6 140 11:40 21.10.2020
2875 Clouds 12 990 87 10000 3.1 140 11:19 21.10.2020
2876 Clouds 12 990 87 7000 3.1 130 10:41 21.10.2020
2877 Clouds 12 990 87 6000 3.1 140 10:21 21.10.2020
2878 Clouds 12 990 87 7000 3.1 150 09:51 21.10.2020
2879 Clouds 12 990 87 7000 2.6 160 09:28 21.10.2020
2880 Clouds 12 990 87 7000 3.1 170 08:42 21.10.2020
2881 Clouds 12 990 87 10000 2.6 130 08:24 21.10.2020
2882 Clouds 12 990 87 9000 3.1 130 07:57 21.10.2020
2883 Clouds 12 990 87 8000 2.6 130 07:29 21.10.2020
2884 Clouds 12 990 87 10000 3.6 140 06:48 21.10.2020
2885 Clouds 12 990 87 10000 3.6 140 06:26 21.10.2020
2886 Clouds 12 991 87 10000 4.6 140 04:45 21.10.2020
2887 Clouds 12 991 93 7000 3.1 140 00:50 21.10.2020
2888 Clouds 12 991 93 10000 4.6 140 23:37 20.10.2020
2889 Rain 12 991 93 3200 5.1 150 22:49 20.10.2020
2890 Clouds 12 991 93 10000 4.1 110 22:25 20.10.2020
2891 Rain 12 991 93 10000 4.6 130 21:48 20.10.2020
2892 Rain 13 991 82 9000 5.1 120 21:20 20.10.2020
2893 Rain 13 991 82 10000 3.6 100 20:44 20.10.2020
2894 Rain 12 991 93 10000 3.6 90 20:25 20.10.2020
2895 Clouds 12 991 93 10000 3.6 100 19:57 20.10.2020
2896 Clouds 12 991 93 10000 3.6 100 19:39 20.10.2020
2897 Clouds 13 991 87 10000 4.1 100 19:20 20.10.2020
2898 Rain 13 991 87 10000 3.6 100 18:45 20.10.2020
2899 Rain 13 991 93 10000 3.1 100 18:26 20.10.2020
2900 Rain 13 991 93 10000 3.1 80 17:42 20.10.2020
2901 Rain 13 992 93 4600 3.1 80 17:23 20.10.2020
2902 Clouds 13 992 93 6000 3.6 60 16:48 20.10.2020
2903 Clouds 13 992 93 6000 3.6 60 16:47 20.10.2020
2904 Rain 13 992 93 7000 3.6 70 16:26 20.10.2020
2905 Rain 13 992 87 10000 4.1 70 15:50 20.10.2020
2906 Rain 13 992 87 10000 4.1 60 15:31 20.10.2020
2907 Clouds 13 992 87 10000 4.6 60 14:55 20.10.2020
2908 Clouds 12 993 93 3900 5.1 50 14:37 20.10.2020
2909 Clouds 12 993 93 3900 5.1 50 14:19 20.10.2020
2910 Clouds 13 993 93 10000 4.1 40 13:42 20.10.2020
2911 Clouds 12 993 87 10000 4.6 60 13:21 20.10.2020
2912 Clouds 11 993 93 10000 3.6 50 12:54 20.10.2020
2913 Clouds 11 993 87 10000 4.1 60 12:31 20.10.2020
2914 Clouds 10 993 93 10000 4.6 50 11:49 20.10.2020
2915 Clouds 10 993 93 10000 4.6 50 11:30 20.10.2020
2916 Clouds 9 993 93 9000 3.6 60 10:58 20.10.2020
2917 Clouds 9 993 93 10000 3.6 70 10:28 20.10.2020
2918 Clouds 9 993 93 7000 4.1 70 09:50 20.10.2020
2919 Clouds 9 993 93 5000 3.6 60 09:20 20.10.2020
2920 Clouds 9 993 93 10000 3.1 70 08:53 20.10.2020
2921 Rain 9 994 100 9000 3.6 60 08:27 20.10.2020
2922 Clouds 9 994 100 10000 3.6 70 07:49 20.10.2020
2923 Clouds 9 994 93 7000 3.1 80 07:24 20.10.2020
2924 Rain 9 995 93 10000 3.6 80 06:24 20.10.2020
2925 Rain 10 996 87 10000 3.1 60 04:58 20.10.2020
2926 Rain 10 999 93 9000 2.6 80 02:33 20.10.2020
2927 Rain 11 999 93 10000 2.1 60 01:43 20.10.2020
2928 Rain 11 999 93 10000 2.6 70 00:56 20.10.2020
2929 Rain 11 999 93 10000 1.5 0 00:37 20.10.2020
2930 Rain 11 999 93 10000 1.5 0 00:18 20.10.2020
2931 Rain 12 1000 87 10000 3.6 190 23:29 19.10.2020
2932 Rain 12 1000 87 10000 4.1 190 22:59 19.10.2020
2933 Rain 11 1001 93 10000 2.6 220 22:34 19.10.2020
2934 Rain 11 1001 93 10000 1 0 21:58 19.10.2020
2935 Rain 11 1001 93 10000 1 0 21:39 19.10.2020
2936 Rain 10 1001 93 10000 2.1 30 21:19 19.10.2020
2937 Rain 10 1001 93 10000 2.1 70 20:44 19.10.2020
2938 Rain 11 1001 87 8000 2.1 90 20:26 19.10.2020
2939 Rain 11 1002 87 10000 2.1 130 19:46 19.10.2020
2940 Rain 11 1002 87 9000 2.6 140 19:21 19.10.2020
2941 Rain 11 1003 93 10000 3.1 150 18:51 19.10.2020
2942 Rain 11 1003 93 10000 3.6 160 18:31 19.10.2020
2943 Rain 11 1003 93 8000 3.6 160 17:49 19.10.2020
2944 Rain 11 1004 93 10000 2.6 140 17:29 19.10.2020
2945 Rain 12 1004 87 10000 3.6 170 16:55 19.10.2020
2946 Rain 12 1005 87 10000 3.6 170 16:30 19.10.2020
2947 Rain 11 1004 87 10000 0.45 115 15:59 19.10.2020
2948 Rain 12 1005 87 10000 0.45 33 15:37 19.10.2020
2949 Rain 12 1005 87 10000 0.89 84 15:19 19.10.2020
2950 Clouds 12 1005 87 10000 0.45 241 14:43 19.10.2020
2951 Clouds 12 1006 87 10000 6.07 192 14:23 19.10.2020
2952 Rain 12 1006 87 10000 0.89 342 13:46 19.10.2020
2953 Rain 12 1006 87 10000 0.45 81 13:28 19.10.2020
2954 Rain 12 1006 87 10000 0.45 50 12:46 19.10.2020
2955 Rain 12 1007 87 10000 0.45 128 12:26 19.10.2020
2956 Rain 12 1008 87 10000 6.7 200 11:51 19.10.2020
2957 Rain 12 1008 87 10000 6.7 200 11:24 19.10.2020
2958 Rain 12 1008 87 9000 7.7 200 10:46 19.10.2020
2959 Rain 12 1008 87 9000 7.7 200 10:28 19.10.2020
2960 Rain 12 1008 87 10000 8.2 200 09:58 19.10.2020
2961 Rain 12 1008 87 10000 6.7 200 09:39 19.10.2020
2962 Rain 11 1009 87 10000 6.2 190 09:18 19.10.2020
2963 Rain 11 1009 93 10000 5.7 190 08:45 19.10.2020
2964 Rain 11 1009 93 10000 5.7 190 08:21 19.10.2020
2965 Rain 11 1010 93 10000 4.6 180 07:21 19.10.2020
2966 Rain 11 1010 93 6000 4.6 180 06:50 19.10.2020
2967 Rain 11 1011 93 8000 4.6 190 06:50 19.10.2020
2968 Rain 11 1012 93 7000 5.1 190 05:40 19.10.2020
2969 Clouds 11 1014 87 9000 2.1 200 03:46 19.10.2020
2970 Clouds 9 1015 93 10000 0.5 0 01:44 19.10.2020
2971 Rain 9 1016 93 10000 1 30 00:43 19.10.2020
2972 Clouds 10 1016 87 10000 1 0 23:59 18.10.2020
2973 Clouds 9 1017 93 10000 3.6 220 23:40 18.10.2020
2974 Clouds 9 1017 93 10000 1.5 0 23:20 18.10.2020
2975 Clouds 9 1017 93 10000 0.5 0 22:44 18.10.2020
2976 Clouds 9 1017 93 10000 1.5 0 22:19 18.10.2020
2977 Clouds 9 1018 87 10000 1 360 21:43 18.10.2020
2978 Clouds 9 1018 87 10000 1 360 21:21 18.10.2020
2979 Clouds 9 1018 81 10000 3.6 210 20:45 18.10.2020
2980 Clouds 10 1018 93 10000 2.6 230 20:24 18.10.2020
2981 Clouds 10 1018 93 10000 2.6 230 19:50 18.10.2020
2982 Clouds 10 1019 81 10000 3.6 220 19:27 18.10.2020
2983 Clouds 10 1019 81 10000 4.1 210 18:51 18.10.2020
2984 Clouds 11 1019 76 10000 3.1 230 18:31 18.10.2020
2985 Clouds 11 1019 76 10000 2.1 200 17:59 18.10.2020
2986 Clouds 11 1020 81 10000 0.5 0 17:41 18.10.2020
2987 Clouds 10 1020 81 10000 0.5 0 17:21 18.10.2020
2988 Clouds 10 1021 81 10000 1.5 40 16:42 18.10.2020
2989 Clouds 10 1021 81 10000 1.5 40 16:23 18.10.2020
2990 Clouds 9 1022 87 10000 1 0 15:43 18.10.2020
2991 Clouds 9 1022 87 10000 1 30 15:19 18.10.2020
2992 Clouds 9 1022 87 10000 1 30 14:57 18.10.2020
2993 Clouds 9 1022 87 10000 1.5 50 14:31 18.10.2020
2994 Clouds 9 1023 87 10000 1.5 0 13:59 18.10.2020
2995 Clouds 9 1023 87 10000 1.5 0 13:40 18.10.2020
2996 Clouds 9 1023 87 10000 1.5 0 13:22 18.10.2020
2997 Clouds 8 1024 87 10000 1 0 12:43 18.10.2020
2998 Clouds 8 1024 87 10000 1 0 12:23 18.10.2020
2999 Clouds 8 1024 87 10000 1.5 60 11:43 18.10.2020
3000 Clouds 7 1024 87 10000 1.5 60 11:23 18.10.2020
3001 Clouds 7 1024 93 10000 2.1 70 10:46 18.10.2020
3002 Clouds 7 1024 93 10000 2.1 70 10:22 18.10.2020
3003 Clouds 7 1024 93 10000 1 0 10:00 18.10.2020
3004 Clouds 7 1024 100 10000 2.1 80 09:41 18.10.2020
3005 Clouds 7 1024 100 10000 2.1 80 09:20 18.10.2020
3006 Clouds 7 1025 100 10000 1.5 10 08:44 18.10.2020
3007 Clouds 7 1025 100 10000 2.1 50 08:25 18.10.2020
3008 Clouds 7 1025 100 10000 2.1 50 07:48 18.10.2020
3009 Clouds 7 1025 93 10000 2.1 80 05:36 18.10.2020
3010 Clouds 8 1026 93 10000 2.6 80 03:39 18.10.2020
3011 Clouds 8 1026 93 10000 3.1 100 02:51 18.10.2020
3012 Clouds 9 1026 87 10000 4.6 130 01:25 18.10.2020
3013 Clouds 9 1026 81 10000 0.5 0 00:36 18.10.2020
3014 Clouds 9 1026 81 10000 1 0 23:59 17.10.2020
3015 Clouds 9 1026 81 10000 1 0 23:40 17.10.2020
3016 Clouds 9 1026 81 10000 1 0 23:21 17.10.2020
3017 Clouds 9 1026 76 10000 1.5 0 23:21 17.10.2020
3018 Clouds 10 1026 76 10000 2.6 110 22:55 17.10.2020
3019 Clouds 10 1026 76 10000 2.6 110 22:22 17.10.2020
3020 Clouds 9 1026 81 10000 1.5 60 21:59 17.10.2020
3021 Clouds 10 1026 81 10000 2.1 70 21:40 17.10.2020
3022 Clouds 10 1026 81 10000 2.1 70 21:20 17.10.2020
3023 Clouds 10 1026 81 10000 1 50 20:43 17.10.2020
3024 Clouds 10 1026 81 10000 1 50 20:19 17.10.2020
3025 Clouds 10 1026 76 10000 1.5 50 19:43 17.10.2020
3026 Clouds 10 1026 76 10000 2.1 60 19:21 17.10.2020
3027 Clouds 11 1026 71 10000 3.1 90 18:45 17.10.2020
3028 Clouds 11 1026 71 10000 3.1 90 18:25 17.10.2020
3029 Clouds 11 1026 71 10000 3.6 80 17:50 17.10.2020
3030 Clouds 11 1026 71 10000 3.6 80 17:50 17.10.2020
3031 Clouds 11 1026 71 10000 3.6 80 17:23 17.10.2020
3032 Clouds 11 1026 71 10000 2.6 90 16:51 17.10.2020
3033 Clouds 11 1026 71 10000 3.1 90 16:24 17.10.2020
3034 Clouds 11 1026 71 10000 3.1 50 15:59 17.10.2020
3035 Clouds 11 1026 71 10000 3.1 70 15:40 17.10.2020
3036 Clouds 11 1026 71 10000 3.1 70 15:21 17.10.2020
3037 Clouds 10 1027 76 10000 3.1 70 14:54 17.10.2020
3038 Clouds 10 1027 76 10000 2.1 60 14:31 17.10.2020
3039 Clouds 10 1027 76 10000 2.6 40 13:59 17.10.2020
3040 Clouds 10 1027 76 10000 2.6 40 13:41 17.10.2020
3041 Clouds 10 1027 76 10000 2.6 20 13:20 17.10.2020
3042 Clouds 9 1027 81 10000 1.5 0 12:41 17.10.2020
3043 Clouds 9 1027 76 10000 3.1 30 12:20 17.10.2020
3044 Clouds 9 1027 76 10000 3.1 30 11:58 17.10.2020
3045 Clouds 9 1027 76 10000 2.6 30 11:29 17.10.2020
3046 Clouds 8 1027 81 10000 2.1 360 10:45 17.10.2020
3047 Clouds 8 1027 81 10000 2.1 360 10:26 17.10.2020
3048 Clouds 8 1027 87 10000 1.5 330 09:44 17.10.2020
3049 Clouds 8 1027 87 10000 1 360 09:26 17.10.2020
3050 Clouds 8 1027 87 10000 1.5 30 08:47 17.10.2020
3051 Clouds 8 1027 87 10000 1.5 30 08:20 17.10.2020
3052 Clouds 8 1027 81 10000 1.5 40 07:43 17.10.2020
3053 Clouds 8 1027 87 10000 1.5 50 06:44 17.10.2020
3054 Clouds 8 1027 81 10000 2.1 70 04:52 17.10.2020
3055 Clouds 9 1028 81 10000 2.6 60 02:29 17.10.2020
3056 Clouds 9 1028 81 10000 2.1 50 00:57 17.10.2020
3057 Clouds 9 1028 87 10000 2.6 40 00:34 17.10.2020
3058 Clouds 9 1028 87 10000 2.6 50 23:38 16.10.2020
3059 Clouds 9 1028 87 10000 2.6 50 23:20 16.10.2020
3060 Clouds 9 1028 81 10000 3.6 50 22:43 16.10.2020
3061 Clouds 9 1028 81 10000 3.6 50 22:23 16.10.2020
3062 Clouds 9 1028 81 10000 1.5 30 21:47 16.10.2020
3063 Clouds 9 1028 81 10000 1.5 30 21:26 16.10.2020
3064 Clouds 9 1028 81 10000 1.5 40 20:46 16.10.2020
3065 Clouds 10 1028 76 10000 1.5 0 20:26 16.10.2020
3066 Clouds 10 1028 76 10000 1.5 0 19:54 16.10.2020
3067 Clouds 10 1028 76 10000 1.5 80 19:29 16.10.2020
3068 Clouds 11 1028 71 10000 3.1 80 18:58 16.10.2020
3069 Clouds 11 1028 66 10000 3.6 80 18:40 16.10.2020
3070 Clouds 11 1028 66 10000 3.6 80 18:21 16.10.2020
3071 Clouds 11 1028 66 10000 3.1 70 17:43 16.10.2020
3072 Clouds 11 1028 66 10000 3.1 70 17:24 16.10.2020
3073 Clouds 11 1029 66 10000 2.6 80 16:45 16.10.2020
3074 Clouds 11 1029 66 10000 2.6 80 16:27 16.10.2020
3075 Clouds 11 1029 66 10000 2.6 50 15:25 16.10.2020
3076 Clouds 11 1029 66 10000 2.6 100 14:59 16.10.2020
3077 Clouds 11 1029 66 10000 4.1 60 14:39 16.10.2020
3078 Clouds 11 1030 66 10000 3.6 90 14:18 16.10.2020
3079 Clouds 11 1030 71 10000 2.6 50 13:44 16.10.2020
3080 Clouds 10 1030 71 10000 2.6 50 13:25 16.10.2020
3081 Clouds 10 1030 71 10000 2.1 80 12:58 16.10.2020
3082 Clouds 9 1030 66 10000 2.1 110 12:27 16.10.2020
3083 Clouds 8 1030 76 10000 0.5 0 11:58 16.10.2020
3084 Clouds 7 1030 87 10000 0.5 0 11:39 16.10.2020
3085 Clouds 7 1030 93 10000 1 250 11:19 16.10.2020
3086 Clouds 5 1030 100 10000 1.5 210 10:47 16.10.2020
3087 Clouds 4 1030 100 10000 1.5 210 10:27 16.10.2020
3088 Clouds 5 1029 86 10000 2.1 130 09:40 16.10.2020
3089 Clouds 5 1029 86 10000 2.1 130 09:22 16.10.2020
3090 Clouds 5 1029 87 10000 0.5 170 08:46 16.10.2020
3091 Clouds 6 1029 87 10000 0.5 170 08:28 16.10.2020
3092 Clouds 6 1029 93 10000 1 340 07:43 16.10.2020
3093 Clouds 6 1030 87 10000 0.5 210 06:57 16.10.2020
3094 Clouds 7 1030 87 10000 1 270 06:30 16.10.2020
3095 Clouds 7 1031 81 10000 2.6 200 03:52 16.10.2020
3096 Clouds 8 1031 70 10000 0.5 0 01:43 16.10.2020
3097 Clouds 8 1031 70 10000 0.5 0 01:43 16.10.2020
3098 Clouds 7 1031 81 10000 2.6 30 00:43 16.10.2020
3099 Clouds 8 1031 75 10000 1.5 0 23:56 15.10.2020
3100 Clouds 8 1031 75 10000 2.1 60 23:37 15.10.2020
3101 Clouds 8 1031 75 10000 1 70 23:18 15.10.2020
3102 Clouds 8 1031 70 10000 1.5 80 22:44 15.10.2020
3103 Clouds 8 1031 70 10000 1.5 80 22:21 15.10.2020
3104 Clouds 8 1031 81 10000 1.5 0 21:42 15.10.2020
3105 Clouds 8 1031 81 10000 1.5 0 21:21 15.10.2020
3106 Clouds 8 1031 75 10000 1 10 20:49 15.10.2020
3107 Clouds 8 1031 75 10000 2.1 30 20:49 15.10.2020
3108 Clouds 9 1031 75 10000 2.1 30 20:23 15.10.2020
3109 Clouds 9 1030 70 10000 2.6 40 19:57 15.10.2020
3110 Clouds 9 1030 66 10000 2.6 40 19:39 15.10.2020
3111 Clouds 9 1030 66 10000 3.6 50 19:19 15.10.2020
3112 Clouds 10 1030 66 10000 3.1 60 18:42 15.10.2020
3113 Clouds 10 1031 61 10000 2.6 70 18:21 15.10.2020
3114 Clouds 11 1031 66 10000 3.1 50 17:45 15.10.2020
3115 Clouds 11 1031 66 10000 3.1 50 17:23 15.10.2020
3116 Clouds 11 1031 57 10000 4.1 50 16:47 15.10.2020
3117 Clouds 11 1031 57 10000 4.1 50 16:26 15.10.2020
3118 Clouds 11 1031 62 10000 4.1 50 15:57 15.10.2020
3119 Clouds 11 1031 62 10000 4.1 50 15:39 15.10.2020
3120 Clouds 11 1031 57 10000 4.6 70 15:20 15.10.2020
3121 Clouds 11 1032 66 10000 4.6 70 14:42 15.10.2020
3122 Clouds 10 1032 66 10000 4.6 70 14:22 15.10.2020
3123 Clouds 10 1032 76 10000 0.5 0 13:44 15.10.2020
3124 Clouds 9 1032 76 10000 0.5 0 13:23 15.10.2020
3125 Clouds 9 1032 81 10000 0.5 0 12:51 15.10.2020
3126 Clouds 7 1032 93 10000 0.5 0 12:28 15.10.2020
3127 Clouds 7 1032 100 10000 0.5 0 11:51 15.10.2020
3128 Clouds 6 1032 93 10000 0.5 120 11:21 15.10.2020
3129 Clouds 5 1032 100 10000 0.5 300 10:52 15.10.2020
3130 Clouds 5 1031 100 10000 1 250 10:34 15.10.2020
3131 Fog 4 1031 92 10000 1 260 09:42 15.10.2020
3132 Fog 0 1031 92 10000 1 260 09:22 15.10.2020
3133 Fog 0 1031 80 10000 1 280 08:59 15.10.2020
3134 Fog -1 1031 100 10000 0.5 260 08:36 15.10.2020
3135 Fog 0 1031 79 10000 1.5 250 07:56 15.10.2020
3136 Fog 1 1031 80 750 1.5 220 06:49 15.10.2020
3137 Mist 1 1031 80 2900 2.1 230 05:38 15.10.2020
3138 Fog 5 1031 100 10000 0.5 0 03:44 15.10.2020
3139 Clear 7 1031 93 10000 1 70 01:42 15.10.2020
3140 Clouds 8 1031 87 10000 1.5 30 00:36 15.10.2020
3141 Clouds 8 1031 93 10000 1.5 40 00:18 15.10.2020
3142 Clouds 8 1031 93 10000 1.5 40 00:18 15.10.2020
3143 Clouds 7 1031 93 10000 2.1 50 23:40 14.10.2020
3144 Clouds 9 1031 81 10000 3.1 60 23:20 14.10.2020
3145 Clouds 9 1031 81 10000 3.1 80 22:44 14.10.2020
3146 Clouds 10 1031 81 10000 3.1 80 22:25 14.10.2020
3147 Clouds 10 1031 81 10000 3.6 50 21:45 14.10.2020
3148 Clouds 10 1031 81 10000 3.6 50 21:24 14.10.2020
3149 Clouds 10 1031 76 10000 3.6 60 20:58 14.10.2020
3150 Clouds 11 1031 76 10000 3.1 60 20:40 14.10.2020
3151 Clouds 11 1031 76 10000 3.6 70 20:18 14.10.2020
3152 Clouds 11 1031 71 10000 4.1 60 19:44 14.10.2020
3153 Clouds 12 1031 71 10000 4.1 60 19:23 14.10.2020
3154 Clouds 12 1031 76 10000 4.1 60 18:42 14.10.2020
3155 Clouds 12 1030 76 10000 4.6 60 18:22 14.10.2020
3156 Clouds 12 1030 71 10000 6.2 70 17:47 14.10.2020
3157 Clouds 12 1030 71 10000 6.2 70 17:21 14.10.2020
3158 Clouds 13 1030 76 10000 6.7 70 16:50 14.10.2020
3159 Clouds 12 1031 81 10000 6.2 60 16:23 14.10.2020
3160 Clouds 12 1031 81 10000 6.2 60 15:56 14.10.2020
3161 Clouds 12 1031 87 10000 4.1 70 15:37 14.10.2020
3162 Clouds 12 1031 87 4900 6.2 60 15:19 14.10.2020
3163 Clouds 12 1030 76 10000 6.7 60 14:44 14.10.2020
3164 Clouds 13 1030 82 10000 6.7 60 14:20 14.10.2020
3165 Clouds 13 1030 76 10000 6.2 60 13:42 14.10.2020
3166 Clouds 13 1030 76 10000 6.2 60 13:21 14.10.2020
3167 Clouds 12 1030 81 10000 4.6 70 12:41 14.10.2020
3168 Clouds 12 1030 87 10000 4.6 70 12:22 14.10.2020
3169 Clouds 11 1030 87 10000 4.6 70 11:57 14.10.2020
3170 Clouds 11 1030 87 10000 5.1 60 11:39 14.10.2020
3171 Clouds 11 1029 87 10000 5.1 60 11:20 14.10.2020
3172 Clouds 11 1029 87 10000 5.7 60 10:42 14.10.2020
3173 Clouds 11 1029 87 10000 5.7 60 10:23 14.10.2020
3174 Clouds 10 1028 81 10000 6.2 50 09:45 14.10.2020
3175 Clouds 10 1028 81 10000 7.2 50 08:53 14.10.2020
3176 Clouds 11 1027 76 10000 7.2 40 08:34 14.10.2020
3177 Clouds 10 1027 76 10000 7.7 40 07:52 14.10.2020
3178 Clouds 10 1026 81 10000 6.2 40 07:22 14.10.2020
3179 Clouds 10 1026 81 10000 6.2 40 06:56 14.10.2020
3180 Clouds 10 1026 81 10000 6.2 40 06:36 14.10.2020
3181 Clouds 10 1026 76 10000 8.2 40 05:49 14.10.2020
3182 Clouds 10 1025 71 10000 7.2 40 02:28 14.10.2020
3183 Clouds 10 1025 76 10000 5.7 40 01:44 14.10.2020
3184 Clouds 9 1024 76 10000 4.6 40 00:36 14.10.2020
3185 Clouds 9 1024 70 10000 4.6 40 23:56 13.10.2020
3186 Clouds 9 1024 76 10000 6.7 40 23:24 13.10.2020
3187 Clouds 9 1023 76 10000 6.2 30 22:50 13.10.2020
3188 Clear 9 1023 70 10000 2.1 50 22:26 13.10.2020
3189 Clouds 8 1023 81 10000 2.1 10 21:57 13.10.2020
3190 Clouds 10 1023 71 10000 5.1 20 21:38 13.10.2020
3191 Clouds 10 1023 71 10000 5.1 20 21:38 13.10.2020
3192 Clouds 9 1022 76 10000 4.6 20 21:19 13.10.2020
3193 Clouds 10 1022 76 10000 4.6 30 20:43 13.10.2020
3194 Clouds 10 1022 76 10000 4.6 30 20:24 13.10.2020
3195 Clouds 10 1022 71 10000 5.7 30 19:55 13.10.2020
3196 Clouds 10 1021 76 10000 6.2 20 19:36 13.10.2020
3197 Clouds 11 1021 66 10000 6.7 40 19:18 13.10.2020
3198 Clouds 12 1020 62 10000 7.2 40 18:42 13.10.2020
3199 Clouds 12 1020 62 10000 7.2 40 18:23 13.10.2020
3200 Clouds 12 1020 58 10000 7.2 40 17:59 13.10.2020
3201 Clouds 13 1020 58 10000 6.7 40 17:38 13.10.2020
3202 Clouds 12 1019 62 10000 7.2 50 16:50 13.10.2020
3203 Clouds 12 1019 62 10000 7.7 30 16:22 13.10.2020
3204 Clouds 12 1019 62 10000 7.7 30 15:57 13.10.2020
3205 Clouds 12 1019 66 10000 7.7 30 15:38 13.10.2020
3206 Clouds 12 1019 66 10000 9.3 40 15:19 13.10.2020
3207 Clouds 11 1018 66 10000 7.7 40 14:42 13.10.2020
3208 Clouds 11 1018 66 10000 7.7 40 14:23 13.10.2020
3209 Clouds 11 1018 71 10000 7.7 40 13:48 13.10.2020
3210 Clouds 11 1017 66 10000 10.3 40 13:21 13.10.2020
3211 Clouds 11 1017 71 10000 9.8 40 12:46 13.10.2020
3212 Clouds 11 1017 71 10000 9.8 40 12:22 13.10.2020
3213 Clouds 11 1017 71 10000 7.7 40 11:57 13.10.2020
3214 Clouds 10 1016 76 10000 8.2 40 11:37 13.10.2020
3215 Clouds 10 1015 76 10000 7.7 40 11:19 13.10.2020
3216 Clouds 10 1015 81 10000 8.2 30 10:42 13.10.2020
3217 Clouds 9 1015 81 10000 8.2 30 10:21 13.10.2020
3218 Rain 9 1015 87 10000 6.7 40 09:55 13.10.2020
3219 Clouds 8 1014 93 10000 3.6 40 09:36 13.10.2020
3220 Rain 7 1014 100 10000 1 0 09:18 13.10.2020
3221 Clouds 4 1013 93 1400 0.5 0 08:41 13.10.2020
3222 Rain 4 1013 93 1400 0.5 0 08:21 13.10.2020
3223 Rain 4 1012 100 1400 1.5 240 07:35 13.10.2020
3224 Fog 4 1012 93 550 1.48 352 06:55 13.10.2020
3225 Clouds 4 1012 100 10000 0.5 200 06:31 13.10.2020
3226 Clouds 5 1011 93 10000 2.1 220 04:28 13.10.2020
3227 Clouds 5 1011 100 10000 1.5 0 03:30 13.10.2020
3228 Clouds 7 1012 87 10000 3.1 260 00:59 13.10.2020
3229 Clouds 8 1012 87 10000 2.6 260 00:41 13.10.2020
3230 Rain 8 1012 87 10000 3.1 250 23:54 12.10.2020
3231 Rain 9 1012 81 10000 3.6 270 23:33 12.10.2020
3232 Rain 9 1012 81 10000 4.1 280 22:52 12.10.2020
3233 Clear 9 1013 81 10000 4.6 280 22:33 12.10.2020
3234 Clear 9 1013 76 10000 4.6 290 21:59 12.10.2020
3235 Clear 9 1013 76 10000 4.6 290 21:59 12.10.2020
3236 Rain 10 1013 76 10000 4.6 290 21:40 12.10.2020
3237 Clouds 10 1013 76 10000 5.1 280 21:19 12.10.2020
3238 Clouds 10 1012 76 10000 5.1 280 20:43 12.10.2020
3239 Clouds 10 1012 76 10000 5.1 280 20:22 12.10.2020
3240 Clouds 10 1012 71 10000 4.6 280 19:51 12.10.2020
3241 Clouds 11 1012 76 10000 4.1 280 19:33 12.10.2020
3242 Clouds 11 1012 71 10000 6.2 290 18:51 12.10.2020
3243 Clouds 12 1012 71 10000 6.7 290 18:23 12.10.2020
3244 Clouds 12 1012 71 10000 5.7 290 17:51 12.10.2020
3245 Clouds 13 1012 66 10000 4.6 290 17:30 12.10.2020
3246 Clouds 12 1012 66 10000 5.1 290 16:59 12.10.2020
3247 Clouds 12 1012 76 10000 5.1 290 16:40 12.10.2020
3248 Clouds 12 1012 76 10000 5.1 270 16:21 12.10.2020
3249 Clouds 11 1012 87 10000 5.7 300 15:45 12.10.2020
3250 Clouds 11 1012 87 10000 5.7 300 15:27 12.10.2020
3251 Rain 11 1012 93 10000 3.6 280 14:54 12.10.2020
3252 Rain 11 1012 93 10000 2.1 310 14:29 12.10.2020
3253 Clouds 10 1012 93 7000 1.5 30 13:45 12.10.2020
3254 Clouds 10 1012 93 7000 1.5 30 13:22 12.10.2020
3255 Drizzle 10 1013 100 2200 2.6 60 12:46 12.10.2020
3256 Drizzle 9 1013 100 2200 2.6 60 12:21 12.10.2020
3257 Drizzle 9 1014 93 3400 2.1 50 11:41 12.10.2020
3258 Drizzle 9 1014 93 5000 2.1 70 11:20 12.10.2020
3259 Rain 9 1014 93 3300 2.6 90 10:48 12.10.2020
3260 Rain 9 1014 93 3300 2.6 90 10:24 12.10.2020
3261 Rain 9 1015 93 7000 2.6 120 09:56 12.10.2020
3262 Rain 9 1015 93 6000 2.6 110 09:32 12.10.2020
3263 Rain 9 1015 93 6000 2.6 110 09:32 12.10.2020
3264 Rain 9 1017 93 7000 2.1 140 08:42 12.10.2020
3265 Rain 9 1017 93 7000 2.1 140 08:23 12.10.2020
3266 Rain 8 1018 100 10000 0.5 0 07:41 12.10.2020
3267 Rain 8 1019 93 10000 2.1 40 06:35 12.10.2020
3268 Clouds 8 1021 100 10000 1 50 04:44 12.10.2020
3269 Clouds 8 1024 93 10000 1.5 250 01:26 12.10.2020
3270 Clouds 9 1025 93 10000 2.6 220 23:51 11.10.2020
3271 Clouds 9 1025 87 10000 2.1 230 23:27 11.10.2020
3272 Clouds 9 1025 87 10000 2.1 230 23:27 11.10.2020
3273 Clouds 9 1026 93 10000 2.6 230 22:58 11.10.2020
3274 Rain 9 1026 81 10000 2.6 250 22:35 11.10.2020
3275 Clouds 9 1026 81 10000 2.6 240 21:42 11.10.2020
3276 Clouds 9 1026 81 10000 2.1 250 21:21 11.10.2020
3277 Clouds 9 1026 81 10000 2.1 250 20:58 11.10.2020
3278 Clouds 9 1026 81 10000 2.1 240 20:37 11.10.2020
3279 Clouds 10 1026 76 10000 2.1 250 20:18 11.10.2020
3280 Clouds 10 1026 76 10000 1.5 260 19:42 11.10.2020
3281 Clouds 11 1026 71 10000 1.5 290 19:22 11.10.2020
3282 Clouds 11 1026 66 10000 3.1 300 18:42 11.10.2020
3283 Clouds 12 1026 66 10000 3.1 300 18:23 11.10.2020
3284 Clouds 12 1027 62 10000 3.1 310 17:45 11.10.2020
3285 Clouds 13 1027 54 10000 2.6 300 17:22 11.10.2020
3286 Clouds 14 1027 54 10000 2.6 300 16:56 11.10.2020
3287 Clouds 13 1027 58 10000 2.1 270 16:38 11.10.2020
3288 Clouds 13 1027 58 10000 2.1 270 16:19 11.10.2020
3289 Clouds 13 1027 62 10000 2.6 300 15:40 11.10.2020
3290 Clouds 13 1027 62 10000 2.6 300 15:22 11.10.2020
3291 Clouds 13 1028 66 10000 3.6 280 14:40 11.10.2020
3292 Clouds 13 1028 66 10000 4.6 300 14:21 11.10.2020
3293 Clouds 12 1028 71 10000 4.6 310 13:43 11.10.2020
3294 Clouds 11 1028 76 10000 6.2 300 13:22 11.10.2020
3295 Clouds 11 1028 76 10000 6.2 300 12:47 11.10.2020
3296 Clouds 10 1028 76 10000 6.2 300 12:26 11.10.2020
3297 Clouds 10 1027 81 10000 5.1 300 11:48 11.10.2020
3298 Clouds 10 1027 81 10000 5.1 300 11:25 11.10.2020
3299 Clouds 8 1027 87 10000 3.1 290 10:52 11.10.2020
3300 Clouds 6 1027 93 10000 2.1 230 10:30 11.10.2020
3301 Clouds 6 1027 86 10000 2.6 230 09:59 11.10.2020
3302 Clouds 6 1027 93 10000 2.6 190 09:39 11.10.2020
3303 Clear 5 1027 93 10000 2.6 190 09:21 11.10.2020
3304 Clear 5 1027 93 10000 2.6 230 08:48 11.10.2020
3305 Clear 4 1026 100 10000 2.6 260 07:51 11.10.2020
3306 Clear 4 1026 100 10000 3.1 220 07:24 11.10.2020
3307 Clouds 7 1026 87 10000 2.1 230 04:53 11.10.2020
3308 Clouds 8 1025 87 10000 3.1 270 02:39 11.10.2020
3309 Clouds 8 1025 87 10000 1.5 0 02:20 11.10.2020
3310 Clouds 9 1024 81 10000 4.1 310 00:43 11.10.2020
3311 Clouds 9 1024 81 10000 4.6 310 00:20 11.10.2020
3312 Clouds 9 1024 87 10000 4.1 300 23:30 10.10.2020
3313 Clouds 10 1023 81 10000 5.7 290 22:49 10.10.2020
3314 Clear 10 1023 81 10000 6.7 300 22:23 10.10.2020
3315 Clear 10 1023 81 10000 4.1 290 21:59 10.10.2020
3316 Clear 10 1023 71 10000 6.7 300 21:40 10.10.2020
3317 Clear 11 1022 76 10000 6.7 300 21:21 10.10.2020
3318 Clear 11 1022 76 10000 6.2 300 20:49 10.10.2020
3319 Clouds 11 1022 76 10000 6.2 300 20:28 10.10.2020
3320 Clouds 11 1022 76 10000 5.7 290 19:45 10.10.2020
3321 Clouds 11 1022 76 10000 5.7 290 19:23 10.10.2020
3322 Clouds 12 1022 71 10000 5.1 280 18:54 10.10.2020
3323 Clouds 13 1021 66 10000 7.2 290 18:35 10.10.2020
3324 Clouds 12 1021 71 10000 6.2 290 17:56 10.10.2020
3325 Rain 13 1021 66 10000 7.2 290 17:32 10.10.2020
3326 Clouds 13 1021 66 10000 7.7 300 16:54 10.10.2020
3327 Clouds 14 1021 67 10000 6.2 290 16:28 10.10.2020
3328 Clouds 13 1021 71 10000 6.7 280 15:59 10.10.2020
3329 Clouds 13 1021 71 10000 5.1 280 15:39 10.10.2020
3330 Clouds 13 1021 71 10000 5.1 280 15:20 10.10.2020
3331 Clouds 12 1020 76 10000 6.2 290 14:46 10.10.2020
3332 Clouds 12 1020 76 10000 6.2 290 14:27 10.10.2020
3333 Clouds 12 1020 76 10000 5.1 280 13:55 10.10.2020
3334 Clouds 12 1020 76 10000 6.2 280 13:36 10.10.2020
3335 Clouds 12 1020 76 10000 6.2 290 13:18 10.10.2020
3336 Clouds 12 1019 76 10000 5.7 290 12:44 10.10.2020
3337 Clouds 11 1019 76 10000 5.7 290 12:23 10.10.2020
3338 Clouds 11 1019 81 10000 4.6 280 11:41 10.10.2020
3339 Clouds 11 1019 81 10000 4.6 280 11:23 10.10.2020
3340 Clouds 10 1018 81 10000 5.1 280 10:46 10.10.2020
3341 Clouds 10 1018 81 10000 5.1 280 10:27 10.10.2020
3342 Clouds 10 1018 81 10000 4.6 280 09:52 10.10.2020
3343 Clouds 10 1017 81 10000 5.1 270 09:22 10.10.2020
3344 Clouds 9 1017 87 10000 4.6 260 08:54 10.10.2020
3345 Clouds 9 1016 87 10000 5.1 260 08:26 10.10.2020
3346 Clouds 9 1016 81 10000 3.6 270 07:44 10.10.2020
3347 Clouds 9 1016 81 10000 3.6 270 07:25 10.10.2020
3348 Clouds 8 1016 87 10000 4.6 230 03:44 10.10.2020
3349 Clouds 7 1016 87 10000 2.1 250 01:54 10.10.2020
3350 Clouds 6 1016 93 10000 2.6 200 00:26 10.10.2020
3351 Rain 5 1016 93 10000 2.6 180 23:48 09.10.2020
3352 Clouds 5 1016 93 10000 2.6 180 23:29 09.10.2020
3353 Clouds 5 1015 93 10000 3.6 240 22:53 09.10.2020
3354 Clear 5 1015 93 10000 2.1 240 22:26 09.10.2020
3355 Clear 6 1015 93 10000 1 0 21:56 09.10.2020
3356 Clear 5 1015 93 10000 2.6 230 21:36 09.10.2020
3357 Clear 5 1015 93 10000 3.1 240 21:18 09.10.2020
3358 Clear 5 1014 93 10000 3.6 220 20:42 09.10.2020
3359 Clouds 6 1014 87 10000 3.1 210 20:18 09.10.2020
3360 Clouds 7 1014 81 10000 4.1 230 19:38 09.10.2020
3361 Rain 7 1013 87 10000 3.6 240 19:19 09.10.2020
3362 Clouds 7 1013 87 10000 3.6 240 18:57 09.10.2020
3363 Rain 7 1013 87 10000 4.1 240 18:25 09.10.2020
3364 Rain 8 1013 81 9000 5.1 270 17:56 09.10.2020
3365 Rain 8 1013 81 6000 6.7 310 17:20 09.10.2020
3366 Rain 9 1012 81 10000 5.7 240 16:48 09.10.2020
3367 Rain 9 1012 81 10000 5.7 240 16:29 09.10.2020
3368 Clouds 8 1012 81 4900 8.7 290 15:47 09.10.2020
3369 Clouds 9 1012 76 10000 4.6 240 15:28 09.10.2020
3370 Clouds 9 1012 81 10000 5.7 250 14:53 09.10.2020
3371 Clouds 8 1012 81 10000 6.2 250 14:34 09.10.2020
3372 Rain 9 1012 76 10000 6.2 250 13:44 09.10.2020
3373 Rain 9 1012 76 10000 6.2 250 13:26 09.10.2020
3374 Rain 10 1012 71 10000 5.7 260 12:42 09.10.2020
3375 Rain 10 1012 71 10000 5.7 260 12:23 09.10.2020
3376 Clouds 9 1011 76 10000 6.2 250 11:58 09.10.2020
3377 Rain 8 1011 87 10000 4.1 240 11:40 09.10.2020
3378 Clouds 8 1011 81 10000 3.6 260 11:20 09.10.2020
3379 Clouds 8 1011 87 10000 3.6 240 10:44 09.10.2020
3380 Clear 7 1011 87 10000 3.6 240 10:24 09.10.2020
3381 Rain 7 1011 75 10000 4.1 270 09:41 09.10.2020
3382 Clear 7 1011 75 10000 4.1 270 09:20 09.10.2020
3383 Clouds 6 1010 87 10000 2.6 250 08:39 09.10.2020
3384 Clouds 6 1010 87 10000 0.5 0 08:18 09.10.2020
3385 Rain 6 1010 81 10000 4.6 280 07:36 09.10.2020
3386 Clouds 7 1010 81 10000 7.7 270 07:18 09.10.2020
3387 Clouds 8 1010 75 10000 6.2 260 06:26 09.10.2020
3388 Clouds 8 1009 81 10000 7.2 260 04:34 09.10.2020
3389 Rain 9 1009 81 8000 9.8 210 02:39 09.10.2020
3390 Rain 9 1011 71 10000 7.2 220 00:53 09.10.2020
3391 Clouds 8 1011 76 10000 3.6 190 00:33 09.10.2020
3392 Clouds 8 1012 81 10000 3.6 200 23:45 08.10.2020
3393 Clouds 8 1012 81 10000 3.6 200 23:25 08.10.2020
3394 Clouds 7 1013 81 10000 2.1 200 22:44 08.10.2020
3395 Clear 7 1013 81 10000 2.1 200 22:26 08.10.2020
3396 Clear 6 1013 86 10000 2.6 230 21:56 08.10.2020
3397 Clouds 7 1013 81 10000 3.6 240 21:38 08.10.2020
3398 Clouds 7 1013 81 10000 3.6 240 21:19 08.10.2020
3399 Clear 7 1013 75 10000 2.1 210 20:42 08.10.2020
3400 Clear 7 1013 75 10000 2.1 210 20:42 08.10.2020
3401 Clouds 7 1013 75 10000 2.1 210 20:22 08.10.2020
3402 Clouds 9 1013 70 10000 4.1 270 19:55 08.10.2020
3403 Clouds 9 1012 66 10000 5.7 270 19:35 08.10.2020
3404 Clouds 10 1012 62 10000 6.2 270 18:56 08.10.2020
3405 Clouds 11 1012 71 10000 4.6 260 18:37 08.10.2020
3406 Clouds 10 1012 71 10000 4.6 300 18:18 08.10.2020
3407 Clouds 11 1012 71 10000 4.6 300 17:23 08.10.2020
3408 Clouds 11 1011 66 10000 5.1 260 16:58 08.10.2020
3409 Clouds 11 1011 66 10000 5.1 280 16:40 08.10.2020
3410 Clouds 11 1011 66 10000 5.1 280 16:22 08.10.2020
3411 Clouds 10 1011 81 10000 5.1 250 15:44 08.10.2020
3412 Clouds 10 1011 81 10000 5.1 250 15:44 08.10.2020
3413 Rain 10 1011 76 10000 5.7 260 15:22 08.10.2020
3414 Rain 11 1011 81 10000 4.6 270 14:46 08.10.2020
3415 Rain 11 1011 81 10000 4.6 270 14:46 08.10.2020
3416 Rain 11 1010 71 10000 4.6 250 14:19 08.10.2020
3417 Rain 11 1010 76 10000 3.6 250 13:46 08.10.2020
3418 Clouds 11 1010 76 10000 3.6 250 13:23 08.10.2020
3419 Clouds 11 1010 76 10000 2.6 260 12:58 08.10.2020
3420 Clouds 11 1009 81 10000 2.6 280 12:39 08.10.2020
3421 Clouds 10 1009 81 10000 2.6 280 12:19 08.10.2020
3422 Clouds 10 1009 87 10000 2.6 280 11:48 08.10.2020
3423 Clouds 9 1009 87 10000 2.6 280 11:26 08.10.2020
3424 Clouds 8 1008 93 10000 2.1 240 10:47 08.10.2020
3425 Clouds 8 1008 93 10000 2.1 240 10:28 08.10.2020
3426 Clouds 7 1008 100 10000 2.6 240 09:50 08.10.2020
3427 Clouds 7 1008 100 10000 2.6 240 09:32 08.10.2020
3428 Clouds 6 1007 100 10000 2.1 240 08:47 08.10.2020
3429 Clouds 7 1007 93 10000 1.5 260 08:23 08.10.2020
3430 Clouds 7 1007 93 10000 1.5 260 07:53 08.10.2020
3431 Rain 7 1007 100 2700 1.5 240 07:29 08.10.2020
3432 Clouds 7 1007 93 10000 1 260 06:57 08.10.2020
3433 Clouds 8 1007 93 10000 1.5 330 05:21 08.10.2020
3434 Rain 7 1007 93 10000 1 220 04:30 08.10.2020
3435 Rain 8 1007 93 10000 1 150 02:29 08.10.2020
3436 Clouds 8 1008 87 10000 0.5 0 00:32 08.10.2020
3437 Clouds 9 1009 81 10000 2.6 250 23:38 07.10.2020
3438 Clouds 9 1009 81 10000 2.6 250 23:20 07.10.2020
3439 Clouds 9 1009 81 10000 1.5 220 22:45 07.10.2020
3440 Clouds 9 1009 81 10000 1.5 220 22:27 07.10.2020
3441 Clouds 10 1009 76 10000 2.1 250 21:51 07.10.2020
3442 Clouds 10 1009 76 10000 3.6 240 21:28 07.10.2020
3443 Clouds 10 1009 76 10000 4.1 250 20:56 07.10.2020
3444 Clouds 11 1009 71 10000 4.6 250 20:37 07.10.2020
3445 Clouds 11 1009 71 10000 6.2 260 20:18 07.10.2020
3446 Clouds 11 1009 71 10000 6.2 260 19:41 07.10.2020
3447 Clouds 11 1009 66 10000 6.2 250 19:19 07.10.2020
3448 Clouds 11 1009 66 10000 6.2 260 18:43 07.10.2020
3449 Clouds 12 1009 66 10000 6.2 260 18:20 07.10.2020
3450 Clouds 12 1009 66 10000 7.7 260 17:58 07.10.2020
3451 Clouds 12 1009 71 10000 6.7 260 17:38 07.10.2020
3452 Clouds 12 1009 71 10000 6.7 260 17:20 07.10.2020
3453 Clouds 12 1008 62 10000 6.7 260 16:41 07.10.2020
3454 Clouds 12 1008 71 10000 7.7 260 16:18 07.10.2020
3455 Clouds 12 1008 71 10000 6.7 260 15:40 07.10.2020
3456 Clouds 12 1008 71 10000 6.7 260 15:20 07.10.2020
3457 Clouds 12 1008 71 10000 7.7 270 14:47 07.10.2020
3458 Clouds 12 1008 71 10000 7.7 270 14:29 07.10.2020
3459 Clouds 13 1008 71 10000 5.1 260 13:52 07.10.2020
3460 Clouds 12 1007 71 10000 6.7 280 13:26 07.10.2020
3461 Clouds 12 1007 76 10000 7.2 270 12:53 07.10.2020
3462 Clouds 12 1007 76 10000 5.1 280 12:26 07.10.2020
3463 Clouds 12 1006 76 10000 5.1 260 11:59 07.10.2020
3464 Clouds 12 1006 76 10000 6.7 280 11:39 07.10.2020
3465 Clouds 12 1005 81 10000 5.1 260 11:20 07.10.2020
3466 Clouds 11 1005 87 10000 5.1 250 10:38 07.10.2020
3467 Clouds 11 1004 87 10000 5.1 250 09:56 07.10.2020
3468 Rain 10 1004 93 10000 6.2 250 09:28 07.10.2020
3469 Clouds 11 1004 81 10000 6.7 240 08:51 07.10.2020
3470 Clouds 11 1003 81 10000 6.2 250 08:26 07.10.2020
3471 Clouds 11 1003 81 10000 5.1 250 07:37 07.10.2020
3472 Clouds 10 1002 87 10000 5.1 260 06:24 07.10.2020
3473 Clouds 11 1002 81 10000 5.1 260 05:38 07.10.2020
3474 Clouds 11 1001 87 10000 6.7 250 03:44 07.10.2020
3475 Rain 11 999 93 10000 4.6 250 01:37 07.10.2020
3476 Clouds 12 998 87 10000 5.1 260 00:30 07.10.2020
3477 Clouds 12 998 87 10000 3.1 260 23:51 06.10.2020
3478 Clouds 12 997 87 10000 2.6 250 23:21 06.10.2020
3479 Clouds 12 996 87 10000 4.1 250 22:41 06.10.2020
3480 Clouds 12 996 87 10000 4.1 250 22:22 06.10.2020
3481 Clouds 11 996 93 10000 3.1 240 21:46 06.10.2020
3482 Clouds 11 996 93 10000 3.1 240 21:25 06.10.2020
3483 Clouds 11 995 87 10000 3.6 250 20:46 06.10.2020
3484 Clouds 12 995 87 10000 3.6 250 20:25 06.10.2020
3485 Clouds 12 994 87 10000 3.6 250 19:55 06.10.2020
3486 Clouds 12 994 87 10000 5.1 250 19:26 06.10.2020
3487 Clouds 12 994 87 10000 4.6 250 18:51 06.10.2020
3488 Clouds 13 994 76 10000 6.7 250 18:29 06.10.2020
3489 Clouds 13 993 82 10000 3.6 250 17:58 06.10.2020
3490 Clouds 13 993 87 9000 4.6 260 17:40 06.10.2020
3491 Clouds 13 993 87 9000 4.6 260 17:19 06.10.2020
3492 Rain 13 993 76 10000 6.7 250 16:41 06.10.2020
3493 Clouds 14 993 76 10000 6.2 250 16:21 06.10.2020
3494 Clouds 13 992 76 10000 5.7 270 15:48 06.10.2020
3495 Clouds 13 992 76 10000 5.7 270 15:29 06.10.2020
3496 Clouds 13 992 76 10000 5.1 250 14:47 06.10.2020
3497 Clouds 13 992 76 10000 5.1 250 14:24 06.10.2020
3498 Clouds 13 992 76 10000 4.6 260 13:57 06.10.2020
3499 Clouds 13 992 76 10000 5.1 250 13:38 06.10.2020
3500 Clouds 13 992 76 10000 5.1 250 13:19 06.10.2020
3501 Clouds 12 991 81 10000 3.1 260 12:39 06.10.2020
3502 Clouds 12 991 81 10000 3.1 260 12:21 06.10.2020
3503 Clouds 12 991 81 10000 2.6 250 11:42 06.10.2020
3504 Clouds 11 991 81 10000 2.6 250 11:22 06.10.2020
3505 Clouds 10 990 87 10000 2.6 250 10:41 06.10.2020
3506 Rain 10 990 87 10000 2.6 250 10:23 06.10.2020
3507 Clouds 10 990 93 10000 2.6 240 09:43 06.10.2020
3508 Clouds 10 990 93 10000 3.6 240 09:20 06.10.2020
3509 Clouds 10 990 93 10000 3.6 230 08:47 06.10.2020
3510 Clouds 10 990 93 10000 3.6 230 08:20 06.10.2020
3511 Clouds 10 990 100 10000 2.1 240 07:37 06.10.2020
3512 Clouds 10 990 100 10000 1.5 220 06:59 06.10.2020
3513 Clouds 10 990 100 5000 1 0 05:47 06.10.2020
3514 Clouds 11 991 93 10000 2.6 250 01:55 06.10.2020
3515 Clouds 11 991 100 8000 0.5 260 00:44 06.10.2020
3516 Clouds 11 991 100 8000 0.5 260 00:23 06.10.2020
3517 Clouds 11 991 93 10000 0.5 110 23:50 05.10.2020
3518 Clouds 11 991 93 10000 1 0 23:29 05.10.2020
3519 Clouds 11 991 93 10000 1 10 22:48 05.10.2020
3520 Clouds 11 991 100 10000 1 20 22:20 05.10.2020
3521 Clouds 12 992 87 10000 1 0 21:44 05.10.2020
3522 Clouds 12 992 87 10000 1 0 21:23 05.10.2020
3523 Rain 12 992 93 10000 1 0 20:48 05.10.2020
3524 Rain 12 992 93 10000 2.1 70 20:28 05.10.2020
3525 Clouds 13 991 82 10000 1.5 0 19:51 05.10.2020
3526 Rain 13 991 82 10000 1.5 0 19:31 05.10.2020
3527 Rain 14 991 76 10000 1.5 0 18:50 05.10.2020
3528 Rain 14 991 76 10000 1.5 0 18:32 05.10.2020
3529 Clouds 14 991 67 10000 1.5 0 17:59 05.10.2020
3530 Clouds 15 991 63 10000 2.6 250 17:39 05.10.2020
3531 Clouds 15 991 63 10000 2.6 250 17:21 05.10.2020
3532 Clouds 15 992 67 10000 2.1 290 16:44 05.10.2020
3533 Clouds 14 992 67 10000 2.1 290 16:25 05.10.2020
3534 Clouds 15 992 67 10000 2.1 10 15:44 05.10.2020
3535 Clouds 15 992 67 10000 2.1 10 15:22 05.10.2020
3536 Clouds 15 992 67 10000 2.1 10 14:44 05.10.2020
3537 Clouds 15 992 67 10000 2.1 10 14:24 05.10.2020
3538 Clouds 14 992 67 10000 3.1 20 13:53 05.10.2020
3539 Clouds 14 992 71 10000 3.6 10 13:34 05.10.2020
3540 Clouds 14 992 71 10000 3.6 20 12:52 05.10.2020
3541 Clouds 14 992 71 10000 3.6 20 12:52 05.10.2020
3542 Clouds 13 992 76 10000 1.5 0 12:34 05.10.2020
3543 Clouds 13 992 87 10000 0.5 0 11:59 05.10.2020
3544 Clouds 12 992 93 10000 1 0 11:41 05.10.2020
3545 Clouds 11 992 100 10000 1.5 0 11:20 05.10.2020
3546 Clouds 11 992 93 10000 1 0 10:42 05.10.2020
3547 Clouds 11 992 93 10000 1 0 10:23 05.10.2020
3548 Clouds 10 992 100 10000 1.5 0 09:53 05.10.2020
3549 Clouds 9 992 93 10000 1.5 0 09:28 05.10.2020
3550 Clouds 9 992 93 10000 1.5 0 09:28 05.10.2020
3551 Clouds 9 991 100 6000 1.5 230 08:42 05.10.2020
3552 Clouds 9 991 100 6000 1.5 230 08:42 05.10.2020
3553 Clouds 9 991 100 6000 1.5 230 08:22 05.10.2020
3554 Fog 9 991 100 550 2.1 230 07:34 05.10.2020
3555 Fog 8 991 93 250 1 0 05:51 05.10.2020
3556 Drizzle 11 991 100 3700 1 270 02:30 05.10.2020
3557 Rain 11 990 93 4900 0.5 0 00:50 05.10.2020
3558 Rain 11 990 93 10000 1.5 0 23:49 04.10.2020
3559 Rain 11 990 93 10000 2.1 260 23:29 04.10.2020
3560 Clouds 11 989 93 10000 2.1 220 22:46 04.10.2020
3561 Clouds 11 989 93 10000 1.5 240 22:24 04.10.2020
3562 Clouds 12 989 82 10000 3.1 40 21:52 04.10.2020
3563 Clear 11 989 93 10000 2.6 360 21:27 04.10.2020
3564 Clear 11 989 87 10000 2.1 360 20:59 04.10.2020
3565 Clear 11 988 87 10000 1 0 20:40 04.10.2020
3566 Clouds 12 988 87 10000 1 0 20:21 04.10.2020
3567 Clouds 13 988 76 10000 2.6 80 19:50 04.10.2020
3568 Clouds 14 988 76 10000 2.6 80 19:31 04.10.2020
3569 Clouds 15 988 67 10000 5.1 60 18:53 04.10.2020
3570 Clouds 15 988 72 10000 5.7 70 18:27 04.10.2020
3571 Clouds 15 987 72 10000 4.6 50 17:59 04.10.2020
3572 Clouds 16 987 72 10000 4.6 80 17:36 04.10.2020
3573 Clouds 16 986 72 10000 5.1 60 17:18 04.10.2020
3574 Clouds 16 986 72 10000 5.1 50 16:41 04.10.2020
3575 Clouds 16 986 72 10000 5.7 80 16:20 04.10.2020
3576 Clouds 16 986 72 10000 5.7 80 15:55 04.10.2020
3577 Clouds 15 986 77 10000 5.7 70 15:37 04.10.2020
3578 Clouds 15 986 77 10000 6.2 60 15:18 04.10.2020
3579 Clouds 15 986 82 10000 6.2 60 14:41 04.10.2020
3580 Clouds 14 986 82 10000 6.2 60 14:23 04.10.2020
3581 Clouds 14 985 87 10000 4.6 50 13:45 04.10.2020
3582 Clouds 14 985 87 10000 4.6 50 13:21 04.10.2020
3583 Clouds 13 984 93 10000 4.6 60 12:43 04.10.2020
3584 Clouds 13 984 93 10000 4.6 60 12:24 04.10.2020
3585 Rain 13 984 93 10000 3.6 60 11:55 04.10.2020
3586 Rain 13 984 93 10000 3.6 60 11:55 04.10.2020
3587 Clouds 13 983 100 10000 3.6 50 11:36 04.10.2020
3588 Clouds 13 983 87 5000 4.6 60 11:18 04.10.2020
3589 Clouds 13 982 87 10000 3.6 50 10:44 04.10.2020
3590 Rain 13 982 87 10000 3.6 50 10:25 04.10.2020
3591 Clouds 13 982 87 10000 3.6 40 09:43 04.10.2020
3592 Clouds 13 981 93 5000 4.1 30 09:20 04.10.2020
3593 Clouds 13 981 93 8000 3.1 40 08:45 04.10.2020
3594 Rain 13 981 93 4500 3.1 40 08:20 04.10.2020
3595 Rain 13 981 93 4500 3.1 40 07:50 04.10.2020
3596 Rain 13 981 93 4900 3.1 40 07:23 04.10.2020
3597 Rain 13 981 93 10000 2.6 20 06:43 04.10.2020
3598 Rain 13 981 93 10000 2.6 20 06:25 04.10.2020
3599 Rain 13 982 87 10000 3.6 10 05:25 04.10.2020
3600 Rain 10 984 93 10000 4.1 310 01:47 04.10.2020
3601 Rain 9 985 93 9000 3.6 300 00:53 04.10.2020
3602 Rain 9 986 93 10000 3.6 270 23:49 03.10.2020
3603 Rain 9 987 93 10000 3.6 240 23:24 03.10.2020
3604 Rain 9 988 93 10000 3.6 250 22:43 03.10.2020
3605 Rain 9 988 93 10000 3.6 250 22:25 03.10.2020
3606 Rain 9 989 93 10000 3.6 290 21:57 03.10.2020
3607 Rain 9 990 93 10000 4.1 280 21:39 03.10.2020
3608 Rain 9 990 93 10000 2.6 280 21:18 03.10.2020
3609 Rain 9 991 93 10000 3.1 290 20:40 03.10.2020
3610 Rain 9 991 93 10000 3.1 290 20:22 03.10.2020
3611 Rain 9 991 93 10000 2.6 290 19:40 03.10.2020
3612 Rain 9 991 93 10000 2.6 290 19:20 03.10.2020
3613 Rain 9 992 93 10000 3.1 300 19:20 03.10.2020
3614 Rain 9 992 93 10000 3.1 300 18:56 03.10.2020
3615 Rain 9 992 93 10000 3.6 300 18:38 03.10.2020
3616 Rain 9 992 93 10000 3.6 300 18:19 03.10.2020
3617 Rain 9 993 93 10000 3.1 290 17:38 03.10.2020
3618 Rain 9 994 93 9000 4.1 280 17:18 03.10.2020
3619 Rain 9 994 93 9000 3.1 270 16:43 03.10.2020
3620 Rain 9 994 93 9000 3.1 270 16:23 03.10.2020
3621 Rain 9 995 93 6000 1.5 220 15:46 03.10.2020
3622 Rain 8 995 100 6000 1.5 240 15:21 03.10.2020
3623 Rain 8 995 100 6000 1.5 240 14:58 03.10.2020
3624 Rain 8 996 100 6000 1.5 250 14:38 03.10.2020
3625 Rain 8 996 100 5000 0.5 0 14:20 03.10.2020
3626 Rain 8 996 93 5000 0.5 0 13:43 03.10.2020
3627 Rain 8 996 93 5000 0.5 0 13:24 03.10.2020
3628 Rain 8 997 93 6000 1 350 12:50 03.10.2020
3629 Rain 8 997 93 6000 1 10 12:23 03.10.2020
3630 Rain 8 998 93 10000 2.1 90 11:52 03.10.2020
3631 Rain 8 998 93 10000 2.1 90 11:24 03.10.2020
3632 Rain 8 998 93 10000 2.1 90 11:24 03.10.2020
3633 Rain 7 998 100 10000 1 0 10:59 03.10.2020
3634 Rain 7 998 93 10000 1 210 10:40 03.10.2020
3635 Rain 7 998 100 10000 0.5 230 10:21 03.10.2020
3636 Rain 6 998 100 10000 1.5 260 09:45 03.10.2020
3637 Rain 6 998 100 10000 1.5 260 09:20 03.10.2020
3638 Clouds 6 999 93 10000 1 0 08:46 03.10.2020
3639 Clouds 6 999 100 10000 1.5 250 08:28 03.10.2020
3640 Clouds 6 1000 93 10000 1.5 200 07:44 03.10.2020
3641 Clouds 6 1000 93 10000 1.5 200 07:22 03.10.2020
3642 Clouds 6 1000 100 10000 1.5 200 06:24 03.10.2020
3643 Clouds 4 1001 100 10000 2.6 200 05:41 03.10.2020
3644 Fog 5 1001 93 750 1.5 260 04:28 03.10.2020
3645 Clouds 5 1002 100 9000 2.1 240 03:24 03.10.2020
3646 Clouds 6 1003 93 10000 1.5 220 00:38 03.10.2020
3647 Clouds 6 1003 93 10000 1.5 220 00:19 03.10.2020
3648 Haze 7 1003 87 2900 1 60 23:42 02.10.2020
3649 Haze 7 1003 87 2900 1 60 23:21 02.10.2020
3650 Clouds 8 1003 87 10000 2.1 30 22:49 02.10.2020
3651 Clouds 9 1003 87 10000 2.1 30 22:26 02.10.2020
3652 Clouds 9 1003 76 10000 3.1 50 21:49 02.10.2020
3653 Clouds 10 1003 76 10000 3.1 50 21:29 02.10.2020
3654 Clouds 11 1003 76 10000 3.6 70 20:56 02.10.2020
3655 Clouds 12 1003 71 10000 3.6 80 20:33 02.10.2020
3656 Clouds 13 1002 66 10000 4.1 50 19:56 02.10.2020
3657 Clouds 13 1002 62 10000 4.1 60 19:38 02.10.2020
3658 Clouds 13 1002 66 10000 3.1 50 19:18 02.10.2020
3659 Clouds 13 1002 62 10000 5.1 60 18:42 02.10.2020
3660 Clouds 14 1002 62 10000 3.6 60 18:23 02.10.2020
3661 Clouds 13 1002 62 10000 3.6 60 17:48 02.10.2020
3662 Clouds 14 1001 58 10000 5.1 50 17:29 02.10.2020
3663 Clouds 14 1001 58 10000 1 0 16:56 02.10.2020
3664 Clouds 14 1001 62 10000 2.6 0 16:28 02.10.2020
3665 Clouds 13 1001 62 10000 1 0 15:52 02.10.2020
3666 Clear 13 1001 66 10000 1 0 15:33 02.10.2020
3667 Clear 11 1001 81 10000 1.5 0 14:47 02.10.2020
3668 Clouds 10 1001 81 10000 1.5 0 14:26 02.10.2020
3669 Clouds 12 1001 93 10000 1 0 13:57 02.10.2020
3670 Fog 11 1001 93 5000 1.5 0 13:38 02.10.2020
3671 Mist 10 1001 93 4800 2.1 260 13:18 02.10.2020
3672 Mist 9 1001 100 4200 1.5 0 12:41 02.10.2020
3673 Mist 8 1001 100 4200 1.5 0 12:21 02.10.2020
3674 Fog 7 1000 100 10000 1 0 11:45 02.10.2020
3675 Fog 6 1000 100 10000 1 0 11:22 02.10.2020
3676 Fog 3 999 100 150 0.5 0 10:47 02.10.2020
3677 Fog 4 999 100 150 0.5 0 10:27 02.10.2020
3678 Fog 4 999 100 150 0.5 0 10:27 02.10.2020
3679 Fog 2 998 100 200 0.5 0 09:41 02.10.2020
3680 Fog 2 998 100 200 1.5 30 09:22 02.10.2020
3681 Fog 2 998 100 200 1.5 30 08:47 02.10.2020
3682 Fog 3 997 93 800 1.5 0 08:29 02.10.2020
3683 Fog 3 997 93 800 0.5 0 07:50 02.10.2020
3684 Fog 2 996 100 500 2.1 220 06:46 02.10.2020
3685 Clouds 3 996 100 10000 0.5 320 05:39 02.10.2020
3686 Fog 4 995 93 10000 1 230 02:24 02.10.2020
3687 Clouds 4 994 100 10000 1 240 00:48 02.10.2020
3688 Clouds 5 994 100 10000 0.5 0 00:19 02.10.2020
3689 Clouds 5 994 93 10000 1.5 250 23:56 01.10.2020
3690 Clouds 5 994 93 10000 1.5 240 23:37 01.10.2020
3691 Clouds 5 994 93 10000 1.5 240 23:37 01.10.2020
3692 Clouds 5 994 93 10000 1 280 23:19 01.10.2020
3693 Clouds 4 994 86 10000 1.5 270 22:40 01.10.2020
3694 Clouds 5 994 93 10000 3.1 240 22:19 01.10.2020
3695 Clouds 5 994 87 10000 3.6 220 21:41 01.10.2020
3696 Clouds 5 994 87 10000 3.6 220 21:41 01.10.2020
3697 Clear 6 994 87 10000 3.6 220 21:21 01.10.2020
3698 Clear 8 994 76 10000 3.1 250 20:43 01.10.2020
3699 Clouds 9 994 76 10000 3.1 250 20:22 01.10.2020
3700 Clouds 10 994 66 10000 3.1 240 19:53 01.10.2020
3701 Clouds 11 994 62 10000 3.1 240 19:29 01.10.2020
3702 Clouds 13 994 58 10000 3.1 240 18:59 01.10.2020
3703 Clouds 13 994 58 10000 3.1 280 18:32 01.10.2020
3704 Clouds 13 994 58 10000 3.6 250 17:58 01.10.2020
3705 Clouds 13 994 58 10000 4.1 250 17:38 01.10.2020
3706 Clouds 13 994 54 10000 4.6 280 17:19 01.10.2020
3707 Clouds 13 994 58 10000 3.6 260 16:41 01.10.2020
3708 Clouds 13 994 54 10000 4.1 250 16:19 01.10.2020
3709 Clouds 13 994 62 10000 3.6 320 15:47 01.10.2020
3710 Clouds 12 994 71 10000 3.6 330 15:20 01.10.2020
3711 Clouds 12 995 71 10000 3.6 310 14:44 01.10.2020
3712 Clouds 12 995 71 10000 3.6 310 14:26 01.10.2020
3713 Clouds 11 995 76 10000 3.1 280 13:41 01.10.2020
3714 Clouds 11 995 71 10000 2.1 260 12:50 01.10.2020
3715 Clouds 10 995 81 10000 2.6 300 12:23 01.10.2020
3716 Clouds 10 995 81 10000 2.6 300 12:23 01.10.2020
3717 Clouds 10 995 81 10000 3.1 250 11:58 01.10.2020
3718 Clouds 10 995 81 10000 3.6 260 11:37 01.10.2020
3719 Clouds 9 995 81 10000 4.1 250 11:18 01.10.2020
3720 Clouds 8 995 87 10000 3.6 230 10:40 01.10.2020
3721 Clouds 8 995 87 10000 3.6 230 10:22 01.10.2020
3722 Clouds 7 995 87 10000 2.6 240 09:43 01.10.2020
3723 Clouds 7 995 87 10000 2.6 240 09:23 01.10.2020
3724 Clouds 8 995 87 10000 3.6 240 08:49 01.10.2020
3725 Clouds 8 995 87 10000 3.6 240 08:28 01.10.2020
3726 Clouds 8 995 87 10000 3.6 230 07:54 01.10.2020
3727 Rain 8 995 87 10000 3.1 240 07:24 01.10.2020
3728 Rain 8 995 87 10000 1.5 270 06:22 01.10.2020
3729 Clouds 8 997 93 10000 3.6 220 02:18 01.10.2020
3730 Rain 9 997 87 10000 3.6 240 23:49 30.09.2020
3731 Rain 9 998 93 10000 3.1 240 23:30 30.09.2020
3732 Rain 10 998 87 10000 3.1 240 22:45 30.09.2020
3733 Rain 10 998 87 10000 3.1 240 22:23 30.09.2020
3734 Rain 10 997 93 10000 4.1 250 21:45 30.09.2020
3735 Rain 10 997 93 10000 4.1 250 21:24 30.09.2020
3736 Clouds 11 997 87 10000 3.1 250 20:46 30.09.2020
3737 Clouds 11 997 87 10000 3.6 260 20:27 30.09.2020
3738 Clouds 11 997 87 10000 3.6 270 19:56 30.09.2020
3739 Clouds 12 996 87 10000 4.6 280 19:37 30.09.2020
3740 Clouds 12 996 87 10000 5.7 280 19:18 30.09.2020
3741 Clouds 13 996 82 10000 4.6 260 18:45 30.09.2020
3742 Clouds 14 996 82 10000 4.1 260 18:20 30.09.2020
3743 Clouds 14 996 82 10000 4.1 260 17:48 30.09.2020
3744 Clouds 15 995 82 10000 4.1 280 17:24 30.09.2020
3745 Clouds 15 995 82 10000 4.6 250 16:50 30.09.2020
3746 Clouds 13 995 87 10000 2.6 220 16:26 30.09.2020
3747 Clouds 13 995 87 10000 3.1 170 15:49 30.09.2020
3748 Rain 13 995 82 10000 4.1 160 15:25 30.09.2020
3749 Rain 12 995 87 10000 4.6 150 14:45 30.09.2020
3750 Rain 12 996 87 10000 5.7 130 14:22 30.09.2020
3751 Clouds 12 996 87 10000 5.7 130 13:58 30.09.2020
3752 Rain 12 996 87 10000 5.7 130 13:38 30.09.2020
3753 Rain 12 997 87 10000 5.7 130 12:49 30.09.2020
3754 Rain 12 997 87 10000 5.7 130 12:27 30.09.2020
3755 Rain 12 997 87 10000 5.7 130 11:59 30.09.2020
3756 Rain 12 997 87 10000 4.6 130 11:40 30.09.2020
3757 Rain 12 997 87 10000 4.6 130 11:20 30.09.2020
3758 Rain 11 997 87 10000 4.6 130 10:47 30.09.2020
3759 Rain 11 997 87 10000 5.1 130 10:20 30.09.2020
3760 Rain 11 998 93 10000 5.7 130 09:47 30.09.2020
3761 Rain 11 998 93 10000 5.7 130 09:25 30.09.2020
3762 Rain 11 999 93 10000 5.7 130 08:44 30.09.2020
3763 Rain 11 999 93 10000 5.7 130 08:25 30.09.2020
3764 Rain 11 1000 87 10000 3.6 110 07:38 30.09.2020
3765 Rain 11 1001 93 10000 3.1 110 06:47 30.09.2020
3766 Rain 10 1001 93 10000 3.1 110 06:24 30.09.2020
3767 Rain 10 1004 87 10000 4.1 110 04:43 30.09.2020
3768 Rain 9 1005 93 10000 4.6 100 03:34 30.09.2020
3769 Clouds 6 1009 93 10000 2.6 40 00:57 30.09.2020
3770 Clouds 7 1009 87 10000 2.1 90 00:26 30.09.2020
3771 Clouds 8 1010 87 10000 2.1 100 23:48 29.09.2020
3772 Clouds 9 1010 81 10000 1.5 0 23:22 29.09.2020
3773 Clouds 9 1011 76 10000 2.1 130 22:49 29.09.2020
3774 Clear 10 1011 76 10000 2.1 130 22:22 29.09.2020
3775 Clear 10 1011 81 10000 2.6 150 21:42 29.09.2020
3776 Clear 10 1011 81 10000 2.6 150 21:23 29.09.2020
3777 Clear 10 1011 76 10000 2.1 150 20:59 29.09.2020
3778 Clear 11 1012 76 10000 1.5 0 20:41 29.09.2020
3779 Clouds 11 1012 76 10000 1.5 0 20:22 29.09.2020
3780 Clouds 12 1012 66 10000 4.1 200 19:40 29.09.2020
3781 Clouds 13 1012 66 10000 4.1 200 19:20 29.09.2020
3782 Clouds 14 1013 67 10000 4.6 210 18:43 29.09.2020
3783 Clouds 14 1013 67 10000 4.6 210 18:19 29.09.2020
3784 Clouds 13 1013 66 10000 4.1 220 17:51 29.09.2020
3785 Clouds 14 1013 62 10000 3.1 240 17:23 29.09.2020
3786 Clouds 14 1014 62 10000 4.6 220 16:43 29.09.2020
3787 Clouds 14 1014 62 10000 4.6 220 16:24 29.09.2020
3788 Clouds 13 1014 76 10000 1 0 15:50 29.09.2020
3789 Clouds 13 1014 76 10000 1 0 15:29 29.09.2020
3790 Clouds 12 1015 81 10000 1 0 14:43 29.09.2020
3791 Clouds 12 1015 81 10000 1 0 14:25 29.09.2020
3792 Clouds 12 1015 87 10000 2.1 360 13:58 29.09.2020
3793 Clouds 11 1015 87 10000 2.1 30 13:37 29.09.2020
3794 Clouds 11 1016 93 10000 2.1 30 13:18 29.09.2020
3795 Clouds 10 1016 93 7000 2.6 40 12:43 29.09.2020
3796 Clouds 10 1016 93 7000 2.6 40 12:21 29.09.2020
3797 Mist 8 1016 100 5000 1 0 11:37 29.09.2020
3798 Fog 6 1016 100 700 0.5 0 10:55 29.09.2020
3799 Mist 5 1016 100 1400 0.5 0 10:37 29.09.2020
3800 Clouds 4 1016 100 7000 0.5 120 09:49 29.09.2020
3801 Fog 4 1016 93 10000 1.5 70 09:30 29.09.2020
3802 Mist 4 1016 100 1900 1 0 08:57 29.09.2020
3803 Fog 4 1016 100 750 1 0 08:38 29.09.2020
3804 Fog 3 1015 100 300 1 10 07:58 29.09.2020
3805 Fog 4 1015 100 600 1 90 07:40 29.09.2020
3806 Fog 4 1015 100 500 1 0 05:56 29.09.2020
3807 Fog 5 1015 100 300 0.5 0 05:30 29.09.2020
3808 Clouds 6 1015 93 10000 1 0 02:49 29.09.2020
3809 Clear 7 1015 93 10000 0.5 0 02:19 29.09.2020
3810 Clear 7 1015 93 10000 2.1 260 02:19 29.09.2020
3811 Clear 9 1014 93 10000 1.5 210 23:46 28.09.2020
3812 Clear 7 1014 93 10000 2.1 150 23:27 28.09.2020
3813 Clouds 9 1013 87 10000 1.5 270 22:45 28.09.2020
3814 Clouds 9 1013 87 10000 1.5 270 22:23 28.09.2020
3815 Clear 9 1013 87 10000 1 280 21:58 28.09.2020
3816 Clear 10 1013 81 10000 1.5 270 21:39 28.09.2020
3817 Clear 11 1013 81 10000 1.5 270 21:20 28.09.2020
3818 Clear 10 1012 87 10000 2.6 250 20:55 28.09.2020
3819 Clear 11 1012 81 10000 3.1 240 20:36 28.09.2020
3820 Clouds 12 1011 71 10000 3.6 260 20:18 28.09.2020
3821 Clouds 13 1011 71 10000 4.1 260 19:38 28.09.2020
3822 Clouds 14 1011 72 10000 4.1 270 19:19 28.09.2020
3823 Clouds 14 1010 82 10000 2.6 260 18:46 28.09.2020
3824 Clouds 14 1010 82 10000 2.6 260 18:27 28.09.2020
3825 Clouds 14 1010 87 10000 2.1 250 17:46 28.09.2020
3826 Clouds 14 1010 87 10000 2.1 250 17:28 28.09.2020
3827 Clouds 13 1010 93 10000 2.1 290 16:55 28.09.2020
3828 Clouds 13 1010 93 10000 2.1 290 16:36 28.09.2020
3829 Clouds 12 1010 93 9000 1 0 16:18 28.09.2020
3830 Drizzle 12 1009 100 3800 0.5 0 15:36 28.09.2020
3831 Rain 11 1009 93 7000 1 0 15:18 28.09.2020
3832 Drizzle 11 1010 93 3600 1 0 14:41 28.09.2020
3833 Rain 11 1010 93 3600 1 0 14:22 28.09.2020
3834 Drizzle 11 1010 93 2700 1.5 40 13:50 28.09.2020
3835 Drizzle 11 1010 93 2700 1.5 40 13:24 28.09.2020
3836 Drizzle 10 1010 93 3400 2.1 70 12:43 28.09.2020
3837 Drizzle 9 1010 93 3400 2.1 70 12:25 28.09.2020
3838 Rain 9 1010 87 10000 1.5 0 11:45 28.09.2020
3839 Clouds 9 1010 87 10000 1.5 0 11:27 28.09.2020
3840 Rain 8 1010 87 10000 1.5 0 10:45 28.09.2020
3841 Rain 8 1010 87 10000 1.5 0 10:45 28.09.2020
3842 Clouds 8 1010 87 10000 1.5 0 10:27 28.09.2020
3843 Clouds 8 1010 87 10000 1.5 0 10:27 28.09.2020
3844 Clouds 7 1010 93 10000 1.5 100 09:52 28.09.2020
3845 Clouds 7 1010 93 6000 1.5 0 09:26 28.09.2020
3846 Rain 7 1010 87 7000 2.1 70 08:49 28.09.2020
3847 Clouds 7 1010 87 7000 2.1 70 08:23 28.09.2020
3848 Clouds 7 1011 87 10000 0.5 0 07:44 28.09.2020
3849 Clouds 7 1011 87 10000 0.5 0 06:54 28.09.2020
3850 Clouds 6 1012 93 10000 2.1 60 05:32 28.09.2020
3851 Clouds 5 1013 93 10000 0.5 280 03:27 28.09.2020
3852 Clouds 6 1014 93 10000 1 50 00:46 28.09.2020
3853 Clouds 6 1014 93 10000 0.5 0 23:48 27.09.2020
3854 Clouds 6 1014 93 10000 0.5 0 23:28 27.09.2020
3855 Clouds 6 1015 87 10000 0.5 0 22:56 27.09.2020
3856 Clouds 5 1015 93 10000 1 290 22:36 27.09.2020
3857 Clouds 6 1015 87 10000 1.5 240 21:57 27.09.2020
3858 Clouds 7 1014 81 10000 2.1 270 21:39 27.09.2020
3859 Clouds 8 1014 75 10000 1.5 240 21:20 27.09.2020
3860 Clouds 9 1015 81 10000 3.1 220 20:42 27.09.2020
3861 Clouds 9 1015 81 10000 3.1 220 20:22 27.09.2020
3862 Clouds 11 1015 71 10000 4.6 230 19:43 27.09.2020
3863 Clouds 11 1015 66 10000 3.6 230 19:19 27.09.2020
3864 Clouds 12 1015 58 10000 2.6 260 18:45 27.09.2020
3865 Clouds 12 1015 58 10000 2.6 260 18:26 27.09.2020
3866 Clouds 14 1015 54 10000 1 0 17:57 27.09.2020
3867 Clouds 13 1015 54 10000 0.5 0 17:37 27.09.2020
3868 Clouds 13 1015 54 10000 0.5 0 17:19 27.09.2020
3869 Clouds 13 1016 58 10000 1 0 16:42 27.09.2020
3870 Clouds 12 1016 58 10000 1 0 16:23 27.09.2020
3871 Clouds 12 1016 54 10000 0.5 0 15:38 27.09.2020
3872 Clouds 12 1016 54 10000 0.5 0 15:38 27.09.2020
3873 Clouds 12 1016 54 10000 0.5 0 15:38 27.09.2020
3874 Clouds 12 1016 54 10000 0.5 0 15:20 27.09.2020
3875 Clouds 11 1016 57 10000 1.5 0 14:40 27.09.2020
3876 Clouds 11 1016 57 10000 1.5 0 14:22 27.09.2020
3877 Clouds 10 1017 61 10000 1 0 13:46 27.09.2020
3878 Clouds 9 1017 61 10000 1 0 13:24 27.09.2020
3879 Clouds 7 1018 75 10000 1 0 12:48 27.09.2020
3880 Clear 7 1018 75 10000 1 0 12:28 27.09.2020
3881 Clear 6 1018 81 10000 1 0 11:50 27.09.2020
3882 Clear 5 1018 80 10000 1.5 0 11:25 27.09.2020
3883 Clear 3 1018 93 10000 1.5 0 10:49 27.09.2020
3884 Clouds 2 1018 100 10000 0.5 80 10:30 27.09.2020
3885 Fog 0 1019 100 10000 1 0 09:59 27.09.2020
3886 Fog -1 1019 92 10000 1.5 230 09:38 27.09.2020
3887 Clouds -1 1018 100 10000 1 0 09:20 27.09.2020
3888 Clouds -1 1018 100 10000 1.5 270 08:42 27.09.2020
3889 Clear -1 1018 100 10000 1.5 270 08:21 27.09.2020
3890 Clear -1 1018 100 10000 0.5 130 07:38 27.09.2020
3891 Fog 0 1019 92 750 0.5 0 06:46 27.09.2020
3892 Clear 0 1019 92 10000 1.5 220 04:55 27.09.2020
3893 Clear 2 1020 82 8000 0.5 0 02:35 27.09.2020
3894 Clear 3 1020 93 10000 1.5 0 01:33 27.09.2020
3895 Clear 4 1020 93 10000 1 0 00:56 27.09.2020
3896 Clear 3 1020 86 10000 1.5 0 00:23 27.09.2020
3897 Clear 4 1020 86 10000 1 200 23:41 26.09.2020
3898 Clear 4 1020 86 10000 1 200 23:21 26.09.2020
3899 Clear 5 1020 86 10000 1 0 22:41 26.09.2020
3900 Clear 6 1020 81 10000 0.5 0 22:21 26.09.2020
3901 Clear 6 1020 81 10000 0.5 0 21:49 26.09.2020
3902 Clear 8 1020 70 10000 1.5 360 21:25 26.09.2020
3903 Clear 8 1020 70 10000 2.1 350 20:56 26.09.2020
3904 Clear 9 1020 57 10000 2.1 360 20:37 26.09.2020
3905 Clear 12 1019 58 10000 3.6 10 20:19 26.09.2020
3906 Clear 13 1019 54 10000 3.1 20 19:44 26.09.2020
3907 Clear 13 1019 54 10000 3.1 20 19:21 26.09.2020
3908 Clear 14 1018 50 10000 4.1 20 18:47 26.09.2020
3909 Clear 14 1018 50 10000 4.1 20 18:26 26.09.2020
3910 Clear 15 1018 47 10000 3.6 360 17:45 26.09.2020
3911 Clear 15 1018 47 10000 3.6 360 17:26 26.09.2020
3912 Clouds 14 1018 47 10000 3.6 10 16:44 26.09.2020
3913 Clouds 14 1018 47 10000 3.6 10 16:44 26.09.2020
3914 Clouds 14 1018 47 10000 3.6 10 16:22 26.09.2020
3915 Clouds 14 1018 47 10000 3.6 10 15:55 26.09.2020
3916 Clouds 14 1018 47 10000 3.1 10 15:26 26.09.2020
3917 Clouds 14 1018 50 10000 4.1 360 14:51 26.09.2020
3918 Clear 13 1018 54 10000 3.6 30 14:20 26.09.2020
3919 Clear 13 1018 54 10000 3.6 30 13:53 26.09.2020
3920 Clouds 12 1018 54 10000 5.1 350 13:34 26.09.2020
3921 Clouds 12 1018 58 10000 3.6 20 12:57 26.09.2020
3922 Clouds 11 1018 62 10000 2.1 310 12:37 26.09.2020
3923 Clouds 11 1018 62 10000 2.1 310 12:18 26.09.2020
3924 Clear 10 1018 76 10000 1.5 0 11:45 26.09.2020
3925 Clear 8 1018 76 10000 1.5 0 11:22 26.09.2020
3926 Clouds 7 1017 81 10000 3.1 240 10:43 26.09.2020
3927 Clouds 6 1017 81 10000 3.1 240 10:22 26.09.2020
3928 Clear 4 1017 86 10000 2.1 240 09:49 26.09.2020
3929 Clear 2 1016 82 10000 2.1 220 09:22 26.09.2020
3930 Clouds 2 1016 82 10000 2.6 190 08:54 26.09.2020
3931 Clear 2 1016 86 10000 3.1 270 07:47 26.09.2020
3932 Clear 3 1016 86 10000 3.1 270 07:19 26.09.2020
3933 Clear 4 1015 78 10000 3.1 260 02:56 26.09.2020
3934 Clear 3 1015 75 10000 1.5 0 01:36 26.09.2020
3935 Clear 3 1015 86 10000 2.1 240 00:42 26.09.2020
3936 Clear 5 1015 75 10000 1 0 23:39 25.09.2020
3937 Clear 6 1015 75 10000 1 0 23:19 25.09.2020
3938 Clear 7 1015 70 10000 2.6 320 22:46 25.09.2020
3939 Clouds 7 1015 70 10000 2.6 320 22:27 25.09.2020
3940 Clouds 7 1014 70 10000 3.6 330 21:58 25.09.2020
3941 Clouds 8 1014 65 10000 2.1 340 21:27 25.09.2020
3942 Clouds 9 1014 70 10000 2.6 300 20:52 25.09.2020
3943 Clouds 10 1014 61 10000 1.5 0 20:33 25.09.2020
3944 Clouds 10 1013 61 10000 3.6 350 19:48 25.09.2020
3945 Clouds 11 1012 58 10000 4.6 330 18:56 25.09.2020
3946 Clouds 11 1012 54 10000 9.8 340 18:26 25.09.2020
3947 Clouds 12 1012 54 10000 9.8 340 17:59 25.09.2020
3948 Clouds 12 1011 50 10000 6.2 330 17:37 25.09.2020
3949 Clouds 13 1011 50 10000 5.7 330 17:19 25.09.2020
3950 Clouds 12 1011 66 10000 3.1 360 16:32 25.09.2020
3951 Clouds 12 1011 62 10000 7.7 340 15:56 25.09.2020
3952 Clouds 13 1011 58 10000 4.6 310 15:21 25.09.2020
3953 Clouds 13 1011 58 10000 4.6 360 14:41 25.09.2020
3954 Clouds 12 1011 58 10000 4.6 360 14:20 25.09.2020
3955 Clouds 12 1010 62 10000 4.6 340 13:26 25.09.2020
3956 Clouds 12 1010 62 10000 3.6 310 12:55 25.09.2020
3957 Clouds 11 1010 66 10000 3.1 290 12:33 25.09.2020
3958 Clear 10 1010 71 10000 4.1 280 11:50 25.09.2020
3959 Clouds 10 1009 71 10000 3.1 270 11:28 25.09.2020
3960 Clouds 8 1008 87 10000 3.1 250 10:40 25.09.2020
3961 Clouds 6 1008 87 10000 3.1 250 10:19 25.09.2020
3962 Clouds 3 1008 69 10000 2.6 250 09:45 25.09.2020
3963 Clouds 3 1008 74 10000 2.6 250 09:19 25.09.2020
3964 Clouds 3 1007 74 10000 2.1 250 08:38 25.09.2020
3965 Clouds 2 1007 76 10000 2.6 240 07:59 25.09.2020
3966 Clouds 3 1007 93 10000 2.6 250 07:24 25.09.2020
3967 Clouds 3 1006 93 10000 2.6 210 06:31 25.09.2020
3968 Clouds 5 1004 86 10000 3.1 280 03:20 25.09.2020
3969 Clouds 6 1002 70 10000 2.1 40 00:33 25.09.2020
3970 Clouds 7 1002 75 10000 3.6 40 23:33 24.09.2020
3971 Clouds 7 1001 87 10000 2.1 20 22:58 24.09.2020
3972 Clouds 8 1000 87 10000 1.5 0 22:22 24.09.2020
3973 Clouds 8 1000 81 10000 5.7 30 21:56 24.09.2020
3974 Clouds 8 999 87 10000 2.1 330 21:37 24.09.2020
3975 Clouds 9 999 81 10000 1.5 30 21:18 24.09.2020
3976 Clouds 10 998 66 10000 3.1 80 20:42 24.09.2020
3977 Clouds 11 998 66 10000 3.1 80 20:23 24.09.2020
3978 Clouds 11 997 66 10000 3.1 80 19:37 24.09.2020
3979 Clouds 12 997 62 10000 5.1 70 19:18 24.09.2020
3980 Clouds 12 996 62 10000 5.7 80 18:24 24.09.2020
3981 Clouds 12 996 62 10000 5.1 90 17:59 24.09.2020
3982 Clouds 12 995 58 10000 5.1 80 17:37 24.09.2020
3983 Clouds 12 995 58 10000 6.7 50 16:42 24.09.2020
3984 Clouds 12 995 58 10000 6.7 50 16:21 24.09.2020
3985 Clouds 12 995 62 10000 6.2 70 15:21 24.09.2020
3986 Clouds 11 995 62 10000 6.7 60 14:53 24.09.2020
3987 Clouds 11 994 66 10000 6.2 50 14:34 24.09.2020
3988 Clouds 11 994 71 10000 6.2 70 13:44 24.09.2020
3989 Clouds 11 994 66 10000 5.7 70 13:20 24.09.2020
3990 Clouds 10 994 76 10000 2.1 50 12:47 24.09.2020
3991 Clouds 10 994 76 10000 2.1 50 12:27 24.09.2020
3992 Clouds 10 994 76 10000 2.1 50 12:27 24.09.2020
3993 Clear 7 994 100 10000 2.1 250 11:20 24.09.2020
3994 Clear 7 994 100 10000 2.1 250 11:20 24.09.2020
3995 Clear 7 994 100 10000 2.1 250 11:20 24.09.2020
3996 Clear 6 994 100 10000 2.1 250 10:51 24.09.2020
3997 Clear 4 994 93 10000 1.5 240 10:32 24.09.2020
3998 Clouds 3 994 100 10000 1 0 09:59 24.09.2020
3999 Fog 2 994 100 600 1 20 09:23 24.09.2020
4000 Fog 1 994 100 600 1 20 08:51 24.09.2020
4001 Fog 1 994 86 350 1 350 08:29 24.09.2020
4002 Fog 1 994 100 600 1 0 06:53 24.09.2020
4003 Fog 2 994 93 300 0.5 120 06:35 24.09.2020
4004 Fog 3 996 100 10000 1 230 02:32 24.09.2020
4005 Fog 4 997 93 350 2.1 240 00:22 24.09.2020
4006 Clouds 5 998 100 10000 0.5 0 23:46 23.09.2020
4007 Clouds 5 998 100 10000 0.5 0 23:21 23.09.2020
4008 Clouds 6 998 87 10000 1.5 30 22:47 23.09.2020
4009 Clouds 7 998 81 10000 0.5 110 22:22 23.09.2020
4010 Clouds 8 998 70 10000 2.1 0 21:43 23.09.2020
4011 Clouds 9 998 70 10000 2.1 0 21:24 23.09.2020
4012 Clouds 9 998 66 10000 1.5 0 20:52 23.09.2020
4013 Clouds 9 998 76 10000 2.1 50 20:23 23.09.2020
4014 Clouds 11 998 66 10000 2.1 50 19:32 23.09.2020
4015 Clouds 12 999 62 10000 2.6 60 18:59 23.09.2020
4016 Clouds 12 999 58 10000 2.1 90 18:27 23.09.2020
4017 Clouds 12 999 58 10000 2.1 80 17:51 23.09.2020
4018 Clouds 13 1000 54 10000 1.5 0 17:28 23.09.2020
4019 Clouds 12 1001 58 10000 1.5 0 16:30 23.09.2020
4020 Clouds 12 1001 58 10000 2.1 90 15:58 23.09.2020
4021 Clouds 12 1001 62 10000 1.5 0 15:23 23.09.2020
4022 Clouds 12 1001 58 10000 2.1 70 14:52 23.09.2020
4023 Clouds 12 1001 58 10000 1 0 14:31 23.09.2020
4024 Clouds 12 1002 62 10000 1 0 13:43 23.09.2020
4025 Clouds 12 1002 62 10000 1 0 13:24 23.09.2020
4026 Clouds 11 1002 66 10000 0.5 0 12:41 23.09.2020
4027 Clouds 10 1002 76 10000 0.5 0 12:19 23.09.2020
4028 Clouds 9 1002 81 10000 0.5 0 11:28 23.09.2020
4029 Clouds 8 1002 87 10000 0.5 0 10:58 23.09.2020
4030 Clouds 7 1002 93 10000 1 0 10:36 23.09.2020
4031 Clouds 5 1002 100 10000 1.5 210 09:53 23.09.2020
4032 Clear 4 1002 93 10000 1.5 220 09:24 23.09.2020
4033 Clouds 4 1002 93 10000 1.5 230 08:23 23.09.2020
4034 Clouds 4 1001 100 10000 1.5 0 07:58 23.09.2020
4035 Clouds 5 1001 100 10000 2.1 280 07:19 23.09.2020
4036 Clouds 6 1001 93 10000 2.6 220 05:28 23.09.2020
4037 Clouds 10 999 81 10000 3.6 270 01:51 23.09.2020
4038 Clouds 11 998 87 10000 4.1 240 00:47 23.09.2020
4039 Clouds 12 998 87 10000 7.7 230 23:42 22.09.2020
4040 Rain 12 998 93 10000 3.6 240 22:59 22.09.2020
4041 Rain 12 997 87 10000 5.1 240 22:33 22.09.2020
4042 Rain 13 997 93 8000 6.2 260 21:50 22.09.2020
4043 Rain 14 997 87 4900 9.8 210 21:28 22.09.2020
4044 Rain 14 997 87 3300 10.8 210 20:50 22.09.2020
4045 Rain 13 997 93 3000 8.2 210 20:28 22.09.2020
4046 Clouds 14 997 87 5000 7.7 200 19:58 22.09.2020
4047 Clouds 14 998 87 3900 8.2 200 19:40 22.09.2020
4048 Clouds 14 998 87 4000 10.8 210 19:18 22.09.2020
4049 Clouds 14 998 77 10000 10.3 200 18:36 22.09.2020
4050 Haze 14 998 82 4900 12.3 200 17:47 22.09.2020
4051 Haze 15 999 77 4200 12.9 210 17:23 22.09.2020
4052 Clouds 15 1000 67 10000 12.9 210 16:35 22.09.2020
4053 Clouds 15 1000 72 10000 11.8 210 15:51 22.09.2020
4054 Clouds 14 1001 71 10000 10.3 210 15:31 22.09.2020
4055 Clouds 14 1001 71 10000 9.8 220 14:40 22.09.2020
4056 Clouds 14 1002 71 10000 9.3 220 13:58 22.09.2020
4057 Clouds 14 1002 76 10000 6.7 240 13:27 22.09.2020
4058 Clouds 13 1003 82 10000 6.2 250 12:54 22.09.2020
4059 Clouds 13 1003 82 10000 6.7 230 12:33 22.09.2020
4060 Clouds 13 1003 87 10000 5.7 230 11:54 22.09.2020
4061 Clouds 13 1003 87 9000 5.1 220 11:23 22.09.2020
4062 Clouds 13 1004 82 10000 6.2 230 10:54 22.09.2020
4063 Clouds 13 1004 82 10000 6.2 230 10:27 22.09.2020
4064 Clouds 12 1005 81 10000 4.1 250 09:42 22.09.2020
4065 Clouds 12 1005 76 10000 8.2 230 08:56 22.09.2020
4066 Clouds 12 1005 81 10000 6.2 210 08:27 22.09.2020
4067 Clouds 12 1006 87 10000 5.7 200 07:53 22.09.2020
4068 Clouds 12 1006 82 10000 6.2 210 07:35 22.09.2020
4069 Clouds 13 1007 82 10000 4.6 210 06:56 22.09.2020
4070 Clouds 12 1009 87 10000 2.1 210 05:18 22.09.2020
4071 Clouds 12 1009 87 10000 1.5 210 04:34 22.09.2020
4072 Clouds 13 1012 87 10000 1.5 0 01:37 22.09.2020
4073 Clouds 13 1012 87 10000 2.6 240 00:55 22.09.2020
4074 Clouds 13 1013 87 10000 4.1 230 23:28 21.09.2020
4075 Clouds 13 1013 82 10000 2.6 240 22:46 21.09.2020
4076 Clouds 13 1013 82 10000 2.6 240 22:24 21.09.2020
4077 Clouds 13 1013 82 10000 3.1 230 21:43 21.09.2020
4078 Clouds 13 1013 82 10000 3.1 230 21:23 21.09.2020
4079 Clouds 13 1014 82 10000 3.6 240 20:51 21.09.2020
4080 Clouds 13 1013 82 10000 3.6 220 20:32 21.09.2020
4081 Clouds 14 1014 76 10000 4.1 230 19:46 21.09.2020
4082 Clouds 14 1014 71 10000 5.1 230 19:22 21.09.2020
4083 Clouds 14 1014 71 10000 3.6 260 18:50 21.09.2020
4084 Clouds 15 1015 67 10000 5.1 260 18:24 21.09.2020
4085 Clouds 15 1015 67 10000 5.1 250 17:53 21.09.2020
4086 Clouds 15 1015 63 10000 5.1 260 17:26 21.09.2020
4087 Clouds 15 1015 67 10000 5.1 250 16:30 21.09.2020
4088 Clouds 15 1015 67 10000 5.7 270 15:42 21.09.2020
4089 Clouds 15 1015 72 10000 4.6 250 15:21 21.09.2020
4090 Clouds 15 1015 72 10000 5.7 250 14:32 21.09.2020
4091 Clouds 15 1015 67 10000 5.1 250 13:56 21.09.2020
4092 Clouds 15 1016 77 10000 6.2 220 13:21 21.09.2020
4093 Clouds 14 1016 87 10000 4.6 230 12:43 21.09.2020
4094 Clouds 14 1016 93 10000 4.1 210 12:20 21.09.2020
4095 Clouds 13 1016 87 9000 3.6 220 11:23 21.09.2020
4096 Clouds 11 1016 100 8000 1 0 10:57 21.09.2020
4097 Mist 11 1016 100 5000 1 0 10:26 21.09.2020
4098 Mist 10 1017 100 3000 1 0 09:54 21.09.2020
4099 Mist 10 1017 100 3000 1 0 09:36 21.09.2020
4100 Fog 9 1017 100 800 1.5 10 08:28 21.09.2020
4101 Fog 9 1017 100 300 1 0 07:46 21.09.2020
4102 Fog 9 1017 93 150 0.5 0 06:50 21.09.2020
4103 Drizzle 9 1018 100 100 1 0 05:22 21.09.2020
4104 Mist 9 1019 100 3000 1 330 02:55 21.09.2020
4105 Clouds 8 1020 100 6000 2.1 210 00:45 21.09.2020
4106 Fog 9 1021 93 200 1.5 240 22:55 20.09.2020
4107 Mist 9 1021 100 4000 1.5 270 22:23 20.09.2020
4108 Clouds 10 1021 100 7000 2.1 220 21:55 20.09.2020
4109 Clouds 11 1021 93 10000 2.1 230 21:23 20.09.2020
4110 Clouds 13 1021 87 10000 2.1 300 20:26 20.09.2020
4111 Clouds 14 1021 82 10000 2.6 300 19:56 20.09.2020
4112 Clouds 14 1022 77 10000 2.6 290 19:38 20.09.2020
4113 Clouds 16 1022 67 10000 1 0 19:18 20.09.2020
4114 Clouds 17 1022 67 10000 0.5 0 18:42 20.09.2020
4115 Clouds 16 1022 67 10000 1 0 18:22 20.09.2020
4116 Clouds 16 1022 67 10000 1 0 17:38 20.09.2020
4117 Clouds 15 1023 77 10000 2.6 30 17:18 20.09.2020
4118 Clouds 14 1023 82 10000 1.5 0 16:28 20.09.2020
4119 Clouds 14 1024 87 10000 2.1 40 15:38 20.09.2020
4120 Clouds 14 1024 87 10000 2.1 80 14:44 20.09.2020
4121 Clouds 13 1024 87 10000 2.1 80 14:20 20.09.2020
4122 Clouds 13 1024 87 10000 2.6 80 13:28 20.09.2020
4123 Clouds 13 1025 93 10000 3.1 70 12:51 20.09.2020
4124 Clouds 12 1025 93 10000 3.1 80 12:27 20.09.2020
4125 Clouds 12 1025 93 10000 3.1 60 11:41 20.09.2020
4126 Clouds 12 1025 93 10000 3.1 60 11:22 20.09.2020
4127 Clouds 12 1025 87 10000 2.1 60 10:53 20.09.2020
4128 Clouds 11 1025 93 10000 2.6 40 10:28 20.09.2020
4129 Clouds 11 1025 93 7000 3.1 30 09:49 20.09.2020
4130 Clouds 11 1025 100 10000 2.6 40 08:45 20.09.2020
4131 Clouds 11 1025 100 6000 1.5 40 07:34 20.09.2020
4132 Mist 11 1026 93 1000 2.1 40 04:58 20.09.2020
4133 Clouds 9 1026 87 10000 2.6 80 00:48 20.09.2020
4134 Clouds 10 1026 87 10000 3.1 60 23:43 19.09.2020
4135 Clouds 10 1026 87 10000 3.1 60 23:20 19.09.2020
4136 Clouds 11 1025 76 10000 4.1 80 22:30 19.09.2020
4137 Clouds 12 1025 71 10000 3.6 70 21:52 19.09.2020
4138 Clouds 12 1025 62 10000 4.6 60 21:34 19.09.2020
4139 Clouds 14 1025 66 10000 4.1 60 20:48 19.09.2020
4140 Clouds 16 1024 67 10000 5.1 60 19:49 19.09.2020
4141 Clouds 16 1024 72 10000 6.7 60 19:20 19.09.2020
4142 Clouds 17 1024 67 10000 5.7 60 18:26 19.09.2020
4143 Clouds 17 1025 67 10000 5.7 50 17:45 19.09.2020
4144 Clouds 17 1025 67 10000 5.7 50 17:25 19.09.2020
4145 Clouds 16 1025 72 10000 6.2 50 16:45 19.09.2020
4146 Clouds 16 1025 72 10000 6.2 50 16:21 19.09.2020
4147 Clouds 16 1026 67 10000 6.7 70 15:41 19.09.2020
4148 Clear 14 1026 71 10000 7.2 60 13:28 19.09.2020
4149 Clouds 13 1027 76 10000 6.7 70 12:25 19.09.2020
4150 Clouds 12 1027 87 10000 5.7 90 11:32 19.09.2020
4151 Clear 9 1027 93 10000 3.1 60 10:27 19.09.2020
4152 Clear 8 1027 93 10000 3.6 60 09:44 19.09.2020
4153 Clear 8 1027 93 10000 3.6 60 09:25 19.09.2020
4154 Fog 6 1027 100 10000 3.1 30 08:45 19.09.2020
4155 Mist 7 1027 100 5000 2.6 60 07:40 19.09.2020
4156 Clear 7 1027 100 7000 3.6 50 06:53 19.09.2020
4157 Clouds 8 1027 93 8000 3.6 40 05:51 19.09.2020
4158 Clouds 9 1028 87 10000 3.1 90 04:19 19.09.2020
4159 Clouds 11 1028 76 10000 5.1 80 00:50 19.09.2020
4160 Clouds 11 1028 62 10000 3.6 70 23:24 18.09.2020
4161 Clouds 11 1028 62 10000 2.6 70 22:59 18.09.2020
4162 Clouds 12 1028 62 10000 2.6 70 22:21 18.09.2020
4163 Clouds 13 1027 50 10000 3.1 70 21:42 18.09.2020
4164 Clouds 14 1027 50 10000 3.1 70 21:22 18.09.2020
4165 Clouds 15 1027 36 10000 5.1 80 20:39 18.09.2020
4166 Clouds 17 1027 55 10000 5.1 60 19:39 18.09.2020
4167 Clouds 18 1027 55 10000 5.1 60 19:19 18.09.2020
4168 Clouds 19 1027 55 10000 5.1 80 18:26 18.09.2020
4169 Clouds 19 1027 63 10000 6.2 70 17:25 18.09.2020
4170 Clouds 20 1027 64 10000 6.2 50 16:38 18.09.2020
4171 Clouds 20 1028 64 10000 5.7 60 16:20 18.09.2020
4172 Clouds 20 1028 64 10000 4.6 60 15:39 18.09.2020
4173 Clouds 18 1028 68 10000 1.5 0 14:38 18.09.2020
4174 Clouds 18 1028 68 10000 0.5 0 13:56 18.09.2020
4175 Clear 14 1029 87 10000 0.5 0 13:18 18.09.2020
4176 Clear 13 1029 100 10000 0.5 0 12:36 18.09.2020
4177 Fog 11 1029 93 400 0.5 0 10:53 18.09.2020
4178 Fog 10 1029 100 400 1 0 10:35 18.09.2020
4179 Fog 9 1029 100 300 1 340 09:57 18.09.2020
4180 Fog 8 1029 100 200 0.5 250 09:23 18.09.2020
4181 Drizzle 8 1029 100 100 1 280 08:27 18.09.2020
4182 Fog 7 1028 100 100 1 270 07:33 18.09.2020
4183 Fog 8 1029 100 150 0.5 250 05:22 18.09.2020
4184 Fog 10 1029 93 10000 1.5 210 02:21 18.09.2020
4185 Mist 11 1029 100 5000 1.5 220 00:47 18.09.2020
4186 Fog 12 1029 100 750 0.5 330 23:49 17.09.2020
4187 Clouds 11 1029 87 10000 1 0 22:50 17.09.2020
4188 Clouds 12 1029 87 10000 1 0 22:25 17.09.2020
4189 Clouds 14 1028 82 10000 1 290 21:37 17.09.2020
4190 Clouds 14 1028 77 10000 1.5 320 21:18 17.09.2020
4191 Clouds 16 1028 77 10000 2.1 320 20:30 17.09.2020
4192 Clouds 19 1029 63 10000 1 310 19:35 17.09.2020
4193 Clouds 20 1029 60 10000 0.5 0 18:54 17.09.2020
4194 Clouds 20 1029 60 10000 0.5 0 18:24 17.09.2020
4195 Clouds 19 1029 63 10000 0.5 0 17:40 17.09.2020
4196 Clouds 19 1030 68 10000 1 0 17:20 17.09.2020
4197 Clear 18 1030 63 10000 1 0 15:59 17.09.2020
4198 Clear 17 1030 67 10000 1 0 15:25 17.09.2020
4199 Clear 16 1031 67 10000 1.5 0 14:37 17.09.2020
4200 Clear 16 1031 63 10000 1 0 14:18 17.09.2020
4201 Clear 15 1031 67 10000 1 0 13:27 17.09.2020
4202 Clear 14 1031 71 10000 1.5 0 12:33 17.09.2020
4203 Clear 12 1031 76 10000 2.1 50 11:51 17.09.2020
4204 Clear 11 1032 81 10000 1 0 11:21 17.09.2020
4205 Clear 11 1032 81 10000 1 0 10:37 17.09.2020
4206 Clear 10 1032 81 10000 0.5 0 09:57 17.09.2020
4207 Clear 10 1032 81 10000 1.5 0 09:28 17.09.2020
4208 Clear 9 1032 87 10000 2.1 50 08:43 17.09.2020
4209 Clear 9 1032 87 10000 2.1 50 08:23 17.09.2020
4210 Clear 9 1032 87 10000 1 110 07:46 17.09.2020
4211 Clear 9 1032 87 10000 1 80 07:18 17.09.2020
4212 Clear 9 1032 87 10000 1.5 80 05:24 17.09.2020
4213 Clouds 11 1032 87 10000 3.6 60 01:51 17.09.2020
4214 Clouds 11 1033 87 10000 3.6 70 01:29 17.09.2020
4215 Clouds 12 1033 81 10000 3.1 70 00:48 17.09.2020
4216 Clouds 12 1033 81 10000 3.1 70 23:33 16.09.2020
4217 Clouds 12 1032 81 10000 5.1 60 22:46 16.09.2020
4218 Clouds 12 1032 81 10000 5.1 60 22:24 16.09.2020
4219 Clouds 12 1032 81 10000 5.1 60 21:46 16.09.2020
4220 Clouds 12 1032 81 10000 4.6 60 21:20 16.09.2020
4221 Clouds 13 1031 76 10000 5.1 60 20:32 16.09.2020
4222 Clouds 13 1031 76 10000 4.6 60 19:54 16.09.2020
4223 Clouds 13 1031 71 10000 7.2 80 17:35 16.09.2020
4224 Clouds 14 1031 71 10000 7.2 70 16:52 16.09.2020
4225 Clouds 14 1031 71 10000 7.2 70 15:55 16.09.2020
4226 Clouds 13 1031 76 10000 7.2 80 15:25 16.09.2020
4227 Clouds 13 1031 76 10000 8.2 80 14:49 16.09.2020
4228 Clouds 13 1030 76 10000 6.7 80 14:20 16.09.2020
4229 Clouds 13 1030 76 10000 6.7 80 13:20 16.09.2020
4230 Clouds 13 1030 76 10000 6.7 80 11:53 16.09.2020
4231 Clouds 13 1029 76 10000 7.2 80 11:21 16.09.2020
4232 Clouds 12 1028 87 10000 6.2 70 09:58 16.09.2020
4233 Clouds 12 1028 81 10000 6.7 80 09:37 16.09.2020
4234 Clouds 12 1027 87 10000 5.1 80 09:18 16.09.2020
4235 Clouds 13 1027 82 10000 6.7 80 07:53 16.09.2020
4236 Clouds 14 1025 87 10000 6.2 90 06:30 16.09.2020
4237 Clear 14 1021 100 6000 1.5 240 00:27 16.09.2020
4238 Clouds 14 1021 100 10000 2.6 230 23:41 15.09.2020
4239 Clear 14 1021 93 10000 2.1 250 22:52 15.09.2020
4240 Clear 16 1020 93 10000 1.5 290 22:28 15.09.2020
4241 Clear 17 1020 88 10000 0.5 0 21:42 15.09.2020
4242 Clear 18 1019 82 10000 2.1 290 21:22 15.09.2020
4243 Clouds 18 1019 82 10000 2.1 290 20:42 15.09.2020
4244 Clouds 19 1019 82 10000 2.1 290 20:22 15.09.2020
4245 Clouds 20 1019 77 10000 2.6 300 19:29 15.09.2020
4246 Clouds 21 1018 73 10000 1.5 0 17:49 15.09.2020
4247 Clouds 21 1019 77 10000 1 0 16:55 15.09.2020
4248 Clouds 21 1019 77 10000 1 0 16:34 15.09.2020
4249 Clouds 19 1019 82 10000 1 0 15:27 15.09.2020
4250 Clouds 19 1019 77 10000 0.5 0 14:49 15.09.2020
4251 Clouds 18 1019 82 10000 1.5 0 13:37 15.09.2020
4252 Clouds 15 1019 100 8000 1 0 11:32 15.09.2020
4253 Rain 14 1019 100 5000 1 0 09:23 15.09.2020
4254 Rain 14 1018 100 7000 1.5 0 08:47 15.09.2020
4255 Rain 14 1019 100 4900 1.5 290 07:48 15.09.2020
4256 Rain 14 1018 100 7000 2.1 30 07:20 15.09.2020
4257 Mist 14 1019 100 5000 0.5 0 03:31 15.09.2020
4258 Clouds 15 1020 93 10000 1 0 23:30 14.09.2020
4259 Clouds 15 1019 93 10000 0.5 210 22:27 14.09.2020
4260 Clouds 16 1019 82 10000 1 290 20:42 14.09.2020
4261 Clouds 18 1019 77 10000 1.5 300 18:59 14.09.2020
4262 Clouds 18 1019 77 10000 1.5 0 18:29 14.09.2020
4263 Clouds 18 1020 77 10000 2.6 240 16:22 14.09.2020
4264 Clouds 18 1020 77 10000 3.1 260 15:52 14.09.2020
4265 Clouds 17 1020 77 10000 3.1 260 14:23 14.09.2020
4266 Clouds 18 1020 82 10000 4.6 240 13:27 14.09.2020
4267 Clouds 16 1020 82 10000 5.1 210 11:29 14.09.2020
4268 Clouds 15 1019 87 10000 5.7 200 08:53 14.09.2020
4269 Clouds 15 1018 87 10000 4.6 210 08:24 14.09.2020
4270 Clouds 15 1016 87 10000 3.6 220 22:47 13.09.2020
4271 Clouds 17 1015 82 10000 6.2 230 21:50 13.09.2020
4272 Clouds 19 1014 72 10000 10.8 230 18:45 13.09.2020
4273 Clouds 17 1013 77 10000 13.9 220 15:40 13.09.2020
4274 Clouds 17 1012 82 10000 12.9 220 12:29 13.09.2020
4275 Clouds 16 1010 82 10000 11.8 220 10:23 13.09.2020
4276 Clouds 15 1009 93 8000 9.3 230 08:38 13.09.2020
4277 Rain 15 1009 93 5000 11.8 220 06:52 13.09.2020
4278 Rain 12 1011 87 10000 8.7 210 21:38 12.09.2020
4279 Rain 12 1012 87 10000 6.7 200 21:18 12.09.2020
4280 Rain 12 1013 93 10000 3.6 210 19:43 12.09.2020
4281 Rain 13 1013 82 6000 4.1 240 18:20 12.09.2020
4282 Rain 13 1013 82 10000 5.7 240 17:47 12.09.2020
4283 Rain 13 1012 82 10000 7.7 240 16:54 12.09.2020
4284 Clouds 14 1013 71 10000 7.2 250 14:54 12.09.2020
4285 Clouds 13 1012 87 10000 4.6 260 14:33 12.09.2020
4286 Clouds 12 1011 87 10000 4.6 240 11:24 12.09.2020
4287 Rain 11 1008 76 10000 8.7 210 07:22 12.09.2020
4288 Clouds 12 1007 76 10000 6.2 220 04:59 12.09.2020
4289 Clouds 12 1007 76 10000 6.2 240 00:58 12.09.2020
4290 Clouds 13 1007 76 10000 8.7 250 22:40 11.09.2020
4291 Clouds 13 1006 76 10000 7.7 250 21:36 11.09.2020
4292 Rain 14 1006 79 10000 2.68 274 19:42 11.09.2020
4293 Clouds 15 1006 71 10000 3.13 306 17:47 11.09.2020
4294 Clouds 15 1016 72 10000 8.05 240 16:59 11.09.2020
4295 Rain 13 1006 93 6000 9.3 230 14:26 11.09.2020
4296 Rain 13 1004 87 6000 11.3 210 11:45 11.09.2020
4297 Rain 13 1004 87 5000 11.3 210 10:49 11.09.2020
4298 Clouds 13 1006 82 10000 10.3 210 07:33 11.09.2020
4299 Clouds 12 1015 87 8000 7.7 210 21:55 10.09.2020
4300 Clouds 13 1016 76 10000 7.2 220 19:34 10.09.2020
4301 Clouds 13 1017 66 10000 9.3 230 17:56 10.09.2020
4302 Clouds 13 1019 71 10000 6.7 230 15:54 10.09.2020
4303 Clouds 14 1020 75 10000 1.34 0 14:21 10.09.2020
4304 Clouds 11 1022 87 10000 2.1 240 11:37 10.09.2020
4305 Clouds 8 1022 100 10000 0.5 0 09:33 10.09.2020
4306 Clouds 8 1023 93 10000 1.5 250 07:47 10.09.2020
4307 Clouds 8 1023 93 10000 1.5 240 07:20 10.09.2020
4308 Clouds 11 1024 75 10000 2.24 263 21:50 09.09.2020
4309 Clouds 14 1022 65 10000 3.58 302 18:39 09.09.2020
4310 Clouds 14 1021 76 10000 7.2 290 17:22 09.09.2020
4311 Rain 15 1020 62 10000 7.7 270 14:42 09.09.2020
4312 Clouds 13 1018 82 10000 7.7 260 10:42 09.09.2020
4313 Clouds 13 1018 82 10000 8.7 260 09:54 09.09.2020
4314 Rain 13 1017 76 10000 5.7 260 08:40 09.09.2020
4315 Clouds 12 1017 87 10000 4.1 220 06:31 09.09.2020
4316 Clouds 12 1017 76 10000 5.7 260 04:41 09.09.2020
4317 Clouds 12 1017 76 10000 5.7 260 04:41 09.09.2020
4318 Clouds 12 1017 76 10000 5.7 260 04:41 09.09.2020
4319 Rain 18 1013 88 10000 9.8 220 23:39 08.09.2020
4320 Rain 18 1013 88 10000 7.7 220 22:52 08.09.2020
4321 Clouds 18 1014 88 10000 8.7 220 21:38 08.09.2020
4322 Clouds 18 1014 88 10000 8.7 220 21:19 08.09.2020
4323 Clouds 19 1015 88 10000 10.8 220 18:30 08.09.2020
4324 Rain 18 1018 93 6000 5.7 230 14:54 08.09.2020
4325 Clouds 16 1019 82 10000 6.7 230 11:40 08.09.2020
4326 Clouds 16 1019 87 10000 5.7 230 10:54 08.09.2020
4327 Clouds 16 1019 87 10000 4.6 220 10:18 08.09.2020
4328 Clouds 15 1018 87 10000 4.6 220 09:38 08.09.2020
4329 Clouds 13 1018 87 10000 1.5 210 07:39 08.09.2020
4330 Clouds 15 1016 82 10000 5.1 250 23:50 07.09.2020
4331 Clouds 15 1016 87 10000 5.1 230 22:38 07.09.2020
4332 Clouds 16 1015 87 10000 5.7 240 20:31 07.09.2020
4333 Haze 16 1013 93 5000 5.7 210 16:31 07.09.2020
4334 Rain 15 1013 93 10000 9.3 220 13:32 07.09.2020
4335 Clouds 15 1014 87 6000 9.8 210 12:22 07.09.2020
4336 Rain 14 1014 93 10000 8.2 210 11:50 07.09.2020
4337 Clouds 14 1014 93 10000 8.7 210 11:20 07.09.2020
4338 Rain 13 1015 93 8000 8.7 210 08:42 07.09.2020
4339 Rain 13 1018 87 10000 4.1 210 03:28 07.09.2020
4340 Clouds 13 1020 76 10000 3.1 250 21:51 06.09.2020
4341 Clouds 14 1020 71 10000 3.1 260 21:31 06.09.2020
4342 Clouds 15 1020 62 10000 2.6 270 20:35 06.09.2020
4343 Clouds 16 1020 55 10000 3.1 290 18:53 06.09.2020
4344 Clouds 17 1020 48 10000 5.1 290 15:54 06.09.2020
4345 Clouds 16 1019 51 10000 0.5 0 13:58 06.09.2020
4346 Clouds 15 1019 67 10000 1 0 13:21 06.09.2020
4347 Rain 13 1018 82 10000 2.1 300 11:19 06.09.2020
4348 Clouds 10 1017 100 10000 1.5 230 08:57 06.09.2020
4349 Clouds 11 1017 93 10000 3.6 230 00:20 06.09.2020
4350 Clouds 12 1016 81 10000 3.6 240 22:36 05.09.2020
4351 Clouds 14 1016 71 10000 7.2 240 17:51 05.09.2020
4352 Clouds 14 1017 67 10000 5.7 250 14:38 05.09.2020
4353 Clouds 14 1016 67 10000 6.2 260 13:19 05.09.2020
4354 Clouds 14 1016 67 10000 5.1 260 12:41 05.09.2020
4355 Clouds 13 1016 71 10000 5.1 250 11:40 05.09.2020
4356 Clouds 12 1016 81 10000 4.6 220 10:30 05.09.2020
4357 Clouds 11 1015 81 10000 6.2 260 09:25 05.09.2020
4358 Clouds 10 1014 87 10000 5.1 230 06:30 05.09.2020
4359 Rain 12 1014 81 10000 6.7 240 22:41 04.09.2020
4360 Clouds 14 1013 76 10000 3.1 260 19:53 04.09.2020
4361 Clouds 15 1013 72 10000 8.2 260 18:41 04.09.2020
4362 Rain 14 1012 87 10000 7.7 270 16:52 04.09.2020
4363 Rain 13 1013 81 10000 10.3 270 15:28 04.09.2020
4364 Clouds 15 1012 72 10000 8.7 250 11:32 04.09.2020
4365 Clouds 13 1012 82 10000 7.2 250 09:30 04.09.2020
4366 Rain 12 1011 76 10000 7.2 240 06:31 04.09.2020
4367 Clouds 13 1011 71 10000 7.2 220 00:59 04.09.2020
4368 Clear 13 1010 76 10000 6.2 240 22:41 03.09.2020
4369 Clear 12 1010 76 10000 4.6 250 21:39 03.09.2020
4370 Clear 15 1009 67 10000 7.2 250 20:31 03.09.2020
4371 Clouds 16 1008 63 10000 9.8 250 19:24 03.09.2020
4372 Clouds 16 1007 67 10000 8.7 250 18:18 03.09.2020
4373 Clouds 17 1008 59 10000 10.8 250 16:26 03.09.2020
4374 Rain 15 1006 87 2500 9.3 230 12:33 03.09.2020
4375 Rain 15 1006 87 10000 4.6 240 11:56 03.09.2020
4376 Rain 14 1006 93 8000 6.7 230 10:45 03.09.2020
4377 Rain 14 1005 87 6000 4.6 210 07:34 03.09.2020
4378 Rain 16 1004 100 8000 4.1 220 22:53 02.09.2020
4379 Rain 16 1005 93 10000 2.6 180 20:43 02.09.2020
4380 Rain 16 1006 87 10000 3.1 190 19:33 02.09.2020
4381 Rain 16 1006 87 10000 5.1 150 17:58 02.09.2020
4382 Rain 15 1009 87 8000 6.7 190 14:35 02.09.2020
4383 Rain 15 1010 87 9000 5.7 170 10:34 02.09.2020
4384 Clouds 15 1011 82 10000 5.1 170 08:43 02.09.2020
4385 Clouds 15 1014 82 10000 3.6 150 02:54 02.09.2020
4386 Clouds 15 1015 77 10000 1 0 23:59 01.09.2020
4387 Clouds 16 1016 72 10000 3.6 180 20:37 01.09.2020
4388 Clouds 16 1016 72 10000 5.7 180 19:33 01.09.2020
4389 Clouds 16 1016 72 10000 3.6 180 18:23 01.09.2020
4390 Clouds 16 1016 77 10000 3.1 190 17:32 01.09.2020
4391 Clouds 16 1017 82 10000 3.1 160 15:59 01.09.2020
4392 Clouds 15 1018 82 10000 1.5 0 14:59 01.09.2020
4393 Clouds 15 1018 82 10000 1.5 0 12:25 01.09.2020
4394 Clouds 13 1019 87 10000 2.1 50 10:33 01.09.2020
4395 Clouds 11 1018 87 10000 2.1 50 09:25 01.09.2020
4396 Clouds 10 1018 87 10000 2.1 40 07:22 01.09.2020
4397 Clouds 13 1019 67 10000 5.1 180 21:57 31.08.2020
4398 Clouds 15 1019 67 10000 4.1 200 18:39 31.08.2020
4399 Clouds 16 1019 59 10000 3.6 160 17:32 31.08.2020
4400 Clouds 16 1020 63 10000 3.1 180 16:22 31.08.2020
4401 Clouds 15 1021 62 10000 4.1 180 12:40 31.08.2020
4402 Clouds 13 1021 81 10000 1 40 10:37 31.08.2020
4403 Clouds 10 1020 93 10000 0.5 20 07:35 31.08.2020
4404 Clouds 10 1021 93 10000 1 100 06:46 31.08.2020
4405 Clouds 12 1021 81 10000 0.5 0 00:20 31.08.2020
4406 Clouds 13 1021 76 10000 2.1 250 21:59 30.08.2020
4407 Clouds 14 1020 71 10000 2.6 240 20:43 30.08.2020
4408 Clouds 16 1020 51 10000 1 0 18:46 30.08.2020
4409 Clouds 16 1020 51 10000 1 0 18:22 30.08.2020
4410 Clouds 15 1021 54 10000 1 0 15:26 30.08.2020
4411 Clouds 16 1021 58 10000 1 0 14:57 30.08.2020
4412 Clouds 15 1021 58 10000 1 0 13:55 30.08.2020
4413 Clouds 12 1021 76 10000 1.5 0 11:40 30.08.2020
4414 Clouds 12 1021 76 10000 1.5 0 11:40 30.08.2020
4415 Clouds 10 1021 81 10000 1.5 0 10:23 30.08.2020
4416 Clouds 8 1020 87 10000 1 0 09:18 30.08.2020
4417 Clouds 12 1019 62 10000 3.6 20 00:32 30.08.2020
4418 Clouds 11 1018 66 10000 2.6 40 22:38 29.08.2020
4419 Clouds 14 1017 58 10000 2.6 360 20:28 29.08.2020
4420 Clouds 16 1017 51 10000 3.1 350 18:49 29.08.2020
4421 Clouds 15 1016 54 10000 3.6 10 17:56 29.08.2020
4422 Clouds 15 1016 51 10000 4.6 20 16:51 29.08.2020
4423 Clouds 16 1016 48 10000 5.1 360 15:56 29.08.2020
4424 Clouds 14 1015 54 10000 4.1 360 12:36 29.08.2020
4425 Clouds 6 1014 93 10000 2.6 250 08:59 29.08.2020
4426 Clouds 6 1014 93 10000 2.6 260 08:19 29.08.2020
4427 Clouds 12 1012 71 10000 3.6 360 22:44 28.08.2020
4428 Clouds 14 1011 58 10000 4.1 360 21:32 28.08.2020
4429 Clouds 14 1011 54 10000 4.1 360 19:22 28.08.2020
4430 Clouds 16 1010 48 10000 6.7 360 18:45 28.08.2020
4431 Clouds 15 1010 54 10000 7.2 20 17:31 28.08.2020
4432 Clouds 15 1010 62 10000 5.7 40 16:24 28.08.2020
4433 Clouds 14 1010 62 10000 5.7 50 14:45 28.08.2020
4434 Clouds 15 1010 62 10000 5.7 50 14:25 28.08.2020
4435 Clouds 14 1010 67 10000 5.7 40 13:51 28.08.2020
4436 Clouds 13 1009 67 10000 7.7 40 11:32 28.08.2020
4437 Clouds 11 1009 76 10000 5.7 50 09:28 28.08.2020
4438 Clouds 11 1008 76 10000 4.6 40 08:22 28.08.2020
4439 Clouds 11 1007 93 10000 6.2 50 05:40 28.08.2020
4440 Rain 13 1006 93 10000 7.7 50 00:49 28.08.2020
4441 Rain 12 1006 93 10000 3.1 60 23:37 27.08.2020
4442 Rain 13 1006 87 10000 4.6 60 21:23 27.08.2020
4443 Rain 13 1007 93 10000 2.1 40 20:30 27.08.2020
4444 Rain 13 1007 93 10000 3.1 40 19:45 27.08.2020
4445 Rain 14 1008 93 2900 2.1 40 17:26 27.08.2020
4446 Rain 14 1009 93 6000 5.1 50 16:47 27.08.2020
4447 Rain 14 1009 93 10000 6.2 60 15:45 27.08.2020
4448 Rain 14 1010 93 10000 5.1 70 13:34 27.08.2020
4449 Rain 13 1011 100 10000 4.1 70 11:40 27.08.2020
4450 Rain 13 1012 93 7000 3.1 70 09:29 27.08.2020
4451 Rain 12 1012 100 6000 3.6 70 08:48 27.08.2020
4452 Clouds 12 1013 100 6000 2.1 70 06:37 27.08.2020
4453 Clouds 12 1015 100 9000 1 80 01:18 27.08.2020
4454 Clouds 13 1015 87 10000 1 0 22:36 26.08.2020
4455 Clouds 15 1014 87 10000 1 30 21:23 26.08.2020
4456 Rain 16 1014 77 10000 1 0 19:58 26.08.2020
4457 Rain 16 1013 82 10000 1 0 18:30 26.08.2020
4458 Clouds 15 1013 82 10000 1.5 0 16:37 26.08.2020
4459 Drizzle 13 1013 93 4100 2.6 30 14:58 26.08.2020
4460 Rain 13 1010 93 10000 1.5 300 11:52 26.08.2020
4461 Rain 13 1008 87 10000 1.5 230 09:24 26.08.2020
4462 Clouds 13 997 82 10000 0.45 308 00:56 26.08.2020
4463 Clouds 15 991 82 10000 9.3 40 22:40 25.08.2020
4464 Clouds 15 989 82 10000 7.7 30 21:24 25.08.2020
4465 Clouds 15 988 87 10000 7.2 30 20:43 25.08.2020
4466 Clouds 15 987 87 10000 6.7 30 20:20 25.08.2020
4467 Clouds 15 987 87 10000 8.2 30 19:42 25.08.2020
4468 Clouds 15 986 82 10000 8.7 40 18:35 25.08.2020
4469 Drizzle 14 987 93 4900 11.8 60 16:58 25.08.2020
4470 Rain 14 987 93 10000 11.8 60 15:50 25.08.2020
4471 Rain 13 989 93 10000 13.4 60 14:42 25.08.2020
4472 Rain 13 990 93 3500 11.8 60 13:24 25.08.2020
4473 Rain 12 995 93 8000 9.3 70 11:36 25.08.2020
4474 Rain 11 999 93 10000 7.7 70 08:56 25.08.2020
4475 Rain 11 1001 87 10000 7.2 70 07:44 25.08.2020
4476 Rain 11 1002 87 10000 6.2 70 07:21 25.08.2020
4477 Rain 11 1003 87 10000 6.7 70 06:41 25.08.2020
4478 Clouds 11 1004 87 10000 7.2 70 05:54 25.08.2020
4479 Clouds 11 1004 87 10000 6.7 70 05:31 25.08.2020
4480 Clouds 11 1006 87 10000 5.1 60 03:50 25.08.2020
4481 Clouds 11 1007 87 10000 4.6 70 03:31 25.08.2020
4482 Clouds 10 1008 93 10000 2.6 60 02:47 25.08.2020
4483 Clouds 11 1011 81 10000 1 10 23:20 24.08.2020
4484 Clouds 13 1011 66 10000 1.5 240 21:50 24.08.2020
4485 Clouds 15 1011 62 10000 2.1 250 21:18 24.08.2020
4486 Clouds 16 1012 51 10000 2.1 250 20:20 24.08.2020
4487 Clouds 17 1012 48 10000 2.1 0 18:32 24.08.2020
4488 Clouds 17 1013 51 10000 4.1 210 17:34 24.08.2020
4489 Clouds 16 1013 55 10000 3.1 200 16:35 24.08.2020
4490 Clouds 16 1014 62 10000 1.5 0 15:24 24.08.2020
4491 Clouds 16 1014 59 10000 2.1 0 14:31 24.08.2020
4492 Clouds 14 1014 67 10000 2.1 220 13:28 24.08.2020
4493 Clouds 13 1015 87 10000 1.5 0 12:20 24.08.2020
4494 Clouds 12 1015 87 10000 1.5 0 11:53 24.08.2020
4495 Clouds 12 1015 87 10000 1.5 0 11:33 24.08.2020
4496 Clouds 11 1014 87 10000 1.5 0 10:38 24.08.2020
4497 Clouds 10 1014 87 10000 1 30 09:43 24.08.2020
4498 Clouds 9 1014 87 10000 0.5 260 08:19 24.08.2020
4499 Clear 7 1013 93 10000 1.5 0 04:28 24.08.2020
4500 Clouds 8 1014 93 10000 3.1 240 00:26 24.08.2020
4501 Clouds 9 1013 93 10000 3.1 240 23:46 23.08.2020
4502 Clouds 12 1013 87 10000 2.6 270 22:27 23.08.2020
4503 Clouds 14 1013 76 10000 3.1 280 19:58 23.08.2020
4504 Rain 14 1013 76 10000 3.1 290 18:48 23.08.2020
4505 Rain 14 1013 76 10000 3.1 300 17:54 23.08.2020
4506 Clouds 14 1013 76 10000 2.6 280 16:47 23.08.2020
4507 Clouds 13 1013 87 10000 2.1 270 15:48 23.08.2020
4508 Rain 13 1013 87 10000 2.1 270 14:50 23.08.2020
4509 Rain 12 1013 93 10000 2.1 240 13:20 23.08.2020
4510 Rain 13 1012 82 10000 2.6 250 11:20 23.08.2020
4511 Rain 13 1012 76 10000 2.1 240 10:37 23.08.2020
4512 Clouds 12 1011 87 10000 4.1 230 08:36 23.08.2020
4513 Clouds 13 1010 82 10000 3.1 240 06:39 23.08.2020
4514 Clouds 14 1007 87 10000 2.6 200 00:45 23.08.2020
4515 Clouds 14 1007 87 10000 2.6 200 00:24 23.08.2020
4516 Clouds 14 1006 87 10000 2.6 210 23:48 22.08.2020
4517 Clouds 15 1006 82 10000 3.6 260 22:51 22.08.2020
4518 Clouds 15 1006 82 10000 3.6 260 22:51 22.08.2020
4519 Rain 16 1004 82 10000 5.1 230 20:37 22.08.2020
4520 Rain 18 1003 72 10000 8.2 220 18:44 22.08.2020
4521 Clouds 17 1003 77 10000 6.2 230 17:44 22.08.2020
4522 Clouds 17 1003 77 10000 6.2 230 17:44 22.08.2020
4523 Clouds 18 1003 72 10000 9.3 220 16:58 22.08.2020
4524 Clouds 16 1002 77 10000 6.2 220 13:52 22.08.2020
4525 Clouds 17 1001 77 10000 6.2 230 13:32 22.08.2020
4526 Rain 16 1000 82 10000 7.2 230 11:48 22.08.2020
4527 Clouds 15 1000 87 10000 5.1 230 10:28 22.08.2020
4528 Clouds 14 999 87 10000 3.1 220 09:23 22.08.2020
4529 Clouds 14 996 93 10000 6.7 230 03:36 22.08.2020
4530 Rain 15 994 93 10000 4.6 220 23:30 21.08.2020
4531 Clouds 17 991 77 10000 4.6 240 21:28 21.08.2020
4532 Rain 18 989 88 10000 5.7 240 19:53 21.08.2020
4533 Rain 17 986 88 10000 5.7 210 16:52 21.08.2020
4534 Rain 17 985 82 7000 7.2 210 14:39 21.08.2020
4535 Rain 16 984 82 10000 8.7 200 12:49 21.08.2020
4536 Rain 14 983 93 6000 5.7 60 11:24 21.08.2020
4537 Rain 15 986 87 10000 4.6 100 08:49 21.08.2020
4538 Rain 14 987 82 10000 5.7 120 07:21 21.08.2020
4539 Clouds 17 995 82 10000 4.6 120 00:19 21.08.2020
4540 Rain 17 996 82 10000 5.7 140 22:36 20.08.2020
4541 Clouds 19 996 68 10000 6.2 130 19:31 20.08.2020
4542 Rain 18 996 77 10000 8.2 130 18:21 20.08.2020
4543 Rain 19 997 68 10000 9.8 160 16:47 20.08.2020
4544 Rain 20 996 60 10000 8.2 170 14:56 20.08.2020
4545 Clouds 19 995 68 10000 8.7 180 13:31 20.08.2020
4546 Clouds 18 994 68 10000 7.2 190 11:44 20.08.2020
4547 Clouds 18 993 72 10000 7.7 180 10:50 20.08.2020
4548 Clear 16 993 72 10000 6.2 170 09:37 20.08.2020
4549 Clear 15 993 72 10000 4.6 170 08:40 20.08.2020
4550 Clouds 16 993 67 10000 6.7 160 07:31 20.08.2020
4551 Rain 17 989 93 10000 5.7 70 04:48 20.08.2020
4552 Clouds 17 990 88 10000 7.7 70 02:19 20.08.2020
4553 Rain 17 993 88 9000 7.2 70 00:31 20.08.2020
4554 Rain 18 995 82 10000 7.2 80 21:49 19.08.2020
4555 Clouds 19 996 77 10000 8.7 70 20:21 19.08.2020
4556 Clouds 21 999 73 10000 7.7 70 17:57 19.08.2020
4557 Clouds 21 999 73 10000 6.7 60 17:33 19.08.2020
4558 Clouds 20 1001 77 10000 5.7 50 15:39 19.08.2020
4559 Clouds 19 1002 82 10000 4.6 60 14:39 19.08.2020
4560 Clouds 19 1002 82 10000 4.1 60 13:26 19.08.2020
4561 Clouds 16 1003 93 6000 3.6 60 10:50 19.08.2020
4562 Clouds 16 1003 93 6000 2.6 60 10:26 19.08.2020
4563 Mist 15 1003 100 4500 2.6 50 09:44 19.08.2020
4564 Mist 14 1004 100 3800 2.1 70 06:56 19.08.2020
4565 Clouds 17 1004 88 10000 1 60 22:21 18.08.2020
4566 Clouds 17 1004 88 10000 1 0 21:48 18.08.2020
4567 Rain 18 1004 88 10000 2.1 150 20:59 18.08.2020
4568 Clouds 18 1003 88 10000 1 0 20:41 18.08.2020
4569 Clouds 18 1003 88 10000 1 0 20:23 18.08.2020
4570 Rain 18 1004 82 10000 3.6 90 18:21 18.08.2020
4571 Rain 18 1003 82 10000 4.1 90 17:42 18.08.2020
4572 Rain 19 1003 77 10000 3.1 50 15:59 18.08.2020
4573 Rain 18 1003 82 10000 4.1 40 14:38 18.08.2020
4574 Clouds 18 1004 88 10000 5.1 50 13:22 18.08.2020
4575 Clouds 18 1004 88 10000 4.1 50 12:32 18.08.2020
4576 Clouds 16 1004 87 8000 4.1 60 10:33 18.08.2020
4577 Mist 15 1004 93 4400 3.1 60 08:18 18.08.2020
4578 Mist 15 1004 93 3400 2.6 60 07:40 18.08.2020
4579 Clouds 15 1006 93 10000 3.6 70 01:59 18.08.2020
4580 Clouds 15 1006 93 10000 3.6 80 23:46 17.08.2020
4581 Clouds 15 1006 93 10000 3.6 80 23:22 17.08.2020
4582 Clouds 15 1006 93 10000 3.1 60 21:47 17.08.2020
4583 Clouds 16 1006 87 10000 3.6 70 20:28 17.08.2020
4584 Clouds 16 1006 87 10000 3.6 70 19:30 17.08.2020
4585 Rain 15 1007 100 8000 2.6 70 17:29 17.08.2020
4586 Rain 14 1008 93 10000 2.1 50 15:37 17.08.2020
4587 Rain 14 1008 93 10000 2.1 60 14:56 17.08.2020
4588 Rain 14 1008 93 10000 3.1 60 13:47 17.08.2020
4589 Clouds 14 1009 87 10000 3.1 70 11:58 17.08.2020
4590 Clouds 14 1009 87 10000 2.1 60 11:39 17.08.2020
4591 Clouds 14 1009 87 10000 2.1 60 11:20 17.08.2020
4592 Clouds 14 1009 82 10000 2.6 70 10:19 17.08.2020
4593 Clouds 13 1010 93 10000 4.1 60 06:49 17.08.2020
4594 Clouds 13 1010 93 10000 4.1 60 06:23 17.08.2020
4595 Clouds 14 1013 82 10000 5.7 80 23:33 16.08.2020
4596 Clouds 15 1013 82 10000 5.1 60 22:18 16.08.2020
4597 Clouds 16 1014 77 10000 6.7 50 19:27 16.08.2020
4598 Clouds 16 1014 77 10000 5.81 60 18:37 16.08.2020
4599 Clouds 16 1015 77 10000 7.15 50 17:35 16.08.2020
4600 Clouds 17 1015 72 10000 6.71 60 16:28 16.08.2020
4601 Clouds 17 1015 77 10000 7.15 70 15:22 16.08.2020
4602 Clouds 17 1015 72 10000 7.15 60 14:38 16.08.2020
4603 Clouds 14 1016 87 10000 5.81 60 12:30 16.08.2020
4604 Clouds 14 1016 87 10000 4.92 60 11:52 16.08.2020
4605 Clouds 14 1016 87 10000 4.47 60 11:19 16.08.2020
4606 Clouds 14 1011 82 10000 4.92 70 10:44 16.08.2020
4607 Clouds 14 1016 87 10000 4.1 70 09:31 16.08.2020
4608 Clouds 14 1016 87 7000 4.6 60 07:59 16.08.2020
4609 Clouds 14 1016 87 10000 4.6 60 07:20 16.08.2020
4610 Clouds 15 1018 87 10000 5.1 60 00:21 16.08.2020
4611 Clouds 16 1018 82 10000 5.7 70 22:44 15.08.2020
4612 Clouds 18 1017 77 10000 4.6 70 20:34 15.08.2020
4613 Clouds 19 1017 72 10000 5.1 70 19:20 15.08.2020
4614 Clouds 20 1017 72 10000 4.1 90 18:26 15.08.2020
4615 Clouds 19 1018 72 10000 4.6 80 16:46 15.08.2020
4616 Clouds 17 1018 82 10000 4.6 90 15:19 15.08.2020
4617 Clouds 17 1019 87 10000 4.6 80 14:30 15.08.2020
4618 Clouds 15 1019 87 10000 4.6 90 12:36 15.08.2020
4619 Clouds 15 1019 87 10000 3.6 70 11:42 15.08.2020
4620 Clouds 14 1019 93 10000 4.1 70 11:22 15.08.2020
4621 Clouds 14 1019 93 10000 3.6 70 10:42 15.08.2020
4622 Clouds 14 1019 93 6000 3.6 90 09:48 15.08.2020
4623 Clouds 14 1019 93 6000 3.6 90 09:30 15.08.2020
4624 Clouds 14 1018 93 10000 3.6 70 08:24 15.08.2020
4625 Clouds 15 1019 87 10000 4.6 60 03:32 15.08.2020
4626 Clouds 15 1018 87 10000 5.1 80 23:58 14.08.2020
4627 Clouds 16 1018 87 10000 5.1 80 22:50 14.08.2020
4628 Clouds 19 1017 72 10000 4.1 60 20:41 14.08.2020
4629 Clouds 21 1017 68 10000 4.1 50 19:45 14.08.2020
4630 Clouds 20 1017 77 10000 3.1 50 16:55 14.08.2020
4631 Clouds 18 1018 82 10000 3.6 80 14:53 14.08.2020
4632 Clouds 17 1018 87 10000 3.6 80 14:28 14.08.2020
4633 Clouds 17 1018 87 10000 4.6 60 13:55 14.08.2020
4634 Clouds 15 1018 82 10000 4.1 70 11:34 14.08.2020
4635 Clouds 14 1018 93 10000 3.1 70 09:24 14.08.2020
4636 Clouds 14 1018 93 10000 3.1 70 07:26 14.08.2020
4637 Clouds 15 1019 87 10000 5.1 70 00:52 14.08.2020
4638 Clouds 15 1019 87 10000 6.2 70 00:27 14.08.2020
4639 Clouds 16 1019 87 10000 6.2 70 22:52 13.08.2020
4640 Clouds 17 1018 82 10000 7.2 50 21:52 13.08.2020
4641 Clouds 18 1018 82 10000 6.7 60 21:18 13.08.2020
4642 Clouds 19 1017 77 10000 6.7 60 20:24 13.08.2020
4643 Clouds 21 1018 73 10000 6.2 80 18:30 13.08.2020
4644 Clouds 21 1018 73 10000 7.2 70 17:23 13.08.2020
4645 Clouds 19 1019 77 10000 6.2 80 14:51 13.08.2020
4646 Clouds 19 1018 82 10000 5.7 50 12:56 13.08.2020
4647 Clouds 19 1018 82 10000 5.7 60 12:29 13.08.2020
4648 Clouds 17 1018 88 10000 4.1 60 09:40 13.08.2020
4649 Clouds 16 1018 93 10000 4.6 60 08:25 13.08.2020
4650 Clouds 16 1018 93 6000 3.6 50 07:35 13.08.2020
4651 Clear 18 1016 77 10000 3.1 60 23:37 12.08.2020
4652 Clear 21 1015 82 10000 3.1 60 22:32 12.08.2020
4653 Clear 22 1015 73 10000 3.6 40 21:58 12.08.2020
4654 Clear 23 1016 73 10000 3.6 50 21:27 12.08.2020
4655 Clear 24 1016 69 10000 3.6 50 20:40 12.08.2020
4656 Clouds 24 1016 69 10000 4.6 50 20:21 12.08.2020
4657 Clouds 25 1015 65 10000 4.6 60 19:48 12.08.2020
4658 Clouds 26 1016 61 10000 2.1 50 17:55 12.08.2020
4659 Clouds 25 1016 65 10000 3.6 50 16:35 12.08.2020
4660 Clouds 23 1016 64 10000 4.6 100 14:55 12.08.2020
4661 Clouds 23 1016 69 10000 4.1 100 14:22 12.08.2020
4662 Clouds 21 1016 77 10000 3.6 80 13:22 12.08.2020
4663 Clouds 20 1017 82 10000 4.6 70 12:22 12.08.2020
4664 Clouds 20 1016 82 10000 3.1 60 10:46 12.08.2020
4665 Clouds 17 1015 93 10000 1 40 07:29 12.08.2020
4666 Clouds 18 1017 88 10000 4.6 60 01:25 12.08.2020
4667 Clouds 20 1016 82 10000 4.6 70 22:23 11.08.2020
4668 Clouds 20 1016 82 10000 3.6 80 21:52 11.08.2020
4669 Clouds 21 1016 83 10000 3.6 80 21:21 11.08.2020
4670 Clouds 21 1016 77 10000 4.6 80 20:39 11.08.2020
4671 Clouds 22 1016 73 10000 3.6 60 19:30 11.08.2020
4672 Clouds 23 1017 69 10000 3.1 50 18:34 11.08.2020
4673 Clouds 22 1017 73 10000 3.1 60 16:48 11.08.2020
4674 Clouds 21 1017 77 10000 3.1 90 15:41 11.08.2020
4675 Clouds 19 1018 82 10000 4.1 50 14:51 11.08.2020
4676 Clouds 19 1018 82 10000 3.1 50 14:20 11.08.2020
4677 Clouds 17 1019 88 10000 3.6 60 12:44 11.08.2020
4678 Clouds 16 1019 93 10000 3.6 60 12:26 11.08.2020
4679 Clouds 16 1019 87 10000 5.1 60 10:55 11.08.2020
4680 Clouds 15 1019 93 10000 1 0 09:54 11.08.2020
4681 Rain 14 1018 93 10000 1.5 0 07:39 11.08.2020
4682 Rain 14 1020 93 10000 4.1 80 05:52 11.08.2020
4683 Rain 14 1020 93 10000 2.6 60 03:21 11.08.2020
4684 Rain 15 1020 87 10000 3.6 70 02:51 11.08.2020
4685 Clouds 15 1020 87 10000 4.1 70 02:22 11.08.2020
4686 Clouds 15 1020 87 10000 4.6 80 00:35 11.08.2020
4687 Clouds 15 1020 87 10000 3.6 60 23:42 10.08.2020
4688 Rain 16 1019 77 10000 4.6 120 21:50 10.08.2020
4689 Rain 17 1019 72 10000 3.6 40 20:56 10.08.2020
4690 Rain 18 1020 72 10000 4.1 50 20:29 10.08.2020
4691 Clouds 19 1020 68 10000 4.6 60 19:36 10.08.2020
4692 Clouds 20 1020 72 10000 4.1 50 19:18 10.08.2020
4693 Clouds 19 1019 72 10000 5.1 50 16:46 10.08.2020
4694 Clouds 18 1020 77 10000 5.7 50 15:43 10.08.2020
4695 Clouds 16 1020 82 10000 5.7 60 12:56 10.08.2020
4696 Clouds 15 1020 87 10000 5.7 60 11:32 10.08.2020
4697 Clouds 15 1020 87 10000 5.7 60 10:39 10.08.2020
4698 Clouds 15 1020 82 10000 4.6 60 09:48 10.08.2020
4699 Clouds 14 1020 87 10000 3.6 70 08:36 10.08.2020
4700 Clouds 15 1022 72 10000 6.7 60 22:38 09.08.2020
4701 Clouds 16 1021 72 10000 6.7 60 21:20 09.08.2020
4702 Clouds 19 1021 63 10000 7.2 60 19:45 09.08.2020
4703 Clouds 19 1021 68 10000 7.2 70 19:26 09.08.2020
4704 Clouds 19 1021 63 10000 7.2 60 18:20 09.08.2020
4705 Clouds 20 1022 64 10000 7.2 60 17:39 09.08.2020
4706 Clouds 20 1022 60 10000 6.7 70 17:19 09.08.2020
4707 Clouds 19 1023 63 10000 7.2 60 15:23 09.08.2020
4708 Clouds 19 1023 63 10000 6.7 50 14:33 09.08.2020
4709 Clouds 18 1024 63 10000 7.7 70 13:29 09.08.2020
4710 Clouds 17 1024 67 10000 7.7 60 12:50 09.08.2020
4711 Clouds 15 1025 77 10000 6.2 70 11:29 09.08.2020
4712 Clouds 14 1025 76 10000 7.7 70 10:28 09.08.2020
4713 Clouds 13 1025 82 10000 5.1 70 08:56 09.08.2020
4714 Clouds 11 1026 87 10000 3.1 70 07:58 09.08.2020
4715 Clouds 13 1026 82 10000 4.6 70 01:56 09.08.2020
4716 Clouds 16 1025 67 10000 5.1 50 22:47 08.08.2020
4717 Clouds 22 1024 49 10000 1.5 0 19:21 08.08.2020
4718 Clouds 22 1024 53 10000 1.5 0 18:25 08.08.2020
4719 Clouds 21 1025 56 10000 0.5 0 17:32 08.08.2020
4720 Clouds 20 1025 56 10000 1.5 0 15:52 08.08.2020
4721 Clouds 20 1026 59 10000 2.1 30 14:50 08.08.2020
4722 Clouds 19 1026 59 10000 1.5 0 14:28 08.08.2020
4723 Clouds 18 1026 63 10000 1.5 0 13:34 08.08.2020
4724 Clouds 16 1025 72 10000 1.5 0 11:56 08.08.2020
4725 Clear 13 1025 93 10000 1.5 0 09:51 08.08.2020
4726 Fog 8 1024 93 10000 1 0 07:38 08.08.2020
4727 Clear 11 1021 93 10000 3.1 250 02:53 08.08.2020
4728 Clouds 13 1019 87 10000 2.6 270 23:56 07.08.2020
4729 Clouds 16 1017 87 10000 3.6 250 21:50 07.08.2020
4730 Clouds 16 1017 87 10000 4.1 250 20:59 07.08.2020
4731 Rain 17 1016 93 10000 5.7 240 19:55 07.08.2020
4732 Clouds 22 1015 73 10000 6.2 180 17:43 07.08.2020
4733 Clouds 20 1015 72 10000 6.7 190 15:59 07.08.2020
4734 Rain 19 1016 82 10000 3.6 190 13:55 07.08.2020
4735 Rain 20 1015 77 10000 5.1 180 12:49 07.08.2020
4736 Clouds 19 1015 72 10000 4.6 170 10:55 07.08.2020
4737 Clouds 19 1015 72 10000 3.1 170 09:51 07.08.2020
4738 Clouds 17 1015 82 10000 1.5 110 07:32 07.08.2020
4739 Clouds 16 1015 82 10000 0.5 0 02:31 07.08.2020
4740 Clouds 16 1015 82 10000 1 0 01:39 07.08.2020
4741 Clouds 17 1015 77 10000 3.1 190 00:25 07.08.2020
4742 Clouds 17 1014 88 10000 3.6 230 21:46 06.08.2020
4743 Clouds 18 1014 82 10000 2.6 260 20:43 06.08.2020
4744 Clouds 19 1014 77 10000 4.6 240 19:54 06.08.2020
4745 Clouds 20 1014 77 10000 4.6 240 19:21 06.08.2020
4746 Clouds 21 1014 64 10000 6.2 190 18:29 06.08.2020
4747 Clouds 21 1014 64 10000 6.7 180 17:36 06.08.2020
4748 Clouds 21 1014 68 10000 3.6 230 16:50 06.08.2020
4749 Clouds 21 1014 68 10000 2.6 140 15:30 06.08.2020
4750 Clouds 21 1014 68 10000 2.1 150 14:43 06.08.2020
4751 Clouds 19 1014 72 10000 2.1 0 13:29 06.08.2020
4752 Clouds 18 1014 72 10000 2.1 130 12:22 06.08.2020
4753 Clouds 17 1014 77 10000 1.5 0 11:32 06.08.2020
4754 Clouds 15 1014 87 10000 0.5 0 09:33 06.08.2020
4755 Clouds 13 1014 93 10000 1 0 08:53 06.08.2020
4756 Clouds 13 1014 93 10000 1 0 08:33 06.08.2020
4757 Clouds 13 1010 100 10000 2.1 260 02:34 06.08.2020
4758 Clouds 13 1010 93 10000 3.1 240 01:52 06.08.2020
4759 Clouds 15 1008 93 10000 2.6 280 23:21 05.08.2020
4760 Clouds 15 1007 100 10000 2.6 270 22:53 05.08.2020
4761 Clouds 16 1007 93 10000 4.6 260 22:18 05.08.2020
4762 Clouds 16 1005 93 7000 4.1 250 20:47 05.08.2020
4763 Haze 16 1004 93 5000 5.7 200 20:24 05.08.2020
4764 Drizzle 16 1004 100 2600 1.5 10 19:33 05.08.2020
4765 Drizzle 16 1004 93 4400 1 60 17:48 05.08.2020
4766 Rain 16 1003 93 8000 1 0 16:48 05.08.2020
4767 Rain 17 1003 82 10000 2.6 240 15:45 05.08.2020
4768 Rain 17 1003 88 10000 3.6 210 15:22 05.08.2020
4769 Rain 17 1003 82 10000 4.1 230 14:41 05.08.2020
4770 Clouds 18 1002 77 10000 4.6 230 13:34 05.08.2020
4771 Clouds 17 1002 82 10000 4.1 230 12:27 05.08.2020
4772 Clouds 16 1002 87 10000 5.7 210 11:26 05.08.2020
4773 Clouds 16 1002 87 10000 4.6 210 10:45 05.08.2020
4774 Clouds 16 1002 93 10000 4.1 220 10:20 05.08.2020
4775 Clouds 16 1002 93 10000 4.1 220 10:20 05.08.2020
4776 Clouds 16 1002 93 10000 4.1 220 10:20 05.08.2020
4777 Clouds 15 1001 87 10000 3.6 220 08:38 05.08.2020
4778 Clouds 14 1001 93 10000 2.6 260 07:40 05.08.2020
4779 Clouds 14 1000 87 10000 4.6 240 04:36 05.08.2020
4780 Rain 16 999 87 10000 6.2 250 01:22 05.08.2020
4781 Clouds 17 998 93 10000 10.8 210 23:54 04.08.2020
4782 Clouds 17 998 93 10000 8.2 220 23:31 04.08.2020
4783 Rain 17 998 93 10000 8.2 230 22:47 04.08.2020
4784 Rain 17 998 93 10000 8.2 230 22:47 04.08.2020
4785 Drizzle 17 998 100 3800 9.3 230 22:27 04.08.2020
4786 Drizzle 17 999 93 4200 9.3 220 20:56 04.08.2020
4787 Rain 17 998 93 4900 9.3 200 19:34 04.08.2020
4788 Rain 17 999 88 6000 10.8 200 18:33 04.08.2020
4789 Rain 17 1000 88 5000 10.8 200 17:31 04.08.2020
4790 Rain 17 1000 88 6000 9.8 200 16:35 04.08.2020
4791 Rain 16 1001 93 8000 9.3 200 15:43 04.08.2020
4792 Rain 16 1001 87 6000 8.7 190 15:19 04.08.2020
4793 Rain 14 1003 87 7000 7.2 180 13:47 04.08.2020
4794 Rain 13 1006 93 10000 3.6 180 11:36 04.08.2020
4795 Rain 12 1007 93 10000 3.1 120 10:57 04.08.2020
4796 Rain 12 1007 93 10000 3.1 120 10:35 04.08.2020
4797 Rain 12 1008 93 10000 4.1 150 09:56 04.08.2020
4798 Rain 12 1011 87 10000 3.1 160 07:32 04.08.2020
4799 Rain 12 1011 87 10000 2.1 150 06:54 04.08.2020
4800 Clouds 12 1015 81 10000 1.5 240 23:23 03.08.2020
4801 Clouds 13 1015 76 10000 2.6 250 22:26 03.08.2020
4802 Clouds 14 1015 71 10000 4.1 250 21:28 03.08.2020
4803 Clouds 15 1015 67 10000 5.7 250 20:59 03.08.2020
4804 Clouds 15 1015 62 10000 5.7 250 20:22 03.08.2020
4805 Clouds 15 1015 62 10000 6.2 280 19:41 03.08.2020
4806 Clouds 16 1015 63 10000 5.7 260 18:34 03.08.2020
4807 Clouds 16 1015 63 10000 5.1 240 17:57 03.08.2020
4808 Clouds 15 1016 58 10000 5.7 260 16:43 03.08.2020
4809 Clouds 16 1015 59 10000 6.2 250 15:47 03.08.2020
4810 Clouds 16 1015 59 10000 5.7 270 14:29 03.08.2020
4811 Clouds 16 1015 63 10000 3.6 260 13:36 03.08.2020
4812 Clouds 15 1015 67 10000 5.7 260 12:39 03.08.2020
4813 Rain 14 1015 71 10000 4.6 260 11:34 03.08.2020
4814 Clouds 13 1015 82 10000 1.5 0 10:20 03.08.2020
4815 Clouds 12 1015 81 10000 1.5 230 09:26 03.08.2020
4816 Clouds 9 1015 93 10000 1.5 280 02:55 03.08.2020
4817 Clouds 9 1015 87 10000 3.6 230 02:23 03.08.2020
4818 Clear 10 1015 87 10000 1 0 00:55 03.08.2020
4819 Clear 10 1015 87 10000 1 0 00:33 03.08.2020
4820 Clouds 13 1014 66 10000 3.6 270 21:44 02.08.2020
4821 Clear 14 1014 67 10000 3.6 270 21:20 02.08.2020
4822 Clear 15 1014 58 10000 5.1 270 20:36 02.08.2020
4823 Clouds 14 1014 62 10000 5.7 250 19:55 02.08.2020
4824 Clouds 16 1014 67 10000 4.6 300 19:23 02.08.2020
4825 Rain 15 1013 67 10000 4.6 250 18:45 02.08.2020
4826 Rain 15 1014 82 10000 5.7 240 17:32 02.08.2020
4827 Rain 15 1014 72 10000 4.6 290 15:50 02.08.2020
4828 Clouds 17 1013 59 10000 6.7 250 14:56 02.08.2020
4829 Clouds 16 1013 59 10000 6.7 250 14:33 02.08.2020
4830 Clouds 16 1013 63 10000 5.1 250 13:50 02.08.2020
4831 Clouds 15 1013 71 10000 4.1 300 12:54 02.08.2020
4832 Rain 15 1013 72 10000 4.6 250 12:27 02.08.2020
4833 Clouds 15 1013 77 10000 5.7 240 11:23 02.08.2020
4834 Clouds 14 1013 82 10000 5.1 260 10:36 02.08.2020
4835 Clouds 14 1013 87 10000 3.1 250 09:44 02.08.2020
4836 Rain 12 1012 93 10000 1 200 08:47 02.08.2020
4837 Clouds 12 1012 93 10000 1.5 250 08:20 02.08.2020
4838 Rain 12 1012 93 10000 1 270 04:53 02.08.2020
4839 Clouds 12 1013 93 10000 3.1 240 02:48 02.08.2020
4840 Rain 13 1013 87 10000 3.1 240 00:28 02.08.2020
4841 Clouds 14 1013 76 10000 3.6 240 22:54 01.08.2020
4842 Clouds 15 1013 72 10000 2.6 250 21:31 01.08.2020
4843 Clouds 16 1013 63 10000 5.7 240 20:25 01.08.2020
4844 Clouds 17 1013 63 10000 4.1 260 19:28 01.08.2020
4845 Clouds 16 1013 63 10000 4.6 260 18:41 01.08.2020
4846 Clouds 16 1013 72 10000 2.6 300 17:48 01.08.2020
4847 Clouds 16 1013 63 10000 5.1 270 16:38 01.08.2020
4848 Clouds 16 1013 67 10000 6.2 260 15:53 01.08.2020
4849 Clouds 17 1013 67 10000 5.1 250 15:23 01.08.2020
4850 Clouds 17 1013 67 10000 5.7 230 14:44 01.08.2020
4851 Clouds 16 1012 67 10000 4.6 250 13:21 01.08.2020
4852 Clouds 15 1012 77 10000 4.1 250 11:45 01.08.2020
4853 Clouds 15 1012 77 10000 4.1 260 10:56 01.08.2020
4854 Rain 13 1010 87 10000 1.5 0 07:27 01.08.2020
4855 Clouds 15 1008 100 8000 3.1 240 03:19 01.08.2020
4856 Clouds 16 1008 100 6000 2.1 240 01:53 01.08.2020
4857 Clouds 16 1008 100 6000 2.1 240 01:32 01.08.2020
4858 Clouds 17 1007 93 10000 1.5 210 23:36 31.07.2020
4859 Rain 18 1007 93 6000 1.5 240 21:59 31.07.2020
4860 Rain 19 1006 82 10000 3.1 250 20:44 31.07.2020
4861 Thunderstorm 19 1007 77 5000 4.6 190 20:24 31.07.2020
4862 Rain 20 1006 77 10000 5.1 240 19:49 31.07.2020
4863 Clouds 26 1006 47 10000 5.1 180 17:55 31.07.2020
4864 Clouds 25 1006 44 10000 6.7 180 16:43 31.07.2020
4865 Clouds 25 1006 57 10000 2.1 80 15:51 31.07.2020
4866 Clear 24 1007 69 10000 3.6 20 14:43 31.07.2020
4867 Clear 23 1006 68 10000 3.6 60 13:41 31.07.2020
4868 Clear 21 1007 68 10000 5.7 60 12:40 31.07.2020
4869 Clouds 18 1009 88 10000 1.5 240 11:39 31.07.2020
4870 Clear 17 1009 93 10000 0.5 0 11:19 31.07.2020
4871 Clear 15 1009 87 10000 0.5 0 10:25 31.07.2020
4872 Clear 15 1010 93 10000 1 0 09:36 31.07.2020
4873 Clouds 14 1010 93 9000 0.5 0 08:53 31.07.2020
4874 Clouds 12 1010 100 7000 3.6 90 07:35 31.07.2020
4875 Clouds 13 1011 93 10000 3.1 90 04:39 31.07.2020
4876 Clouds 13 1013 93 10000 2.1 60 02:24 31.07.2020
4877 Clouds 14 1013 93 10000 3.1 60 00:53 31.07.2020
4878 Clouds 14 1013 93 10000 3.1 60 00:25 31.07.2020
4879 Clouds 15 1014 93 10000 3.1 60 22:53 30.07.2020
4880 Clouds 16 1013 87 10000 4.1 60 22:30 30.07.2020
4881 Rain 16 1013 93 10000 2.6 70 21:19 30.07.2020
4882 Rain 16 1014 93 10000 2.6 80 20:56 30.07.2020
4883 Rain 16 1014 87 10000 2.1 90 19:54 30.07.2020
4884 Rain 16 1014 93 10000 2.1 160 18:59 30.07.2020
4885 Rain 16 1014 93 8000 1.5 0 17:55 30.07.2020
4886 Drizzle 15 1014 100 4300 2.6 50 16:58 30.07.2020
4887 Drizzle 15 1014 100 4300 2.6 50 16:36 30.07.2020
4888 Drizzle 15 1014 93 2400 3.6 60 15:58 30.07.2020
4889 Drizzle 15 1014 93 2400 3.6 60 15:38 30.07.2020
4890 Rain 14 1014 93 2300 1 0 14:57 30.07.2020
4891 Drizzle 14 1014 93 5000 5.1 70 14:38 30.07.2020
4892 Drizzle 14 1014 93 5000 5.1 70 14:20 30.07.2020
4893 Drizzle 13 1014 100 2600 4.6 60 13:39 30.07.2020
4894 Drizzle 13 1015 100 1800 4.6 60 13:19 30.07.2020
4895 Drizzle 12 1015 100 1700 5.7 70 12:38 30.07.2020
4896 Drizzle 12 1015 93 2700 6.2 70 11:29 30.07.2020
4897 Rain 12 1015 93 10000 5.7 70 10:26 30.07.2020
4898 Rain 11 1016 93 10000 4.6 70 09:23 30.07.2020
4899 Drizzle 11 1016 100 5000 4.6 60 08:59 30.07.2020
4900 Drizzle 11 1016 100 5000 4.6 60 08:38 30.07.2020
4901 Rain 11 1016 93 10000 2.6 40 05:23 30.07.2020
4902 Clouds 10 1017 87 10000 1 100 01:52 30.07.2020
4903 Clouds 11 1017 81 10000 0.5 270 00:21 30.07.2020
4904 Clouds 12 1018 76 10000 4.1 220 22:57 29.07.2020
4905 Clouds 13 1017 66 10000 4.1 210 22:21 29.07.2020
4906 Clouds 13 1017 71 10000 3.6 220 21:46 29.07.2020
4907 Clouds 15 1017 58 10000 4.1 240 20:53 29.07.2020
4908 Clouds 15 1017 58 10000 4.6 250 20:34 29.07.2020
4909 Clouds 15 1017 58 10000 4.6 240 19:51 29.07.2020
4910 Clouds 16 1017 55 10000 4.6 240 19:26 29.07.2020
4911 Clouds 16 1017 55 10000 3.6 270 18:55 29.07.2020
4912 Clouds 16 1017 55 10000 4.6 260 18:31 29.07.2020
4913 Clouds 16 1017 58 10000 6.2 240 17:54 29.07.2020
4914 Clouds 16 1017 51 10000 5.7 270 16:51 29.07.2020
4915 Clouds 16 1017 55 10000 6.2 240 16:22 29.07.2020
4916 Clouds 16 1017 55 10000 5.1 260 15:42 29.07.2020
4917 Clouds 15 1017 58 10000 6.2 260 15:19 29.07.2020
4918 Clouds 16 1017 63 10000 5.7 260 14:22 29.07.2020
4919 Clouds 14 1017 67 10000 7.2 260 13:45 29.07.2020
4920 Clouds 14 1017 67 10000 6.2 260 13:18 29.07.2020
4921 Clouds 14 1017 67 10000 5.1 270 12:23 29.07.2020
4922 Clouds 14 1017 67 10000 5.7 270 11:46 29.07.2020
4923 Clouds 13 1016 71 10000 5.1 270 11:20 29.07.2020
4924 Clouds 13 1016 71 10000 5.1 250 10:35 29.07.2020
4925 Clouds 13 1016 71 10000 5.7 230 09:35 29.07.2020
4926 Clouds 12 1015 76 10000 5.7 230 08:24 29.07.2020
4927 Clouds 11 1015 81 10000 3.6 250 07:30 29.07.2020
4928 Clouds 11 1015 76 10000 4.6 260 05:46 29.07.2020
4929 Clouds 10 1014 87 10000 4.1 250 02:27 29.07.2020
4930 Clouds 12 1014 76 10000 6.2 260 00:36 29.07.2020
4931 Clouds 12 1013 76 10000 5.7 260 22:44 28.07.2020
4932 Clouds 13 1013 71 10000 5.1 250 22:19 28.07.2020
4933 Clouds 14 1013 67 10000 5.7 270 21:35 28.07.2020
4934 Clouds 14 1013 67 10000 6.2 290 20:57 28.07.2020
4935 Clouds 14 1013 67 10000 6.2 290 20:38 28.07.2020
4936 Clouds 15 1012 62 10000 8.2 270 19:57 28.07.2020
4937 Clouds 15 1012 62 10000 7.2 280 19:25 28.07.2020
4938 Clouds 16 1012 59 10000 9.3 280 18:59 28.07.2020
4939 Clouds 15 1011 67 10000 8.7 280 18:36 28.07.2020
4940 Clouds 16 1011 63 10000 9.3 280 17:52 28.07.2020
4941 Clouds 15 1011 72 10000 7.7 280 17:20 28.07.2020
4942 Clouds 15 1010 67 10000 8.2 280 16:26 28.07.2020
4943 Clouds 15 1010 67 10000 8.2 280 16:26 28.07.2020
4944 Clouds 15 1009 62 10000 7.7 280 15:29 28.07.2020
4945 Clouds 15 1009 62 10000 7.7 280 14:50 28.07.2020
4946 Clouds 15 1009 62 10000 7.7 280 14:31 28.07.2020
4947 Clouds 15 1008 67 10000 8.2 270 13:40 28.07.2020
4948 Clouds 14 1008 67 10000 7.2 280 12:42 28.07.2020
4949 Clouds 13 1007 71 10000 7.7 270 12:21 28.07.2020
4950 Clouds 14 1007 67 10000 6.7 280 11:54 28.07.2020
4951 Clouds 13 1006 71 10000 7.2 280 10:55 28.07.2020
4952 Clouds 13 1006 71 10000 6.7 280 10:24 28.07.2020
4953 Clouds 12 1006 76 10000 4.6 250 09:58 28.07.2020
4954 Clouds 12 1005 76 10000 4.6 240 09:31 28.07.2020
4955 Clouds 11 1005 76 10000 5.7 270 08:58 28.07.2020
4956 Clouds 11 1005 76 10000 5.7 240 08:37 28.07.2020
4957 Clouds 11 1004 76 10000 5.1 260 07:50 28.07.2020
4958 Clouds 11 1004 81 10000 6.2 270 06:42 28.07.2020
4959 Clouds 12 1002 81 10000 5.7 270 02:20 28.07.2020
4960 Clouds 12 1002 81 10000 5.7 270 02:20 28.07.2020
4961 Clouds 12 1002 81 10000 5.7 270 02:20 28.07.2020
4962 Clouds 12 1001 81 10000 4.6 250 01:50 28.07.2020
4963 Clouds 12 1001 87 10000 4.1 240 00:48 28.07.2020
4964 Rain 12 1000 87 10000 5.1 250 23:44 27.07.2020
4965 Clouds 12 1000 81 10000 4.6 260 23:24 27.07.2020
4966 Clouds 12 999 81 10000 5.1 270 22:23 27.07.2020
4967 Clouds 12 999 81 10000 6.7 260 21:50 27.07.2020
4968 Clouds 12 999 81 10000 6.7 260 21:32 27.07.2020
4969 Clouds 13 998 71 10000 7.2 270 20:48 27.07.2020
4970 Clouds 13 998 76 10000 6.7 270 20:22 27.07.2020
4971 Clouds 13 997 76 10000 7.2 280 19:51 27.07.2020
4972 Clouds 13 997 82 10000 7.7 280 19:32 27.07.2020
4973 Rain 13 995 87 10000 8.2 270 18:40 27.07.2020
4974 Rain 14 995 87 10000 7.7 280 17:47 27.07.2020
4975 Rain 15 994 87 8000 5.1 280 17:27 27.07.2020
4976 Drizzle 14 994 100 3800 4.6 310 16:39 27.07.2020
4977 Rain 14 993 100 10000 6.2 300 16:39 27.07.2020
4978 Rain 14 993 100 10000 6.2 300 16:18 27.07.2020
4979 Rain 14 993 93 4400 4.6 310 15:46 27.07.2020
4980 Rain 15 993 93 4100 3.6 330 15:28 27.07.2020
4981 Rain 15 993 93 6000 4.6 30 14:43 27.07.2020
4982 Rain 14 994 100 5000 4.1 30 14:23 27.07.2020
4983 Rain 14 995 100 9000 4.6 40 13:31 27.07.2020
4984 Rain 14 995 93 5000 3.6 40 12:55 27.07.2020
4985 Rain 13 996 93 4800 3.1 40 12:36 27.07.2020
4986 Rain 13 997 93 5000 3.1 80 11:58 27.07.2020
4987 Rain 13 997 93 7000 2.6 90 11:22 27.07.2020
4988 Rain 13 998 93 5000 3.6 70 10:41 27.07.2020
4989 Drizzle 12 998 93 3400 4.6 60 09:43 27.07.2020
4990 Rain 12 999 93 7000 4.1 50 09:21 27.07.2020
4991 Rain 12 1000 93 6000 3.6 50 08:59 27.07.2020
4992 Rain 12 1000 93 6000 3.6 50 08:40 27.07.2020
4993 Rain 11 1001 100 5000 2.6 60 07:49 27.07.2020
4994 Rain 11 1002 93 8000 2.1 40 06:46 27.07.2020
4995 Rain 11 1002 93 10000 2.1 50 06:24 27.07.2020
4996 Clouds 12 1004 87 10000 0.5 250 02:19 27.07.2020
4997 Clouds 11 1004 81 10000 1.5 250 00:41 27.07.2020
4998 Clouds 12 1004 81 10000 1.5 290 23:34 26.07.2020
4999 Clouds 13 1005 71 10000 3.1 270 22:57 26.07.2020
5000 Clouds 13 1005 71 10000 3.1 270 22:36 26.07.2020
5001 Clouds 15 1004 67 10000 3.1 260 21:55 26.07.2020
5002 Clear 15 1004 67 10000 3.1 260 21:37 26.07.2020
5003 Clear 16 1004 63 10000 4.1 240 21:18 26.07.2020
5004 Clouds 16 1004 63 10000 4.6 240 20:48 26.07.2020
5005 Clouds 16 1004 67 10000 4.6 230 20:20 26.07.2020
5006 Clouds 16 1004 63 10000 5.7 240 19:44 26.07.2020
5007 Clouds 16 1004 59 10000 6.2 250 19:21 26.07.2020
5008 Clouds 17 1004 51 10000 6.2 260 18:45 26.07.2020
5009 Clouds 18 1004 55 10000 5.7 240 18:26 26.07.2020
5010 Clouds 18 1004 51 10000 6.7 240 17:49 26.07.2020
5011 Clouds 18 1004 51 10000 7.7 250 17:24 26.07.2020
5012 Clouds 17 1004 55 10000 7.2 250 16:52 26.07.2020
5013 Rain 17 1004 55 10000 7.2 250 16:26 26.07.2020
5014 Rain 17 1004 55 10000 8.2 240 15:42 26.07.2020
5015 Clouds 16 1004 59 10000 7.7 250 15:24 26.07.2020
5016 Clouds 16 1003 59 10000 8.7 240 14:57 26.07.2020
5017 Clouds 16 1003 63 10000 8.7 240 14:33 26.07.2020
5018 Clouds 15 1003 72 10000 5.7 270 13:50 26.07.2020
5019 Rain 15 1003 87 10000 4.6 220 13:18 26.07.2020
5020 Rain 14 1003 87 6000 6.2 220 12:39 26.07.2020
5021 Drizzle 13 1002 87 4300 7.7 220 12:20 26.07.2020
5022 Rain 14 1002 82 10000 9.3 210 11:41 26.07.2020
5023 Clouds 15 1002 82 10000 8.7 210 11:22 26.07.2020
5024 Clouds 14 1002 87 10000 9.3 220 10:42 26.07.2020
5025 Clouds 14 1002 82 10000 5.7 230 09:58 26.07.2020
5026 Clouds 14 1002 82 10000 5.7 230 09:38 26.07.2020
5027 Clouds 13 1001 93 10000 5.1 210 08:56 26.07.2020
5028 Clouds 13 1001 87 10000 2.6 240 07:57 26.07.2020
5029 Clouds 13 1001 93 10000 3.1 220 06:29 26.07.2020
5030 Clouds 12 1001 93 10000 2.1 230 03:51 26.07.2020
5031 Rain 14 1001 93 10000 2.1 250 01:19 26.07.2020
5032 Clouds 15 1001 87 10000 1 280 00:18 26.07.2020
5033 Clouds 14 1001 87 10000 1.5 290 23:30 25.07.2020
5034 Rain 15 1001 87 10000 2.1 270 22:40 25.07.2020
5035 Clouds 15 1001 87 10000 3.1 230 21:59 25.07.2020
5036 Clouds 15 1001 82 10000 4.6 210 21:21 25.07.2020
5037 Clouds 15 1001 82 10000 4.1 220 20:43 25.07.2020
5038 Clouds 16 1001 82 10000 4.6 220 20:21 25.07.2020
5039 Clouds 17 1001 82 10000 4.1 230 19:37 25.07.2020
5040 Rain 17 1001 82 10000 3.6 230 19:19 25.07.2020
5041 Clouds 17 1001 77 10000 4.1 240 18:36 25.07.2020
5042 Clouds 17 1001 77 10000 5.1 260 17:59 25.07.2020
5043 Clouds 17 1001 77 10000 5.1 260 17:40 25.07.2020
5044 Clouds 17 1001 72 10000 5.7 260 17:21 25.07.2020
5045 Clouds 18 1001 67 10000 6.2 250 16:51 25.07.2020
5046 Clouds 17 1001 72 10000 5.7 250 16:28 25.07.2020
5047 Clouds 17 1001 77 10000 7.2 240 15:47 25.07.2020
5048 Haze 17 1001 82 4600 6.7 260 15:21 25.07.2020
5049 Clouds 16 1001 77 10000 7.2 250 14:46 25.07.2020
5050 Clouds 16 1001 82 10000 6.2 250 14:28 25.07.2020
5051 Clouds 16 1001 77 10000 4.6 260 13:42 25.07.2020
5052 Clouds 16 1001 77 10000 6.2 280 13:22 25.07.2020
5053 Clouds 16 1001 82 10000 7.2 260 12:56 25.07.2020
5054 Clouds 16 1001 82 10000 6.2 250 12:22 25.07.2020
5055 Clouds 15 1000 87 10000 4.1 250 11:44 25.07.2020
5056 Clouds 15 1000 93 10000 4.1 260 11:23 25.07.2020
5057 Rain 15 999 93 10000 4.6 250 10:45 25.07.2020
5058 Rain 15 999 87 10000 4.1 240 10:25 25.07.2020
5059 Rain 15 999 93 10000 2.1 230 09:52 25.07.2020
5060 Rain 15 999 93 10000 2.1 230 09:27 25.07.2020
5061 Rain 15 999 93 10000 2.1 260 08:59 25.07.2020
5062 Rain 15 998 100 9000 2.6 220 08:25 25.07.2020
5063 Rain 15 998 100 10000 2.6 250 07:54 25.07.2020
5064 Rain 15 998 100 10000 2.6 250 07:34 25.07.2020
5065 Rain 15 999 100 4800 2.6 230 06:37 25.07.2020
5066 Drizzle 14 1001 100 2900 2.6 60 03:23 25.07.2020
5067 Drizzle 14 1001 93 2700 2.1 60 02:34 25.07.2020
5068 Drizzle 14 1002 93 2800 2.1 60 01:38 25.07.2020
5069 Drizzle 13 1002 100 2900 3.6 60 01:18 25.07.2020
5070 Rain 14 1003 100 3900 4.6 70 00:45 25.07.2020
5071 Rain 13 1003 93 3800 4.1 70 00:22 25.07.2020
5072 Rain 14 1004 87 4300 4.1 80 23:49 24.07.2020
5073 Rain 14 1004 87 4300 4.1 80 23:30 24.07.2020
5074 Rain 14 1005 87 10000 4.1 90 22:57 24.07.2020
5075 Rain 14 1005 87 10000 4.1 90 22:39 24.07.2020
5076 Rain 15 1005 82 10000 3.1 100 22:20 24.07.2020
5077 Rain 15 1006 82 10000 3.1 130 21:43 24.07.2020
5078 Rain 16 1006 72 10000 2.6 150 21:24 24.07.2020
5079 Clouds 16 1006 72 10000 3.6 140 20:43 24.07.2020
5080 Clouds 16 1007 77 10000 2.6 170 20:23 24.07.2020
5081 Clouds 16 1007 82 10000 3.1 230 19:44 24.07.2020
5082 Clouds 16 1007 77 10000 2.6 230 19:24 24.07.2020
5083 Clouds 17 1008 77 10000 2.6 260 18:34 24.07.2020
5084 Clouds 17 1008 77 10000 3.1 240 17:54 24.07.2020
5085 Clouds 17 1009 77 10000 2.6 240 17:20 24.07.2020
5086 Clouds 17 1009 77 10000 3.1 220 16:52 24.07.2020
5087 Clouds 16 1010 72 10000 3.1 210 16:28 24.07.2020
5088 Clouds 16 1010 72 10000 3.1 200 15:51 24.07.2020
5089 Clouds 16 1010 77 10000 3.1 190 15:32 24.07.2020
5090 Clouds 16 1010 77 10000 3.1 190 14:47 24.07.2020
5091 Clouds 15 1010 77 10000 3.6 200 14:29 24.07.2020
5092 Clouds 15 1010 77 10000 4.1 210 13:52 24.07.2020
5093 Clouds 15 1010 77 10000 4.6 220 13:22 24.07.2020
5094 Clouds 15 1011 72 10000 3.6 200 12:52 24.07.2020
5095 Clouds 15 1010 72 10000 3.1 170 12:28 24.07.2020
5096 Clouds 15 1010 77 10000 3.6 190 11:57 24.07.2020
5097 Clouds 15 1011 77 10000 1 0 11:22 24.07.2020
5098 Clouds 15 1011 82 10000 1 0 10:49 24.07.2020
5099 Clouds 15 1011 82 10000 1 0 10:20 24.07.2020
5100 Clouds 14 1011 82 10000 1 0 09:57 24.07.2020
5101 Clouds 14 1011 82 10000 1 0 09:39 24.07.2020
5102 Clouds 13 1011 87 10000 2.1 200 09:19 24.07.2020
5103 Clouds 12 1011 93 10000 2.6 220 08:46 24.07.2020
5104 Clouds 11 1011 93 10000 2.1 260 08:27 24.07.2020
5105 Clouds 10 1010 93 10000 1 270 07:40 24.07.2020
5106 Clouds 9 1010 100 10000 2.1 250 07:21 24.07.2020
5107 Clouds 10 1010 93 10000 2.6 240 06:36 24.07.2020
5108 Clouds 10 1010 93 10000 2.1 260 05:54 24.07.2020
5109 Clouds 10 1011 93 10000 2.6 220 05:30 24.07.2020
5110 Clouds 11 1011 93 10000 2.1 210 03:32 24.07.2020
5111 Clouds 12 1011 93 10000 4.1 230 01:34 24.07.2020
5112 Clouds 12 1010 93 10000 2.6 220 00:29 24.07.2020
5113 Clouds 14 1010 87 10000 3.1 250 23:48 23.07.2020
5114 Clouds 13 1010 93 10000 3.1 230 23:28 23.07.2020
5115 Clouds 14 1010 82 10000 2.6 260 22:59 23.07.2020
5116 Clouds 15 1010 82 10000 2.6 260 22:40 23.07.2020
5117 Clouds 15 1010 82 10000 4.1 250 22:20 23.07.2020
5118 Clouds 16 1010 77 10000 4.6 260 21:40 23.07.2020
5119 Clouds 17 1010 72 10000 4.6 260 21:21 23.07.2020
5120 Clouds 17 1010 77 10000 4.6 260 20:59 23.07.2020
5121 Clouds 17 1010 77 10000 4.6 260 20:40 23.07.2020
5122 Clouds 17 1010 72 10000 4.6 270 20:19 23.07.2020
5123 Clouds 17 1010 77 10000 5.1 270 19:58 23.07.2020
5124 Clouds 17 1010 77 10000 5.1 270 19:37 23.07.2020
5125 Clouds 17 1010 77 10000 5.1 270 19:37 23.07.2020
5126 Clouds 18 1010 77 10000 5.7 260 19:18 23.07.2020
5127 Clouds 17 1010 77 10000 6.2 260 18:41 23.07.2020
5128 Clouds 18 1010 77 10000 4.6 280 18:20 23.07.2020
5129 Clouds 18 1010 77 10000 4.6 260 17:43 23.07.2020
5130 Clouds 17 1010 82 10000 4.6 260 17:24 23.07.2020
5131 Clouds 17 1010 77 10000 5.1 260 16:48 23.07.2020
5132 Clouds 17 1010 77 10000 5.1 250 16:25 23.07.2020
5133 Clouds 17 1010 77 10000 5.1 270 15:54 23.07.2020
5134 Clouds 18 1010 72 10000 4.6 260 15:25 23.07.2020
5135 Clouds 18 1010 82 10000 4.1 270 14:57 23.07.2020
5136 Clouds 17 1010 82 10000 4.1 270 14:36 23.07.2020
5137 Clouds 17 1010 82 10000 3.1 270 14:18 23.07.2020
5138 Clouds 17 1010 82 10000 3.6 260 13:47 23.07.2020
5139 Clouds 17 1010 93 10000 2.6 300 13:27 23.07.2020
5140 Rain 16 1010 93 10000 3.1 310 12:57 23.07.2020
5141 Rain 16 1010 93 10000 3.1 310 12:37 23.07.2020
5142 Rain 16 1010 93 9000 2.6 290 12:18 23.07.2020
5143 Rain 16 1010 93 10000 3.6 240 11:38 23.07.2020
5144 Rain 16 1010 93 10000 3.6 230 11:20 23.07.2020
5145 Rain 15 1010 100 10000 3.1 240 10:44 23.07.2020
5146 Rain 15 1010 93 10000 3.1 240 10:24 23.07.2020
5147 Rain 15 1010 93 10000 2.6 240 09:55 23.07.2020
5148 Rain 15 1010 93 10000 2.6 240 09:36 23.07.2020
5149 Rain 15 1010 93 10000 1.5 0 09:18 23.07.2020
5150 Drizzle 14 1011 100 4500 1.51 230 08:41 23.07.2020
5151 Drizzle 14 1011 100 4500 1.19 212 08:21 23.07.2020
5152 Rain 14 1011 100 7000 0.5 0 07:39 23.07.2020
5153 Rain 14 1011 100 3700 1.13 201 07:18 23.07.2020
5154 Rain 14 1011 100 7000 1 0 06:34 23.07.2020
5155 Drizzle 14 1012 93 2200 1 60 05:46 23.07.2020
5156 Rain 14 1013 93 1700 1.5 30 04:58 23.07.2020
5157 Drizzle 14 1013 93 1700 1.5 30 04:33 23.07.2020
5158 Clouds 14 1014 93 10000 1.5 220 03:20 23.07.2020
5159 Clouds 15 1015 87 10000 3.6 220 00:37 23.07.2020
5160 Clouds 15 1015 87 10000 3.6 230 23:59 22.07.2020
5161 Clouds 15 1015 87 10000 3.6 230 23:40 22.07.2020
5162 Clouds 15 1015 87 10000 3.6 240 23:21 22.07.2020
5163 Clouds 15 1015 87 10000 2.6 240 22:41 22.07.2020
5164 Clouds 15 1015 87 10000 2.6 240 22:23 22.07.2020
5165 Clouds 15 1015 87 10000 3.1 240 21:56 22.07.2020
5166 Clouds 15 1015 87 10000 3.1 240 21:56 22.07.2020
5167 Clouds 15 1015 87 10000 3.1 240 21:56 22.07.2020
5168 Clouds 15 1015 87 10000 3.1 240 21:38 22.07.2020
5169 Clouds 15 1015 87 10000 3.6 230 21:18 22.07.2020
5170 Clouds 15 1015 93 10000 3.6 220 20:56 22.07.2020
5171 Clouds 15 1015 93 10000 3.6 220 20:37 22.07.2020
5172 Clouds 15 1015 93 10000 3.1 220 20:19 22.07.2020
5173 Haze 15 1016 93 4100 4.6 230 19:45 22.07.2020
5174 Clouds 16 1016 87 10000 3.6 220 19:27 22.07.2020
5175 Clouds 16 1016 87 10000 4.1 220 18:55 22.07.2020
5176 Clouds 15 1016 93 10000 5.1 210 18:32 22.07.2020
5177 Clouds 15 1016 93 10000 5.7 210 17:56 22.07.2020
5178 Clouds 15 1016 93 10000 5.7 210 17:38 22.07.2020
5179 Clouds 15 1017 93 10000 4.6 210 17:19 22.07.2020
5180 Clouds 15 1017 87 10000 5.1 220 16:54 22.07.2020
5181 Clouds 15 1017 87 10000 5.1 220 16:36 22.07.2020
5182 Rain 15 1017 87 9000 5.7 210 16:18 22.07.2020
5183 Rain 14 1017 93 9000 4.6 210 15:42 22.07.2020
5184 Rain 14 1017 93 6000 4.6 200 15:42 22.07.2020
5185 Rain 14 1017 93 9000 4.6 210 15:22 22.07.2020
5186 Rain 14 1017 93 10000 3.6 210 14:48 22.07.2020
5187 Rain 14 1018 93 4600 3.6 200 14:20 22.07.2020
5188 Rain 14 1018 87 7000 2.6 180 13:57 22.07.2020
5189 Rain 14 1018 87 7000 2.6 180 13:37 22.07.2020
5190 Rain 14 1018 87 6000 3.1 200 13:18 22.07.2020
5191 Rain 13 1018 93 4600 2.1 160 12:41 22.07.2020
5192 Rain 13 1018 93 3200 3.6 190 12:21 22.07.2020
5193 Rain 13 1018 93 7000 2.1 160 11:56 22.07.2020
5194 Rain 13 1019 93 3800 2.1 120 11:37 22.07.2020
5195 Rain 13 1019 93 3800 2.1 120 11:18 22.07.2020
5196 Rain 13 1019 93 3800 2.1 120 11:18 22.07.2020
5197 Rain 12 1019 93 5000 3.1 110 10:41 22.07.2020
5198 Rain 12 1019 93 5000 3.6 60 10:22 22.07.2020
5199 Rain 12 1019 93 10000 3.1 60 09:50 22.07.2020
5200 Rain 12 1019 93 10000 3.6 50 09:23 22.07.2020
5201 Rain 12 1020 93 8000 2.1 60 08:50 22.07.2020
5202 Rain 12 1020 93 8000 1.5 0 08:29 22.07.2020
5203 Rain 12 1020 87 9000 2.6 90 07:59 22.07.2020
5204 Rain 12 1021 87 10000 2.6 70 07:20 22.07.2020
5205 Rain 12 1021 93 10000 2.6 110 06:35 22.07.2020
5206 Rain 12 1017 98 10000 2.23 183 05:57 22.07.2020
5207 Rain 12 1022 93 10000 1.5 130 05:37 22.07.2020
5208 Rain 12 1022 93 10000 1.5 120 04:48 22.07.2020
5209 Rain 12 1023 93 10000 1 0 04:21 22.07.2020
5210 Rain 12 1024 87 10000 1 80 02:19 22.07.2020
5211 Rain 12 1024 87 10000 0.5 10 01:20 22.07.2020
5212 Rain 12 1024 87 10000 1 0 00:20 22.07.2020
5213 Rain 13 1024 87 10000 3.1 230 23:42 21.07.2020
5214 Rain 13 1024 76 10000 5.1 230 23:21 21.07.2020
5215 Clouds 14 1024 67 10000 4.1 230 22:57 21.07.2020
5216 Clouds 14 1024 67 10000 4.1 230 22:39 21.07.2020
5217 Clouds 15 1024 67 10000 3.6 230 22:21 21.07.2020
5218 Clouds 15 1024 62 10000 3.1 230 21:58 21.07.2020
5219 Clouds 15 1024 62 10000 3.1 230 21:39 21.07.2020
5220 Clouds 16 1024 62 10000 4.1 230 21:21 21.07.2020
5221 Clouds 16 1024 59 10000 4.1 230 20:48 21.07.2020
5222 Clouds 16 1024 59 10000 4.1 240 20:28 21.07.2020
5223 Clouds 17 1024 48 10000 5.1 240 19:59 21.07.2020
5224 Clouds 17 1024 48 10000 5.1 240 19:39 21.07.2020
5225 Clouds 18 1024 45 10000 5.1 240 19:19 21.07.2020
5226 Clouds 18 1024 45 10000 4.6 240 18:43 21.07.2020
5227 Clouds 18 1024 48 10000 3.6 250 18:23 21.07.2020
5228 Clouds 18 1024 52 10000 2.6 190 17:43 21.07.2020
5229 Clouds 18 1024 55 10000 2.1 320 17:24 21.07.2020
5230 Clouds 17 1025 55 10000 1 0 16:48 21.07.2020
5231 Clouds 17 1025 55 10000 2.1 270 16:24 21.07.2020
5232 Clouds 16 1025 59 10000 2.1 220 15:59 21.07.2020
5233 Clouds 16 1025 59 10000 2.1 220 15:41 21.07.2020
5234 Clouds 16 1025 59 10000 2.1 250 15:22 21.07.2020
5235 Clouds 17 1025 55 10000 2.6 240 14:40 21.07.2020
5236 Clouds 16 1025 59 10000 3.1 260 14:19 21.07.2020
5237 Clouds 17 1025 55 10000 3.1 270 13:59 21.07.2020
5238 Clouds 17 1025 55 10000 3.1 270 13:38 21.07.2020
5239 Clouds 16 1025 59 10000 2.1 280 13:20 21.07.2020
5240 Clouds 16 1025 55 10000 3.1 290 12:42 21.07.2020
5241 Clouds 15 1025 62 10000 3.1 280 12:23 21.07.2020
5242 Clouds 15 1025 62 10000 1.5 0 11:59 21.07.2020
5243 Clouds 15 1025 62 10000 1.5 0 11:39 21.07.2020
5244 Clouds 15 1025 62 10000 2.1 260 11:20 21.07.2020
5245 Clouds 14 1025 67 10000 2.6 300 10:44 21.07.2020
5246 Clouds 14 1025 76 10000 2.1 280 10:23 21.07.2020
5247 Clouds 14 1025 81 10000 2.1 250 09:51 21.07.2020
5248 Clouds 13 1025 81 10000 2.1 250 09:33 21.07.2020
5249 Clouds 11 1025 81 10000 2.1 270 08:58 21.07.2020
5250 Clouds 11 1025 81 10000 2.1 270 08:40 21.07.2020
5251 Clouds 10 1025 81 10000 2.1 260 08:20 21.07.2020
5252 Clouds 10 1025 81 10000 1.5 250 07:46 21.07.2020
5253 Clouds 10 1025 87 10000 1.5 260 07:25 21.07.2020
5254 Clouds 10 1024 87 10000 1 0 06:51 21.07.2020
5255 Clouds 10 1024 76 10000 4.1 260 05:30 21.07.2020
5256 Clouds 10 1025 81 10000 1 0 04:22 21.07.2020
5257 Clouds 11 1025 76 10000 4.1 250 02:37 21.07.2020
5258 Clouds 11 1025 76 10000 2.6 260 01:32 21.07.2020
5259 Clouds 11 1024 76 10000 3.1 270 00:43 21.07.2020
5260 Clouds 12 1024 71 10000 5.1 260 00:24 21.07.2020
5261 Clouds 12 1024 76 10000 4.1 260 23:55 20.07.2020
5262 Clouds 12 1024 76 10000 4.1 260 23:36 20.07.2020
5263 Clouds 12 1024 71 10000 5.7 260 23:18 20.07.2020
5264 Clouds 12 1024 71 10000 5.1 270 22:39 20.07.2020
5265 Clouds 13 1024 66 10000 7.2 280 22:19 20.07.2020
5266 Clouds 13 1024 66 10000 6.2 280 21:55 20.07.2020
5267 Clear 14 1024 66 10000 6.2 280 21:37 20.07.2020
5268 Clouds 14 1023 62 10000 4.1 280 21:18 20.07.2020
5269 Clouds 15 1023 62 10000 2.6 280 20:41 20.07.2020
5270 Clouds 15 1023 62 10000 2.6 280 20:41 20.07.2020
5271 Clouds 14 1023 62 10000 5.7 270 20:20 20.07.2020
5272 Clouds 14 1023 62 10000 6.7 280 19:39 20.07.2020
5273 Clouds 15 1023 62 10000 5.1 280 19:19 20.07.2020
5274 Clouds 16 1023 59 10000 5.7 270 18:59 20.07.2020
5275 Clouds 16 1023 59 10000 5.7 270 18:40 20.07.2020
5276 Clouds 16 1023 59 10000 6.7 270 18:19 20.07.2020
5277 Clouds 16 1023 59 10000 7.7 270 17:44 20.07.2020
5278 Clouds 16 1023 63 10000 7.2 260 17:24 20.07.2020
5279 Clouds 16 1023 59 10000 7.2 260 16:50 20.07.2020
5280 Clouds 16 1022 63 10000 6.7 270 16:21 20.07.2020
5281 Clouds 16 1022 63 10000 6.7 270 15:46 20.07.2020
5282 Clouds 15 1022 67 10000 5.7 280 15:20 20.07.2020
5283 Rain 14 1022 76 10000 4.1 300 14:56 20.07.2020
5284 Rain 14 1022 76 10000 4.1 300 14:38 20.07.2020
5285 Rain 15 1023 82 10000 3.1 320 14:18 20.07.2020
5286 Rain 15 1023 67 10000 3.6 290 13:55 20.07.2020
5287 Rain 15 1023 67 10000 3.6 290 13:37 20.07.2020
5288 Rain 15 1023 67 10000 3.6 290 13:37 20.07.2020
5289 Clouds 15 1023 71 10000 5.1 270 13:18 20.07.2020
5290 Clouds 14 1023 67 10000 6.2 280 12:42 20.07.2020
5291 Clouds 14 1023 67 10000 6.7 270 12:21 20.07.2020
5292 Clouds 14 1022 67 10000 5.1 260 11:59 20.07.2020
5293 Clouds 14 1022 67 10000 5.1 260 11:40 20.07.2020
5294 Clouds 14 1022 67 10000 5.1 260 11:40 20.07.2020
5295 Clouds 14 1022 82 10000 3.6 290 11:22 20.07.2020
5296 Clouds 14 1022 71 10000 5.7 250 10:45 20.07.2020
5297 Clouds 13 1022 76 10000 4.1 260 10:27 20.07.2020
5298 Clouds 13 1022 76 10000 4.1 280 09:59 20.07.2020
5299 Clouds 13 1022 76 10000 4.1 280 09:40 20.07.2020
5300 Clouds 12 1022 81 10000 3.6 260 09:21 20.07.2020
5301 Clouds 12 1022 81 10000 3.1 260 08:46 20.07.2020
5302 Clouds 11 1021 87 10000 2.1 280 08:26 20.07.2020
5303 Clouds 11 1021 87 10000 3.1 250 07:43 20.07.2020
5304 Clouds 11 1021 87 10000 1.5 240 07:21 20.07.2020
5305 Clouds 10 1021 87 10000 2.1 240 06:44 20.07.2020
5306 Clouds 10 1021 87 10000 2.1 240 06:44 20.07.2020
5307 Clouds 10 1021 87 10000 2.6 210 05:54 20.07.2020
5308 Clouds 10 1021 87 10000 2.6 230 03:37 20.07.2020
5309 Clouds 11 1021 87 10000 3.1 250 01:20 20.07.2020
5310 Clouds 11 1021 87 10000 2.6 240 00:21 20.07.2020
5311 Clouds 11 1021 87 10000 3.1 260 23:49 19.07.2020
5312 Clouds 11 1021 87 10000 4.1 260 23:27 19.07.2020
5313 Clouds 12 1020 76 10000 4.6 250 22:58 19.07.2020
5314 Clouds 12 1020 76 10000 4.6 250 22:38 19.07.2020
5315 Clouds 13 1020 76 10000 6.2 260 22:18 19.07.2020
5316 Clouds 13 1020 71 10000 4.6 270 21:55 19.07.2020
5317 Clouds 13 1020 71 10000 4.6 270 21:36 19.07.2020
5318 Clouds 13 1020 71 10000 4.6 270 21:36 19.07.2020
5319 Clouds 14 1020 71 10000 4.1 270 21:18 19.07.2020
5320 Clouds 14 1020 67 10000 5.1 270 20:41 19.07.2020
5321 Clouds 14 1020 67 10000 5.1 270 20:41 19.07.2020
5322 Rain 14 1019 76 10000 6.2 260 20:20 19.07.2020
5323 Clouds 15 1019 62 10000 7.2 260 19:58 19.07.2020
5324 Clouds 15 1019 59 10000 7.2 260 19:38 19.07.2020
5325 Clouds 16 1019 59 10000 7.2 260 19:19 19.07.2020
5326 Clouds 15 1019 62 10000 7.2 260 18:42 19.07.2020
5327 Clouds 15 1019 62 10000 6.7 270 18:41 19.07.2020
5328 Clouds 15 1019 62 10000 6.7 270 18:23 19.07.2020
5329 Clouds 16 1019 55 10000 8.7 270 17:49 19.07.2020
5330 Clouds 16 1019 59 10000 6.7 270 17:30 19.07.2020
5331 Clouds 16 1019 55 10000 7.2 290 16:59 19.07.2020
5332 Clouds 16 1019 55 10000 7.2 290 16:39 19.07.2020
5333 Clouds 16 1019 55 10000 7.2 290 16:39 19.07.2020
5334 Clouds 16 1019 54 10000 7.7 290 16:21 19.07.2020
5335 Clouds 15 1019 67 10000 7.7 280 15:51 19.07.2020
5336 Clouds 16 1018 59 10000 6.7 260 15:32 19.07.2020
5337 Clouds 16 1018 59 10000 6.7 280 14:48 19.07.2020
5338 Rain 14 1018 66 10000 8.2 280 14:27 19.07.2020
5339 Rain 15 1018 58 10000 6.2 270 13:59 19.07.2020
5340 Rain 15 1018 58 10000 6.2 270 13:40 19.07.2020
5341 Rain 15 1018 58 10000 5.1 300 13:22 19.07.2020
5342 Clouds 15 1018 62 10000 6.2 280 12:48 19.07.2020
5343 Clouds 16 1018 59 10000 6.2 260 12:25 19.07.2020
5344 Clouds 16 1017 59 10000 6.2 260 11:55 19.07.2020
5345 Clouds 15 1017 59 10000 6.2 260 11:36 19.07.2020
5346 Clouds 15 1017 58 10000 5.7 270 11:18 19.07.2020
5347 Clouds 14 1017 67 10000 6.2 260 10:41 19.07.2020
5348 Clouds 14 1017 67 10000 6.7 260 10:21 19.07.2020
5349 Clouds 14 1017 67 10000 5.7 260 09:45 19.07.2020
5350 Clouds 13 1017 71 10000 4.6 260 09:22 19.07.2020
5351 Clouds 12 1017 76 10000 4.6 250 08:48 19.07.2020
5352 Clouds 11 1017 81 10000 4.6 260 08:27 19.07.2020
5353 Clouds 11 1017 81 10000 5.1 260 07:54 19.07.2020
5354 Clouds 11 1017 81 10000 5.1 260 07:28 19.07.2020
5355 Clouds 10 1017 81 10000 5.7 260 06:49 19.07.2020
5356 Clouds 10 1017 87 10000 4.6 260 06:21 19.07.2020
5357 Clouds 10 1017 87 10000 4.6 250 05:51 19.07.2020
5358 Clouds 10 1017 87 10000 5.1 240 04:45 19.07.2020
5359 Clouds 11 1017 81 10000 3.6 260 02:47 19.07.2020
5360 Clouds 11 1017 87 10000 3.1 260 02:23 19.07.2020
5361 Clouds 10 1017 87 10000 4.6 260 01:44 19.07.2020
5362 Clouds 10 1017 87 10000 3.1 250 00:59 19.07.2020
5363 Clouds 11 1017 81 10000 3.6 250 00:23 19.07.2020
5364 Clouds 11 1017 81 10000 3.6 250 00:23 19.07.2020
5365 Clouds 11 1017 76 10000 4.6 260 23:55 18.07.2020
5366 Clouds 11 1017 76 10000 4.6 260 23:55 18.07.2020
5367 Clouds 12 1017 76 10000 4.6 260 23:37 18.07.2020
5368 Clouds 12 1017 76 10000 4.6 260 23:37 18.07.2020
5369 Clouds 12 1016 71 10000 5.1 270 23:18 18.07.2020
5370 Clouds 13 1016 76 10000 4.6 260 22:40 18.07.2020
5371 Clouds 13 1016 76 10000 5.1 260 22:19 18.07.2020
5372 Clouds 13 1016 71 10000 5.1 260 21:47 18.07.2020
5373 Clouds 14 1015 67 10000 5.7 260 21:28 18.07.2020
5374 Clouds 15 1015 54 10000 7.7 270 20:58 18.07.2020
5375 Clouds 15 1015 62 10000 6.2 250 20:40 18.07.2020
5376 Clouds 15 1015 62 10000 6.2 250 20:20 18.07.2020
5377 Clouds 16 1015 55 10000 6.2 260 19:41 18.07.2020
5378 Clouds 16 1015 51 10000 7.7 260 19:21 18.07.2020
5379 Clouds 16 1015 59 10000 7.2 260 18:46 18.07.2020
5380 Clouds 16 1015 63 10000 6.2 270 18:21 18.07.2020
5381 Clouds 15 1015 67 10000 7.2 260 17:47 18.07.2020
5382 Rain 16 1014 62 10000 6.2 270 17:23 18.07.2020
5383 Clouds 17 1014 59 10000 6.7 260 16:59 18.07.2020
5384 Clouds 17 1014 59 10000 6.7 260 16:38 18.07.2020
5385 Clouds 16 1014 59 10000 7.7 250 16:20 18.07.2020
5386 Clouds 17 1014 55 10000 7.7 260 15:46 18.07.2020
5387 Clouds 17 1014 55 10000 7.7 260 15:46 18.07.2020
5388 Clouds 16 1014 59 10000 7.2 250 15:27 18.07.2020
5389 Clouds 16 1014 67 10000 8.2 260 14:57 18.07.2020
5390 Clouds 16 1014 67 10000 8.2 260 14:39 18.07.2020
5391 Clouds 15 1014 63 10000 8.7 240 14:20 18.07.2020
5392 Clouds 15 1014 76 10000 5.7 250 13:43 18.07.2020
5393 Clouds 14 1014 82 6000 7.7 240 13:23 18.07.2020
5394 Clouds 15 1014 67 10000 5.1 250 12:56 18.07.2020
5395 Clouds 15 1014 67 10000 5.7 250 12:38 18.07.2020
5396 Clouds 14 1014 67 10000 5.7 250 12:18 18.07.2020
5397 Clouds 14 1013 67 10000 6.2 250 11:55 18.07.2020
5398 Clouds 14 1013 67 10000 6.2 250 11:36 18.07.2020
5399 Clouds 15 1013 62 10000 6.2 250 11:18 18.07.2020
5400 Clouds 14 1013 71 10000 6.2 250 10:42 18.07.2020
5401 Clouds 15 1013 67 10000 6.7 250 10:23 18.07.2020
5402 Clouds 14 1013 71 10000 5.7 240 09:46 18.07.2020
5403 Clouds 14 1013 82 10000 4.1 220 09:25 18.07.2020
5404 Clouds 13 1013 87 10000 3.1 230 08:53 18.07.2020
5405 Clouds 12 1013 87 10000 2.1 230 08:34 18.07.2020
5406 Clouds 12 1013 87 10000 2.1 260 07:58 18.07.2020
5407 Clouds 12 1013 87 10000 2.1 240 07:39 18.07.2020
5408 Clouds 12 1013 87 10000 2.1 240 07:20 18.07.2020
5409 Clouds 12 1013 87 10000 2.6 240 06:45 18.07.2020
5410 Clouds 12 1014 87 10000 2.6 240 04:29 18.07.2020
5411 Clouds 12 1014 87 10000 3.1 240 03:51 18.07.2020
5412 Clouds 13 1014 87 10000 3.6 240 01:52 18.07.2020
5413 Clouds 13 1014 87 10000 2.6 240 01:20 18.07.2020
5414 Clouds 13 1015 87 10000 3.1 230 00:36 18.07.2020
5415 Clouds 13 1015 87 10000 2.6 260 23:57 17.07.2020
5416 Clouds 13 1015 87 10000 2.6 260 23:38 17.07.2020
5417 Clouds 14 1015 87 10000 3.1 240 23:18 17.07.2020
5418 Clouds 14 1014 87 10000 4.1 230 22:41 17.07.2020
5419 Clouds 14 1014 82 10000 3.6 240 22:20 17.07.2020
5420 Clouds 15 1014 77 10000 3.6 240 21:58 17.07.2020
5421 Clouds 15 1014 77 10000 3.6 240 21:39 17.07.2020
5422 Clouds 15 1014 77 10000 3.1 230 21:19 17.07.2020
5423 Clouds 15 1014 77 10000 4.1 230 20:44 17.07.2020
5424 Clouds 15 1015 77 10000 4.6 230 20:26 17.07.2020
5425 Clouds 15 1015 77 10000 5.1 250 19:56 17.07.2020
5426 Clouds 15 1015 77 10000 5.1 250 19:38 17.07.2020
5427 Clouds 15 1015 82 10000 5.1 250 19:19 17.07.2020
5428 Clouds 15 1015 82 10000 5.1 250 19:19 17.07.2020
5429 Clouds 16 1015 77 10000 4.1 250 18:45 17.07.2020
5430 Clouds 16 1015 82 10000 4.1 230 18:25 17.07.2020
5431 Clouds 16 1015 82 10000 4.6 220 17:45 17.07.2020
5432 Clouds 16 1015 87 10000 3.6 230 17:25 17.07.2020
5433 Clouds 16 1015 87 10000 3.6 230 17:25 17.07.2020
5434 Haze 15 1016 87 4200 4.1 240 16:45 17.07.2020
5435 Clouds 15 1016 87 10000 3.6 230 16:23 17.07.2020
5436 Rain 15 1016 82 10000 3.1 250 15:56 17.07.2020
5437 Rain 15 1016 82 10000 3.1 250 15:37 17.07.2020
5438 Haze 15 1016 82 5000 5.1 220 15:18 17.07.2020
5439 Clouds 16 1016 72 10000 4.6 240 14:40 17.07.2020
5440 Clouds 16 1016 72 10000 4.6 240 14:21 17.07.2020
5441 Clouds 16 1016 72 10000 5.7 230 13:55 17.07.2020
5442 Clouds 16 1016 72 10000 5.7 230 13:36 17.07.2020
5443 Clouds 16 1016 72 10000 5.1 240 13:18 17.07.2020
5444 Clouds 15 1016 82 10000 3.1 270 12:39 17.07.2020
5445 Clouds 15 1016 82 10000 3.1 270 12:20 17.07.2020
5446 Clouds 15 1016 82 10000 3.1 260 11:54 17.07.2020
5447 Clouds 15 1016 82 10000 3.1 260 11:36 17.07.2020
5448 Clouds 15 1016 82 10000 4.1 250 11:18 17.07.2020
5449 Clouds 15 1015 82 10000 4.1 250 10:41 17.07.2020
5450 Rain 15 1015 82 10000 3.6 240 10:23 17.07.2020
5451 Rain 15 1015 87 10000 3.6 230 09:58 17.07.2020
5452 Rain 15 1015 87 10000 3.6 230 09:40 17.07.2020
5453 Rain 14 1015 93 10000 4.1 230 09:20 17.07.2020
5454 Rain 15 1015 87 10000 3.6 240 08:47 17.07.2020
5455 Rain 15 1015 93 10000 4.6 220 08:29 17.07.2020
5456 Rain 15 1015 93 10000 5.7 230 07:55 17.07.2020
5457 Drizzle 15 1014 93 4900 6.7 220 07:29 17.07.2020
5458 Rain 15 1014 93 10000 6.7 220 06:57 17.07.2020
5459 Rain 15 1014 93 8000 6.2 220 06:22 17.07.2020
5460 Rain 15 1014 93 10000 5.1 230 05:30 17.07.2020
5461 Clouds 16 1015 87 10000 4.6 240 02:58 17.07.2020
5462 Clouds 16 1016 87 10000 5.7 240 01:49 17.07.2020
5463 Clouds 16 1016 87 10000 5.1 240 00:52 17.07.2020
5464 Clouds 16 1016 93 10000 6.2 240 00:23 17.07.2020
5465 Clouds 16 1017 93 7000 5.7 230 23:55 16.07.2020
5466 Clouds 16 1017 93 7000 5.7 230 23:37 16.07.2020
5467 Haze 16 1017 87 5000 6.7 230 23:18 16.07.2020
5468 Clouds 17 1017 77 10000 6.2 220 22:44 16.07.2020
5469 Clouds 16 1017 82 10000 5.1 240 22:23 16.07.2020
5470 Clouds 17 1017 77 10000 6.7 240 21:56 16.07.2020
5471 Clouds 17 1017 77 10000 6.7 240 21:37 16.07.2020
5472 Clouds 18 1017 72 10000 5.1 240 21:19 16.07.2020
5473 Clouds 18 1017 72 10000 5.1 240 21:19 16.07.2020
5474 Clouds 19 1017 68 10000 4.6 220 20:57 16.07.2020
5475 Clouds 19 1017 68 10000 4.6 220 20:38 16.07.2020
5476 Clouds 19 1017 63 10000 5.1 260 20:20 16.07.2020
5477 Clouds 19 1017 63 10000 5.1 270 19:47 16.07.2020
5478 Rain 20 1017 60 10000 7.7 270 19:28 16.07.2020
5479 Rain 19 1017 63 10000 7.7 260 18:56 16.07.2020
5480 Rain 19 1017 63 10000 7.7 260 18:38 16.07.2020
5481 Rain 19 1018 68 10000 8.2 260 18:18 16.07.2020
5482 Rain 19 1018 77 10000 6.7 250 17:38 16.07.2020
5483 Clouds 18 1018 88 10000 6.2 230 17:19 16.07.2020
5484 Clouds 18 1018 82 9000 7.7 220 16:57 16.07.2020
5485 Clouds 18 1018 82 9000 7.7 220 16:39 16.07.2020
5486 Clouds 19 1018 77 10000 6.7 230 16:20 16.07.2020
5487 Clouds 19 1018 77 10000 6.7 250 15:45 16.07.2020
5488 Clouds 18 1018 82 10000 6.7 230 15:27 16.07.2020
5489 Clouds 18 1018 82 10000 6.7 230 15:27 16.07.2020
5490 Clouds 17 1018 88 10000 6.2 240 14:58 16.07.2020
5491 Clouds 17 1018 88 10000 6.2 240 14:37 16.07.2020
5492 Clouds 17 1018 88 10000 7.7 230 14:19 16.07.2020
5493 Clouds 17 1018 93 10000 7.2 220 13:56 16.07.2020
5494 Clouds 17 1018 93 10000 7.2 220 13:36 16.07.2020
5495 Clouds 16 1018 93 10000 5.7 230 13:18 16.07.2020
5496 Clouds 16 1018 87 10000 5.1 240 12:41 16.07.2020
5497 Clouds 16 1018 87 10000 3.6 240 12:19 16.07.2020
5498 Rain 16 1018 93 9000 2.6 210 11:39 16.07.2020
5499 Haze 16 1017 82 3100 2.6 210 11:20 16.07.2020
5500 Rain 15 1018 87 10000 4.1 220 10:59 16.07.2020
5501 Rain 15 1018 87 10000 4.1 220 10:40 16.07.2020
5502 Clouds 15 1018 87 10000 5.7 240 10:20 16.07.2020
5503 Clouds 14 1018 93 10000 4.1 230 09:55 16.07.2020
5504 Clouds 14 1018 93 10000 4.1 230 09:37 16.07.2020
5505 Clouds 14 1017 93 10000 4.1 240 09:18 16.07.2020
5506 Clouds 14 1017 93 10000 4.1 240 09:18 16.07.2020
5507 Clouds 14 1017 87 10000 4.1 230 08:39 16.07.2020
5508 Clouds 14 1017 87 10000 4.1 230 08:21 16.07.2020
5509 Clouds 14 1017 87 10000 4.1 230 08:21 16.07.2020
5510 Clouds 14 1017 87 10000 4.1 240 07:46 16.07.2020
5511 Clouds 14 1017 87 10000 4.1 240 07:25 16.07.2020
5512 Clouds 13 1017 93 10000 4.6 240 06:49 16.07.2020
5513 Clouds 13 1017 93 10000 4.1 250 06:20 16.07.2020
5514 Clouds 13 1017 93 10000 4.1 250 05:54 16.07.2020
5515 Clouds 13 1017 87 10000 4.1 250 05:22 16.07.2020
5516 Clouds 13 1017 87 10000 4.6 250 04:18 16.07.2020
5517 Clouds 13 1017 87 10000 6.2 260 03:35 16.07.2020
5518 Clouds 13 1016 87 10000 4.6 250 02:38 16.07.2020
5519 Clouds 13 1016 87 10000 4.6 250 02:19 16.07.2020
5520 Clouds 14 1016 82 10000 4.1 260 01:40 16.07.2020
5521 Clouds 14 1016 82 10000 2.6 250 00:50 16.07.2020
5522 Clouds 14 1015 87 10000 4.6 250 00:32 16.07.2020
5523 Clouds 14 1015 87 10000 5.7 250 23:57 15.07.2020
5524 Clouds 14 1015 87 10000 5.7 250 23:38 15.07.2020
5525 Clouds 14 1015 87 10000 4.6 250 23:20 15.07.2020
5526 Clouds 14 1015 87 10000 5.7 260 22:54 15.07.2020
5527 Clouds 14 1015 87 10000 5.7 260 22:36 15.07.2020
5528 Clouds 14 1015 82 10000 6.2 260 22:18 15.07.2020
5529 Clouds 14 1015 87 10000 5.1 260 21:54 15.07.2020
5530 Clouds 14 1015 87 10000 5.1 260 21:36 15.07.2020
5531 Clouds 14 1014 82 10000 4.6 260 21:18 15.07.2020
5532 Clouds 14 1014 87 10000 4.6 260 20:39 15.07.2020
5533 Clouds 15 1014 77 10000 4.1 250 20:21 15.07.2020
5534 Clouds 15 1014 77 10000 3.1 270 19:58 15.07.2020
5535 Clouds 15 1014 82 10000 5.1 270 19:39 15.07.2020
5536 Clouds 15 1014 82 10000 5.1 270 19:20 15.07.2020
5537 Clouds 15 1013 82 10000 5.7 260 18:58 15.07.2020
5538 Clouds 15 1013 82 10000 5.7 260 18:38 15.07.2020
5539 Clouds 16 1013 77 10000 5.7 260 18:19 15.07.2020
5540 Clouds 16 1013 77 10000 6.2 270 17:54 15.07.2020
5541 Clouds 16 1013 77 10000 6.2 270 17:36 15.07.2020
5542 Clouds 16 1013 77 10000 5.7 260 17:18 15.07.2020
5543 Clouds 16 1013 77 10000 5.1 250 16:41 15.07.2020
5544 Clouds 16 1013 82 10000 5.1 270 16:22 15.07.2020
5545 Rain 16 1013 82 7000 5.7 300 15:57 15.07.2020
5546 Rain 16 1013 82 7000 5.7 300 15:39 15.07.2020
5547 Clouds 16 1013 77 10000 5.7 270 15:21 15.07.2020
5548 Clouds 16 1012 77 10000 5.7 270 14:43 15.07.2020
5549 Clouds 16 1012 77 10000 6.2 260 14:21 15.07.2020
5550 Clouds 16 1012 77 10000 6.7 260 13:59 15.07.2020
5551 Clouds 16 1012 77 10000 6.7 260 13:41 15.07.2020
5552 Clouds 16 1012 77 10000 5.7 250 13:21 15.07.2020
5553 Clouds 15 1012 82 10000 4.6 250 12:42 15.07.2020
5554 Clouds 15 1012 82 10000 5.1 260 12:22 15.07.2020
5555 Clouds 15 1012 82 10000 5.1 250 11:58 15.07.2020
5556 Clouds 15 1012 82 10000 5.1 250 11:39 15.07.2020
5557 Clouds 14 1012 87 10000 4.6 260 11:20 15.07.2020
5558 Clouds 14 1012 87 10000 3.6 260 10:56 15.07.2020
5559 Clouds 14 1012 87 10000 3.6 260 10:56 15.07.2020
5560 Clouds 14 1012 87 10000 3.6 260 10:37 15.07.2020
5561 Clouds 14 1012 87 10000 3.6 250 10:19 15.07.2020
5562 Clouds 13 1012 93 10000 2.6 230 09:43 15.07.2020
5563 Clouds 13 1011 93 10000 3.1 220 09:25 15.07.2020
5564 Rain 13 1011 93 10000 3.1 220 08:47 15.07.2020
5565 Rain 12 1011 100 7000 2.6 230 08:28 15.07.2020
5566 Rain 12 1011 100 8000 3.1 230 07:50 15.07.2020
5567 Rain 12 1011 100 7000 2.6 230 07:27 15.07.2020
5568 Rain 12 1011 93 10000 2.6 230 06:45 15.07.2020
5569 Rain 12 1011 100 10000 2.6 220 06:21 15.07.2020
5570 Rain 12 1011 100 10000 3.1 230 05:44 15.07.2020
5571 Rain 12 1012 93 10000 3.6 240 04:29 15.07.2020
5572 Clouds 13 1012 87 10000 3.1 240 03:41 15.07.2020
5573 Clouds 13 1013 87 10000 2.6 240 01:55 15.07.2020
5574 Clouds 13 1013 87 10000 3.1 240 01:35 15.07.2020
5575 Clouds 13 1013 87 10000 3.6 240 00:57 15.07.2020
5576 Clouds 13 1013 87 10000 4.1 240 00:29 15.07.2020
5577 Clouds 13 1013 87 10000 3.6 230 23:51 14.07.2020
5578 Clouds 13 1013 93 10000 2.6 240 23:28 14.07.2020
5579 Clouds 13 1013 93 10000 3.1 220 22:55 14.07.2020
5580 Clouds 13 1013 93 10000 3.1 220 22:37 14.07.2020
5581 Clouds 13 1013 93 10000 3.6 210 22:18 14.07.2020
5582 Rain 13 1013 87 10000 5.1 230 21:54 14.07.2020
5583 Rain 14 1013 87 10000 5.1 230 21:36 14.07.2020
5584 Rain 14 1013 82 10000 5.1 220 21:18 14.07.2020
5585 Rain 15 1013 77 10000 4.6 230 20:42 14.07.2020
5586 Rain 15 1013 77 10000 4.6 250 20:21 14.07.2020
5587 Clouds 15 1013 77 10000 4.6 250 19:56 14.07.2020
5588 Clouds 15 1013 82 10000 5.7 220 19:37 14.07.2020
5589 Clouds 15 1013 82 10000 5.7 220 19:19 14.07.2020
5590 Rain 15 1013 82 10000 6.2 230 18:42 14.07.2020
5591 Rain 15 1013 72 10000 6.7 240 18:20 14.07.2020
5592 Clouds 15 1014 77 10000 6.2 240 17:56 14.07.2020
5593 Clouds 15 1014 77 10000 6.2 240 17:38 14.07.2020
5594 Clouds 15 1014 77 10000 4.6 260 17:20 14.07.2020
5595 Clouds 15 1014 87 10000 3.6 270 16:44 14.07.2020
5596 Clouds 14 1015 87 10000 5.1 260 16:26 14.07.2020
5597 Clouds 14 1015 82 10000 6.2 240 15:59 14.07.2020
5598 Clouds 14 1015 82 10000 6.2 240 15:39 14.07.2020
5599 Clouds 15 1015 72 10000 5.7 250 15:21 14.07.2020
5600 Clouds 15 1015 76 10000 4.1 260 14:47 14.07.2020
5601 Clouds 15 1015 72 10000 4.6 250 14:28 14.07.2020
5602 Clouds 15 1015 72 10000 5.7 250 13:56 14.07.2020
5603 Clouds 15 1015 76 10000 6.2 250 13:38 14.07.2020
5604 Clouds 15 1015 76 10000 6.2 250 13:20 14.07.2020
5605 Clouds 15 1015 76 10000 6.2 250 12:40 14.07.2020
5606 Clouds 15 1016 71 10000 4.6 270 12:21 14.07.2020
5607 Clouds 14 1016 71 10000 4.6 260 11:58 14.07.2020
5608 Clouds 14 1016 71 10000 4.6 260 11:38 14.07.2020
5609 Clouds 14 1016 71 10000 3.6 280 11:18 14.07.2020
5610 Clouds 14 1016 71 10000 5.1 270 10:42 14.07.2020
5611 Clouds 14 1016 71 10000 3.6 270 10:24 14.07.2020
5612 Clouds 13 1016 76 10000 3.1 260 09:42 14.07.2020
5613 Clouds 13 1016 76 10000 3.6 260 09:23 14.07.2020
5614 Clouds 12 1016 81 10000 3.6 240 08:58 14.07.2020
5615 Clouds 12 1016 81 10000 3.6 240 08:58 14.07.2020
5616 Clouds 12 1016 81 10000 3.6 240 08:40 14.07.2020
5617 Clouds 12 1016 81 10000 3.1 250 08:20 14.07.2020
5618 Clouds 12 1016 81 10000 4.1 240 07:45 14.07.2020
5619 Clouds 12 1016 81 10000 3.6 250 07:19 14.07.2020
5620 Clouds 12 1008 90 0 1.79 297 06:58 14.07.2020
5621 Clouds 11 1016 87 10000 4.1 230 06:27 14.07.2020
5622 Clouds 11 1016 81 10000 5.1 230 05:50 14.07.2020
5623 Clouds 11 1016 87 10000 5.1 240 04:52 14.07.2020
5624 Clouds 11 1016 87 10000 5.1 240 04:33 14.07.2020
5625 Clouds 11 1017 87 10000 3.6 230 03:29 14.07.2020
5626 Clouds 11 1017 87 10000 3.6 210 02:27 14.07.2020
5627 Clouds 12 1008 91 0 1.79 276 01:41 14.07.2020
5628 Clouds 12 1008 92 0 1.79 291 01:22 14.07.2020
5629 Clouds 12 1017 81 10000 3.6 240 00:42 14.07.2020
5630 Clouds 12 1017 81 10000 3.6 220 00:22 14.07.2020
5631 Clouds 13 1017 76 10000 3.6 250 23:39 13.07.2020
5632 Clouds 13 1017 76 10000 5.1 270 23:19 13.07.2020
5633 Clouds 13 1017 76 10000 3.6 260 22:57 13.07.2020
5634 Clouds 13 1017 76 10000 3.6 260 22:39 13.07.2020
5635 Clouds 14 1017 71 10000 4.1 260 22:19 13.07.2020
5636 Clouds 14 1017 71 10000 5.7 270 21:54 13.07.2020
5637 Clouds 14 1017 71 10000 5.7 270 21:36 13.07.2020
5638 Clouds 14 1017 71 10000 4.6 270 21:18 13.07.2020
5639 Clouds 14 1017 71 10000 4.6 270 21:18 13.07.2020
5640 Clouds 15 1016 77 10000 5.1 270 20:42 13.07.2020
5641 Clouds 15 1016 72 10000 6.7 270 20:23 13.07.2020
5642 Clouds 15 1016 67 10000 7.2 260 19:59 13.07.2020
5643 Clouds 16 1016 67 10000 7.2 260 19:41 13.07.2020
5644 Clouds 16 1016 72 10000 6.7 250 19:22 13.07.2020
5645 Clouds 16 1016 72 10000 7.7 250 18:56 13.07.2020
5646 Clouds 16 1016 72 10000 7.7 250 18:38 13.07.2020
5647 Clouds 16 1016 72 10000 7.7 250 18:38 13.07.2020
5648 Clouds 17 1016 67 10000 6.7 250 18:19 13.07.2020
5649 Clouds 16 1017 72 10000 6.2 250 17:43 13.07.2020
5650 Clouds 16 1017 72 10000 8.2 260 17:22 13.07.2020
5651 Rain 16 1017 87 2900 7.2 260 16:59 13.07.2020
5652 Clouds 17 1016 72 10000 8.2 270 16:41 13.07.2020
5653 Clouds 17 1016 72 10000 8.2 270 16:20 13.07.2020
5654 Clouds 18 1016 72 10000 7.7 260 15:58 13.07.2020
5655 Clouds 18 1016 72 10000 7.7 260 15:38 13.07.2020
5656 Clouds 18 1016 72 10000 8.2 270 15:20 13.07.2020
5657 Clouds 18 1016 72 10000 8.2 270 15:20 13.07.2020
5658 Clouds 18 1016 72 10000 7.7 270 14:57 13.07.2020
5659 Clouds 18 1016 72 10000 7.7 270 14:57 13.07.2020
5660 Clouds 17 1016 72 10000 7.7 270 14:39 13.07.2020
5661 Clouds 18 1017 72 10000 8.2 240 14:20 13.07.2020
5662 Clouds 17 1017 82 10000 7.2 250 13:43 13.07.2020
5663 Clouds 16 1017 82 10000 7.2 240 13:22 13.07.2020
5664 Clouds 16 1017 82 10000 5.7 250 12:57 13.07.2020
5665 Clouds 16 1017 82 10000 5.7 250 12:39 13.07.2020
5666 Rain 15 1017 87 6000 5.1 250 12:21 13.07.2020
5667 Drizzle 15 1017 93 3500 6.2 260 11:46 13.07.2020
5668 Drizzle 15 1017 93 5000 3.1 250 11:27 13.07.2020
5669 Rain 16 1017 93 10000 4.1 250 10:59 13.07.2020
5670 Rain 16 1017 93 10000 4.1 250 10:37 13.07.2020
5671 Clouds 16 1017 87 10000 5.1 230 10:19 13.07.2020
5672 Clouds 15 1017 93 10000 6.7 230 09:41 13.07.2020
5673 Clouds 16 1017 87 10000 6.2 230 09:23 13.07.2020
5674 Clouds 16 1017 87 10000 6.7 220 08:51 13.07.2020
5675 Clouds 16 1017 87 10000 6.7 220 08:32 13.07.2020
5676 Clouds 15 1018 93 10000 5.7 220 07:34 13.07.2020
5677 Clouds 15 1018 93 10000 7.2 220 06:55 13.07.2020
5678 Clouds 15 1018 93 10000 6.2 220 06:37 13.07.2020
5679 Clouds 15 1018 93 10000 6.2 220 06:19 13.07.2020
5680 Rain 15 1019 87 10000 6.7 220 04:34 13.07.2020
5681 Rain 14 1020 93 3600 4.6 210 01:52 13.07.2020
5682 Rain 15 1021 93 10000 3.6 200 01:26 13.07.2020
5683 Rain 15 1021 82 10000 5.7 200 00:55 13.07.2020
5684 Rain 15 1021 77 10000 6.2 200 00:25 13.07.2020
5685 Rain 16 1021 72 10000 5.1 190 23:57 12.07.2020
5686 Rain 16 1021 72 10000 5.1 190 23:39 12.07.2020
5687 Rain 16 1022 72 10000 5.1 180 23:20 12.07.2020
5688 Clouds 16 1022 72 10000 4.6 190 22:38 12.07.2020
5689 Clouds 16 1022 72 10000 3.6 190 22:20 12.07.2020
5690 Clouds 16 1022 67 10000 5.7 200 21:57 12.07.2020
5691 Clouds 16 1022 67 10000 5.7 200 21:39 12.07.2020
5692 Clouds 16 1022 67 10000 5.7 200 21:39 12.07.2020
5693 Clouds 16 1022 67 10000 5.7 200 21:39 12.07.2020
5694 Clouds 16 1022 67 10000 6.2 200 21:20 12.07.2020
5695 Clouds 17 1023 63 10000 5.7 210 20:58 12.07.2020
5696 Clouds 17 1023 63 10000 5.7 210 20:39 12.07.2020
5697 Clouds 17 1023 63 10000 6.7 200 20:19 12.07.2020
5698 Clouds 17 1023 59 10000 7.2 220 19:54 12.07.2020
5699 Clouds 17 1023 59 10000 7.2 220 19:36 12.07.2020
5700 Clouds 19 1023 52 10000 7.7 210 19:18 12.07.2020
5701 Clouds 19 1023 52 10000 7.7 220 18:40 12.07.2020
5702 Clouds 19 1023 55 10000 6.2 220 18:19 12.07.2020
5703 Clouds 20 1024 52 10000 7.7 210 17:41 12.07.2020
5704 Clouds 20 1024 52 10000 7.2 210 17:22 12.07.2020
5705 Clouds 19 1024 55 10000 6.7 220 16:58 12.07.2020
5706 Clouds 19 1024 55 10000 6.7 220 16:40 12.07.2020
5707 Clouds 19 1025 55 10000 7.2 220 16:18 12.07.2020
5708 Clouds 19 1025 55 10000 8.2 220 15:43 12.07.2020
5709 Clouds 19 1025 59 10000 6.7 200 15:23 12.07.2020
5710 Clouds 18 1025 63 10000 5.7 210 14:43 12.07.2020
5711 Clouds 18 1025 59 10000 7.2 210 14:25 12.07.2020
5712 Clouds 17 1025 63 10000 4.6 210 13:41 12.07.2020
5713 Clouds 17 1025 67 10000 5.7 220 13:22 12.07.2020
5714 Clouds 17 1025 59 10000 5.1 220 12:59 12.07.2020
5715 Clouds 18 1025 59 10000 5.1 220 12:41 12.07.2020
5716 Clouds 17 1026 67 10000 4.1 230 12:19 12.07.2020
5717 Clouds 16 1026 67 10000 4.1 220 11:57 12.07.2020
5718 Clouds 16 1026 67 10000 4.1 220 11:39 12.07.2020
5719 Clouds 13 1026 72 10000 2.6 270 11:18 12.07.2020
5720 Rain 13 1026 76 10000 1.5 0 10:41 12.07.2020
5721 Rain 13 1026 76 10000 1.5 0 10:19 12.07.2020
5722 Clouds 13 1026 71 10000 1 0 09:43 12.07.2020
5723 Clouds 12 1026 81 10000 0.5 0 09:22 12.07.2020
5724 Clouds 11 1026 87 10000 1 0 08:57 12.07.2020
5725 Clouds 11 1026 87 10000 1 0 08:38 12.07.2020
5726 Clouds 10 1026 87 10000 1 0 08:19 12.07.2020
5727 Clouds 9 1026 93 10000 1 0 07:47 12.07.2020
5728 Clouds 8 1026 93 10000 1 270 07:28 12.07.2020
5729 Clouds 9 1026 87 10000 1 320 06:53 12.07.2020
5730 Clouds 9 1026 87 10000 1 320 06:53 12.07.2020
5731 Clouds 8 1026 87 10000 2.1 240 06:22 12.07.2020
5732 Clouds 9 1026 87 10000 3.1 250 05:59 12.07.2020
5733 Clouds 9 1026 87 10000 2.6 250 04:58 12.07.2020
5734 Clouds 9 1027 87 10000 2.6 230 04:29 12.07.2020
5735 Clouds 10 1027 81 10000 2.6 250 03:45 12.07.2020
5736 Clouds 10 1027 93 10000 3.1 230 03:24 12.07.2020
5737 Clouds 10 1027 93 10000 3.1 230 03:24 12.07.2020
5738 Clouds 10 1027 81 10000 2.6 230 01:54 12.07.2020
5739 Clouds 11 1027 76 10000 2.6 230 01:18 12.07.2020
5740 Clouds 11 1027 81 10000 3.1 230 00:39 12.07.2020
5741 Clouds 12 1027 76 10000 3.6 230 00:20 12.07.2020
5742 Clouds 12 1027 76 10000 2.6 240 23:40 11.07.2020
5743 Clouds 12 1027 76 10000 2.6 230 23:20 11.07.2020
5744 Clouds 12 1027 76 10000 2.6 250 22:57 11.07.2020
5745 Clouds 12 1027 76 10000 2.6 250 22:37 11.07.2020
5746 Clouds 13 1027 71 10000 4.1 260 22:19 11.07.2020
5747 Clouds 14 1027 67 10000 5.1 270 21:43 11.07.2020
5748 Clouds 14 1027 71 10000 4.1 270 21:24 11.07.2020
5749 Clouds 15 1027 71 10000 5.1 300 20:59 11.07.2020
5750 Clouds 15 1027 71 10000 5.1 300 20:40 11.07.2020
5751 Clouds 15 1026 67 10000 4.6 260 20:21 11.07.2020
5752 Clouds 15 1026 67 10000 4.6 260 20:21 11.07.2020
5753 Clouds 16 1026 59 10000 5.7 280 19:58 11.07.2020
5754 Clouds 16 1026 59 10000 5.7 280 19:40 11.07.2020
5755 Clouds 15 1026 62 10000 6.2 280 19:22 11.07.2020
5756 Clouds 16 1026 67 10000 6.2 280 18:56 11.07.2020
5757 Clouds 16 1026 67 10000 6.2 260 18:38 11.07.2020
5758 Clouds 16 1026 67 10000 6.2 260 18:19 11.07.2020
5759 Clouds 16 1026 63 10000 5.1 270 17:49 11.07.2020
5760 Clouds 16 1026 59 10000 7.2 250 17:22 11.07.2020
5761 Clouds 16 1026 59 10000 6.2 280 16:59 11.07.2020
5762 Clouds 16 1026 59 10000 6.2 280 16:40 11.07.2020
5763 Clouds 16 1026 59 10000 7.7 270 16:21 11.07.2020
5764 Clouds 16 1026 67 10000 7.7 250 15:57 11.07.2020
5765 Clouds 16 1026 67 10000 7.7 250 15:38 11.07.2020
5766 Clouds 16 1026 67 10000 6.7 250 15:20 11.07.2020
5767 Clouds 16 1025 67 10000 7.7 250 14:55 11.07.2020
5768 Clouds 16 1025 63 10000 5.7 260 14:36 11.07.2020
5769 Clouds 16 1025 63 10000 5.7 260 14:18 11.07.2020
5770 Clouds 16 1025 67 10000 4.6 270 13:41 11.07.2020
5771 Clouds 15 1025 71 10000 4.6 270 13:21 11.07.2020
5772 Clouds 15 1025 62 10000 5.1 260 12:45 11.07.2020
5773 Clouds 15 1025 71 10000 5.7 250 12:24 11.07.2020
5774 Clouds 15 1025 71 10000 5.7 260 11:59 11.07.2020
5775 Clouds 15 1025 71 10000 5.7 260 11:41 11.07.2020
5776 Clouds 15 1025 71 10000 5.1 250 11:20 11.07.2020
5777 Clouds 14 1024 76 10000 5.1 260 10:55 11.07.2020
5778 Clouds 14 1024 71 10000 4.6 280 10:36 11.07.2020
5779 Clouds 14 1024 71 10000 4.6 280 10:18 11.07.2020
5780 Clouds 14 1024 71 10000 3.6 270 09:39 11.07.2020
5781 Clouds 12 1024 76 10000 4.6 250 09:19 11.07.2020
5782 Clouds 12 1024 81 10000 4.6 250 08:46 11.07.2020
5783 Clouds 11 1023 81 10000 4.6 240 08:27 11.07.2020
5784 Clouds 11 1023 87 10000 1.5 260 07:55 11.07.2020
5785 Clouds 11 1023 93 10000 2.6 280 07:36 11.07.2020
5786 Clouds 10 1023 93 10000 2.6 280 07:18 11.07.2020
5787 Clouds 10 1023 87 10000 3.1 260 06:26 11.07.2020
5788 Clouds 9 1023 87 10000 2.6 230 05:54 11.07.2020
5789 Clouds 11 1023 81 10000 4.1 260 05:19 11.07.2020
5790 Clouds 10 1023 81 10000 4.1 220 04:44 11.07.2020
5791 Clouds 10 1023 87 10000 3.6 240 04:19 11.07.2020
5792 Clear 10 1022 87 10000 4.6 250 02:53 11.07.2020
5793 Clear 10 1022 87 10000 3.6 240 01:57 11.07.2020
5794 Clouds 11 1022 81 10000 3.6 250 01:22 11.07.2020
5795 Clouds 11 1022 76 10000 5.1 260 00:55 11.07.2020
5796 Clouds 11 1022 76 10000 5.1 260 00:36 11.07.2020
5797 Clear 11 1022 81 10000 4.1 260 00:18 11.07.2020
5798 Clouds 12 1021 76 10000 4.6 270 23:44 10.07.2020
5799 Clouds 13 1021 71 10000 5.1 280 23:26 10.07.2020
5800 Clouds 12 1021 76 10000 5.1 260 22:55 10.07.2020
5801 Clouds 12 1021 76 10000 5.1 260 22:36 10.07.2020
5802 Clouds 13 1020 71 10000 5.1 250 22:18 10.07.2020
5803 Clouds 14 1020 67 10000 5.1 270 21:38 10.07.2020
5804 Clear 15 1020 67 10000 5.1 270 21:20 10.07.2020
5805 Clouds 16 1020 62 10000 5.7 260 20:54 10.07.2020
5806 Clouds 16 1020 62 10000 5.7 260 20:54 10.07.2020
5807 Clouds 16 1019 58 10000 7.7 290 20:36 10.07.2020
5808 Clouds 16 1019 58 10000 7.7 290 20:36 10.07.2020
5809 Clouds 16 1019 58 10000 7.7 290 20:18 10.07.2020
5810 Clouds 15 1019 67 10000 5.7 270 19:42 10.07.2020
5811 Clouds 15 1019 62 10000 7.2 290 19:22 10.07.2020
5812 Clouds 15 1019 62 10000 6.2 280 18:55 10.07.2020
5813 Clouds 15 1019 67 10000 7.2 310 18:37 10.07.2020
5814 Clouds 15 1019 67 10000 7.2 310 18:18 10.07.2020
5815 Clouds 16 1018 63 10000 5.1 260 17:42 10.07.2020
5816 Clouds 15 1018 67 10000 5.1 280 17:23 10.07.2020
5817 Clouds 15 1018 62 10000 7.7 290 16:57 10.07.2020
5818 Clouds 15 1018 62 10000 7.7 290 16:39 10.07.2020
5819 Clouds 15 1018 59 10000 6.7 290 16:18 10.07.2020
5820 Clouds 16 1018 59 10000 6.7 290 15:43 10.07.2020
5821 Clouds 16 1018 63 10000 5.7 290 15:21 10.07.2020
5822 Rain 14 1018 71 10000 7.7 290 14:44 10.07.2020
5823 Clouds 16 1018 63 10000 4.1 280 14:24 10.07.2020
5824 Clouds 14 1018 67 10000 6.2 300 13:59 10.07.2020
5825 Clouds 15 1018 62 10000 3.1 280 13:40 10.07.2020
5826 Clouds 15 1018 62 10000 3.1 280 13:22 10.07.2020
5827 Clouds 14 1018 62 10000 5.1 290 13:00 10.07.2020
5828 Clouds 14 1018 62 10000 5.1 290 12:41 10.07.2020
5829 Clouds 14 1017 58 10000 5.7 290 12:22 10.07.2020
5830 Clouds 13 1017 62 10000 4.6 290 11:57 10.07.2020
5831 Clouds 14 1017 58 10000 4.6 290 11:38 10.07.2020
5832 Clouds 14 1017 62 10000 5.1 300 11:18 10.07.2020
5833 Clouds 13 1017 71 10000 6.2 290 10:41 10.07.2020
5834 Clouds 12 1017 71 10000 6.2 290 10:21 10.07.2020
5835 Clouds 12 1017 71 10000 6.2 290 09:55 10.07.2020
5836 Clouds 12 1017 71 10000 6.2 290 09:36 10.07.2020
5837 Clouds 12 1016 71 10000 4.6 290 09:18 10.07.2020
5838 Rain 12 1016 76 10000 4.6 300 08:46 10.07.2020
5839 Rain 11 1016 81 10000 4.1 300 08:28 10.07.2020
5840 Rain 11 1016 81 10000 5.1 300 07:59 10.07.2020
5841 Clouds 11 1016 81 10000 5.1 300 07:41 10.07.2020
5842 Clouds 11 1015 81 10000 3.1 290 07:20 10.07.2020
5843 Rain 11 1015 81 10000 4.6 300 06:45 10.07.2020
5844 Rain 11 1015 87 10000 3.6 300 05:53 10.07.2020
5845 Rain 11 1014 81 10000 2.6 310 04:31 10.07.2020
5846 Clouds 11 1014 87 10000 2.1 250 03:22 10.07.2020
5847 Clouds 11 1014 81 10000 2.6 250 02:41 10.07.2020
5848 Clouds 11 1014 81 10000 2.6 260 01:33 10.07.2020
5849 Clouds 11 1014 81 10000 3.6 230 00:40 10.07.2020
5850 Clouds 11 1014 81 10000 3.6 230 00:18 10.07.2020
5851 Clouds 10 1014 87 10000 2.6 230 23:39 09.07.2020
5852 Clouds 13 1014 76 10000 2.1 270 23:19 09.07.2020
5853 Clouds 13 1014 71 10000 4.6 270 22:57 09.07.2020
5854 Clouds 13 1014 71 10000 4.6 270 22:39 09.07.2020
5855 Clouds 14 1014 67 10000 4.6 290 22:20 09.07.2020
5856 Clouds 15 1014 58 10000 4.1 300 21:55 09.07.2020
5857 Clouds 15 1014 58 10000 4.1 300 21:36 09.07.2020
5858 Clouds 16 1013 62 10000 4.6 300 21:18 09.07.2020
5859 Clouds 16 1013 67 10000 4.1 260 20:41 09.07.2020
5860 Rain 16 1013 59 10000 4.6 280 20:23 09.07.2020
5861 Rain 16 1013 63 10000 5.1 290 19:55 09.07.2020
5862 Rain 16 1013 63 10000 5.1 290 19:37 09.07.2020
5863 Rain 17 1013 63 10000 4.6 270 19:18 09.07.2020
5864 Rain 17 1013 67 10000 4.6 260 18:41 09.07.2020
5865 Rain 16 1013 67 10000 1.5 0 18:19 09.07.2020
5866 Rain 15 1014 72 10000 3.1 0 17:43 09.07.2020
5867 Rain 17 1013 63 10000 3.1 260 17:25 09.07.2020
5868 Rain 17 1013 67 10000 3.6 250 16:59 09.07.2020
5869 Rain 17 1013 67 10000 3.6 250 16:41 09.07.2020
5870 Rain 17 1013 63 10000 4.1 250 16:19 09.07.2020
5871 Clouds 16 1013 63 10000 3.6 280 15:59 09.07.2020
5872 Clouds 16 1013 63 10000 3.6 280 15:40 09.07.2020
5873 Rain 18 1014 59 10000 3.1 240 15:21 09.07.2020
5874 Rain 18 1014 59 10000 1.5 0 14:58 09.07.2020
5875 Rain 18 1014 59 10000 1.5 0 14:40 09.07.2020
5876 Rain 18 1014 59 10000 2.1 240 14:22 09.07.2020
5877 Clouds 17 1014 67 10000 1.5 0 13:57 09.07.2020
5878 Clouds 17 1014 67 10000 1.5 0 13:38 09.07.2020
5879 Clouds 17 1014 63 10000 1 0 13:19 09.07.2020
5880 Clouds 16 1014 63 10000 1 0 12:42 09.07.2020
5881 Clouds 15 1014 67 10000 1.5 0 12:24 09.07.2020
5882 Clouds 14 1014 72 10000 1 0 11:59 09.07.2020
5883 Clouds 14 1014 72 10000 1 0 11:41 09.07.2020
5884 Clouds 14 1014 82 10000 2.6 300 11:21 09.07.2020
5885 Clouds 14 1014 77 10000 1.5 0 10:56 09.07.2020
5886 Clouds 14 1014 77 10000 1.5 0 10:38 09.07.2020
5887 Clouds 13 1014 76 10000 2.6 60 10:19 09.07.2020
5888 Clouds 13 1014 82 10000 2.6 50 09:43 09.07.2020
5889 Clouds 13 1014 76 10000 2.6 80 09:23 09.07.2020
5890 Clouds 13 1014 82 10000 3.1 70 08:52 09.07.2020
5891 Clouds 12 1013 82 10000 3.6 70 08:27 09.07.2020
5892 Clouds 12 1013 93 10000 1.5 80 07:56 09.07.2020
5893 Clouds 12 1013 93 10000 1.5 80 07:38 09.07.2020
5894 Clouds 12 1013 93 10000 1 80 07:20 09.07.2020
5895 Rain 11 1013 93 6000 2.1 80 06:21 09.07.2020
5896 Rain 12 1013 93 10000 2.6 40 05:53 09.07.2020
5897 Rain 12 1013 93 10000 3.1 70 04:29 09.07.2020
5898 Rain 12 1013 93 10000 2.6 50 03:19 09.07.2020
5899 Rain 12 1014 93 10000 2.6 40 01:56 09.07.2020
5900 Rain 12 1014 93 10000 0.5 0 00:59 09.07.2020
5901 Rain 12 1014 93 10000 0.5 0 00:40 09.07.2020
5902 Clouds 12 1014 93 10000 1.5 30 00:21 09.07.2020
5903 Rain 12 1014 93 10000 1.5 50 23:43 08.07.2020
5904 Rain 12 1014 93 10000 2.6 60 23:25 08.07.2020
5905 Rain 13 1014 87 10000 2.6 80 22:55 08.07.2020
5906 Rain 13 1014 87 10000 2.6 80 22:36 08.07.2020
5907 Rain 13 1014 87 10000 2.6 70 22:18 08.07.2020
5908 Rain 13 1014 87 10000 2.6 60 21:55 08.07.2020
5909 Rain 13 1014 87 10000 3.1 60 21:36 08.07.2020
5910 Rain 13 1014 87 10000 3.1 60 21:18 08.07.2020
5911 Rain 13 1014 87 10000 3.6 70 20:41 08.07.2020
5912 Rain 13 1014 87 10000 4.6 70 20:23 08.07.2020
5913 Rain 14 1014 82 10000 4.6 70 19:54 08.07.2020
5914 Rain 14 1014 82 10000 4.6 70 19:36 08.07.2020
5915 Rain 14 1014 82 10000 5.1 60 19:18 08.07.2020
5916 Rain 15 1015 77 10000 5.7 80 18:40 08.07.2020
5917 Rain 15 1015 72 10000 5.7 80 18:21 08.07.2020
5918 Rain 15 1015 67 10000 5.1 90 17:57 08.07.2020
5919 Rain 15 1015 67 10000 5.1 90 17:38 08.07.2020
5920 Rain 15 1015 67 10000 5.1 90 17:38 08.07.2020
5921 Clouds 16 1015 63 10000 4.6 90 17:20 08.07.2020
5922 Clouds 16 1015 63 10000 4.6 90 17:20 08.07.2020
5923 Clouds 16 1015 63 10000 4.6 90 17:20 08.07.2020
5924 Clouds 16 1015 59 10000 3.1 50 16:56 08.07.2020
5925 Clouds 17 1015 63 10000 3.6 60 16:37 08.07.2020
5926 Clouds 17 1015 63 10000 3.6 60 16:18 08.07.2020
5927 Clouds 17 1015 59 10000 3.1 70 15:56 08.07.2020
5928 Clouds 17 1015 59 10000 3.1 70 15:37 08.07.2020
5929 Clouds 17 1015 59 10000 3.1 70 15:18 08.07.2020
5930 Clouds 17 1015 63 10000 3.1 100 14:42 08.07.2020
5931 Clouds 17 1015 63 10000 3.1 110 14:20 08.07.2020
5932 Clouds 16 1016 63 10000 2.6 90 13:46 08.07.2020
5933 Clouds 16 1016 67 10000 3.1 100 13:27 08.07.2020
5934 Clouds 15 1016 72 10000 2.6 90 12:58 08.07.2020
5935 Clouds 15 1016 72 10000 2.6 90 12:40 08.07.2020
5936 Clouds 14 1016 71 10000 2.1 80 12:19 08.07.2020
5937 Clouds 14 1016 76 10000 2.6 50 11:39 08.07.2020
5938 Clouds 14 1016 76 10000 2.6 70 11:20 08.07.2020
5939 Clouds 13 1016 82 10000 2.6 70 10:56 08.07.2020
5940 Clouds 13 1016 82 10000 2.6 70 10:56 08.07.2020
5941 Clouds 13 1016 82 10000 2.6 70 10:38 08.07.2020
5942 Clouds 13 1016 82 10000 2.6 80 10:19 08.07.2020
5943 Clouds 13 1016 82 10000 3.6 50 09:43 08.07.2020
5944 Clouds 12 1016 81 10000 4.1 60 09:23 08.07.2020
5945 Clouds 12 1016 81 10000 4.6 60 08:43 08.07.2020
5946 Clouds 11 1016 87 10000 4.1 70 08:24 08.07.2020
5947 Clouds 11 1016 87 10000 4.1 60 07:48 08.07.2020
5948 Clouds 11 1015 87 10000 3.6 70 07:24 08.07.2020
5949 Clouds 11 1015 87 10000 3.1 60 06:55 08.07.2020
5950 Clouds 11 1015 87 10000 3.1 60 06:36 08.07.2020
5951 Clouds 11 1015 87 10000 2.1 60 05:55 08.07.2020
5952 Clouds 11 1015 87 10000 2.6 70 05:24 08.07.2020
5953 Clouds 10 1015 93 10000 2.1 60 04:36 08.07.2020
5954 Clouds 10 1015 87 10000 2.6 80 02:42 08.07.2020
5955 Clouds 11 1015 87 10000 3.6 70 01:46 08.07.2020
5956 Clouds 10 1015 93 10000 1.5 360 01:23 08.07.2020
5957 Clouds 11 1015 87 10000 2.6 220 00:26 08.07.2020
5958 Clouds 11 1015 87 10000 2.1 230 23:56 07.07.2020
5959 Clouds 12 1015 87 10000 2.1 230 23:37 07.07.2020
5960 Clouds 12 1014 81 10000 1.5 260 23:19 07.07.2020
5961 Clouds 13 1014 76 10000 2.6 270 22:43 07.07.2020
5962 Clouds 14 1014 82 10000 2.1 240 22:22 07.07.2020
5963 Clouds 14 1014 76 10000 3.6 230 21:59 07.07.2020
5964 Clouds 14 1014 76 10000 3.6 230 21:39 07.07.2020
5965 Clouds 15 1014 77 10000 3.6 230 21:21 07.07.2020
5966 Clouds 15 1014 72 10000 4.6 230 20:57 07.07.2020
5967 Clouds 15 1014 72 10000 4.6 230 20:38 07.07.2020
5968 Clouds 15 1014 77 10000 2.6 250 20:19 07.07.2020
5969 Clouds 15 1014 72 10000 2.6 200 19:40 07.07.2020
5970 Clouds 15 1015 72 10000 3.1 210 19:21 07.07.2020
5971 Clouds 14 1015 82 10000 4.6 200 18:56 07.07.2020
5972 Clouds 14 1015 82 10000 4.6 200 18:38 07.07.2020
5973 Rain 15 1015 72 10000 3.6 230 18:19 07.07.2020
5974 Rain 15 1015 62 10000 2.6 280 17:57 07.07.2020
5975 Rain 15 1015 62 10000 2.6 280 17:38 07.07.2020
5976 Rain 15 1015 67 10000 2.1 300 17:20 07.07.2020
5977 Rain 15 1015 72 10000 1.5 0 16:43 07.07.2020
5978 Rain 14 1016 82 10000 1.5 0 16:23 07.07.2020
5979 Rain 14 1016 82 10000 1.5 0 16:23 07.07.2020
5980 Rain 15 1016 72 10000 1.5 0 15:56 07.07.2020
5981 Rain 15 1016 72 10000 1.5 0 15:37 07.07.2020
5982 Rain 14 1016 76 10000 2.6 230 15:19 07.07.2020
5983 Rain 14 1016 82 10000 3.1 240 14:45 07.07.2020
5984 Rain 14 1016 82 10000 3.6 290 14:24 07.07.2020
5985 Rain 14 1016 71 10000 2.6 310 13:46 07.07.2020
5986 Rain 12 1016 81 10000 2.6 300 13:21 07.07.2020
5987 Rain 13 1016 82 10000 3.6 240 12:57 07.07.2020
5988 Rain 13 1016 82 10000 3.6 240 12:38 07.07.2020
5989 Clouds 13 1017 82 10000 3.6 230 12:20 07.07.2020
5990 Rain 12 1017 87 10000 4.1 220 11:44 07.07.2020
5991 Clouds 12 1017 87 10000 4.1 230 11:22 07.07.2020
5992 Rain 12 1019 97 0 0.45 264 10:58 07.07.2020
5993 Rain 12 1019 97 0 0.45 264 10:58 07.07.2020
5994 Rain 12 1019 98 0 0.89 244 10:40 07.07.2020
5995 Rain 12 1017 87 10000 3.6 240 10:21 07.07.2020
5996 Rain 11 1017 93 10000 2.6 240 09:43 07.07.2020
5997 Rain 11 1017 93 10000 1.5 240 09:22 07.07.2020
5998 Rain 11 1017 93 10000 1.5 240 08:57 07.07.2020
5999 Rain 11 1017 93 10000 1.5 240 08:39 07.07.2020
6000 Rain 11 1017 87 10000 2.6 240 08:19 07.07.2020
6001 Rain 11 1017 87 10000 0.5 0 07:38 07.07.2020
6002 Rain 11 1017 87 10000 0.5 0 07:19 07.07.2020
6003 Clouds 11 1018 87 10000 3.1 230 06:45 07.07.2020
6004 Clouds 11 1018 87 10000 2.1 240 06:26 07.07.2020
6005 Clouds 11 1018 93 10000 1.5 230 05:43 07.07.2020
6006 Rain 11 1018 93 10000 1.5 0 04:52 07.07.2020
6007 Clouds 11 1019 81 10000 5.1 240 03:49 07.07.2020
6008 Clouds 11 1019 81 10000 5.1 240 03:30 07.07.2020
6009 Clouds 11 1019 81 10000 4.6 250 01:55 07.07.2020
6010 Clouds 11 1019 81 10000 4.1 240 01:18 07.07.2020
6011 Clouds 11 1019 81 10000 3.6 250 00:41 07.07.2020
6012 Clouds 11 1019 81 10000 4.1 240 00:21 07.07.2020
6013 Clouds 11 1019 81 10000 3.6 260 23:44 06.07.2020
6014 Clouds 12 1020 76 10000 3.6 260 23:25 06.07.2020
6015 Clouds 12 1020 71 10000 3.1 250 22:57 06.07.2020
6016 Clouds 12 1020 71 10000 3.1 250 22:57 06.07.2020
6017 Clouds 12 1020 71 10000 3.1 250 22:39 06.07.2020
6018 Clouds 13 1020 66 10000 3.6 260 22:18 06.07.2020
6019 Clouds 13 1020 66 10000 3.6 260 22:18 06.07.2020
6020 Clouds 13 1020 62 10000 5.1 270 21:56 06.07.2020
6021 Clouds 13 1020 62 10000 5.1 270 21:36 06.07.2020
6022 Clouds 13 1020 58 10000 5.7 260 21:18 06.07.2020
6023 Clouds 14 1020 62 10000 4.6 270 20:40 06.07.2020
6024 Clouds 14 1020 58 10000 6.2 260 20:21 06.07.2020
6025 Clouds 14 1020 62 10000 5.7 270 19:59 06.07.2020
6026 Clouds 14 1020 58 10000 5.7 280 19:40 06.07.2020
6027 Clouds 14 1020 58 10000 5.7 280 19:22 06.07.2020
6028 Clouds 15 1020 62 10000 5.1 270 18:58 06.07.2020
6029 Clouds 14 1020 62 10000 5.7 270 18:39 06.07.2020
6030 Clouds 14 1020 62 10000 5.7 270 18:21 06.07.2020
6031 Clouds 15 1019 51 10000 7.7 260 17:54 06.07.2020
6032 Clouds 15 1019 51 10000 7.7 260 17:36 06.07.2020
6033 Clouds 16 1019 51 10000 7.7 260 17:18 06.07.2020
6034 Clouds 15 1019 58 10000 7.2 270 16:42 06.07.2020
6035 Clouds 15 1019 58 10000 6.7 290 16:22 06.07.2020
6036 Clouds 16 1019 59 10000 5.7 280 15:44 06.07.2020
6037 Clouds 16 1018 55 10000 8.7 290 15:26 06.07.2020
6038 Clouds 16 1018 55 10000 6.7 290 14:57 06.07.2020
6039 Clouds 16 1018 55 10000 6.7 290 14:57 06.07.2020
6040 Clouds 16 1018 55 10000 6.7 290 14:38 06.07.2020
6041 Clouds 15 1018 58 10000 7.2 290 14:20 06.07.2020
6042 Clouds 16 1017 55 10000 8.7 300 13:57 06.07.2020
6043 Clouds 16 1017 55 10000 8.7 300 13:38 06.07.2020
6044 Clear 15 1017 54 10000 8.7 290 13:19 06.07.2020
6045 Clouds 15 1017 58 10000 6.7 290 12:43 06.07.2020
6046 Clear 15 1016 62 10000 7.7 290 12:19 06.07.2020
6047 Clouds 14 1016 67 10000 7.2 290 11:58 06.07.2020
6048 Clouds 14 1016 67 10000 7.2 290 11:39 06.07.2020
6049 Clouds 15 1015 62 10000 6.7 310 11:20 06.07.2020
6050 Clear 15 1015 67 10000 7.2 290 10:56 06.07.2020
6051 Clear 14 1015 67 10000 7.2 290 10:38 06.07.2020
6052 Clear 14 1014 67 10000 7.7 290 10:18 06.07.2020
6053 Clear 13 1014 71 10000 8.7 300 09:42 06.07.2020
6054 Clear 13 1013 71 10000 8.2 300 09:21 06.07.2020
6055 Clear 13 1012 71 10000 8.2 300 08:56 06.07.2020
6056 Clouds 12 1012 76 10000 7.2 290 08:38 06.07.2020
6057 Clouds 12 1012 76 10000 7.2 290 08:19 06.07.2020
6058 Clouds 11 1011 81 10000 4.1 270 07:43 06.07.2020
6059 Clouds 11 1011 87 10000 4.1 230 07:23 06.07.2020
6060 Clouds 11 1009 81 10000 4.6 290 06:40 06.07.2020
6061 Clouds 11 1009 81 10000 4.6 290 06:21 06.07.2020
6062 Clouds 11 1008 87 10000 4.1 290 05:41 06.07.2020
6063 Rain 11 1007 87 10000 4.6 250 04:55 06.07.2020
6064 Clouds 11 1007 87 10000 5.1 240 03:42 06.07.2020
6065 Rain 11 1006 81 10000 4.6 240 02:23 06.07.2020
6066 Clouds 11 1006 81 10000 4.1 250 01:34 06.07.2020
6067 Rain 11 1005 81 10000 5.7 270 00:38 06.07.2020
6068 Rain 11 1005 81 10000 5.7 270 00:19 06.07.2020
6069 Clouds 11 1004 81 10000 5.1 250 23:42 05.07.2020
6070 Clouds 11 1004 81 10000 5.7 260 23:23 05.07.2020
6071 Clouds 11 1003 76 10000 7.7 270 22:59 05.07.2020
6072 Clouds 12 1005 92 0 1.34 307 22:40 05.07.2020
6073 Clouds 12 1003 76 10000 6.2 270 22:20 05.07.2020
6074 Clouds 12 1002 76 10000 5.7 270 21:57 05.07.2020
6075 Rain 12 1002 76 10000 5.7 270 21:38 05.07.2020
6076 Rain 13 1001 76 10000 5.7 260 21:18 05.07.2020
6077 Rain 12 1001 81 10000 6.7 260 20:57 05.07.2020
6078 Clouds 12 1001 81 10000 6.7 260 20:38 05.07.2020
6079 Rain 13 1000 76 10000 6.7 250 20:20 05.07.2020
6080 Rain 13 1000 82 10000 5.7 250 19:43 05.07.2020
6081 Rain 13 1000 82 10000 5.7 250 19:43 05.07.2020
6082 Rain 12 1000 87 10000 5.1 250 19:21 05.07.2020
6083 Rain 12 1000 81 5000 6.2 250 18:56 05.07.2020
6084 Rain 12 1000 81 5000 6.2 250 18:37 05.07.2020
6085 Rain 12 1000 81 5000 6.2 250 18:37 05.07.2020
6086 Rain 13 999 76 10000 7.2 250 18:19 05.07.2020
6087 Rain 12 1000 81 10000 8.2 260 17:43 05.07.2020
6088 Rain 12 999 71 10000 10.3 240 17:20 05.07.2020
6089 Rain 14 1000 76 10000 9.3 240 16:59 05.07.2020
6090 Rain 13 1000 71 10000 9.3 240 16:40 05.07.2020
6091 Rain 13 1000 71 10000 9.3 240 16:21 05.07.2020
6092 Rain 13 1000 71 10000 10.8 250 15:41 05.07.2020
6093 Rain 13 1000 76 10000 10.3 250 15:20 05.07.2020
6094 Rain 14 999 71 10000 8.7 240 14:57 05.07.2020
6095 Rain 14 999 71 10000 8.7 240 14:38 05.07.2020
6096 Rain 14 1000 76 10000 8.2 230 14:20 05.07.2020
6097 Rain 14 1000 76 10000 8.7 230 13:41 05.07.2020
6098 Rain 12 1000 81 10000 7.2 230 13:23 05.07.2020
6099 Rain 12 1000 87 10000 6.2 250 12:46 05.07.2020
6100 Rain 12 1000 87 10000 6.2 250 12:46 05.07.2020
6101 Rain 12 1000 87 10000 7.2 240 12:21 05.07.2020
6102 Rain 12 1000 81 10000 7.2 230 11:57 05.07.2020
6103 Rain 13 1000 81 10000 7.2 230 11:38 05.07.2020
6104 Rain 13 1000 81 10000 7.2 230 11:38 05.07.2020
6105 Rain 13 1000 82 10000 6.7 230 11:19 05.07.2020
6106 Rain 13 1000 76 10000 8.2 240 10:55 05.07.2020
6107 Rain 13 1000 76 10000 8.2 240 10:37 05.07.2020
6108 Rain 13 999 81 10000 6.2 250 10:18 05.07.2020
6109 Rain 12 999 81 10000 6.2 250 09:41 05.07.2020
6110 Rain 12 998 93 10000 6.7 240 09:20 05.07.2020
6111 Rain 12 998 87 10000 5.1 240 08:57 05.07.2020
6112 Rain 12 998 87 10000 5.1 240 08:38 05.07.2020
6113 Clouds 12 997 81 10000 6.7 250 08:18 05.07.2020
6114 Clouds 12 996 87 10000 7.2 250 07:39 05.07.2020
6115 Clouds 12 995 87 10000 6.7 250 07:21 05.07.2020
6116 Clouds 12 995 93 10000 9.3 240 06:45 05.07.2020
6117 Rain 13 993 87 10000 10.8 240 04:27 05.07.2020
6118 Rain 14 992 100 10000 8.2 230 03:18 05.07.2020
6119 Rain 15 991 93 4300 9.3 230 02:40 05.07.2020
6120 Rain 15 992 93 7000 8.7 220 01:59 05.07.2020
6121 Rain 15 992 93 9000 8.7 230 01:28 05.07.2020
6122 Rain 15 993 93 7000 11.3 210 00:51 05.07.2020
6123 Rain 14 993 100 7000 2.1 190 00:30 05.07.2020
6124 Rain 13 994 100 4200 3.6 100 23:56 04.07.2020
6125 Rain 13 994 100 4200 3.6 100 23:32 04.07.2020
6126 Rain 13 996 93 5000 3.1 90 22:59 04.07.2020
6127 Rain 13 996 93 5000 3.1 90 22:40 04.07.2020
6128 Rain 13 997 93 7000 1.5 120 22:22 04.07.2020
6129 Rain 14 998 82 10000 3.1 170 21:58 04.07.2020
6130 Rain 14 998 82 10000 3.1 170 21:40 04.07.2020
6131 Rain 14 999 76 10000 3.6 170 21:22 04.07.2020
6132 Clouds 14 1000 82 10000 3.1 200 20:42 04.07.2020
6133 Clouds 15 1001 72 10000 3.6 190 20:21 04.07.2020
6134 Clouds 15 1001 77 10000 4.6 210 19:56 04.07.2020
6135 Clouds 15 1001 77 10000 4.6 210 19:38 04.07.2020
6136 Clouds 16 1002 77 10000 4.6 220 19:20 04.07.2020
6137 Clouds 15 1002 77 10000 4.1 230 18:43 04.07.2020
6138 Clouds 15 1003 77 10000 4.6 230 18:23 04.07.2020
6139 Clouds 15 1003 77 10000 3.1 250 17:46 04.07.2020
6140 Clouds 14 1003 82 10000 4.1 230 17:28 04.07.2020
6141 Clouds 15 1003 82 10000 4.1 230 16:59 04.07.2020
6142 Clouds 14 1003 82 10000 4.1 230 16:40 04.07.2020
6143 Clouds 14 1004 82 10000 5.7 220 16:40 04.07.2020
6144 Clouds 14 1004 82 10000 5.7 220 16:21 04.07.2020
6145 Clouds 14 1004 82 10000 5.7 220 15:58 04.07.2020
6146 Clouds 14 1004 82 10000 5.7 220 15:40 04.07.2020
6147 Clouds 14 1004 82 10000 5.7 230 15:21 04.07.2020
6148 Clouds 14 1004 82 10000 5.7 230 14:56 04.07.2020
6149 Clouds 14 1004 82 10000 5.7 230 14:37 04.07.2020
6150 Clouds 14 1003 87 10000 4.6 220 14:18 04.07.2020
6151 Clouds 13 1004 93 10000 4.6 220 13:41 04.07.2020
6152 Rain 12 1004 93 10000 1 0 13:19 04.07.2020
6153 Rain 12 1004 93 10000 1.5 340 12:55 04.07.2020
6154 Rain 12 1004 93 10000 1.5 340 12:37 04.07.2020
6155 Rain 12 1004 87 4700 1 0 12:18 04.07.2020
6156 Rain 12 1004 87 3500 2.1 270 11:42 04.07.2020
6157 Rain 12 1004 81 10000 1 0 11:22 04.07.2020
6158 Clouds 12 1004 76 10000 1.5 0 10:55 04.07.2020
6159 Clouds 12 1004 76 10000 1.5 0 10:36 04.07.2020
6160 Clouds 12 1004 81 10000 1 0 10:18 04.07.2020
6161 Clouds 13 1003 76 10000 0.5 0 09:40 04.07.2020
6162 Clouds 12 1004 81 10000 1 0 09:21 04.07.2020
6163 Clouds 11 1004 87 10000 2.1 240 08:51 04.07.2020
6164 Clouds 11 1004 87 10000 2.1 230 08:32 04.07.2020
6165 Clouds 10 1003 93 10000 1.5 190 07:56 04.07.2020
6166 Clouds 10 1003 93 10000 1.5 190 07:38 04.07.2020
6167 Clouds 9 1004 100 10000 1.5 260 06:57 04.07.2020
6168 Clouds 9 1004 100 10000 1.5 240 06:23 04.07.2020
6169 Clouds 9 1004 93 10000 1.5 270 05:41 04.07.2020
6170 Clouds 9 1003 93 10000 1.5 270 05:19 04.07.2020
6171 Clouds 9 1004 93 10000 0.5 0 03:47 04.07.2020
6172 Clouds 9 1004 100 10000 0.5 0 02:39 04.07.2020
6173 Clouds 8 1004 100 10000 1.5 260 01:38 04.07.2020
6174 Clouds 9 1004 93 10000 1 0 00:47 04.07.2020
6175 Clouds 9 1004 93 10000 1.5 0 00:29 04.07.2020
6176 Clouds 10 1004 87 10000 2.1 230 23:41 03.07.2020
6177 Clouds 11 1004 87 10000 1 220 23:19 03.07.2020
6178 Clouds 11 1004 87 10000 2.1 240 22:59 03.07.2020
6179 Clouds 11 1004 87 10000 2.1 240 22:39 03.07.2020
6180 Clouds 12 1004 87 10000 2.6 240 22:39 03.07.2020
6181 Clouds 12 1004 87 10000 2.6 240 22:21 03.07.2020
6182 Clouds 12 1004 87 10000 3.6 250 21:54 03.07.2020
6183 Clouds 12 1004 87 10000 3.6 250 21:36 03.07.2020
6184 Clouds 12 1004 87 10000 3.1 250 21:18 03.07.2020
6185 Clouds 12 1004 87 10000 2.6 260 20:42 03.07.2020
6186 Clouds 12 1003 87 10000 1.5 0 20:23 03.07.2020
6187 Clouds 12 1003 93 10000 2.1 250 19:42 03.07.2020
6188 Rain 12 1003 87 10000 5.1 270 19:21 03.07.2020
6189 Rain 12 1003 87 10000 5.1 270 19:21 03.07.2020
6190 Rain 12 1003 93 10000 3.1 280 18:57 03.07.2020
6191 Rain 12 1003 93 10000 3.1 280 18:39 03.07.2020
6192 Rain 12 1003 93 10000 2.1 250 18:21 03.07.2020
6193 Rain 13 1003 93 5000 4.6 280 17:44 03.07.2020
6194 Rain 13 1003 93 8000 4.6 290 17:23 03.07.2020
6195 Rain 13 1002 93 10000 5.1 250 16:51 03.07.2020
6196 Rain 14 1002 87 10000 5.1 250 16:31 03.07.2020
6197 Rain 14 1002 93 6000 6.2 230 15:57 03.07.2020
6198 Rain 14 1002 93 6000 6.2 230 15:39 03.07.2020
6199 Rain 14 1002 93 4500 6.2 230 15:20 03.07.2020
6200 Rain 14 1002 93 3700 5.1 220 14:41 03.07.2020
6201 Rain 14 1003 93 10000 5.1 210 14:23 03.07.2020
6202 Rain 14 1003 93 5000 6.2 220 13:59 03.07.2020
6203 Rain 14 1003 93 5000 6.2 220 13:40 03.07.2020
6204 Rain 14 1002 93 7000 7.2 220 13:22 03.07.2020
6205 Rain 14 1002 93 5000 7.7 220 12:41 03.07.2020
6206 Rain 13 1002 93 10000 7.7 220 12:22 03.07.2020
6207 Rain 13 1003 93 3900 9.3 220 11:44 03.07.2020
6208 Rain 13 1003 93 10000 8.2 210 11:25 03.07.2020
6209 Rain 13 1003 93 6000 6.7 210 10:59 03.07.2020
6210 Rain 13 1003 93 6000 6.7 210 10:41 03.07.2020
6211 Rain 13 1003 87 6000 5.7 210 10:21 03.07.2020
6212 Rain 13 1003 87 6000 5.7 210 10:21 03.07.2020
6213 Rain 12 1003 93 7000 3.6 200 09:58 03.07.2020
6214 Rain 12 1003 93 7000 3.6 200 09:39 03.07.2020
6215 Rain 12 1004 93 4800 1 0 09:19 03.07.2020
6216 Rain 11 1004 93 10000 2.1 130 08:56 03.07.2020
6217 Rain 11 1004 93 10000 2.1 130 08:37 03.07.2020
6218 Rain 11 1005 93 10000 2.6 120 08:18 03.07.2020
6219 Rain 11 1005 93 10000 2.6 140 07:43 03.07.2020
6220 Rain 10 1006 93 10000 3.1 110 07:21 03.07.2020
6221 Rain 10 1007 93 10000 2.6 80 06:29 03.07.2020
6222 Rain 10 1007 87 10000 2.1 110 05:34 03.07.2020
6223 Rain 9 1009 93 10000 1 280 03:59 03.07.2020
6224 Rain 10 1010 81 10000 2.1 260 02:52 03.07.2020
6225 Clouds 11 1010 76 10000 2.1 240 02:30 03.07.2020
6226 Clouds 11 1011 76 10000 1.5 240 01:41 03.07.2020
6227 Clouds 11 1011 71 10000 2.1 260 01:20 03.07.2020
6228 Clouds 11 1011 76 10000 2.6 230 00:40 03.07.2020
6229 Clouds 11 1012 66 10000 3.6 230 23:54 02.07.2020
6230 Clouds 12 1012 66 10000 3.6 240 23:22 02.07.2020
6231 Clouds 12 1012 62 10000 2.6 260 22:59 02.07.2020
6232 Clouds 12 1012 62 10000 2.6 260 22:41 02.07.2020
6233 Clouds 13 1012 62 10000 4.1 260 22:21 02.07.2020
6234 Clouds 13 1012 62 10000 5.7 260 22:00 02.07.2020
6235 Clouds 13 1012 62 10000 5.7 260 21:41 02.07.2020
6236 Clouds 14 1011 62 10000 5.1 270 21:19 02.07.2020
6237 Clouds 15 1011 62 10000 5.1 270 20:58 02.07.2020
6238 Clouds 16 1011 63 10000 5.7 270 20:39 02.07.2020
6239 Clouds 16 1011 63 10000 5.7 270 20:19 02.07.2020
6240 Clouds 16 1011 63 10000 5.7 260 19:42 02.07.2020
6241 Clouds 17 1011 55 10000 5.1 240 19:24 02.07.2020
6242 Clouds 17 1011 59 10000 5.7 250 18:58 02.07.2020
6243 Clouds 17 1011 59 10000 5.7 250 18:40 02.07.2020
6244 Clouds 17 1011 55 10000 6.2 230 18:21 02.07.2020
6245 Clouds 16 1011 59 10000 2.1 260 17:57 02.07.2020
6246 Clouds 16 1011 59 10000 2.1 260 17:38 02.07.2020
6247 Clouds 16 1011 59 10000 2.6 260 17:18 02.07.2020
6248 Rain 17 1011 51 10000 2.6 250 16:42 02.07.2020
6249 Rain 16 1011 55 10000 1 0 16:20 02.07.2020
6250 Rain 16 1011 55 10000 1.5 0 15:57 02.07.2020
6251 Rain 16 1011 55 10000 1.5 0 15:38 02.07.2020
6252 Rain 16 1011 55 10000 1.5 0 15:38 02.07.2020
6253 Clouds 17 1011 51 10000 2.6 180 15:19 02.07.2020
6254 Clouds 17 1011 51 10000 1.5 0 14:44 02.07.2020
6255 Clouds 16 1011 51 10000 1.5 0 14:22 02.07.2020
6256 Rain 15 1011 54 10000 1.5 0 13:57 02.07.2020
6257 Rain 15 1011 54 10000 1.5 0 13:38 02.07.2020
6258 Clouds 15 1011 58 10000 1.5 0 13:18 02.07.2020
6259 Clouds 14 1011 67 10000 2.1 80 12:41 02.07.2020
6260 Clouds 13 1011 71 10000 1.5 0 12:22 02.07.2020
6261 Clouds 13 1011 71 10000 1.5 0 11:57 02.07.2020
6262 Clouds 13 1011 71 10000 1.5 0 11:39 02.07.2020
6263 Clouds 13 1011 71 10000 2.6 40 11:21 02.07.2020
6264 Clouds 13 1011 71 10000 2.6 60 10:42 02.07.2020
6265 Clouds 13 1011 71 10000 2.6 60 10:42 02.07.2020
6266 Clouds 13 1010 71 10000 3.1 70 10:24 02.07.2020
6267 Clouds 12 1010 76 10000 2.6 60 09:45 02.07.2020
6268 Clouds 12 1010 76 10000 2.6 50 09:23 02.07.2020
6269 Clouds 12 1010 76 10000 2.6 70 08:59 02.07.2020
6270 Clouds 11 1010 81 10000 1.5 50 08:40 02.07.2020
6271 Clouds 11 1010 81 10000 1.5 50 08:20 02.07.2020
6272 Clouds 11 1009 81 10000 1.5 60 07:42 02.07.2020
6273 Clouds 11 1009 81 10000 1 80 07:22 02.07.2020
6274 Clouds 10 1009 87 10000 1 40 06:50 02.07.2020
6275 Clouds 10 1009 87 10000 2.1 40 06:27 02.07.2020
6276 Clouds 10 1009 87 10000 1.5 60 05:50 02.07.2020
6277 Clouds 10 1009 87 10000 3.1 40 04:58 02.07.2020
6278 Clouds 10 1009 87 10000 2.1 40 03:34 02.07.2020
6279 Clouds 11 1008 76 10000 4.6 80 01:51 02.07.2020
6280 Clouds 11 1008 81 10000 5.7 50 00:45 02.07.2020
6281 Clouds 11 1008 81 10000 5.1 50 00:19 02.07.2020
6282 Clouds 11 1008 81 10000 5.7 50 23:43 01.07.2020
6283 Clouds 11 1007 81 10000 5.1 60 23:23 01.07.2020
6284 Clouds 11 1007 81 10000 4.6 60 22:55 01.07.2020
6285 Clouds 11 1007 81 10000 4.6 60 22:37 01.07.2020
6286 Clouds 12 1007 76 10000 5.1 50 22:18 01.07.2020
6287 Clouds 12 1007 76 10000 5.7 70 21:56 01.07.2020
6288 Clouds 12 1007 76 10000 5.7 70 21:38 01.07.2020
6289 Clouds 12 1007 76 10000 4.6 70 21:19 01.07.2020
6290 Clouds 12 1006 76 10000 5.1 70 20:46 01.07.2020
6291 Clouds 12 1006 76 10000 5.7 70 20:26 01.07.2020
6292 Clouds 13 1006 76 10000 5.7 70 19:57 01.07.2020
6293 Clouds 13 1006 76 10000 5.7 70 19:39 01.07.2020
6294 Clouds 13 1006 76 10000 5.7 80 19:20 01.07.2020
6295 Clouds 13 1006 76 10000 6.2 80 18:54 01.07.2020
6296 Clouds 13 1006 82 10000 6.7 70 18:36 01.07.2020
6297 Clouds 13 1006 82 10000 6.7 70 18:18 01.07.2020
6298 Clouds 13 1005 82 10000 5.1 70 17:41 01.07.2020
6299 Clouds 13 1005 87 10000 5.7 70 17:20 01.07.2020
6300 Rain 13 1005 87 10000 6.2 70 16:48 01.07.2020
6301 Rain 13 1005 87 10000 6.2 70 16:29 01.07.2020
6302 Rain 14 1005 82 10000 6.2 80 15:59 01.07.2020
6303 Rain 14 1005 82 10000 6.2 80 15:40 01.07.2020
6304 Rain 14 1004 82 10000 6.2 70 15:21 01.07.2020
6305 Rain 14 1004 82 10000 5.1 80 14:47 01.07.2020
6306 Clouds 14 1004 82 10000 5.1 80 14:22 01.07.2020
6307 Clouds 14 1004 82 10000 5.7 70 13:59 01.07.2020
6308 Clouds 14 1004 82 10000 5.7 70 13:40 01.07.2020
6309 Clouds 14 1003 82 10000 6.7 70 13:21 01.07.2020
6310 Clouds 14 1003 82 10000 5.7 80 12:58 01.07.2020
6311 Clouds 14 1003 82 10000 5.7 80 12:39 01.07.2020
6312 Rain 15 1003 77 10000 3.1 50 12:21 01.07.2020
6313 Rain 15 1003 77 10000 1 0 11:55 01.07.2020
6314 Rain 16 1003 77 10000 1 0 11:37 01.07.2020
6315 Rain 15 1003 77 10000 1 0 11:18 01.07.2020
6316 Rain 15 1002 77 10000 0.5 0 10:41 01.07.2020
6317 Clouds 14 1002 87 10000 1 0 10:23 01.07.2020
6318 Clouds 14 1002 87 10000 2.1 250 09:58 01.07.2020
6319 Clouds 14 1002 87 10000 2.1 250 09:37 01.07.2020
6320 Clouds 13 1002 93 10000 1 0 09:18 01.07.2020
6321 Clouds 13 1002 93 10000 1.5 0 08:41 01.07.2020
6322 Clouds 12 1002 100 10000 1 270 08:23 01.07.2020
6323 Clouds 12 1001 93 10000 1 260 07:58 01.07.2020
6324 Clouds 12 1001 93 10000 1 260 07:38 01.07.2020
6325 Clouds 11 1001 100 10000 1 240 07:20 01.07.2020
6326 Clouds 11 1001 93 10000 0.5 260 06:49 01.07.2020
6327 Clouds 11 1001 100 10000 0.85 276 06:27 01.07.2020
6328 Mist 11 1002 100 5000 1 240 04:32 01.07.2020
6329 Clouds 11 1002 93 6000 1 270 03:47 01.07.2020
6330 Mist 11 1002 100 3900 2.1 240 03:27 01.07.2020
6331 Clouds 11 1002 100 7000 1.5 260 02:41 01.07.2020
6332 Clouds 11 1002 93 7000 1.5 0 01:47 01.07.2020
6333 Clouds 12 1002 93 10000 2.6 230 00:42 01.07.2020
6334 Clouds 12 1002 93 10000 2.6 230 00:23 01.07.2020
6335 Clouds 13 1002 87 10000 2.6 220 23:41 30.06.2020
6336 Clouds 13 1002 87 10000 3.6 220 23:22 30.06.2020
6337 Clouds 14 1002 87 10000 2.1 240 22:43 30.06.2020
6338 Clouds 15 1002 82 10000 4.1 210 22:20 30.06.2020
6339 Clouds 15 1002 82 10000 4.1 220 21:59 30.06.2020
6340 Clouds 15 1002 82 10000 4.1 220 21:40 30.06.2020
6341 Clouds 15 1002 82 10000 4.1 230 21:19 30.06.2020
6342 Clouds 16 1001 77 10000 4.1 230 20:43 30.06.2020
6343 Clouds 16 1001 72 10000 5.1 220 20:21 30.06.2020
6344 Rain 16 1002 72 10000 4.6 230 19:47 30.06.2020
6345 Clouds 16 1002 72 10000 6.7 220 19:22 30.06.2020
6346 Clouds 17 1001 72 10000 5.1 220 18:59 30.06.2020
6347 Clouds 17 1001 72 10000 5.1 220 18:41 30.06.2020
6348 Clouds 17 1002 72 10000 5.1 230 18:20 30.06.2020
6349 Clouds 17 1002 72 10000 5.1 220 17:40 30.06.2020
6350 Clouds 17 1002 72 10000 4.6 230 17:21 30.06.2020
6351 Clouds 17 1002 68 10000 5.7 220 16:59 30.06.2020
6352 Clouds 17 1002 68 10000 5.7 220 16:40 30.06.2020
6353 Clouds 16 1002 77 10000 5.1 230 16:21 30.06.2020
6354 Clouds 17 1002 72 10000 5.7 230 15:56 30.06.2020
6355 Clouds 17 1002 72 10000 5.7 230 15:38 30.06.2020
6356 Clouds 15 1002 82 10000 4.1 230 15:19 30.06.2020
6357 Rain 16 1002 82 10000 3.6 220 14:43 30.06.2020
6358 Clouds 15 1002 82 10000 5.7 220 14:22 30.06.2020
6359 Rain 15 1002 77 10000 4.1 230 13:57 30.06.2020
6360 Rain 15 1002 77 10000 4.1 230 13:37 30.06.2020
6361 Rain 15 1002 77 10000 4.1 230 13:37 30.06.2020
6362 Clouds 15 1002 77 10000 4.6 220 13:19 30.06.2020
6363 Rain 15 1002 82 10000 5.7 230 12:55 30.06.2020
6364 Rain 14 1002 82 10000 5.7 230 12:37 30.06.2020
6365 Clouds 15 1002 82 10000 5.1 220 12:18 30.06.2020
6366 Clouds 15 1002 82 10000 5.1 220 12:18 30.06.2020
6367 Clouds 14 1001 82 10000 4.1 230 11:56 30.06.2020
6368 Clouds 14 1001 82 10000 4.1 230 11:37 30.06.2020
6369 Clouds 14 1001 82 10000 3.6 230 11:18 30.06.2020
6370 Drizzle 14 993 93 4500 7.2 240 16:46 28.06.2020
6371 Rain 14 993 87 6000 6.7 220 16:28 28.06.2020
6372 Clouds 13 993 93 10000 6.2 210 15:59 28.06.2020
6373 Clouds 13 993 93 10000 6.2 210 15:39 28.06.2020
6374 Rain 13 993 93 4900 9.3 220 15:20 28.06.2020
6375 Haze 13 992 93 5000 10.8 210 14:55 28.06.2020
6376 Haze 13 992 93 5000 10.8 210 14:37 28.06.2020
6377 Clouds 13 992 87 7000 10.8 200 14:19 28.06.2020
6378 Rain 13 992 93 7000 10.3 200 13:39 28.06.2020
6379 Rain 13 992 87 4900 10.3 210 13:21 28.06.2020
6380 Rain 12 992 87 6000 9.8 210 12:57 28.06.2020
6381 Rain 12 992 87 6000 9.8 210 12:38 28.06.2020
6382 Haze 12 992 87 4500 9.8 210 12:19 28.06.2020
6383 Rain 13 992 87 10000 8.7 210 11:58 28.06.2020
6384 Rain 13 992 87 10000 8.7 210 11:39 28.06.2020
6385 Rain 12 992 87 10000 8.2 220 11:20 28.06.2020
6386 Rain 12 991 93 8000 8.7 220 10:56 28.06.2020
6387 Rain 12 991 93 8000 8.7 220 10:38 28.06.2020
6388 Rain 13 991 87 10000 6.7 220 10:19 28.06.2020
6389 Rain 12 991 93 10000 7.2 220 09:40 28.06.2020
6390 Rain 12 990 93 10000 7.2 220 09:21 28.06.2020
6391 Rain 12 990 93 6000 7.7 230 08:48 28.06.2020
6392 Rain 12 990 93 7000 7.2 230 08:28 28.06.2020
6393 Rain 12 990 93 7000 7.7 230 07:50 28.06.2020
6394 Rain 12 989 93 8000 7.7 230 07:30 28.06.2020
6395 Rain 12 989 93 10000 3.6 230 06:44 28.06.2020
6396 Rain 12 989 93 10000 6.7 220 06:24 28.06.2020
6397 Rain 12 989 93 10000 5.7 190 05:26 28.06.2020
6398 Rain 11 990 93 2900 7.2 200 03:33 28.06.2020
6399 Rain 12 991 87 4900 7.7 200 02:40 28.06.2020
6400 Drizzle 12 991 93 3800 5.7 200 01:53 28.06.2020
6401 Drizzle 12 991 93 3600 6.7 200 01:26 28.06.2020
6402 Rain 12 992 93 4200 8.2 200 00:48 28.06.2020
6403 Drizzle 12 992 93 4000 8.7 200 00:24 28.06.2020
6404 Drizzle 12 992 93 3500 6.7 200 23:42 27.06.2020
6405 Haze 12 991 87 4900 7.2 200 23:23 27.06.2020
6406 Rain 13 991 87 10000 6.2 190 22:58 27.06.2020
6407 Rain 14 991 87 10000 6.2 190 22:40 27.06.2020
6408 Rain 14 991 87 10000 5.1 200 22:20 27.06.2020
6409 Rain 15 991 82 10000 5.7 180 21:54 27.06.2020
6410 Rain 15 991 82 10000 5.7 180 21:36 27.06.2020
6411 Rain 15 991 82 10000 5.7 180 21:18 27.06.2020
6412 Rain 16 991 82 10000 4.6 180 20:41 27.06.2020
6413 Rain 16 991 87 10000 3.6 170 20:18 27.06.2020
6414 Rain 17 991 72 10000 5.7 180 19:54 27.06.2020
6415 Rain 17 992 77 10000 4.1 210 19:36 27.06.2020
6416 Rain 17 992 77 10000 4.1 210 19:18 27.06.2020
6417 Rain 18 992 77 10000 5.7 200 18:43 27.06.2020
6418 Rain 18 992 68 10000 5.7 180 18:22 27.06.2020
6419 Rain 17 993 88 10000 3.6 220 17:55 27.06.2020
6420 Rain 17 993 88 10000 3.6 220 17:37 27.06.2020
6421 Rain 18 993 72 10000 4.6 200 17:18 27.06.2020
6422 Rain 19 993 72 10000 5.7 220 16:42 27.06.2020
6423 Rain 18 993 72 10000 5.1 160 16:24 27.06.2020
6424 Rain 18 994 77 10000 5.1 160 15:46 27.06.2020
6425 Rain 18 994 88 10000 3.6 160 15:26 27.06.2020
6426 Rain 17 994 88 10000 3.6 160 15:00 27.06.2020
6427 Rain 17 995 88 10000 3.6 120 14:41 27.06.2020
6428 Rain 16 995 87 10000 3.1 50 14:22 27.06.2020
6429 Rain 16 996 82 4600 4.6 80 13:57 27.06.2020
6430 Rain 17 996 82 4600 4.6 80 13:37 27.06.2020
6431 Clouds 17 996 72 10000 3.6 80 13:19 27.06.2020
6432 Rain 17 997 72 10000 4.1 70 12:43 27.06.2020
6433 Rain 16 997 72 10000 3.1 80 12:22 27.06.2020
6434 Rain 16 998 72 10000 3.1 100 11:59 27.06.2020
6435 Rain 16 998 72 10000 3.1 100 11:40 27.06.2020
6436 Rain 16 998 72 10000 2.1 110 11:22 27.06.2020
6437 Rain 16 998 72 10000 1.5 0 10:42 27.06.2020
6438 Rain 15 999 72 10000 1.5 0 10:20 27.06.2020
6439 Clouds 15 999 77 10000 2.6 110 09:59 27.06.2020
6440 Clouds 15 999 77 10000 2.6 110 09:39 27.06.2020
6441 Clouds 15 1000 77 10000 2.6 110 09:21 27.06.2020
6442 Clouds 14 1000 82 10000 2.1 150 08:44 27.06.2020
6443 Clouds 14 1000 82 10000 1.5 150 08:23 27.06.2020
6444 Clouds 12 1000 87 10000 2.6 220 07:48 27.06.2020
6445 Clouds 12 1000 87 10000 1 0 07:26 27.06.2020
6446 Clouds 12 1001 93 10000 3.1 60 06:52 27.06.2020
6447 Clouds 12 1001 87 10000 0.5 0 06:33 27.06.2020
6448 Clouds 12 1002 87 10000 1.5 0 04:52 27.06.2020
6449 Clouds 12 1003 81 10000 2.6 270 04:18 27.06.2020
6450 Clouds 12 1003 87 10000 2.1 290 03:46 27.06.2020
6451 Clouds 14 1003 82 10000 1 0 02:42 27.06.2020
6452 Clouds 13 1003 87 10000 1.5 0 02:23 27.06.2020
6453 Clouds 15 1004 87 10000 2.6 310 01:28 27.06.2020
6454 Clouds 16 1004 87 10000 2.1 280 00:47 27.06.2020
6455 Clouds 17 1004 88 10000 1.5 280 23:47 26.06.2020
6456 Clouds 18 1004 82 10000 1.5 0 23:27 26.06.2020
6457 Clouds 18 1004 88 10000 1.5 310 22:58 26.06.2020
6458 Clouds 18 1004 88 10000 1.5 310 22:39 26.06.2020
6459 Clouds 18 1004 88 10000 2.1 270 22:21 26.06.2020
6460 Clouds 19 1004 82 10000 3.6 240 21:58 26.06.2020
6461 Clouds 19 1004 82 10000 3.6 240 21:39 26.06.2020
6462 Rain 21 1004 77 10000 4.6 230 21:21 26.06.2020
6463 Clouds 22 1004 77 10000 3.6 200 20:47 26.06.2020
6464 Clouds 22 1003 73 10000 3.6 80 20:27 26.06.2020
6465 Clouds 22 1004 73 10000 3.6 110 19:55 26.06.2020
6466 Clouds 22 1004 73 10000 3.6 80 19:37 26.06.2020
6467 Clouds 22 1004 73 10000 3.6 80 19:18 26.06.2020
6468 Rain 21 1005 77 10000 4.6 70 18:40 26.06.2020
6469 Rain 21 1005 77 10000 4.6 70 18:21 26.06.2020
6470 Clouds 21 1005 77 10000 4.6 70 17:44 26.06.2020
6471 Rain 21 1006 82 10000 4.6 70 17:26 26.06.2020
6472 Rain 19 1006 88 10000 3.6 50 16:55 26.06.2020
6473 Clouds 19 1006 88 10000 3.6 50 16:36 26.06.2020
6474 Clouds 19 1006 88 10000 3.6 50 16:18 26.06.2020
6475 Rain 19 1006 88 10000 2.6 40 15:41 26.06.2020
6476 Rain 19 1007 82 10000 2.6 60 15:21 26.06.2020
6477 Rain 19 1007 82 10000 3.6 70 14:57 26.06.2020
6478 Rain 19 1007 82 10000 3.6 70 14:38 26.06.2020
6479 Clouds 18 1007 88 10000 3.6 70 14:20 26.06.2020
6480 Clouds 18 1007 88 10000 3.6 60 13:44 26.06.2020
6481 Clouds 17 1007 88 10000 3.6 60 13:23 26.06.2020
6482 Rain 17 1007 88 8000 3.1 100 12:56 26.06.2020
6483 Rain 17 1007 88 8000 3.1 100 12:37 26.06.2020
6484 Rain 17 1008 88 8000 5.1 60 12:18 26.06.2020
6485 Rain 16 1008 88 8000 3.1 50 11:55 26.06.2020
6486 Rain 16 1008 88 8000 3.1 50 11:36 26.06.2020
6487 Rain 16 1008 93 7000 3.1 100 11:18 26.06.2020
6488 Drizzle 15 1008 100 4400 4.1 30 10:40 26.06.2020
6489 Rain 15 1010 93 5000 3.1 70 10:20 26.06.2020
6490 Rain 15 1010 93 3600 2.1 70 09:57 26.06.2020
6491 Rain 15 1010 93 3600 2.1 70 09:38 26.06.2020
6492 Rain 15 1010 93 3600 2.1 70 09:38 26.06.2020
6493 Rain 15 1010 93 4300 3.6 100 09:18 26.06.2020
6494 Rain 15 1010 93 6000 3.6 100 08:44 26.06.2020
6495 Rain 15 1010 93 9000 4.1 70 08:25 26.06.2020
6496 Rain 15 1010 93 9000 3.1 80 07:47 26.06.2020
6497 Rain 15 1010 87 9000 2.6 70 07:23 26.06.2020
6498 Rain 15 1010 87 10000 4.6 90 06:49 26.06.2020
6499 Rain 16 1010 87 10000 1.5 0 06:30 26.06.2020
6500 Rain 16 1010 82 10000 2.1 90 05:52 26.06.2020
6501 Clouds 17 1011 77 10000 3.1 70 04:55 26.06.2020
6502 Clouds 18 1011 72 10000 4.1 70 02:29 26.06.2020
6503 Clouds 19 1012 68 10000 5.1 70 01:26 26.06.2020
6504 Clouds 18 1012 72 10000 5.1 70 00:42 26.06.2020
6505 Clouds 20 1012 68 10000 5.1 70 00:22 26.06.2020
6506 Clouds 20 1012 68 10000 4.6 70 23:46 25.06.2020
6507 Clouds 21 1012 68 10000 5.1 60 23:22 25.06.2020
6508 Clouds 21 1012 64 10000 4.6 70 22:57 25.06.2020
6509 Clouds 21 1012 64 10000 4.6 70 22:38 25.06.2020
6510 Clouds 23 1012 60 10000 5.1 70 22:20 25.06.2020
6511 Clouds 24 1012 60 10000 5.1 70 21:57 25.06.2020
6512 Clouds 24 1012 60 10000 5.1 70 21:39 25.06.2020
6513 Rain 24 1012 60 10000 5.7 60 21:20 25.06.2020
6514 Clouds 25 1012 57 10000 4.1 50 20:55 25.06.2020
6515 Clouds 25 1012 57 10000 4.1 50 20:37 25.06.2020
6516 Rain 25 1012 64 10000 5.1 50 20:19 25.06.2020
6517 Rain 25 1012 57 10000 4.6 60 19:41 25.06.2020
6518 Rain 26 1013 54 10000 7.2 70 19:19 25.06.2020
6519 Rain 27 1013 54 10000 7.2 70 18:58 25.06.2020
6520 Rain 27 1013 54 10000 7.2 70 18:38 25.06.2020
6521 Rain 27 1013 54 10000 7.2 60 18:19 25.06.2020
6522 Rain 26 1014 57 10000 6.7 70 17:42 25.06.2020
6523 Clouds 27 1014 57 10000 7.2 60 17:19 25.06.2020
6524 Clouds 27 1014 57 10000 6.7 50 16:57 25.06.2020
6525 Clouds 27 1014 57 10000 6.7 50 16:57 25.06.2020
6526 Clouds 27 1014 57 10000 6.7 50 16:57 25.06.2020
6527 Clouds 27 1014 57 10000 6.7 50 16:37 25.06.2020
6528 Clear 27 1015 57 10000 6.2 50 16:18 25.06.2020
6529 Clear 26 1015 61 10000 6.2 40 15:41 25.06.2020
6530 Clear 26 1016 61 10000 6.7 40 15:21 25.06.2020
6531 Clear 26 1016 65 10000 6.7 70 14:44 25.06.2020
6532 Clouds 24 1017 69 10000 5.7 50 14:25 25.06.2020
6533 Clouds 24 1017 64 10000 5.1 60 13:56 25.06.2020
6534 Clouds 24 1017 64 10000 5.1 60 13:38 25.06.2020
6535 Clouds 24 1017 64 10000 5.1 60 13:38 25.06.2020
6536 Clouds 23 1017 69 10000 4.1 50 13:19 25.06.2020
6537 Clouds 22 1018 68 10000 4.1 70 12:45 25.06.2020
6538 Clouds 19 1018 73 10000 4.1 60 12:21 25.06.2020
6539 Clouds 19 1018 77 10000 4.1 50 11:58 25.06.2020
6540 Clouds 19 1018 77 10000 4.1 50 11:39 25.06.2020
6541 Clouds 18 1018 77 10000 4.1 50 11:20 25.06.2020
6542 Clouds 18 1019 82 10000 4.6 50 10:42 25.06.2020
6543 Rain 17 1019 77 10000 4.1 80 10:23 25.06.2020
6544 Rain 17 1019 82 10000 5.1 70 09:41 25.06.2020
6545 Clouds 17 1019 82 10000 4.6 70 09:23 25.06.2020
6546 Clouds 16 1019 87 10000 3.6 70 08:49 25.06.2020
6547 Rain 15 1019 93 10000 3.1 60 08:21 25.06.2020
6548 Rain 15 1019 93 8000 2.6 60 07:57 25.06.2020
6549 Rain 15 1019 93 8000 2.6 60 07:38 25.06.2020
6550 Rain 15 1019 93 8000 2.6 60 07:38 25.06.2020
6551 Rain 14 1020 100 9000 2.1 40 07:20 25.06.2020
6552 Rain 14 1020 100 10000 1 0 06:30 25.06.2020
6553 Mist 14 1020 93 1300 0.5 0 05:55 25.06.2020
6554 Fog 14 1020 100 700 0.5 0 05:25 25.06.2020
6555 Fog 14 1021 93 750 0.5 250 03:36 25.06.2020
6556 Clouds 14 1021 93 10000 2.1 220 02:44 25.06.2020
6557 Clouds 15 1021 93 10000 1.5 230 02:19 25.06.2020
6558 Clouds 14 1022 93 10000 2.6 250 01:34 25.06.2020
6559 Clouds 15 1022 87 10000 1.5 220 00:47 25.06.2020
6560 Clouds 15 1022 93 10000 1.5 250 00:22 25.06.2020
6561 Clouds 16 1022 82 10000 1 280 23:58 24.06.2020
6562 Clouds 16 1022 82 10000 1 280 23:37 24.06.2020
6563 Clouds 17 1022 77 10000 1.5 290 23:18 24.06.2020
6564 Clouds 17 1022 77 10000 1 0 22:41 24.06.2020
6565 Clouds 18 1021 72 10000 2.6 300 22:20 24.06.2020
6566 Clouds 19 1021 68 10000 2.1 310 21:56 24.06.2020
6567 Clouds 19 1021 68 10000 2.1 310 21:37 24.06.2020
6568 Clouds 19 1021 72 10000 3.1 300 21:19 24.06.2020
6569 Clouds 20 1021 72 10000 3.6 300 20:58 24.06.2020
6570 Clouds 20 1021 72 10000 3.6 300 20:39 24.06.2020
6571 Clouds 21 1021 64 10000 2.6 310 20:20 24.06.2020
6572 Clouds 21 1021 64 10000 2.6 310 19:57 24.06.2020
6573 Clouds 21 1021 64 10000 2.6 310 19:38 24.06.2020
6574 Clouds 21 1021 68 10000 3.1 310 19:18 24.06.2020
6575 Clouds 20 1021 72 10000 3.1 300 18:58 24.06.2020
6576 Clouds 21 1021 72 10000 3.1 300 18:39 24.06.2020
6577 Clouds 21 1021 72 10000 2.1 300 18:39 24.06.2020
6578 Clouds 21 1021 72 10000 2.1 300 18:20 24.06.2020
6579 Clouds 21 1021 72 10000 2.1 300 17:44 24.06.2020
6580 Clouds 21 1021 72 10000 3.1 320 17:21 24.06.2020
6581 Clouds 20 1021 77 10000 4.6 290 17:00 24.06.2020
6582 Clouds 20 1021 77 10000 4.6 290 16:41 24.06.2020
6583 Clouds 21 1021 72 10000 3.6 280 16:23 24.06.2020
6584 Clouds 21 1021 72 10000 5.7 250 15:59 24.06.2020
6585 Clouds 20 1021 72 10000 5.7 250 15:39 24.06.2020
6586 Clouds 20 1021 77 10000 3.6 290 15:20 24.06.2020
6587 Clouds 21 1021 72 10000 5.7 240 14:58 24.06.2020
6588 Clouds 19 1021 72 10000 5.7 240 14:40 24.06.2020
6589 Clouds 19 1021 72 10000 5.7 240 14:40 24.06.2020
6590 Clouds 18 1021 68 10000 6.2 240 14:20 24.06.2020
6591 Clouds 18 1021 68 10000 6.7 240 13:42 24.06.2020
6592 Clouds 18 1020 72 10000 3.6 260 13:21 24.06.2020
6593 Clouds 19 1020 63 10000 3.1 190 12:43 24.06.2020
6594 Clouds 18 1020 68 10000 5.1 220 12:21 24.06.2020
6595 Clouds 18 1020 72 10000 2.1 250 11:57 24.06.2020
6596 Clouds 17 1020 72 10000 2.1 250 11:39 24.06.2020
6597 Clouds 17 1020 77 10000 3.1 240 11:21 24.06.2020
6598 Clouds 17 1020 72 10000 4.6 230 10:45 24.06.2020
6599 Clouds 17 1020 67 10000 3.1 200 10:19 24.06.2020
6600 Clouds 17 1019 67 10000 3.1 220 09:46 24.06.2020
6601 Clouds 17 1019 63 10000 2.6 200 09:24 24.06.2020
6602 Clouds 15 1019 67 10000 2.1 110 08:59 24.06.2020
6603 Clouds 15 1019 67 10000 2.1 110 08:39 24.06.2020
6604 Clouds 16 1019 67 10000 2.1 110 08:18 24.06.2020
6605 Clouds 15 1019 67 10000 2.1 170 07:44 24.06.2020
6606 Clouds 15 1019 72 10000 2.1 190 07:24 24.06.2020
6607 Clouds 15 1019 87 10000 1 0 06:44 24.06.2020
6608 Clouds 14 1019 87 10000 1 0 06:24 24.06.2020
6609 Clouds 14 1019 87 10000 2.1 130 05:38 24.06.2020
6610 Clouds 14 1019 87 10000 3.1 140 04:38 24.06.2020
6611 Clouds 15 1019 82 10000 2.6 120 03:38 24.06.2020
6612 Clouds 15 1019 82 10000 2.1 180 02:54 24.06.2020
6613 Clouds 16 1019 82 10000 3.1 180 02:21 24.06.2020
6614 Rain 16 1019 87 10000 1.5 0 00:52 24.06.2020
6615 Clouds 16 1019 87 10000 2.1 150 00:33 24.06.2020
6616 Clouds 16 1019 87 10000 2.6 140 23:48 23.06.2020
6617 Clouds 16 1019 82 10000 3.1 150 23:21 23.06.2020
6618 Clouds 16 1019 87 10000 3.6 140 22:58 23.06.2020
6619 Clouds 16 1019 87 10000 3.6 140 22:40 23.06.2020
6620 Clouds 16 1019 87 10000 2.1 160 22:18 23.06.2020
6621 Clouds 16 1019 87 10000 3.6 180 21:43 23.06.2020
6622 Clouds 16 1019 82 10000 4.6 170 21:20 23.06.2020
6623 Clouds 16 1019 87 10000 2.1 130 20:57 23.06.2020
6624 Clouds 16 1019 87 10000 3.6 180 20:39 23.06.2020
6625 Clouds 16 1019 87 10000 3.6 180 20:19 23.06.2020
6626 Clouds 16 1019 87 10000 3.6 180 20:19 23.06.2020
6627 Rain 16 1019 87 10000 3.6 180 19:59 23.06.2020
6628 Drizzle 15 1019 93 4600 2.1 120 19:40 23.06.2020
6629 Drizzle 15 1019 93 4600 2.1 120 19:22 23.06.2020
6630 Rain 15 1019 82 5000 1 0 18:38 23.06.2020
6631 Rain 15 1019 82 5000 1 0 18:18 23.06.2020
6632 Rain 15 1019 82 5000 1 0 18:18 23.06.2020
6633 Clouds 15 1019 82 10000 1 250 17:42 23.06.2020
6634 Rain 15 1019 82 10000 2.6 180 17:23 23.06.2020
6635 Rain 15 1019 77 10000 3.1 220 16:57 23.06.2020
6636 Rain 16 1019 77 10000 3.6 200 16:38 23.06.2020
6637 Rain 15 1019 77 10000 3.6 200 16:20 23.06.2020
6638 Clouds 15 1019 77 10000 4.1 210 15:57 23.06.2020
6639 Clouds 16 1019 77 10000 4.1 210 15:38 23.06.2020
6640 Clouds 16 1019 82 10000 4.6 230 15:18 23.06.2020
6641 Clouds 15 1019 77 10000 5.1 200 14:42 23.06.2020
6642 Clouds 16 1019 82 10000 4.6 200 14:19 23.06.2020
6643 Clouds 14 1019 87 10000 3.1 200 13:56 23.06.2020
6644 Rain 15 1018 93 10000 3.6 200 13:38 23.06.2020
6645 Rain 14 1018 93 10000 3.6 200 13:20 23.06.2020
6646 Rain 15 1018 93 10000 3.6 200 12:41 23.06.2020
6647 Rain 14 1018 93 10000 3.6 210 12:22 23.06.2020
6648 Rain 14 1018 93 7000 3.1 220 11:56 23.06.2020
6649 Rain 14 1018 93 7000 3.1 220 11:37 23.06.2020
6650 Drizzle 14 1017 93 3100 1 0 11:19 23.06.2020
6651 Drizzle 14 1017 100 5000 3.1 80 10:55 23.06.2020
6652 Drizzle 14 1017 100 5000 3.1 80 10:37 23.06.2020
6653 Drizzle 14 1017 100 4100 2.1 80 10:19 23.06.2020
6654 Rain 14 1017 93 5000 2.1 100 09:41 23.06.2020
6655 Rain 14 1017 93 7000 2.6 120 09:20 23.06.2020
6656 Rain 14 1017 93 10000 3.1 140 08:47 23.06.2020
6657 Clouds 14 1016 87 10000 2.6 150 08:28 23.06.2020
6658 Rain 14 1016 87 10000 2.6 180 07:59 23.06.2020
6659 Rain 14 1016 87 10000 2.6 180 07:39 23.06.2020
6660 Clouds 14 1016 87 10000 3.1 180 07:21 23.06.2020
6661 Clouds 14 1016 87 10000 3.1 200 06:48 23.06.2020
6662 Rain 13 1016 93 10000 2.6 220 06:30 23.06.2020
6663 Clouds 13 1016 87 10000 3.1 220 05:39 23.06.2020
6664 Clouds 13 1014 93 10000 3.1 240 03:29 23.06.2020
6665 Drizzle 14 1014 93 3800 5.7 210 02:55 23.06.2020
6666 Drizzle 14 1014 93 3800 5.7 210 02:36 23.06.2020
6667 Rain 15 1013 87 4000 7.2 210 01:47 23.06.2020
6668 Clouds 15 1012 82 10000 8.2 190 01:29 23.06.2020
6669 Clouds 15 1012 82 10000 6.7 180 00:56 23.06.2020
6670 Clouds 15 1012 87 10000 7.7 170 00:24 23.06.2020
6671 Clouds 15 1013 87 10000 6.7 170 23:55 22.06.2020
6672 Clouds 15 1013 87 10000 6.7 170 23:55 22.06.2020
6673 Clouds 15 1013 87 10000 6.7 170 23:55 22.06.2020
6674 Clouds 15 1013 87 10000 6.7 170 23:37 22.06.2020
6675 Clouds 15 1012 87 10000 7.7 180 23:19 22.06.2020
6676 Clouds 15 1012 87 10000 6.7 180 22:55 22.06.2020
6677 Clouds 15 1012 87 10000 6.7 180 22:37 22.06.2020
6678 Clouds 15 1012 82 10000 4.6 180 22:19 22.06.2020
6679 Clouds 15 1012 87 10000 3.6 130 21:54 22.06.2020
6680 Drizzle 15 1012 93 5000 4.6 160 21:36 22.06.2020
6681 Drizzle 15 1012 93 5000 4.6 160 21:18 22.06.2020
6682 Rain 15 1012 93 8000 4.6 150 20:41 22.06.2020
6683 Drizzle 16 1013 87 5000 4.6 160 20:22 22.06.2020
6684 Clouds 16 1013 82 10000 8.2 160 19:45 22.06.2020
6685 Clouds 17 1014 82 10000 5.7 170 19:20 22.06.2020
6686 Clouds 17 1014 82 10000 5.7 170 18:59 22.06.2020
6687 Clouds 17 1014 82 10000 5.7 170 18:59 22.06.2020
6688 Rain 17 1014 87 10000 7.7 170 18:39 22.06.2020
6689 Rain 17 1014 87 10000 7.7 170 18:21 22.06.2020
6690 Clouds 17 1014 77 10000 8.7 190 17:56 22.06.2020
6691 Clouds 17 1015 82 10000 7.7 190 17:38 22.06.2020
6692 Clouds 17 1015 82 10000 7.7 190 17:38 22.06.2020
6693 Clouds 15 1015 87 10000 8.7 190 17:19 22.06.2020
6694 Clouds 15 1015 87 10000 8.7 190 17:19 22.06.2020
6695 Clouds 15 1015 87 10000 8.7 190 16:55 22.06.2020
6696 Clouds 15 1015 87 10000 7.7 190 16:37 22.06.2020
6697 Clouds 15 1015 87 10000 7.7 190 16:18 22.06.2020
6698 Rain 14 1015 87 10000 6.2 180 15:42 22.06.2020
6699 Rain 14 1015 87 10000 6.2 180 15:23 22.06.2020
6700 Clouds 14 1015 93 10000 7.2 180 14:54 22.06.2020
6701 Rain 14 1016 87 7000 2.6 200 14:36 22.06.2020
6702 Clouds 13 1016 87 10000 3.1 160 14:18 22.06.2020
6703 Rain 13 1016 87 3200 4.1 180 13:39 22.06.2020
6704 Rain 13 1016 87 3200 4.1 180 13:21 22.06.2020
6705 Drizzle 13 1016 87 4500 7.2 180 12:55 22.06.2020
6706 Drizzle 13 1015 87 5000 5.1 160 12:37 22.06.2020
6707 Drizzle 13 1015 87 5000 5.1 160 12:19 22.06.2020
6708 Clouds 13 1015 76 10000 5.7 170 11:37 22.06.2020
6709 Clouds 14 1015 76 10000 5.7 170 11:19 22.06.2020
6710 Rain 14 1016 76 10000 6.2 160 10:55 22.06.2020
6711 Clouds 14 1016 76 10000 4.6 13